# Wetter Temperatur Luftdruck Luftfeuchtigkeit Sichtweite Windgeschwindigkeit Windrichtung Zeit
1 Clouds 6 1003 81 10000 9.91 280 15:24 01.02.2023
2 Rain 4 1004 77 10000 11.04 280 13:20 01.02.2023
3 Rain 3 1004 87 5000 20.58 290 12:59 01.02.2023
4 Rain 6 1003 76 10000 14.4 270 11:57 01.02.2023
5 Clouds 6 1004 81 10000 12.86 280 09:39 01.02.2023
6 Clouds 5 1005 87 10000 13.89 280 03:18 01.02.2023
7 Clouds 5 1006 81 10000 13.38 290 22:19 31.01.2023
8 Clouds 5 1008 80 10000 10.02 281 20:22 31.01.2023
9 Clouds 4 1006 87 10000 13.38 320 18:59 31.01.2023
10 Rain 4 1005 87 6000 15.43 310 16:34 31.01.2023
11 Clouds 7 1005 87 10000 15.95 280 15:36 31.01.2023
12 Clouds 7 1005 87 10000 15.43 270 15:18 31.01.2023
13 Rain 6 1006 100 2800 14.4 270 12:33 31.01.2023
14 Rain 6 1008 94 10000 10.16 259 11:21 31.01.2023
15 Rain 5 1009 93 10000 12.86 260 09:54 31.01.2023
16 Rain 5 1011 93 10000 8.71 248 09:24 31.01.2023
17 Rain 5 1011 93 10000 8.71 248 08:35 31.01.2023
18 Clouds 4 1014 88 10000 6.76 267 06:20 31.01.2023
19 Clear 3 1014 73 10000 8.38 301 00:25 31.01.2023
20 Clear 4 1013 73 10000 9.02 302 23:23 30.01.2023
21 Clear 4 1012 75 10000 11.83 310 22:43 30.01.2023
22 Clear 4 1012 72 10000 9.67 304 21:30 30.01.2023
23 Clouds 4 1010 75 10000 13.89 310 20:42 30.01.2023
24 Clouds 4 1009 77 10000 11.48 305 18:26 30.01.2023
25 Clouds 6 1005 70 10000 17.49 320 16:58 30.01.2023
26 Clouds 6 1002 87 10000 14.92 320 14:35 30.01.2023
27 Clouds 6 1001 81 10000 14.4 290 13:39 30.01.2023
28 Clouds 5 1002 79 10000 10.73 286 11:30 30.01.2023
29 Rain 4 1001 87 10000 13.89 290 10:19 30.01.2023
30 Clouds 4 1001 87 10000 13.89 290 09:52 30.01.2023
31 Rain 5 1001 81 4700 11.32 270 08:19 30.01.2023
32 Clouds 5 1003 77 10000 8.54 282 04:30 30.01.2023
33 Clouds 6 1005 93 10000 13.89 250 23:35 29.01.2023
34 Clouds 6 1007 87 10000 12.86 250 22:56 29.01.2023
35 Rain 6 1008 90 10000 10.88 244 22:21 29.01.2023
36 Clouds 6 1009 81 10000 12.35 250 20:52 29.01.2023
37 Clouds 6 1010 81 10000 11.32 250 20:19 29.01.2023
38 Clouds 6 1010 81 10000 11.32 250 19:32 29.01.2023
39 Clouds 6 1013 87 10000 10.8 260 17:55 29.01.2023
40 Clouds 6 1014 90 10000 8.35 254 16:22 29.01.2023
41 Clouds 6 1015 87 10000 12.35 270 15:51 29.01.2023
42 Clouds 5 1016 93 10000 10.8 260 13:58 29.01.2023
43 Clouds 6 1018 81 10000 10.29 260 12:59 29.01.2023
44 Clouds 6 1018 81 10000 10.29 260 12:36 29.01.2023
45 Clouds 5 1019 87 10000 9.26 260 12:18 29.01.2023
46 Clouds 5 1019 87 10000 9.26 260 11:36 29.01.2023
47 Clouds 5 1019 93 10000 8.75 260 10:45 29.01.2023
48 Clouds 5 1020 97 10000 5.85 255 08:30 29.01.2023
49 Clouds 4 1022 100 10000 7.2 260 03:43 29.01.2023
50 Clouds 4 1024 100 10000 6.17 270 23:51 28.01.2023
51 Clouds 5 1025 93 10000 5.14 270 20:53 28.01.2023
52 Clouds 5 1025 93 10000 6.17 270 19:56 28.01.2023
53 Clouds 4 1025 100 7000 6.17 250 18:53 28.01.2023
54 Clouds 4 1025 93 10000 5.14 240 17:42 28.01.2023
55 Clouds 4 1025 93 4700 5.14 220 16:41 28.01.2023
56 Clouds 4 1025 93 4700 5.14 220 16:41 28.01.2023
57 Clouds 4 1025 87 10000 4.63 240 16:19 28.01.2023
58 Clouds 4 1025 87 10000 4.63 240 15:36 28.01.2023
59 Clouds 4 1026 81 10000 6.17 250 13:50 28.01.2023
60 Clouds 3 1026 75 10000 4.21 229 12:28 28.01.2023
61 Clouds 1 1028 86 10000 6.17 230 10:35 28.01.2023
62 Clouds -1 1028 93 10000 4.12 240 09:49 28.01.2023
63 Clouds -3 1028 100 10000 3.6 250 04:38 28.01.2023
64 Clouds -3 1029 82 10000 1.72 237 00:30 28.01.2023
65 Clouds -2 1029 93 10000 2.06 260 23:35 27.01.2023
66 Clear -3 1030 83 10000 0.71 100 20:25 27.01.2023
67 Clouds 0 1029 86 10000 3.09 50 17:58 27.01.2023
68 Clouds 0 1029 81 10000 2.16 55 17:21 27.01.2023
69 Clouds 1 1029 75 10000 1.54 50 16:58 27.01.2023
70 Clouds 2 1029 78 10000 2.3 49 16:21 27.01.2023
71 Clouds 3 1029 70 10000 3.11 52 14:28 27.01.2023
72 Clouds 3 1029 75 10000 2.06 120 13:44 27.01.2023
73 Clouds 3 1030 75 10000 3.6 60 11:51 27.01.2023
74 Clear 3 1029 75 10000 2.57 60 08:35 27.01.2023
75 Clouds 4 1027 81 10000 8.23 30 02:36 27.01.2023
76 Clouds 4 1026 87 10000 8.23 40 22:51 26.01.2023
77 Clouds 4 1025 91 10000 5.79 32 21:21 26.01.2023
78 Clouds 4 1025 87 10000 7.2 40 20:34 26.01.2023
79 Clouds 4 1024 94 10000 5.95 29 18:20 26.01.2023
80 Clouds 5 1024 94 10000 5.95 29 17:42 26.01.2023
81 Clouds 4 1022 92 10000 4.35 16 16:27 26.01.2023
82 Clouds 5 1022 87 10000 3.09 340 15:50 26.01.2023
83 Clouds 5 1022 92 10000 4.35 16 15:30 26.01.2023
84 Clouds 5 1022 87 10000 4.63 340 13:58 26.01.2023
85 Clouds 4 1022 93 10000 4.12 350 12:48 26.01.2023
86 Clouds 4 1022 95 10000 2.95 300 11:26 26.01.2023
87 Clear 3 1022 97 10000 2.64 293 10:29 26.01.2023
88 Clear 3 1022 100 1300 3.09 310 09:44 26.01.2023
89 Clouds 3 1022 95 10000 3.02 309 08:25 26.01.2023
90 Clouds 2 1021 99 3968 2.3 279 06:26 26.01.2023
91 Snow 0 1022 100 3000 4.12 220 23:39 25.01.2023
92 Clouds 0 1023 92 10000 5.58 217 22:21 25.01.2023
93 Clouds 0 1023 92 10000 5.46 211 21:24 25.01.2023
94 Clouds 0 1024 93 2300 5.14 210 19:42 25.01.2023
95 Clouds 1 1024 87 10000 5.08 220 18:24 25.01.2023
96 Clouds 1 1024 87 10000 5.08 220 18:24 25.01.2023
97 Clouds 1 1027 93 7000 5.66 240 15:55 25.01.2023
98 Clouds 1 1028 93 7000 6.17 240 13:46 25.01.2023
99 Clouds 1 1031 80 10000 5.48 223 11:25 25.01.2023
100 Clouds 1 1032 86 10000 5.66 240 09:52 25.01.2023
101 Clouds 1 1032 91 10000 4.23 226 08:59 25.01.2023
102 Clear 0 1036 86 10000 4.63 240 01:53 25.01.2023
103 Clear 1 1037 94 10000 3.07 216 00:26 25.01.2023
104 Clear 1 1038 80 10000 3.6 250 21:55 24.01.2023
105 Clear 1 1038 92 10000 2.88 230 21:26 24.01.2023
106 Clear 2 1038 91 10000 2.72 238 19:28 24.01.2023
107 Clear 2 1038 90 10000 2.63 239 18:29 24.01.2023
108 Clear 2 1039 80 10000 2.06 240 17:18 24.01.2023
109 Clear 2 1039 80 10000 2.06 240 16:47 24.01.2023
110 Clear 3 1039 75 10000 3.6 260 13:57 24.01.2023
111 Clouds 2 1040 73 10000 2.51 224 12:21 24.01.2023
112 Clouds 2 1040 80 10000 2.06 250 09:36 24.01.2023
113 Clouds 1 1040 83 10000 1.78 229 08:20 24.01.2023
114 Clouds 2 1040 80 10000 2.57 240 07:49 24.01.2023
115 Clouds 2 1040 80 10000 2.06 190 02:54 24.01.2023
116 Clouds 2 1040 87 10000 1.03 0 00:41 24.01.2023
117 Clouds 2 1040 87 10000 1.54 0 23:34 23.01.2023
118 Clouds 2 1040 93 10000 1.54 170 21:39 23.01.2023
119 Clouds 1 1039 88 10000 1.13 135 19:30 23.01.2023
120 Clouds 2 1039 93 10000 1.03 0 17:32 23.01.2023
121 Clouds 2 1039 93 10000 2.06 160 15:33 23.01.2023
122 Clouds 2 1039 93 10000 1.54 0 13:58 23.01.2023
123 Rain 3 1039 78 10000 1.98 113 13:21 23.01.2023
124 Clouds 3 1039 87 10000 1.03 60 12:44 23.01.2023
125 Clouds 3 1039 87 10000 1.03 60 12:44 23.01.2023
126 Clouds 2 1039 87 10000 2.57 60 11:34 23.01.2023
127 Clouds 1 1038 89 10000 2.73 69 08:25 23.01.2023
128 Clouds 2 1037 80 10000 2.57 70 02:49 23.01.2023
129 Clouds 2 1036 79 10000 3.9 71 23:22 22.01.2023
130 Clouds 2 1037 80 10000 4.12 60 21:33 22.01.2023
131 Clouds 3 1036 75 10000 4.12 60 20:50 22.01.2023
132 Clouds 3 1036 75 10000 4.63 80 19:53 22.01.2023
133 Clouds 2 1035 80 10000 2.57 70 19:19 22.01.2023
134 Clouds 2 1035 87 10000 4.12 70 17:57 22.01.2023
135 Clouds 2 1035 87 10000 4.12 70 17:57 22.01.2023
136 Clouds 1 1035 75 10000 5.33 69 17:26 22.01.2023
137 Clouds 2 1035 87 10000 4.12 50 16:39 22.01.2023
138 Clouds 1 1035 86 10000 6.69 40 14:55 22.01.2023
139 Clouds 1 1035 86 10000 4.63 40 13:49 22.01.2023
140 Clouds 1 1035 80 10000 5.66 40 12:53 22.01.2023
141 Clouds 0 1036 86 10000 4.12 90 11:39 22.01.2023
142 Clouds -1 1035 86 10000 4.63 70 09:55 22.01.2023
143 Clouds -1 1035 86 10000 4.12 70 08:44 22.01.2023
144 Clouds 1 1034 80 10000 5.66 70 02:54 22.01.2023
145 Clouds 1 1035 80 10000 5.66 50 23:42 21.01.2023
146 Clear 2 1035 75 10000 4.63 60 22:47 21.01.2023
147 Clear 1 1035 86 10000 5.14 50 20:48 21.01.2023
148 Clear 1 1034 93 10000 4.63 40 18:49 21.01.2023
149 Clear 3 1034 88 10000 3.02 36 15:26 21.01.2023
150 Clear 4 1034 86 10000 3.43 58 13:31 21.01.2023
151 Clouds 4 1033 70 10000 2.06 70 12:43 21.01.2023
152 Clouds 2 1033 94 10000 3.21 58 11:28 21.01.2023
153 Clouds 2 1032 100 10000 2.06 60 10:47 21.01.2023
154 Clouds 0 1029 100 7000 2.06 20 06:48 21.01.2023
155 Clouds -1 1026 100 8000 2.57 40 01:19 21.01.2023
156 Clouds -2 1025 93 10000 2.95 21 22:27 20.01.2023
157 Clouds -1 1023 100 100 1.03 360 21:36 20.01.2023
158 Clouds 0 1022 93 1300 1.54 10 20:42 20.01.2023
159 Clouds 0 1020 93 10000 2.46 20 18:29 20.01.2023
160 Clouds 3 1017 100 6000 2.06 330 15:47 20.01.2023
161 Clouds 3 1016 93 9000 2.06 280 14:38 20.01.2023
162 Clouds 2 1014 93 10000 1.54 240 12:42 20.01.2023
163 Clouds 1 1012 100 10000 1.54 300 09:37 20.01.2023
164 Snow 0 1010 99 2894 1.93 240 08:22 20.01.2023
165 Snow 2 1005 100 9000 4.63 290 02:34 20.01.2023
166 Clouds 1 1002 93 4800 2.57 200 22:59 19.01.2023
167 Clouds 1 1004 96 10000 2.75 199 22:32 19.01.2023
168 Clouds 1 1002 95 10000 2.76 263 20:22 19.01.2023
169 Clouds 3 1000 87 10000 4.12 240 18:58 19.01.2023
170 Clouds 4 998 87 10000 6.17 260 15:39 19.01.2023
171 Clouds 3 995 87 10000 8.75 260 10:53 19.01.2023
172 Clouds 3 993 93 10000 9.26 260 08:59 19.01.2023
173 Clouds 1 993 86 10000 7.2 170 23:52 18.01.2023
174 Clouds 1 993 80 10000 7.2 170 20:56 18.01.2023
175 Clouds 1 993 80 10000 6.17 170 20:19 18.01.2023
176 Clouds 1 993 80 10000 6.17 170 20:19 18.01.2023
177 Clouds 1 993 80 10000 6.17 170 19:37 18.01.2023
178 Clouds 1 993 86 10000 6.17 180 17:35 18.01.2023
179 Clouds 2 993 84 10000 5.38 204 15:24 18.01.2023
180 Clouds 2 993 82 10000 5.91 201 13:29 18.01.2023
181 Clouds 1 992 85 10000 4.8 197 11:25 18.01.2023
182 Clouds 1 989 100 10000 5.66 200 08:44 18.01.2023
183 Snow 1 986 83 10000 5.7 227 01:28 18.01.2023
184 Snow 1 984 93 10000 7.72 220 23:54 17.01.2023
185 Snow 1 983 93 10000 5.66 210 20:38 17.01.2023
186 Snow 1 983 93 4700 7.2 240 19:34 17.01.2023
187 Snow 1 982 81 10000 7.52 250 18:30 17.01.2023
188 Snow 1 981 100 10000 9.26 260 16:34 17.01.2023
189 Clouds 4 980 65 10000 10.8 260 14:57 17.01.2023
190 Rain 5 979 69 10000 7.85 260 14:22 17.01.2023
191 Clouds 5 979 71 10000 7.71 268 13:27 17.01.2023
192 Clouds 3 979 93 10000 8.23 270 11:44 17.01.2023
193 Rain 2 977 93 10000 12.86 300 09:35 17.01.2023
194 Rain 2 974 99 41 3.55 236 08:20 17.01.2023
195 Snow 1 975 100 10000 3.09 170 05:52 17.01.2023
196 Rain 4 977 87 10000 4.12 150 00:58 17.01.2023
197 Rain 4 977 81 10000 5.66 160 23:50 16.01.2023
198 Clouds 4 978 81 10000 5.14 160 22:19 16.01.2023
199 Clouds 4 979 87 10000 5.66 150 20:49 16.01.2023
200 Rain 4 979 87 10000 6.17 150 19:42 16.01.2023
201 Rain 4 980 87 10000 6.69 140 18:55 16.01.2023
202 Rain 4 981 97 61 6.39 139 18:26 16.01.2023
203 Rain 4 981 93 10000 7.2 140 17:57 16.01.2023
204 Rain 5 982 81 10000 4.63 130 17:19 16.01.2023
205 Clouds 5 985 81 10000 4.63 170 13:40 16.01.2023
206 Clouds 5 988 81 10000 5.14 170 11:58 16.01.2023
207 Clouds 4 990 90 10000 4.34 161 10:21 16.01.2023
208 Clouds 4 990 93 10000 3.6 190 07:36 16.01.2023
209 Clouds 6 991 81 10000 11.32 250 22:43 15.01.2023
210 Clouds 6 990 81 10000 12.86 260 20:50 15.01.2023
211 Clouds 6 990 81 10000 11.13 255 20:25 15.01.2023
212 Clouds 5 987 87 6000 16.98 280 18:56 15.01.2023
213 Clouds 6 987 81 6195 13.29 248 17:23 15.01.2023
214 Clouds 6 985 70 10000 14.4 220 13:44 15.01.2023
215 Clouds 5 988 75 10000 13.56 225 12:19 15.01.2023
216 Clouds 5 989 75 10000 12.65 225 11:28 15.01.2023
217 Clouds 5 989 79 10000 11.8 224 10:21 15.01.2023
218 Clouds 6 988 81 10000 9.26 230 07:45 15.01.2023
219 Rain 7 989 81 10000 13.38 260 23:34 14.01.2023
220 Rain 8 988 93 4200 13.38 270 22:43 14.01.2023
221 Rain 9 987 93 6000 8.75 240 21:36 14.01.2023
222 Rain 9 987 93 6000 8.75 240 21:36 14.01.2023
223 Rain 9 987 100 2800 8.23 220 21:18 14.01.2023
224 Rain 9 987 100 2800 8.23 220 20:42 14.01.2023
225 Rain 8 988 93 3200 9.26 200 20:21 14.01.2023
226 Rain 6 990 100 4200 10.8 170 17:51 14.01.2023
227 Rain 6 995 93 10000 8.23 170 15:38 14.01.2023
228 Rain 6 998 87 10000 9.77 180 15:19 14.01.2023
229 Rain 6 1000 87 10000 7.2 180 14:19 14.01.2023
230 Rain 6 1002 87 10000 7.2 190 12:50 14.01.2023
231 Clouds 6 1005 87 10000 5.66 220 10:50 14.01.2023
232 Clouds 7 1006 87 10000 7.2 230 08:41 14.01.2023
233 Clouds 7 1004 87 10000 10.8 260 02:36 14.01.2023
234 Clouds 7 1000 87 10000 15.43 280 22:59 13.01.2023
235 Clouds 7 1000 87 10000 15.43 280 22:41 13.01.2023
236 Clouds 7 998 87 10000 16.46 280 21:58 13.01.2023
237 Clouds 7 997 93 10000 15.95 270 20:38 13.01.2023
238 Rain 7 997 84 10000 11.09 249 19:28 13.01.2023
239 Clouds 7 995 87 10000 11.32 250 17:42 13.01.2023
240 Clouds 7 995 85 10000 10.36 244 16:22 13.01.2023
241 Rain 7 995 91 10000 11.51 222 12:33 13.01.2023
242 Rain 7 993 87 6000 12.86 230 11:57 13.01.2023
243 Clouds 7 995 90 10000 10.4 224 10:23 13.01.2023
244 Rain 8 993 76 8000 12.86 230 09:44 13.01.2023
245 Clouds 8 993 76 10000 11.32 220 08:52 13.01.2023
246 Clouds 7 994 81 10000 8.75 220 07:43 13.01.2023
247 Clouds 7 994 81 9000 9.77 230 06:49 13.01.2023
248 Clear 7 996 81 10000 8.39 240 03:26 13.01.2023
249 Rain 10 995 93 10000 9.77 240 23:43 12.01.2023
250 Rain 9 995 88 10000 9.56 238 22:31 12.01.2023
251 Clouds 8 996 100 7000 5.66 180 20:55 12.01.2023
252 Clouds 7 997 93 10000 4.12 210 18:53 12.01.2023
253 Clouds 8 998 87 10000 5.14 250 17:33 12.01.2023
254 Clouds 8 998 87 10000 5.14 250 17:33 12.01.2023
255 Clouds 8 997 93 10000 10.8 270 15:54 12.01.2023
256 Clouds 8 996 93 10000 12.86 280 14:44 12.01.2023
257 Clouds 8 996 90 10000 7.54 261 14:22 12.01.2023
258 Clouds 9 993 100 8000 13.89 250 12:45 12.01.2023
259 Rain 7 993 100 3700 8.23 190 10:36 12.01.2023
260 Rain 7 998 93 8449 6.51 192 08:28 12.01.2023
261 Clouds 6 1000 87 10000 8.75 220 01:50 12.01.2023
262 Rain 7 1001 87 9000 7.2 200 23:59 11.01.2023
263 Rain 7 1001 87 9000 7.2 200 23:40 11.01.2023
264 Rain 7 1004 86 10000 8.92 204 23:21 11.01.2023
265 Clouds 7 1003 81 10000 8.75 220 21:46 11.01.2023
266 Clouds 7 1005 90 10000 7.73 224 20:26 11.01.2023
267 Clouds 8 1004 81 10000 7.72 240 18:39 11.01.2023
268 Clouds 8 1004 87 10000 6.69 240 16:49 11.01.2023
269 Clouds 8 1005 87 10000 6.39 240 15:20 11.01.2023
270 Clouds 9 1003 81 10000 8.75 250 13:44 11.01.2023
271 Clouds 8 1003 87 10000 6.17 250 11:55 11.01.2023
272 Clouds 8 1003 93 10000 6.17 250 10:43 11.01.2023
273 Clouds 8 1001 94 10000 6.71 247 08:20 11.01.2023
274 Clouds 9 1001 94 10000 8.91 236 07:25 11.01.2023
275 Clouds 6 1003 91 10000 10.8 185 01:25 11.01.2023
276 Rain 5 1005 93 7000 9.77 180 22:46 10.01.2023
277 Rain 6 1007 87 10000 8.75 190 21:34 10.01.2023
278 Clouds 6 1008 87 10000 7.72 190 20:43 10.01.2023
279 Clouds 6 1009 87 10000 8.23 180 19:40 10.01.2023
280 Clouds 6 1010 87 10000 6.69 190 18:48 10.01.2023
281 Clouds 6 1011 87 10000 5.66 190 17:59 10.01.2023
282 Clouds 6 1011 87 10000 5.14 210 16:42 10.01.2023
283 Clouds 7 1012 88 10000 6 211 15:31 10.01.2023
284 Clouds 7 1013 85 10000 6.55 226 14:32 10.01.2023
285 Clouds 7 1012 91 10000 6.4 223 12:25 10.01.2023
286 Clear 5 1011 93 10000 3.59 212 09:29 10.01.2023
287 Clear 5 1011 93 10000 3.59 212 08:30 10.01.2023
288 Clouds 4 1009 95 10000 3.42 229 07:28 10.01.2023
289 Clouds 5 1007 87 10000 5.14 250 04:55 10.01.2023
290 Clouds 6 1002 93 9000 5.14 230 23:50 09.01.2023
291 Clouds 6 1001 93 10000 4.12 210 21:53 09.01.2023
292 Clouds 6 1000 93 10000 4.12 210 20:46 09.01.2023
293 Clouds 6 999 87 10000 3.09 210 19:41 09.01.2023
294 Clouds 6 998 87 10000 3.09 230 17:55 09.01.2023
295 Clouds 6 998 85 10000 3.69 239 17:31 09.01.2023
296 Clouds 6 998 84 10000 4.32 237 16:33 09.01.2023
297 Clouds 6 997 85 10000 4.88 233 15:30 09.01.2023
298 Clouds 6 995 87 10000 4.12 240 14:53 09.01.2023
299 Clouds 6 995 93 10000 7.2 250 13:50 09.01.2023
300 Clouds 7 995 87 10000 4.63 240 12:49 09.01.2023
301 Clouds 6 994 93 10000 5.14 230 11:45 09.01.2023
302 Clouds 5 994 100 10000 5.14 200 11:19 09.01.2023
303 Rain 6 992 93 9000 5.66 200 06:53 09.01.2023
304 Clouds 4 993 100 10000 6.69 170 02:55 09.01.2023
305 Clouds 5 994 93 10000 6.17 170 00:50 09.01.2023
306 Clouds 6 996 87 10000 5.66 180 21:43 08.01.2023
307 Clouds 5 997 95 10000 4.4 169 21:20 08.01.2023
308 Clouds 5 997 95 10000 4.4 169 20:33 08.01.2023
309 Clouds 6 997 93 10000 4.63 180 17:59 08.01.2023
310 Clouds 6 999 92 10000 4.8 196 17:21 08.01.2023
311 Clouds 7 997 87 10000 3.6 180 16:37 08.01.2023
312 Clouds 8 998 87 10000 4.12 220 15:34 08.01.2023
313 Clear 9 998 87 10000 6.17 210 13:58 08.01.2023
314 Clear 9 1000 83 10000 6.56 212 13:30 08.01.2023
315 Rain 8 999 93 10000 4.63 200 12:43 08.01.2023
316 Clouds 8 1000 81 10000 4.63 190 09:55 08.01.2023
317 Clouds 8 1000 81 10000 4.63 190 09:35 08.01.2023
318 Clouds 8 1000 87 10000 5.66 190 07:47 08.01.2023
319 Clouds 8 1003 81 10000 7.2 180 23:59 07.01.2023
320 Rain 8 1003 81 10000 7.2 180 22:47 07.01.2023
321 Rain 8 1004 85 10000 6.99 173 22:24 07.01.2023
322 Clouds 8 1004 81 10000 8.23 180 21:47 07.01.2023
323 Clouds 8 1005 87 10000 7.72 180 20:43 07.01.2023
324 Clouds 8 1006 85 10000 6.93 175 20:22 07.01.2023
325 Clouds 9 1006 87 10000 6.17 170 18:33 07.01.2023
326 Clouds 10 1007 81 10000 5.14 180 17:50 07.01.2023
327 Clouds 10 1008 92 10000 5.08 167 17:28 07.01.2023
328 Clouds 10 1007 87 10000 5.66 180 16:37 07.01.2023
329 Clouds 10 1008 87 10000 5.66 190 15:49 07.01.2023
330 Clouds 10 1009 86 10000 5.44 194 15:26 07.01.2023
331 Clouds 10 1010 86 10000 6.76 207 14:28 07.01.2023
332 Clouds 10 1010 86 10000 6.76 207 13:54 07.01.2023
333 Clouds 10 1010 91 10000 6.02 199 13:26 07.01.2023
334 Clouds 10 1011 93 10000 5.48 199 12:23 07.01.2023
335 Clouds 10 1010 93 10000 4.63 210 11:51 07.01.2023
336 Clouds 10 1011 96 10000 5.27 208 10:25 07.01.2023
337 Rain 9 1011 93 4300 5.66 200 08:38 07.01.2023
338 Rain 8 1011 93 3100 5.66 180 07:45 07.01.2023
339 Rain 7 1011 93 5000 5.66 190 07:19 07.01.2023
340 Clouds 7 1012 87 10000 5.66 200 04:49 07.01.2023
341 Clouds 8 1013 87 10000 6.69 240 22:38 06.01.2023
342 Clouds 8 1013 87 10000 6.69 240 22:19 06.01.2023
343 Clouds 7 1014 94 10000 5.13 235 21:27 06.01.2023
344 Clouds 8 1012 81 10000 8.23 260 19:58 06.01.2023
345 Clouds 8 1012 81 10000 8.23 260 19:40 06.01.2023
346 Clouds 7 1013 90 10000 6.17 245 19:22 06.01.2023
347 Clouds 7 1012 93 10000 7.2 250 18:43 06.01.2023
348 Clouds 7 1013 87 10000 6.99 251 17:23 06.01.2023
349 Clouds 7 1011 87 10000 9.26 260 16:36 06.01.2023
350 Clouds 8 1011 87 10000 10.8 260 15:57 06.01.2023
351 Clouds 8 1011 87 10000 10.8 260 15:39 06.01.2023
352 Clouds 8 1011 87 10000 12.35 260 14:54 06.01.2023
353 Clouds 8 1009 87 10000 10.8 270 12:42 06.01.2023
354 Clouds 9 1007 93 10000 11.83 240 10:59 06.01.2023
355 Rain 9 1008 93 10000 9.42 214 09:27 06.01.2023
356 Rain 9 1009 100 7000 6.69 210 07:46 06.01.2023
357 Clouds 5 1015 93 10000 6.17 150 01:45 06.01.2023
358 Clouds 4 1017 87 10000 3.6 130 22:55 05.01.2023
359 Clouds 4 1017 87 10000 3.09 130 21:54 05.01.2023
360 Clouds 3 1017 100 10000 2.06 120 19:46 05.01.2023
361 Clouds 3 1018 84 10000 1.54 299 17:28 05.01.2023
362 Clouds 4 1017 81 10000 2.56 310 16:28 05.01.2023
363 Clouds 5 1016 75 10000 4.63 320 15:47 05.01.2023
364 Clouds 5 1015 75 10000 7.2 320 14:51 05.01.2023
365 Clouds 5 1014 75 10000 10.29 320 12:44 05.01.2023
366 Clouds 5 1013 75 10000 9.77 310 11:54 05.01.2023
367 Clouds 4 1010 81 10000 11.32 300 09:55 05.01.2023
368 Clouds 4 1008 87 10000 11.32 320 08:41 05.01.2023
369 Clouds 7 1007 86 10000 9.12 309 07:20 05.01.2023
370 Clouds 8 1004 81 10000 18.01 280 06:35 05.01.2023
371 Clouds 8 1002 89 10000 11.19 266 23:26 04.01.2023
372 Rain 9 1001 92 6329 10.98 260 21:33 04.01.2023
373 Rain 9 1000 93 8000 13.89 270 20:55 04.01.2023
374 Rain 9 1001 93 8000 14.92 260 19:57 04.01.2023
375 Clouds 10 1002 89 10000 10.3 255 19:33 04.01.2023
376 Clouds 9 1001 93 10000 15.43 260 18:37 04.01.2023
377 Rain 10 1002 90 10000 10.19 250 16:32 04.01.2023
378 Rain 10 1001 93 10000 15.43 260 15:56 04.01.2023
379 Clouds 10 1002 93 10000 15.95 260 14:47 04.01.2023
380 Rain 10 1003 93 10000 14.4 260 11:45 04.01.2023
381 Rain 10 1004 96 7754 9.27 239 11:22 04.01.2023
382 Clouds 10 1003 93 10000 12.35 250 10:43 04.01.2023
383 Rain 9 1004 96 10000 9.27 242 10:23 04.01.2023
384 Rain 9 1004 93 2000 10.29 220 08:58 04.01.2023
385 Rain 6 1008 100 9000 8.75 190 05:37 04.01.2023
386 Rain 6 1017 93 4900 6.69 170 00:39 04.01.2023
387 Rain 6 1018 93 5000 6.69 180 23:36 03.01.2023
388 Rain 6 1020 93 6000 6.17 180 22:55 03.01.2023
389 Clouds 5 1022 95 10000 5.24 177 21:21 03.01.2023
390 Clouds 4 1023 81 10000 6.69 180 19:51 03.01.2023
391 Clouds 3 1023 92 10000 3.86 177 18:21 03.01.2023
392 Clear 4 1024 75 10000 3.6 200 16:39 03.01.2023
393 Clear 7 1024 65 10000 6.17 250 13:59 03.01.2023
394 Clear 6 1024 81 10000 4.47 226 13:32 03.01.2023
395 Clear 6 1024 81 10000 4.47 226 13:32 03.01.2023
396 Clear 6 1024 81 10000 4.47 226 13:32 03.01.2023
397 Clear 6 1024 81 10000 4.47 226 13:32 03.01.2023
398 Clear 7 1024 70 10000 4.63 250 12:58 03.01.2023
399 Clear 5 1024 79 10000 4.89 233 12:31 03.01.2023
400 Clear 6 1024 81 10000 4.12 240 11:41 03.01.2023
401 Clear 6 1024 81 10000 4.12 240 11:41 03.01.2023
402 Clear 3 1023 93 10000 3.67 236 08:23 03.01.2023
403 Clear 4 1021 86 10000 5.3 259 04:26 03.01.2023
404 Clear 5 1020 87 10000 6.69 260 03:46 03.01.2023
405 Clear 5 1021 82 10000 5.56 257 03:26 03.01.2023
406 Clouds 6 1016 87 10000 8.75 270 23:19 02.01.2023
407 Clouds 6 1017 85 10000 7.17 260 22:26 02.01.2023
408 Clouds 7 1014 87 10000 8.75 260 20:51 02.01.2023
409 Clouds 6 1015 88 10000 7.66 261 20:26 02.01.2023
410 Clouds 7 1013 93 10000 9.26 260 18:40 02.01.2023
411 Clouds 7 1011 100 3800 7.2 270 15:43 02.01.2023
412 Clouds 7 1009 100 10000 6.69 290 13:51 02.01.2023
413 Clouds 8 1007 100 9000 5.66 320 12:19 02.01.2023
414 Clouds 9 1006 93 5000 7.2 260 10:57 02.01.2023
415 Clouds 10 1006 100 4800 5.14 220 08:38 02.01.2023
416 Rain 9 1009 93 10000 3.6 160 04:38 02.01.2023
417 Clouds 10 1012 81 10000 5.66 230 23:18 01.01.2023
418 Clouds 9 1012 87 10000 6.17 220 21:46 01.01.2023
419 Clouds 9 1012 87 10000 8.23 230 20:49 01.01.2023
420 Clouds 9 1012 87 10000 7.2 250 20:18 01.01.2023
421 Clouds 10 1011 81 10000 7.72 240 18:52 01.01.2023
422 Clouds 9 1012 89 10000 8.37 243 17:24 01.01.2023
423 Clouds 10 1010 81 10000 10.29 250 16:49 01.01.2023
424 Clouds 9 1011 88 10000 9.2 241 15:31 01.01.2023
425 Clouds 10 1008 81 10000 10.29 250 13:49 01.01.2023
426 Clouds 10 1008 81 10000 10.29 250 12:57 01.01.2023
427 Clouds 10 1007 87 10000 12.35 250 11:41 01.01.2023
428 Clouds 10 1008 86 10000 11.34 241 11:21 01.01.2023
429 Clouds 11 1005 87 7000 13.38 250 09:35 01.01.2023
430 Clouds 11 1003 91 10000 9.71 235 08:25 01.01.2023
431 Clouds 11 1003 82 10000 12.86 250 07:57 01.01.2023
432 Clouds 11 1002 93 10000 13.38 250 06:46 01.01.2023
433 Rain 12 1000 94 8000 11.32 240 23:47 31.12.2022
434 Rain 11 1001 91 10000 10.7 235 23:26 31.12.2022
435 Rain 11 1001 92 8538 11.19 235 22:29 31.12.2022
436 Rain 10 1001 96 6690 8.24 227 21:24 31.12.2022
437 Rain 10 1001 96 6690 8.24 227 20:31 31.12.2022
438 Rain 10 1000 100 7000 10.29 250 18:57 31.12.2022
439 Rain 10 1000 100 7000 10.29 250 18:38 31.12.2022
440 Rain 11 1000 93 10000 14.4 260 17:57 31.12.2022
441 Rain 11 1000 93 10000 14.4 260 17:34 31.12.2022
442 Clouds 11 1000 94 10000 9.83 244 16:32 31.12.2022
443 Clouds 11 999 93 10000 11.83 250 15:37 31.12.2022
444 Clouds 10 998 93 2900 6.69 210 14:34 31.12.2022
445 Rain 9 999 97 8688 3.56 223 13:27 31.12.2022
446 Rain 9 1001 92 10000 5.18 208 12:24 31.12.2022
447 Rain 10 999 93 10000 8.23 240 11:56 31.12.2022
448 Rain 10 999 93 10000 8.23 240 11:38 31.12.2022
449 Rain 10 999 93 10000 8.23 240 11:38 31.12.2022
450 Rain 10 1000 93 10000 6.17 240 10:18 31.12.2022
451 Rain 10 1000 93 10000 6.17 240 09:50 31.12.2022
452 Clouds 10 999 87 10000 5.66 230 08:39 31.12.2022
453 Clouds 9 998 87 10000 8.23 240 05:40 31.12.2022
454 Clouds 11 996 87 10000 13.38 250 00:34 31.12.2022
455 Clouds 10 995 87 10000 12.33 238 23:27 30.12.2022
456 Clouds 8 993 93 4300 11.32 200 22:19 30.12.2022
457 Clouds 8 993 93 4300 11.32 200 21:39 30.12.2022
458 Clouds 8 994 88 10000 11.82 191 21:21 30.12.2022
459 Rain 7 996 76 10000 9.26 170 18:51 30.12.2022
460 Clouds 7 998 76 10000 9.77 170 17:35 30.12.2022
461 Clouds 7 999 76 10000 9.26 180 16:50 30.12.2022
462 Clouds 6 1002 87 10000 7.72 180 15:18 30.12.2022
463 Clouds 6 1005 85 10000 7.4 191 13:29 30.12.2022
464 Clouds 6 1005 87 10000 7.72 240 08:39 30.12.2022
465 Clouds 7 1003 81 10000 10.8 250 04:54 30.12.2022
466 Clouds 7 1002 86 10000 9.42 241 02:28 30.12.2022
467 Clouds 7 999 87 10000 8.75 240 23:46 29.12.2022
468 Clouds 7 1001 86 10000 8.53 231 22:37 29.12.2022
469 Clouds 7 1000 85 10000 8.51 228 21:29 29.12.2022
470 Clouds 8 999 87 10000 10.29 240 20:53 29.12.2022
471 Clouds 7 1000 88 10000 8.59 229 19:31 29.12.2022
472 Clouds 8 998 87 10000 8.75 240 17:56 29.12.2022
473 Clouds 7 998 87 10000 8.16 242 17:27 29.12.2022
474 Clouds 8 997 87 10000 10.8 250 16:55 29.12.2022
475 Clouds 8 996 93 10000 10.8 250 15:58 29.12.2022
476 Rain 9 994 87 10000 10.8 230 13:55 29.12.2022
477 Clouds 9 994 81 9000 10.29 230 12:34 29.12.2022
478 Clouds 9 995 81 10000 11.16 229 10:27 29.12.2022
479 Rain 10 992 93 7000 8.23 210 06:57 29.12.2022
480 Rain 8 998 90 10000 8.84 192 23:29 28.12.2022
481 Clouds 8 999 91 10000 8.66 200 22:25 28.12.2022
482 Rain 8 1000 91 10000 9.33 208 21:20 28.12.2022
483 Rain 8 1000 93 10000 7.72 210 20:20 28.12.2022
484 Rain 8 1001 93 10000 9.77 220 18:52 28.12.2022
485 Clouds 8 1002 87 2500 5.14 230 16:41 28.12.2022
486 Clouds 7 1004 89 10000 6.86 235 14:28 28.12.2022
487 Clouds 8 1003 87 10000 7.72 250 12:49 28.12.2022
488 Clouds 7 1003 100 10000 9.77 250 11:51 28.12.2022
489 Clouds 7 1003 93 10000 8.75 230 10:35 28.12.2022
490 Rain 6 1004 93 2600 9.77 220 07:49 28.12.2022
491 Rain 5 1004 93 7000 9.26 210 06:48 28.12.2022
492 Rain 5 1008 93 10000 9.26 220 03:43 28.12.2022
493 Clouds 5 1015 94 10000 6.93 199 23:22 27.12.2022
494 Clouds 4 1016 93 10000 5.66 220 19:53 27.12.2022
495 Clouds 3 1017 89 10000 4.96 219 19:20 27.12.2022
496 Clouds 3 1018 81 10000 4.96 237 17:20 27.12.2022
497 Clouds 4 1017 87 10000 6.17 250 16:35 27.12.2022
498 Clouds 4 1018 70 10000 6.72 257 15:22 27.12.2022
499 Clouds 4 1017 75 10000 6.42 268 12:28 27.12.2022
500 Clouds 3 1016 87 10000 5.66 260 10:37 27.12.2022
501 Clouds 3 1016 87 10000 5.66 300 09:45 27.12.2022
502 Clouds 2 1015 81 10000 5.98 275 09:22 27.12.2022
503 Rain 3 1012 93 10000 6.17 260 06:48 27.12.2022
504 Clouds 4 1011 81 10000 9.77 250 00:43 27.12.2022
505 Clouds 4 1011 76 10000 7.38 259 22:20 26.12.2022
506 Clouds 5 1009 75 10000 11.32 270 20:46 26.12.2022
507 Clouds 4 1010 77 10000 7.8 262 20:24 26.12.2022
508 Clouds 5 1008 75 10000 9.26 270 18:43 26.12.2022
509 Clouds 5 1008 75 10000 8.44 282 17:26 26.12.2022
510 Clouds 6 1005 87 10000 14.92 290 15:44 26.12.2022
511 Clouds 8 1004 87 10000 9.25 223 13:20 26.12.2022
512 Clouds 9 1004 87 10000 7.2 240 11:46 26.12.2022
513 Clouds 7 1005 100 8000 3.6 230 06:42 26.12.2022
514 Rain 5 1007 100 1400 0 0 23:46 25.12.2022
515 Rain 7 1008 97 10000 1.47 318 23:22 25.12.2022
516 Rain 7 1008 98 10000 1.03 359 22:26 25.12.2022
517 Rain 7 1008 100 3200 1.03 140 20:41 25.12.2022
518 Clouds 7 1009 97 10000 2.1 156 18:32 25.12.2022
519 Clouds 7 1010 100 5000 5.14 170 17:51 25.12.2022
520 Clouds 7 1010 100 5000 5.14 170 17:33 25.12.2022
521 Clouds 7 1011 100 2600 3.09 190 15:19 25.12.2022
522 Clouds 7 1012 100 4300 5.14 190 11:50 25.12.2022
523 Clouds 6 1013 96 10000 3.67 178 06:21 25.12.2022
524 Clouds 6 1012 99 5444 3.8 226 23:26 24.12.2022
525 Clouds 5 1011 99 4206 3.32 229 21:25 24.12.2022
526 Clouds 4 1010 93 6000 5.14 140 17:59 24.12.2022
527 Clouds 4 1011 98 1801 3.11 128 16:32 24.12.2022
528 Clouds 4 1009 93 10000 3.09 130 14:48 24.12.2022
529 Rain 4 1009 93 10000 1.54 120 12:42 24.12.2022
530 Rain 3 1008 100 10000 3.6 120 10:39 24.12.2022
531 Clouds 2 1009 97 2932 3.39 127 10:20 24.12.2022
532 Rain 3 1008 93 10000 3.6 110 09:36 24.12.2022
533 Snow 2 1006 100 10000 3.6 110 05:46 24.12.2022
534 Snow 2 1006 100 10000 3.6 110 05:46 24.12.2022
535 Clouds 1 1006 91 10000 3.78 78 02:20 24.12.2022
536 Clouds -1 1004 100 7000 2.06 90 23:35 23.12.2022
537 Clouds -1 1004 100 9000 2.06 80 21:58 23.12.2022
538 Clouds -1 1004 100 10000 2.57 80 20:40 23.12.2022
539 Clouds -1 1004 100 10000 2.06 70 19:39 23.12.2022
540 Clouds -1 1004 81 10000 2.76 71 19:21 23.12.2022
541 Clouds -1 1004 100 10000 2.06 70 18:39 23.12.2022
542 Clouds -1 1004 100 10000 1.03 70 18:19 23.12.2022
543 Clouds 2 1004 93 10000 1.03 70 16:33 23.12.2022
544 Clear 6 1004 70 10000 2.06 10 14:51 23.12.2022
545 Clear 5 1004 87 10000 3.09 290 11:42 23.12.2022
546 Clouds 4 1003 100 10000 3.6 280 09:37 23.12.2022
547 Clouds 5 1002 93 10000 2.06 260 07:55 23.12.2022
548 Clouds 5 1001 100 8000 3.6 310 06:52 23.12.2022
549 Clouds 5 1001 100 5000 4.12 260 05:45 23.12.2022
550 Clouds 6 1001 92 10000 5.06 238 23:22 22.12.2022
551 Clouds 6 1000 100 10000 5.66 240 22:35 22.12.2022
552 Clouds 6 1001 94 10000 5.7 237 21:20 22.12.2022
553 Rain 7 1000 93 10000 6.07 243 19:24 22.12.2022
554 Clouds 7 1000 93 10000 8.23 240 18:40 22.12.2022
555 Clouds 7 1001 92 10000 6.54 245 17:23 22.12.2022
556 Clouds 7 1000 93 10000 5.66 240 16:38 22.12.2022
557 Clouds 7 1001 92 10000 6.32 243 15:33 22.12.2022
558 Clouds 8 999 87 10000 5.14 240 14:51 22.12.2022
559 Clouds 7 1000 90 10000 6.07 244 13:33 22.12.2022
560 Clouds 7 1000 87 10000 5.66 240 12:46 22.12.2022
561 Clouds 7 1000 93 10000 4.63 230 10:44 22.12.2022
562 Clouds 6 1000 96 10000 3.88 219 10:22 22.12.2022
563 Clouds 6 1000 98 10000 3.68 210 09:20 22.12.2022
564 Clouds 6 1000 98 10000 3.68 205 08:26 22.12.2022
565 Clouds 6 1001 97 10000 3.93 203 05:27 22.12.2022
566 Clouds 7 1001 93 7000 5.66 230 04:18 22.12.2022
567 Clouds 7 1003 93 7000 5.14 230 23:50 21.12.2022
568 Clouds 7 1004 93 6000 6.17 240 21:58 21.12.2022
569 Clouds 6 1004 93 10000 6.41 223 21:23 21.12.2022
570 Clouds 7 1004 93 8000 8.23 240 20:50 21.12.2022
571 Clouds 7 1004 93 5000 7.2 220 20:18 21.12.2022
572 Clouds 7 1004 93 5000 7.2 220 19:43 21.12.2022
573 Rain 6 1005 92 10000 6.06 207 19:23 21.12.2022
574 Rain 6 1004 100 7000 6.17 200 18:45 21.12.2022
575 Clouds 6 1004 100 8000 5.66 200 17:36 21.12.2022
576 Clouds 5 1006 93 2700 3.6 220 14:41 21.12.2022
577 Clouds 5 1007 94 10000 4.51 210 13:26 21.12.2022
578 Clouds 4 1007 100 4300 2.57 220 11:46 21.12.2022
579 Clouds 5 1007 100 1300 2.57 230 11:19 21.12.2022
580 Clouds 5 1007 100 1200 5.14 220 09:36 21.12.2022
581 Clouds 6 1007 100 5000 4.12 210 07:38 21.12.2022
582 Clouds 5 1008 97 10000 3.43 231 02:28 21.12.2022
583 Clouds 8 1007 93 10000 6.17 260 22:56 20.12.2022
584 Clouds 8 1007 98 9108 5.11 238 21:22 20.12.2022
585 Clouds 8 1007 98 1740 5.92 238 20:23 20.12.2022
586 Clouds 9 1006 100 6000 9.26 250 19:40 20.12.2022
587 Clouds 10 1006 93 10000 7.72 240 18:37 20.12.2022
588 Clouds 10 1005 93 4100 7.72 230 18:19 20.12.2022
589 Clouds 10 1005 93 4100 7.72 230 17:46 20.12.2022
590 Clouds 10 1006 93 3600 8.23 220 16:35 20.12.2022
591 Rain 9 1007 95 10000 7.62 217 15:30 20.12.2022
592 Rain 10 1006 93 4000 7.72 210 14:48 20.12.2022
593 Rain 9 1007 91 10000 7.99 211 14:28 20.12.2022
594 Clouds 10 1007 93 5000 6.17 210 12:58 20.12.2022
595 Clouds 8 1008 95 10000 7.47 209 12:28 20.12.2022
596 Clouds 8 1008 95 10000 7.47 209 11:33 20.12.2022
597 Clouds 8 1008 100 10000 7.2 200 08:48 20.12.2022
598 Clouds 8 1009 93 4200 7.2 220 03:40 20.12.2022
599 Clouds 7 1010 100 10000 8.75 220 22:42 19.12.2022
600 Clouds 7 1010 100 10000 7.72 220 21:56 19.12.2022
601 Rain 5 1009 100 7000 8.23 200 19:58 19.12.2022
602 Rain 5 1009 100 7000 8.23 200 19:39 19.12.2022
603 Rain 5 1010 99 114 7.18 207 18:33 19.12.2022
604 Clouds 4 1011 100 2700 5.66 200 16:52 19.12.2022
605 Clouds 3 1011 93 2600 7.2 190 13:41 19.12.2022
606 Snow 1 1013 100 184 7.29 193 12:21 19.12.2022
607 Snow 2 1013 93 6000 6.69 180 10:55 19.12.2022
608 Clouds 0 1015 86 10000 6.69 160 07:44 19.12.2022
609 Clouds -3 1019 80 10000 4.63 160 03:42 19.12.2022
610 Clouds -3 1022 74 10000 5.14 150 22:40 18.12.2022
611 Clouds -3 1023 74 10000 6.17 150 21:46 18.12.2022
612 Clouds -3 1024 82 10000 5.15 148 21:23 18.12.2022
613 Clouds -3 1024 82 10000 5.15 148 20:33 18.12.2022
614 Clouds -4 1025 74 10000 7.2 140 19:42 18.12.2022
615 Clouds -4 1026 74 10000 5.66 140 18:39 18.12.2022
616 Clouds -4 1026 80 10000 6.17 170 17:49 18.12.2022
617 Clouds -3 1027 74 10000 3.09 170 15:41 18.12.2022
618 Clouds -3 1027 74 10000 3.09 170 15:41 18.12.2022
619 Clouds -4 1028 87 10000 3.12 174 15:20 18.12.2022
620 Clouds -5 1028 85 10000 3.51 180 14:21 18.12.2022
621 Clouds -4 1028 74 10000 3.6 200 12:57 18.12.2022
622 Clouds -5 1029 85 10000 4.29 187 12:31 18.12.2022
623 Clouds -5 1029 89 10000 4.38 192 11:22 18.12.2022
624 Clouds -4 1028 92 10000 4.39 192 09:23 18.12.2022
625 Clouds -6 1028 93 10000 3.09 200 08:45 18.12.2022
626 Clouds -4 1027 91 10000 5.47 199 06:24 18.12.2022
627 Clouds -4 1027 91 10000 6.03 203 04:20 18.12.2022
628 Clouds -5 1026 86 10000 8.23 200 01:49 18.12.2022
629 Clouds -4 1026 96 10000 5.25 186 22:29 17.12.2022
630 Clouds -4 1025 93 4000 4.12 210 20:35 17.12.2022
631 Clouds -3 1024 100 3100 4.63 220 17:20 17.12.2022
632 Clouds -3 1023 100 1300 4.12 220 15:19 17.12.2022
633 Clouds -2 1023 93 1600 4.12 210 13:18 17.12.2022
634 Clouds -1 1023 93 4000 3.6 210 11:18 17.12.2022
635 Clouds -1 1023 93 4000 3.6 210 10:39 17.12.2022
636 Clouds -2 1022 100 5000 4.63 210 08:36 17.12.2022
637 Clouds -2 1021 100 3200 4.12 210 06:47 17.12.2022
638 Clouds -3 1020 93 5000 2.06 200 02:19 17.12.2022
639 Clouds -9 1020 92 10000 1.54 0 22:34 16.12.2022
640 Clouds -1 1020 100 4428 2.13 187 20:26 16.12.2022
641 Clouds -6 1018 93 10000 3.09 150 17:49 16.12.2022
642 Clear 1 1017 93 10000 1.43 83 15:28 16.12.2022
643 Clear 0 1016 74 10000 1.54 120 14:36 16.12.2022
644 Clouds 2 1016 64 10000 1.03 0 12:38 16.12.2022
645 Clouds -1 1016 74 10000 1.03 90 11:55 16.12.2022
646 Clouds -5 1015 93 10000 2.57 80 09:40 16.12.2022
647 Clouds -5 1014 93 10000 3.09 60 08:39 16.12.2022
648 Clouds -4 1013 93 10000 4.12 50 07:54 16.12.2022
649 Clouds -2 1011 80 10000 2.57 70 02:43 16.12.2022
650 Clouds 0 1010 80 10000 4.12 80 22:33 15.12.2022
651 Clouds 0 1010 85 10000 4.49 51 21:30 15.12.2022
652 Clouds 0 1008 100 7000 1.54 110 19:46 15.12.2022
653 Clouds 0 1007 100 5000 1.54 110 18:54 15.12.2022
654 Clouds 0 1007 94 10000 3.66 63 17:28 15.12.2022
655 Clouds 0 1006 100 3300 2.06 110 15:47 15.12.2022
656 Clouds 0 1005 100 6000 1.54 130 14:57 15.12.2022
657 Clouds -1 1005 93 7000 2.06 110 12:55 15.12.2022
658 Clouds -2 1005 95 10000 2.35 40 12:24 15.12.2022
659 Clouds -3 1003 100 3800 2.57 140 08:59 15.12.2022
660 Clouds -3 1003 100 3800 2.57 140 08:33 15.12.2022
661 Clouds -2 1001 93 8000 1.54 220 05:45 15.12.2022
662 Snow -3 1001 94 10000 3.4 206 02:25 15.12.2022
663 Snow -3 1001 94 553 4.55 204 21:24 14.12.2022
664 Clouds -3 1000 74 10000 5.66 210 20:51 14.12.2022
665 Clouds -4 1000 74 10000 2.06 220 19:59 14.12.2022
666 Clouds -2 1000 59 10000 7.2 200 17:52 14.12.2022
667 Clouds -2 1000 59 10000 6.17 200 16:56 14.12.2022
668 Clouds -2 1001 89 10000 3.94 198 15:30 14.12.2022
669 Clouds -2 1002 89 10000 4.39 204 13:31 14.12.2022
670 Snow -3 1003 89 10000 4.72 203 11:20 14.12.2022
671 Snow -3 1003 89 10000 4.72 203 11:20 14.12.2022
672 Snow -2 1003 90 10000 4.9 203 10:25 14.12.2022
673 Clouds -4 1003 86 6000 4.12 270 08:48 14.12.2022
674 Clouds -2 1005 93 1600 7.2 210 22:46 13.12.2022
675 Clouds -2 1006 93 6000 5.66 200 21:46 13.12.2022
676 Clouds -2 1007 100 3500 3.6 240 20:48 13.12.2022
677 Clouds -2 1006 100 3100 5.14 210 19:51 13.12.2022
678 Snow -1 1007 93 5000 4.63 190 16:50 13.12.2022
679 Clouds -1 1008 86 7000 3.09 200 15:34 13.12.2022
680 Clouds -1 1009 80 10000 3.6 200 14:19 13.12.2022
681 Clouds -2 1011 86 10000 2.57 170 10:55 13.12.2022
682 Clouds -2 1011 86 10000 2.57 170 10:35 13.12.2022
683 Clouds -2 1011 97 3412 2.42 142 09:23 13.12.2022
684 Snow -2 1012 93 10000 2.57 150 22:55 12.12.2022
685 Snow -3 1013 95 3083 1.78 105 22:21 12.12.2022
686 Clouds -2 1012 93 10000 3.09 160 20:51 12.12.2022
687 Snow -3 1013 96 270 0.94 121 18:32 12.12.2022
688 Clouds -1 1013 92 10000 2 150 16:35 12.12.2022
689 Clouds -1 1013 92 10000 0.92 118 15:21 12.12.2022
690 Clouds -2 1012 100 8000 1.54 130 11:50 12.12.2022
691 Clouds -4 1012 100 8000 1.54 50 09:19 12.12.2022
692 Clouds -7 1011 93 7000 0 0 04:54 12.12.2022
693 Clouds -6 1011 93 8000 0.51 290 01:53 12.12.2022
694 Clouds -6 1011 93 6000 1.54 140 22:53 11.12.2022
695 Clouds -6 1011 100 6000 1.03 120 20:42 11.12.2022
696 Clouds -4 1011 93 10000 1.03 160 19:42 11.12.2022
697 Clouds -4 1011 93 10000 1.54 150 18:56 11.12.2022
698 Clouds -4 1011 93 10000 1.54 140 18:18 11.12.2022
699 Clouds -4 1011 94 10000 1.28 138 17:29 11.12.2022
700 Clouds -3 1011 86 10000 1.03 160 16:52 11.12.2022
701 Clouds -2 1010 74 10000 1.54 210 15:46 11.12.2022
702 Clouds -2 1010 74 10000 1.54 210 15:46 11.12.2022
703 Clouds -1 1010 69 10000 1.54 220 14:50 11.12.2022
704 Clouds -2 1011 74 10000 2.06 190 12:44 11.12.2022
705 Clouds -3 1011 80 10000 3.09 170 11:53 11.12.2022
706 Clouds -4 1012 95 10000 2.42 150 08:25 11.12.2022
707 Clouds -5 1011 93 10000 2.06 250 00:34 11.12.2022
708 Clouds -4 1013 95 10000 2.69 150 23:20 10.12.2022
709 Clouds -3 1013 95 10000 2.69 150 22:33 10.12.2022
710 Clouds -2 1012 80 10000 3.09 180 21:19 10.12.2022
711 Clouds -2 1012 80 10000 3.09 180 20:35 10.12.2022
712 Clouds -1 1011 74 10000 4.63 150 18:49 10.12.2022
713 Clouds -1 1011 80 10000 2.57 160 16:57 10.12.2022
714 Clouds -2 1012 90 10000 1.93 141 16:33 10.12.2022
715 Clouds -1 1011 80 10000 2.57 170 15:38 10.12.2022
716 Clouds -1 1011 80 10000 1.54 0 14:48 10.12.2022
717 Clouds -1 1010 80 10000 3.6 170 12:54 10.12.2022
718 Clouds -1 1010 86 10000 2.06 140 11:37 10.12.2022
719 Clouds -1 1010 86 10000 2.06 140 10:43 10.12.2022
720 Clouds -1 1009 86 10000 3.6 170 09:18 10.12.2022
721 Clouds -1 1010 99 3028 2.92 155 07:20 10.12.2022
722 Clouds -1 1007 100 3300 3.6 200 00:52 10.12.2022
723 Clouds -1 1007 100 5000 3.09 220 23:19 09.12.2022
724 Clouds -1 1007 100 5000 3.09 220 22:40 09.12.2022
725 Clouds 0 1007 94 10000 4.33 169 21:26 09.12.2022
726 Clouds -1 1006 100 4100 2.06 200 20:42 09.12.2022
727 Clouds 0 1006 87 10000 3.47 184 19:28 09.12.2022
728 Clouds 1 1005 93 10000 6.17 180 17:55 09.12.2022
729 Clouds 1 1005 92 10000 3.23 190 16:32 09.12.2022
730 Clouds 1 1004 93 10000 4.12 200 15:45 09.12.2022
731 Clouds 1 1004 93 9000 4.63 190 15:18 09.12.2022
732 Clouds 0 1005 93 10000 5.66 210 11:36 09.12.2022
733 Clouds 0 1005 100 7000 5.66 210 10:37 09.12.2022
734 Snow 1 1004 96 7828 5.87 191 09:25 09.12.2022
735 Clouds -2 1006 96 10000 3.53 188 03:33 09.12.2022
736 Clouds -2 1005 93 9000 3.09 210 00:56 09.12.2022
737 Clouds -3 1006 95 10000 2.96 191 22:32 08.12.2022
738 Clouds -4 1005 100 800 2.57 210 20:51 08.12.2022
739 Clouds -3 1005 100 7000 2.06 240 18:18 08.12.2022
740 Clouds 0 1005 93 10000 1.03 320 15:44 08.12.2022
741 Clouds 1 1006 86 10000 1.23 347 14:27 08.12.2022
742 Clouds 1 1006 86 10000 1.23 347 14:27 08.12.2022
743 Clouds 2 1004 80 10000 1.03 130 11:33 08.12.2022
744 Clouds 0 1006 81 10000 1.51 63 10:22 08.12.2022
745 Clouds -2 1005 85 10000 1.94 50 09:27 08.12.2022
746 Clouds 0 1004 93 6000 2.06 90 02:56 08.12.2022
747 Snow -1 1007 93 10000 1.54 190 22:19 07.12.2022
748 Snow -1 1007 93 10000 1.54 190 21:50 07.12.2022
749 Snow -1 1008 74 10000 1.98 161 21:31 07.12.2022
750 Clouds -1 1008 86 10000 2.06 290 19:47 07.12.2022
751 Clouds 0 1009 86 10000 4.12 320 17:41 07.12.2022
752 Clouds 2 1009 75 10000 7.72 330 14:41 07.12.2022
753 Clouds 2 1009 75 10000 9.77 320 12:38 07.12.2022
754 Clouds 1 1009 80 10000 7.72 320 10:44 07.12.2022
755 Clouds 1 1009 86 10000 6.69 310 09:56 07.12.2022
756 Clouds 1 1009 86 10000 6.69 320 08:51 07.12.2022
757 Clouds 1 1009 100 10000 6.69 300 06:49 07.12.2022
758 Clouds 0 1010 79 10000 4.79 309 05:23 07.12.2022
759 Clouds 0 1011 100 10000 0.51 0 23:44 06.12.2022
760 Clouds 1 1012 82 10000 3.11 193 21:24 06.12.2022
761 Snow 2 1014 80 10000 2.06 250 18:35 06.12.2022
762 Clouds 2 1015 75 10000 3.09 300 17:18 06.12.2022
763 Clouds 1 1015 80 10000 2.34 297 16:21 06.12.2022
764 Clouds 3 1014 65 10000 3.09 300 15:35 06.12.2022
765 Clouds 3 1015 77 10000 2.29 304 14:34 06.12.2022
766 Clouds 4 1015 65 10000 3.6 320 13:39 06.12.2022
767 Clouds 4 1015 65 10000 3.6 320 13:39 06.12.2022
768 Clouds 3 1016 75 10000 4.63 340 12:40 06.12.2022
769 Clouds 3 1017 81 10000 4.63 350 11:34 06.12.2022
770 Clouds 3 1017 93 10000 5.14 340 07:49 06.12.2022
771 Clouds 3 1019 90 10000 4.89 1 02:26 06.12.2022
772 Clouds 4 1019 93 10000 8.23 20 22:48 05.12.2022
773 Clouds 5 1019 93 8000 6.17 30 21:39 05.12.2022
774 Clouds 5 1019 87 10000 6.69 40 20:51 05.12.2022
775 Clouds 5 1019 87 10000 7.2 40 19:53 05.12.2022
776 Clouds 5 1019 87 10000 7.2 40 19:34 05.12.2022
777 Clouds 5 1019 87 10000 6.17 40 16:51 05.12.2022
778 Clouds 5 1021 95 10000 5.98 35 15:29 05.12.2022
779 Clouds 5 1020 87 10000 7.72 40 13:52 05.12.2022
780 Clouds 5 1021 87 10000 6.17 50 12:57 05.12.2022
781 Clouds 5 1021 87 10000 6.17 50 12:38 05.12.2022
782 Clouds 5 1021 87 10000 6.17 50 11:40 05.12.2022
783 Clouds 5 1022 95 10000 7.27 46 08:32 05.12.2022
784 Clouds 4 1023 93 10000 4.63 70 00:18 05.12.2022
785 Clouds 4 1023 93 10000 4.63 60 22:44 04.12.2022
786 Clouds 4 1023 93 10000 5.66 70 22:18 04.12.2022
787 Clouds 4 1024 95 10000 6.94 52 21:32 04.12.2022
788 Clouds 4 1023 93 10000 6.89 52 20:20 04.12.2022
789 Clouds 4 1023 92 10000 6.93 55 19:23 04.12.2022
790 Clouds 4 1023 93 10000 4.12 60 18:35 04.12.2022
791 Clouds 4 1023 92 10000 7.09 56 17:22 04.12.2022
792 Clouds 3 1023 100 10000 5.14 70 16:36 04.12.2022
793 Clouds 4 1023 93 10000 3.6 60 16:18 04.12.2022
794 Clouds 4 1023 91 10000 6.87 58 15:27 04.12.2022
795 Clouds 4 1023 91 10000 6.87 58 14:32 04.12.2022
796 Clouds 4 1024 87 10000 4.63 70 12:51 04.12.2022
797 Clouds 4 1023 90 10000 5.9 67 12:33 04.12.2022
798 Clouds 4 1024 93 10000 4.63 70 11:35 04.12.2022
799 Clouds 3 1023 87 10000 4.12 90 07:59 04.12.2022
800 Clouds 3 1023 81 10000 4.63 90 02:51 04.12.2022
801 Clouds 3 1023 93 10000 5.14 60 23:44 03.12.2022
802 Clouds 3 1023 93 10000 5.14 70 22:46 03.12.2022
803 Clouds 3 1024 93 10000 5.66 80 21:52 03.12.2022
804 Clouds 3 1024 87 10000 5.14 70 20:46 03.12.2022
805 Clouds 3 1024 87 10000 4.12 70 18:57 03.12.2022
806 Clouds 3 1023 95 3051 6.7 68 18:31 03.12.2022
807 Clouds 3 1024 87 10000 4.12 70 15:52 03.12.2022
808 Clouds 2 1025 100 10000 5.66 70 13:46 03.12.2022
809 Clouds 2 1026 100 10000 4.63 70 12:51 03.12.2022
810 Clouds 2 1026 93 10000 4.12 70 12:18 03.12.2022
811 Rain 2 1027 93 10000 4.63 60 09:46 03.12.2022
812 Rain 4 1028 75 10000 5.14 60 04:18 03.12.2022
813 Rain 4 1030 90 10000 7.06 57 00:23 03.12.2022
814 Clouds 5 1029 87 10000 5.14 60 22:19 02.12.2022
815 Clouds 5 1029 87 10000 5.14 60 20:53 02.12.2022
816 Clouds 4 1029 93 10000 4.12 60 18:18 02.12.2022
817 Clouds 3 1029 93 10000 3.6 90 15:58 02.12.2022
818 Clouds 4 1029 93 10000 3.6 70 14:38 02.12.2022
819 Clouds 4 1029 93 10000 4.63 80 14:19 02.12.2022
820 Clouds 4 1029 93 10000 4.12 70 12:51 02.12.2022
821 Clouds 5 1029 95 4356 3.54 71 11:31 02.12.2022
822 Clouds 4 1028 93 10000 4.63 70 08:35 02.12.2022
823 Clouds 4 1028 91 10000 4.62 64 07:23 02.12.2022
824 Clouds 5 1029 87 10000 2.57 60 22:54 01.12.2022
825 Clouds 5 1029 87 10000 2.57 60 22:54 01.12.2022
826 Clouds 5 1029 87 8000 3.6 60 21:44 01.12.2022
827 Clouds 4 1030 90 10000 1.99 71 21:22 01.12.2022
828 Clouds 5 1030 89 10000 2.26 57 19:22 01.12.2022
829 Clouds 5 1029 93 8000 2.57 70 17:46 01.12.2022
830 Clouds 5 1029 93 10000 3.09 60 15:38 01.12.2022
831 Clouds 5 1030 93 9000 2.57 50 11:37 01.12.2022
832 Clouds 5 1030 93 7000 2.57 70 09:55 01.12.2022
833 Clouds 5 1030 93 7000 2.57 70 09:37 01.12.2022
834 Clouds 4 1029 100 5000 3.09 60 08:18 01.12.2022
835 Clouds 5 1028 93 6000 4.12 50 23:59 30.11.2022
836 Clouds 5 1028 87 10000 3.6 50 22:35 30.11.2022
837 Clouds 5 1028 87 10000 3.6 50 21:19 30.11.2022
838 Clouds 5 1028 95 10000 4.48 64 20:25 30.11.2022
839 Clouds 5 1027 87 10000 3.09 70 19:36 30.11.2022
840 Clouds 5 1027 95 10000 4.59 71 18:33 30.11.2022
841 Clouds 5 1027 87 10000 3.6 50 17:36 30.11.2022
842 Clouds 6 1026 81 10000 3.09 60 15:49 30.11.2022
843 Clouds 6 1026 91 10000 4.36 78 14:27 30.11.2022
844 Clouds 6 1026 81 10000 3.09 60 13:39 30.11.2022
845 Clouds 5 1026 87 10000 3.68 87 10:30 30.11.2022
846 Clouds 5 1025 81 10000 2.57 100 08:39 30.11.2022
847 Clouds 5 1025 81 10000 3.09 100 07:56 30.11.2022
848 Clouds 5 1023 81 10000 3.09 120 23:36 29.11.2022
849 Clouds 5 1023 81 10000 4.12 120 22:49 29.11.2022
850 Clouds 5 1022 85 10000 3.4 111 21:26 29.11.2022
851 Clouds 6 1022 81 10000 5.14 120 20:37 29.11.2022
852 Clouds 5 1021 93 7000 4.12 120 18:59 29.11.2022
853 Clouds 6 1020 87 9000 5.66 110 17:18 29.11.2022
854 Clouds 5 1021 85 10000 5.02 99 16:25 29.11.2022
855 Clouds 6 1020 87 10000 4.63 130 14:50 29.11.2022
856 Clouds 6 1020 90 10000 5.01 101 13:20 29.11.2022
857 Clouds 5 1019 93 9000 4.12 120 11:57 29.11.2022
858 Clouds 5 1019 93 10000 5.14 120 11:18 29.11.2022
859 Clouds 5 1018 93 10000 4.63 120 09:47 29.11.2022
860 Clouds 5 1018 93 9000 3.6 120 08:42 29.11.2022
861 Rain 5 1015 92 10000 5.23 112 01:30 29.11.2022
862 Rain 5 1015 93 5000 4.12 130 23:35 28.11.2022
863 Rain 5 1015 93 5000 4.12 130 22:53 28.11.2022
864 Rain 5 1014 93 5000 3.6 130 21:44 28.11.2022
865 Rain 5 1015 92 10000 5.09 125 21:21 28.11.2022
866 Rain 4 1014 100 10000 4.63 140 19:41 28.11.2022
867 Rain 5 1014 86 10000 4.86 130 18:30 28.11.2022
868 Rain 5 1013 93 10000 5.14 140 17:51 28.11.2022
869 Rain 5 1013 93 10000 4.12 140 16:35 28.11.2022
870 Rain 5 1013 92 10000 5.75 140 14:28 28.11.2022
871 Rain 5 1012 87 10000 6.17 150 13:52 28.11.2022
872 Rain 6 1012 81 10000 6.69 160 12:42 28.11.2022
873 Clouds 6 1013 86 10000 7.33 133 10:29 28.11.2022
874 Rain 6 1012 81 10000 6.69 160 07:53 28.11.2022
875 Clouds 6 1012 87 10000 5.66 130 04:45 28.11.2022
876 Rain 6 1013 87 10000 4.63 140 03:59 28.11.2022
877 Rain 5 1013 93 10000 4.63 140 03:19 28.11.2022
878 Rain 5 1016 93 10000 4.63 160 22:53 27.11.2022
879 Clouds 5 1016 93 10000 4.63 170 21:43 27.11.2022
880 Rain 5 1017 93 10000 5.14 160 20:36 27.11.2022
881 Rain 5 1019 87 10000 3.6 160 17:59 27.11.2022
882 Rain 5 1019 87 10000 3.6 170 15:35 27.11.2022
883 Clouds 5 1020 93 10000 3.6 160 13:33 27.11.2022
884 Clouds 5 1022 93 10000 4.12 170 10:57 27.11.2022
885 Clouds 5 1023 93 10000 5.66 170 08:47 27.11.2022
886 Clouds 7 1024 100 4500 4.63 190 04:47 27.11.2022
887 Clouds 7 1026 100 2600 2.57 200 22:39 26.11.2022
888 Clouds 6 1026 100 2300 2.06 200 20:56 26.11.2022
889 Clouds 6 1026 100 4900 2.57 190 19:37 26.11.2022
890 Clouds 7 1026 99 10000 3.3 198 18:26 26.11.2022
891 Clouds 8 1026 97 10000 3.33 200 16:25 26.11.2022
892 Clouds 9 1026 100 10000 2.57 240 13:55 26.11.2022
893 Clouds 9 1026 100 9000 2.57 230 12:40 26.11.2022
894 Clouds 7 1025 100 2500 2.57 240 10:52 26.11.2022
895 Clouds 5 1025 94 10000 2.85 216 09:32 26.11.2022
896 Clear 4 1024 92 10000 2.83 221 07:21 26.11.2022
897 Clouds 7 1018 100 5000 3.6 240 22:18 25.11.2022
898 Clouds 7 1019 94 10000 2.63 262 21:30 25.11.2022
899 Clouds 7 1016 100 5000 3.09 200 19:57 25.11.2022
900 Clouds 7 1014 100 4700 1.54 210 16:50 25.11.2022
901 Clouds 6 1013 100 10000 2.57 180 14:45 25.11.2022
902 Rain 6 1013 85 10000 5.19 164 09:44 25.11.2022
903 Clouds 5 1011 93 10000 6.17 150 08:42 25.11.2022
904 Clouds 4 1011 100 4400 5.66 150 06:55 25.11.2022
905 Clouds 4 1012 93 10000 5.4 152 06:31 25.11.2022
906 Clouds 6 1012 92 10000 3.76 163 00:29 25.11.2022
907 Clouds 7 1011 93 10000 5.14 170 22:57 24.11.2022
908 Clouds 8 1011 87 10000 4.63 190 21:59 24.11.2022
909 Clouds 8 1011 93 10000 5.66 180 20:58 24.11.2022
910 Clouds 7 1011 90 10000 3.28 167 19:20 24.11.2022
911 Clouds 7 1010 100 9000 3.6 170 17:43 24.11.2022
912 Clouds 6 1010 93 10000 3.25 176 17:21 24.11.2022
913 Clouds 7 1009 93 10000 2.57 200 16:19 24.11.2022
914 Clouds 7 1008 93 10000 3.62 188 14:22 24.11.2022
915 Clouds 7 1008 93 10000 3.62 188 14:22 24.11.2022
916 Clouds 7 1008 95 10000 4.12 186 12:20 24.11.2022
917 Clouds 7 1006 93 7000 2.06 180 10:37 24.11.2022
918 Clouds 6 1004 100 10000 3.6 180 08:18 24.11.2022
919 Clouds 5 1002 100 10000 6.17 180 03:38 24.11.2022
920 Clouds 5 1001 93 10000 6.69 150 23:47 23.11.2022
921 Clouds 5 1001 93 10000 6.69 150 22:45 23.11.2022
922 Clouds 6 1001 93 10000 6.17 160 21:43 23.11.2022
923 Clouds 6 1000 93 10000 6.17 160 20:49 23.11.2022
924 Clouds 6 1001 96 10000 4.9 143 19:31 23.11.2022
925 Clouds 6 1000 93 10000 6.69 150 18:42 23.11.2022
926 Clouds 7 1000 96 10000 4.78 146 17:29 23.11.2022
927 Clouds 6 999 93 10000 5.66 160 13:41 23.11.2022
928 Clouds 6 1000 95 10000 4.8 155 13:21 23.11.2022
929 Rain 5 1000 96 10000 5.01 158 12:22 23.11.2022
930 Clouds 5 999 93 10000 6.17 160 11:44 23.11.2022
931 Clouds 5 999 93 8000 6.69 160 10:45 23.11.2022
932 Clouds 4 998 100 10000 6.17 150 09:45 23.11.2022
933 Clouds 4 999 97 10000 4.86 138 09:26 23.11.2022
934 Clouds 4 998 93 8000 5.66 150 08:57 23.11.2022
935 Clouds 4 999 97 10000 4.86 138 08:30 23.11.2022
936 Clouds 3 998 93 8000 5.14 140 05:19 23.11.2022
937 Clouds 2 999 93 6000 5.66 140 23:58 22.11.2022
938 Clouds 2 999 93 8000 4.63 140 22:37 22.11.2022
939 Clouds 2 999 93 7000 4.12 130 21:34 22.11.2022
940 Clouds 2 999 93 9000 5.14 150 20:51 22.11.2022
941 Clouds 2 999 97 10000 4.67 129 20:30 22.11.2022
942 Clouds 2 998 93 10000 4.12 140 19:44 22.11.2022
943 Clouds 2 998 93 10000 6.69 140 17:48 22.11.2022
944 Clouds 2 997 93 9000 6.17 150 16:38 22.11.2022
945 Clouds 2 998 95 10000 4.92 135 14:31 22.11.2022
946 Snow 2 998 95 10000 5.9 135 12:30 22.11.2022
947 Rain 3 998 86 10000 6.97 125 09:28 22.11.2022
948 Rain 3 998 86 10000 6.97 125 09:28 22.11.2022
949 Rain 2 997 93 10000 6.17 130 07:59 22.11.2022
950 Snow 1 997 93 10000 5.66 130 06:43 22.11.2022
951 Clouds -1 1000 86 10000 3.96 122 00:23 22.11.2022
952 Clouds -1 999 86 10000 5.14 160 22:52 21.11.2022
953 Clouds 0 1000 90 10000 3.26 136 22:23 21.11.2022
954 Clouds 0 1000 90 10000 3.26 136 21:31 21.11.2022
955 Clouds 1 1000 93 10000 3.17 135 20:31 21.11.2022
956 Clouds 1 999 80 10000 5.66 170 19:39 21.11.2022
957 Clouds 2 999 80 10000 5.66 180 18:52 21.11.2022
958 Clouds 2 1001 96 10000 2.55 135 17:32 21.11.2022
959 Clouds 2 1000 87 10000 4.63 190 16:43 21.11.2022
960 Clouds 3 1000 87 10000 3.09 190 15:58 21.11.2022
961 Clouds 2 1002 91 10000 1.2 206 15:23 21.11.2022
962 Clouds 2 1000 93 10000 3.6 210 13:54 21.11.2022
963 Clouds 2 1001 93 10000 4.12 210 13:18 21.11.2022
964 Clouds 1 1001 93 10000 4.12 230 09:43 21.11.2022
965 Snow 1 1001 80 10000 4.63 230 07:52 21.11.2022
966 Snow 1 1001 80 10000 4.63 230 07:52 21.11.2022
967 Clouds -1 1005 86 10000 5.66 330 00:50 21.11.2022
968 Clouds 0 1006 86 10000 4.12 10 21:47 20.11.2022
969 Clouds 0 1006 93 10000 4.12 350 20:48 20.11.2022
970 Clouds -2 1008 76 10000 1.92 11 19:21 20.11.2022
971 Clouds -1 1007 86 10000 4.12 10 17:43 20.11.2022
972 Clouds 2 1008 56 10000 3.6 40 15:50 20.11.2022
973 Clear 2 1009 73 10000 2.33 41 15:24 20.11.2022
974 Clear 3 1009 71 10000 3.3 45 14:25 20.11.2022
975 Clear 3 1009 71 10000 3.3 45 13:32 20.11.2022
976 Clear 3 1009 71 10000 3.3 45 13:32 20.11.2022
977 Clear 3 1009 71 10000 3.3 45 13:32 20.11.2022
978 Clouds 3 1010 75 10000 4.46 44 12:23 20.11.2022
979 Clouds 2 1010 80 10000 3.09 80 10:58 20.11.2022
980 Clouds 1 1010 86 10000 3.6 80 09:47 20.11.2022
981 Clouds 0 1010 93 10000 4.12 60 08:55 20.11.2022
982 Clouds 0 1010 88 10000 4.08 23 08:32 20.11.2022
983 Clouds 0 1010 90 10000 4.4 32 07:28 20.11.2022
984 Clouds 1 1012 95 6664 3.71 340 01:30 20.11.2022
985 Clouds 2 1011 80 10000 6.69 10 00:58 20.11.2022
986 Clouds 2 1011 80 10000 6.69 10 00:39 20.11.2022
987 Clouds 1 1013 93 8550 3.91 341 00:20 20.11.2022
988 Clouds 2 1012 87 10000 5.14 360 23:47 19.11.2022
989 Clouds 1 1013 84 10000 3.82 335 23:20 19.11.2022
990 Clouds 2 1013 79 10000 3.8 340 22:20 19.11.2022
991 Clouds 1 1013 74 10000 3.7 343 21:28 19.11.2022
992 Clouds 2 1013 87 10000 6.17 350 20:42 19.11.2022
993 Clouds 2 1013 87 10000 6.17 350 20:42 19.11.2022
994 Clouds 2 1013 76 10000 4.47 358 20:22 19.11.2022
995 Clouds 3 1013 75 10000 7.2 350 18:54 19.11.2022
996 Clouds 3 1013 70 10000 7.72 350 17:39 19.11.2022
997 Clouds 3 1014 70 10000 7.72 10 17:19 19.11.2022
998 Clouds 3 1014 73 10000 4.91 357 15:34 19.11.2022
999 Clouds 5 1014 65 10000 7.2 30 13:36 19.11.2022
1000 Clouds 3 1016 81 10000 5.66 10 11:57 19.11.2022
1001 Clouds 2 1016 93 10000 4.12 360 10:19 19.11.2022
1002 Clouds 1 1016 93 10000 3.09 20 08:36 19.11.2022
1003 Clouds 1 1016 86 10000 3.6 70 04:46 19.11.2022
1004 Clouds 3 1015 81 10000 4.12 60 01:52 19.11.2022
1005 Clouds 3 1015 72 10000 7.11 68 23:37 18.11.2022
1006 Clouds 3 1015 72 10000 7.11 68 23:37 18.11.2022
1007 Clouds 3 1015 72 10000 7.11 68 23:37 18.11.2022
1008 Clouds 3 1015 72 10000 7.11 68 23:37 18.11.2022
1009 Clouds 4 1014 81 10000 5.66 100 22:34 18.11.2022
1010 Clouds 4 1014 70 10000 6.17 80 21:37 18.11.2022
1011 Clouds 4 1013 70 10000 6.69 90 20:59 18.11.2022
1012 Clouds 4 1013 65 10000 8.13 87 20:25 18.11.2022
1013 Clouds 4 1013 75 10000 6.69 90 19:44 18.11.2022
1014 Clouds 4 1012 59 10000 8.19 94 18:23 18.11.2022
1015 Clouds 4 1011 87 10000 4.12 130 16:41 18.11.2022
1016 Clouds 5 1009 70 10000 7.72 130 13:40 18.11.2022
1017 Clouds 5 1009 67 10000 8.72 115 11:24 18.11.2022
1018 Clear 5 1007 61 10000 8.52 113 08:24 18.11.2022
1019 Clear 4 1006 75 10000 9.77 130 07:40 18.11.2022
1020 Clouds 5 1004 75 10000 9.26 130 05:18 18.11.2022
1021 Clouds 4 1003 81 10000 9.26 120 00:42 18.11.2022
1022 Clouds 5 1002 73 10000 10.38 113 21:26 17.11.2022
1023 Clouds 4 1001 81 10000 10.8 120 20:45 17.11.2022
1024 Clouds 5 1001 75 10000 9.26 120 19:50 17.11.2022
1025 Clouds 5 1000 75 10000 10.29 120 18:35 17.11.2022
1026 Clouds 5 1000 75 10000 10.29 120 17:32 17.11.2022
1027 Clouds 5 1000 75 10000 10.8 120 16:48 17.11.2022
1028 Clouds 4 1000 81 10000 11.83 120 13:33 17.11.2022
1029 Clouds 5 1001 71 10000 12.31 111 11:21 17.11.2022
1030 Clouds 5 1002 72 10000 12 112 08:23 17.11.2022
1031 Clouds 6 1002 70 10000 9.77 120 03:51 17.11.2022
1032 Clouds 6 1006 74 10000 10.27 116 00:21 17.11.2022
1033 Clouds 7 1006 73 10000 10.36 113 22:29 16.11.2022
1034 Clouds 7 1005 70 10000 10.29 130 20:36 16.11.2022
1035 Clouds 8 1005 71 10000 9.77 130 19:49 16.11.2022
1036 Clouds 8 1005 76 10000 10.29 120 18:43 16.11.2022
1037 Clouds 8 1005 85 10000 9.08 115 17:20 16.11.2022
1038 Clouds 8 1005 87 7000 8.23 130 13:54 16.11.2022
1039 Clouds 9 1005 87 10000 10.29 120 09:38 16.11.2022
1040 Clouds 9 1005 87 10000 10.73 109 05:27 16.11.2022
1041 Clouds 10 1006 89 10000 9.21 110 01:25 16.11.2022
1042 Clouds 10 1007 92 10000 7.85 107 22:27 15.11.2022
1043 Clouds 10 1007 93 10000 8.75 130 20:45 15.11.2022
1044 Clouds 10 1007 93 10000 7.72 120 19:34 15.11.2022
1045 Clouds 10 1008 93 10000 6.2 110 18:26 15.11.2022
1046 Clouds 10 1008 94 10000 5.43 109 17:21 15.11.2022
1047 Clouds 10 1008 93 10000 6.17 110 16:19 15.11.2022
1048 Clouds 10 1008 87 10000 4.63 120 14:45 15.11.2022
1049 Clouds 10 1009 87 10000 5.14 140 13:38 15.11.2022
1050 Clouds 9 1009 93 10000 5.14 140 11:43 15.11.2022
1051 Clouds 8 1010 93 10000 5.14 130 11:18 15.11.2022
1052 Clouds 6 1010 90 10000 2.87 142 08:52 15.11.2022
1053 Clear 7 1011 100 4900 5.14 110 00:37 15.11.2022
1054 Clear 7 1012 93 5000 5.66 120 23:56 14.11.2022
1055 Clear 7 1013 100 6000 5.14 120 21:33 14.11.2022
1056 Clear 7 1013 100 6000 5.14 120 20:40 14.11.2022
1057 Clear 8 1014 93 8000 5.14 120 18:52 14.11.2022
1058 Clear 9 1015 81 10000 5.14 130 15:54 14.11.2022
1059 Clouds 8 1017 87 10000 7.2 130 12:55 14.11.2022
1060 Clouds 9 1017 87 10000 6.69 130 11:42 14.11.2022
1061 Clouds 9 1018 87 10000 7.2 120 09:32 14.11.2022
1062 Clouds 9 1018 87 10000 6.69 120 07:54 14.11.2022
1063 Clouds 9 1019 87 10000 7.2 120 06:43 14.11.2022
1064 Clouds 10 1023 100 10000 7.2 120 00:19 14.11.2022
1065 Clouds 10 1023 100 8000 5.66 120 22:39 13.11.2022
1066 Clouds 10 1024 100 4400 4.63 120 21:40 13.11.2022
1067 Clouds 10 1024 95 10000 4.76 107 20:22 13.11.2022
1068 Clouds 10 1025 95 10000 4.07 101 18:28 13.11.2022
1069 Clouds 9 1026 93 10000 4.63 130 17:46 13.11.2022
1070 Clouds 9 1026 93 6000 4.12 130 15:19 13.11.2022
1071 Clouds 10 1025 90 10000 4.77 104 14:30 13.11.2022
1072 Clouds 12 1027 76 10000 3.6 120 12:52 13.11.2022
1073 Clouds 11 1028 82 10000 3.09 140 11:34 13.11.2022
1074 Clouds 6 1028 100 4900 2.57 120 09:44 13.11.2022
1075 Clouds 6 1028 100 8000 3.6 150 05:52 13.11.2022
1076 Clouds 9 1030 93 150 1.03 0 23:35 12.11.2022
1077 Clouds 9 1030 91 10000 2.54 158 21:24 12.11.2022
1078 Clouds 10 1030 93 10000 2.59 166 20:25 12.11.2022
1079 Clouds 11 1031 93 10000 3.09 160 18:56 12.11.2022
1080 Clouds 12 1030 93 10000 2.03 216 16:32 12.11.2022
1081 Clouds 12 1031 87 10000 2.57 200 15:37 12.11.2022
1082 Clouds 12 1031 80 10000 3.28 240 13:32 12.11.2022
1083 Clouds 12 1030 94 10000 4.12 200 09:35 12.11.2022
1084 Clouds 13 1029 88 10000 4.12 240 07:47 12.11.2022
1085 Clouds 12 1028 94 10000 7.72 250 23:37 11.11.2022
1086 Clouds 12 1027 94 10000 7.72 240 20:56 11.11.2022
1087 Clouds 12 1027 79 10000 7.76 250 20:30 11.11.2022
1088 Clouds 12 1026 82 10000 8.42 243 19:27 11.11.2022
1089 Clouds 12 1026 81 10000 8.24 243 18:32 11.11.2022
1090 Clouds 12 1026 94 10000 6.69 240 17:40 11.11.2022
1091 Clouds 12 1026 94 10000 6.69 240 17:40 11.11.2022
1092 Clouds 13 1025 86 10000 8.14 242 14:31 11.11.2022
1093 Clouds 13 1025 88 10000 8.23 240 13:42 11.11.2022
1094 Clouds 13 1024 83 10000 9.73 243 12:26 11.11.2022
1095 Clouds 13 1022 88 10000 9.77 250 08:59 11.11.2022
1096 Clouds 13 1022 90 10000 9.27 238 08:26 11.11.2022
1097 Clouds 13 1020 88 10000 11.32 250 00:39 11.11.2022
1098 Clouds 13 1020 88 10000 11.83 250 22:53 10.11.2022
1099 Clouds 13 1020 88 10000 10.29 250 21:44 10.11.2022
1100 Clouds 13 1020 88 10000 9.53 236 21:26 10.11.2022
1101 Clouds 13 1019 88 10000 10.8 250 20:43 10.11.2022
1102 Clouds 13 1019 88 10000 10.8 250 20:19 10.11.2022
1103 Clouds 13 1019 88 10000 9.77 240 18:50 10.11.2022
1104 Clouds 13 1019 88 10000 9.77 240 17:44 10.11.2022
1105 Clouds 12 1019 86 10000 8.94 242 16:25 10.11.2022
1106 Clouds 13 1017 88 10000 8.75 240 13:37 10.11.2022
1107 Clouds 11 1016 93 10000 6.17 230 09:53 10.11.2022
1108 Clouds 11 1015 89 10000 4.54 230 08:21 10.11.2022
1109 Clouds 9 1009 85 10000 5.94 269 01:23 10.11.2022
1110 Rain 10 1008 89 10000 5.59 254 23:21 09.11.2022
1111 Clouds 10 1006 100 10000 4.63 250 21:57 09.11.2022
1112 Rain 10 1006 100 10000 7.2 250 20:47 09.11.2022
1113 Clouds 10 1006 88 10000 5.51 239 20:28 09.11.2022
1114 Rain 10 1005 88 10000 5.48 233 19:29 09.11.2022
1115 Rain 11 1006 91 10000 4.81 221 18:30 09.11.2022
1116 Clouds 13 1004 82 10000 5.66 230 15:53 09.11.2022
1117 Rain 13 1004 76 10000 5.66 240 14:42 09.11.2022
1118 Clouds 13 1004 76 10000 7.72 230 14:23 09.11.2022
1119 Clouds 13 1004 76 10000 8.75 240 12:58 09.11.2022
1120 Clouds 13 1003 76 10000 7.2 220 09:52 09.11.2022
1121 Clouds 12 1004 85 10000 7.84 219 08:32 09.11.2022
1122 Clear 13 1002 82 10000 6.17 210 07:41 09.11.2022
1123 Clouds 13 1003 71 10000 6.95 207 23:29 08.11.2022
1124 Clouds 13 1003 71 10000 5.66 200 21:44 08.11.2022
1125 Clouds 13 1003 67 10000 7.08 208 21:23 08.11.2022
1126 Clouds 13 1003 71 10000 5.14 200 20:40 08.11.2022
1127 Clouds 14 1003 67 10000 4.63 210 19:36 08.11.2022
1128 Clouds 14 1004 66 10000 6.67 209 18:24 08.11.2022
1129 Clouds 13 1003 70 10000 7.09 196 16:20 08.11.2022
1130 Clouds 14 1003 67 10000 6.69 190 14:55 08.11.2022
1131 Clouds 14 1003 67 10000 8.75 180 13:37 08.11.2022
1132 Clouds 14 1004 72 10000 6.17 170 12:45 08.11.2022
1133 Clouds 12 1006 87 10000 5.66 200 09:18 08.11.2022
1134 Clouds 12 1007 94 10000 5.83 197 07:25 08.11.2022
1135 Clouds 12 1007 93 10000 7.65 216 00:33 08.11.2022
1136 Rain 12 1007 93 10000 6.92 211 22:24 07.11.2022
1137 Rain 12 1007 91 10000 6.99 216 21:22 07.11.2022
1138 Clouds 13 1007 88 10000 7.2 220 20:40 07.11.2022
1139 Clouds 13 1006 88 10000 6.17 230 18:48 07.11.2022
1140 Clouds 12 1006 91 10000 7.06 229 17:28 07.11.2022
1141 Clouds 13 1005 82 10000 7.72 240 15:35 07.11.2022
1142 Clouds 13 1005 82 10000 8.23 240 14:48 07.11.2022
1143 Clouds 12 1005 87 10000 8.23 230 12:55 07.11.2022
1144 Rain 12 1004 87 8000 7.72 230 11:44 07.11.2022
1145 Rain 12 1003 87 10000 8.23 230 09:49 07.11.2022
1146 Clouds 10 1002 93 10000 9.77 240 07:54 07.11.2022
1147 Rain 11 1002 85 10000 9.44 219 06:25 07.11.2022
1148 Clouds 8 1002 93 10000 8.23 190 01:42 07.11.2022
1149 Rain 9 1003 81 10000 7.72 190 22:39 06.11.2022
1150 Rain 10 1004 69 10000 7.66 185 21:21 06.11.2022
1151 Clouds 11 1004 71 10000 7.72 180 20:34 06.11.2022
1152 Clouds 11 1004 76 10000 7.72 180 19:55 06.11.2022
1153 Clouds 11 1005 82 10000 8.75 180 18:47 06.11.2022
1154 Clouds 10 1006 81 10000 6.38 179 18:20 06.11.2022
1155 Clouds 10 1006 82 10000 5.91 182 17:22 06.11.2022
1156 Clouds 10 1006 93 10000 5.14 170 16:46 06.11.2022
1157 Rain 10 1007 100 6000 5.14 180 15:56 06.11.2022
1158 Rain 10 1008 93 2700 5.14 200 14:43 06.11.2022
1159 Clouds 10 1008 93 10000 5.66 200 12:43 06.11.2022
1160 Clouds 9 1009 100 10000 6.17 200 10:52 06.11.2022
1161 Clouds 9 1009 100 10000 6.69 210 09:51 06.11.2022
1162 Rain 9 1008 100 3600 8.23 210 06:40 06.11.2022
1163 Clouds 9 1012 86 10000 6.81 204 23:23 05.11.2022
1164 Clouds 9 1012 93 10000 6.17 200 20:40 05.11.2022
1165 Clouds 9 1012 87 10000 4.24 207 18:22 05.11.2022
1166 Rain 9 1012 81 10000 4.85 232 16:26 05.11.2022
1167 Rain 11 1012 82 10000 4.63 240 14:34 05.11.2022
1168 Rain 11 1012 66 10000 5.45 241 13:29 05.11.2022
1169 Clouds 11 1011 71 10000 5.66 220 10:54 05.11.2022
1170 Clouds 8 1011 81 10000 7.2 230 08:54 05.11.2022
1171 Clouds 8 1011 85 10000 3.9 238 07:23 05.11.2022
1172 Clouds 9 1010 76 10000 7.72 240 06:54 05.11.2022
1173 Clouds 7 1009 87 10000 5.14 260 23:45 04.11.2022
1174 Clouds 8 1008 87 10000 6.17 240 23:18 04.11.2022
1175 Clouds 7 1007 93 10000 4.63 240 20:33 04.11.2022
1176 Clouds 7 1007 93 10000 4.63 240 20:32 04.11.2022
1177 Clouds 7 1007 74 10000 3.26 245 19:24 04.11.2022
1178 Clouds 10 1006 68 10000 6.17 272 17:24 04.11.2022
1179 Clouds 12 1002 71 10000 12.86 260 13:53 04.11.2022
1180 Clouds 12 1003 71 10000 7.3 242 12:27 04.11.2022
1181 Clouds 12 1000 76 10000 13.38 250 11:43 04.11.2022
1182 Clouds 11 998 87 10000 8.75 200 08:53 04.11.2022
1183 Clouds 11 997 87 10000 7.2 180 07:46 04.11.2022
1184 Clouds 10 997 93 10000 6.17 160 05:50 04.11.2022
1185 Clouds 10 1000 70 10000 5.68 144 00:25 04.11.2022
1186 Clouds 11 1002 82 10000 6.69 150 21:18 03.11.2022
1187 Clouds 11 1002 76 10000 5.97 145 20:32 03.11.2022
1188 Clouds 11 1003 82 10000 7.2 160 19:40 03.11.2022
1189 Clouds 12 1004 76 10000 7.2 150 17:52 03.11.2022
1190 Rain 12 1005 76 10000 6.17 170 16:54 03.11.2022
1191 Clouds 13 1006 71 10000 6.17 180 14:56 03.11.2022
1192 Clouds 12 1008 73 10000 7.02 177 13:23 03.11.2022
1193 Clouds 12 1008 73 10000 7.02 177 12:30 03.11.2022
1194 Clouds 12 1009 76 10000 7.03 184 11:28 03.11.2022
1195 Clouds 9 1010 76 10000 8.75 190 07:45 03.11.2022
1196 Clouds 9 1016 92 10000 5.21 193 21:44 02.11.2022
1197 Clouds 10 1016 81 10000 6.17 200 20:54 02.11.2022
1198 Clear 10 1016 90 10000 4.37 207 20:23 02.11.2022
1199 Clouds 11 1015 82 10000 6.69 250 17:58 02.11.2022
1200 Clouds 10 1014 75 10000 7.62 262 16:25 02.11.2022
1201 Clouds 11 1013 75 10000 9.06 267 15:27 02.11.2022
1202 Clouds 10 1011 93 10000 10.29 240 12:48 02.11.2022
1203 Rain 11 1011 79 10000 8.56 251 12:20 02.11.2022
1204 Clouds 12 1011 79 10000 9.36 221 09:32 02.11.2022
1205 Clouds 11 1010 82 10000 7.2 200 07:38 02.11.2022
1206 Clouds 13 1012 72 10000 7.15 199 01:23 02.11.2022
1207 Clouds 14 1013 73 10000 7.08 202 22:20 01.11.2022
1208 Clouds 13 1012 71 10000 6.69 200 21:42 01.11.2022
1209 Clouds 14 1013 71 10000 7.12 204 20:28 01.11.2022
1210 Clouds 14 1012 72 10000 7.72 200 19:59 01.11.2022
1211 Clouds 14 1012 72 10000 7.72 200 19:40 01.11.2022
1212 Clouds 14 1013 68 10000 7.17 217 18:21 01.11.2022
1213 Clouds 15 1012 73 10000 8.17 224 16:23 01.11.2022
1214 Clouds 15 1012 73 10000 8.17 224 16:23 01.11.2022
1215 Clouds 15 1011 63 10000 8.75 230 14:38 01.11.2022
1216 Clouds 16 1010 63 10000 9.77 230 12:34 01.11.2022
1217 Clouds 16 1009 77 10000 7.72 220 11:40 01.11.2022
1218 Clouds 16 1010 77 10000 8.14 217 11:20 01.11.2022
1219 Clouds 16 1010 77 10000 8.14 217 11:20 01.11.2022
1220 Clouds 13 1009 94 10000 6.17 160 08:51 01.11.2022
1221 Rain 13 1009 94 10000 6.69 160 07:49 01.11.2022
1222 Clouds 13 1009 91 10000 5.28 157 07:27 01.11.2022
1223 Clouds 13 1009 94 9000 6.17 150 06:45 01.11.2022
1224 Clouds 13 1011 95 10000 5.85 138 04:20 01.11.2022
1225 Clouds 12 1016 94 10000 7.2 130 22:35 31.10.2022
1226 Clouds 12 1016 91 10000 3.91 111 21:32 31.10.2022
1227 Clouds 12 1018 100 10000 4.12 130 19:56 31.10.2022
1228 Clouds 12 1018 94 10000 3.6 120 18:36 31.10.2022
1229 Clouds 14 1018 82 10000 2.57 170 16:44 31.10.2022
1230 Clouds 15 1018 82 10000 1.59 187 15:30 31.10.2022
1231 Clouds 15 1020 75 10000 3.31 223 12:22 31.10.2022
1232 Clouds 12 1020 88 10000 2.54 235 09:35 31.10.2022
1233 Clouds 12 1019 100 900 4.63 270 05:52 31.10.2022
1234 Clouds 12 1017 94 4700 2.57 270 02:46 31.10.2022
1235 Clouds 11 1017 100 2500 2.06 220 01:46 31.10.2022
1236 Clouds 12 1017 100 3100 2.06 220 22:19 30.10.2022
1237 Clouds 12 1016 100 4200 0.51 0 20:38 30.10.2022
1238 Clouds 13 1016 100 3100 1.54 220 19:36 30.10.2022
1239 Clouds 15 1016 100 10000 2.57 220 16:37 30.10.2022
1240 Clouds 18 1016 82 10000 3.6 270 14:43 30.10.2022
1241 Clouds 18 1016 82 10000 4.63 270 13:50 30.10.2022
1242 Clouds 17 1016 75 10000 4.77 256 12:24 30.10.2022
1243 Clouds 15 1015 88 10000 3.92 235 10:25 30.10.2022
1244 Clouds 13 1015 100 10000 2.57 230 09:35 30.10.2022
1245 Clouds 12 1015 100 2500 1.03 0 07:57 30.10.2022
1246 Clouds 13 1017 93 10000 2.75 152 00:29 30.10.2022
1247 Clouds 13 1017 100 5000 2.57 140 23:47 29.10.2022
1248 Clouds 13 1018 94 10000 2.66 146 22:31 29.10.2022
1249 Clouds 13 1018 100 7000 3.6 170 19:38 29.10.2022
1250 Rain 14 1018 87 10000 2.3 227 17:23 29.10.2022
1251 Clouds 14 1018 88 10000 4.12 260 15:39 29.10.2022
1252 Clouds 14 1019 88 10000 4.63 250 14:55 29.10.2022
1253 Clouds 15 1019 77 10000 3.09 240 13:50 29.10.2022
1254 Clouds 14 1019 82 10000 2.57 230 12:33 29.10.2022
1255 Clouds 11 1019 93 10000 4.63 220 09:43 29.10.2022
1256 Clouds 10 1019 92 10000 3.21 237 07:23 29.10.2022
1257 Clouds 11 1018 87 10000 5.66 260 05:55 29.10.2022
1258 Clouds 16 1016 88 10000 8.75 260 23:51 28.10.2022
1259 Clouds 16 1015 91 10000 5.94 251 22:23 28.10.2022
1260 Clouds 17 1014 82 10000 5.66 240 20:45 28.10.2022
1261 Clouds 17 1014 82 10000 4.63 220 18:50 28.10.2022
1262 Clouds 16 1015 86 10000 3.96 220 18:29 28.10.2022
1263 Clouds 18 1015 75 10000 4.1 211 15:29 28.10.2022
1264 Clouds 19 1015 72 10000 4.12 220 14:36 28.10.2022
1265 Clouds 18 1016 78 10000 3.33 198 12:26 28.10.2022
1266 Clouds 17 1016 82 10000 1.03 0 11:34 28.10.2022
1267 Clouds 15 1016 94 10000 1.03 170 10:47 28.10.2022
1268 Clouds 14 1016 94 10000 1.54 0 09:47 28.10.2022
1269 Clouds 13 1017 95 10000 3.24 205 08:21 28.10.2022
1270 Clouds 14 1017 94 10000 5.14 230 03:42 28.10.2022
1271 Clouds 15 1017 88 10000 7.72 180 23:48 27.10.2022
1272 Clouds 15 1018 94 10000 6.69 170 22:40 27.10.2022
1273 Clouds 16 1018 88 10000 6.17 170 21:35 27.10.2022
1274 Rain 16 1019 82 10000 5.91 165 20:27 27.10.2022
1275 Clouds 16 1020 91 10000 4.38 165 18:22 27.10.2022
1276 Clouds 17 1021 77 10000 5.26 208 14:23 27.10.2022
1277 Clouds 12 1021 97 10000 3.71 204 09:24 27.10.2022
1278 Clouds 12 1021 98 10000 3.93 218 06:24 27.10.2022
1279 Clouds 14 1019 97 10000 4.13 222 00:22 27.10.2022
1280 Clouds 16 1018 82 10000 4.63 220 23:44 26.10.2022
1281 Clouds 16 1017 82 10000 4.63 230 22:37 26.10.2022
1282 Clouds 15 1016 82 10000 4.63 210 19:57 26.10.2022
1283 Clouds 16 1015 77 10000 4.63 150 16:52 26.10.2022
1284 Clouds 16 1015 77 10000 4.12 160 14:52 26.10.2022
1285 Clouds 14 1015 77 10000 5.14 180 12:39 26.10.2022
1286 Clouds 12 1015 80 10000 3.91 184 11:32 26.10.2022
1287 Clouds 10 1015 100 4400 3.09 170 09:18 26.10.2022
1288 Clouds 10 1015 100 4400 3.09 170 08:43 26.10.2022
1289 Clouds 11 1014 100 10000 4.12 230 00:50 26.10.2022
1290 Clouds 10 1015 96 10000 3.03 230 00:29 26.10.2022
1291 Clouds 12 1013 88 10000 4.63 250 21:58 25.10.2022
1292 Clouds 11 1014 96 10000 3.37 233 21:25 25.10.2022
1293 Clouds 12 1013 96 10000 3.41 232 20:27 25.10.2022
1294 Clear 14 1012 88 10000 7.2 250 18:40 25.10.2022
1295 Clear 15 1011 82 10000 10.8 260 15:48 25.10.2022
1296 Clouds 14 1009 94 10000 7.72 240 11:41 25.10.2022
1297 Rain 14 1009 94 10000 6.69 240 10:47 25.10.2022
1298 Clouds 14 1009 88 10000 5.85 240 10:29 25.10.2022
1299 Clouds 13 1007 88 10000 6.17 230 08:38 25.10.2022
1300 Rain 13 1007 94 10000 5.66 240 08:18 25.10.2022
1301 Rain 13 1007 94 10000 5.66 240 07:53 25.10.2022
1302 Clouds 13 1007 94 10000 6.69 230 06:43 25.10.2022
1303 Clouds 13 1007 95 10000 6.53 224 03:29 25.10.2022
1304 Clouds 13 1006 94 10000 7 221 00:32 25.10.2022
1305 Rain 13 1005 86 10000 7.68 231 22:28 24.10.2022
1306 Clouds 14 1004 88 10000 7.72 240 21:46 24.10.2022
1307 Clouds 14 1004 88 10000 7.72 240 20:50 24.10.2022
1308 Clouds 14 1003 88 10000 9.77 240 20:19 24.10.2022
1309 Clouds 14 1003 82 10000 8.23 230 18:33 24.10.2022
1310 Clouds 16 1002 72 10000 10.29 230 16:55 24.10.2022
1311 Clouds 17 1002 77 10000 9.06 211 15:28 24.10.2022
1312 Clouds 16 1002 77 10000 8.75 220 14:19 24.10.2022
1313 Clouds 17 1003 75 10000 8.58 197 12:27 24.10.2022
1314 Clouds 13 1003 94 10000 5.07 174 09:27 24.10.2022
1315 Clouds 12 1004 98 10000 4.19 170 07:31 24.10.2022
1316 Clouds 13 1006 100 8000 6.17 130 22:39 23.10.2022
1317 Clouds 13 1008 100 6000 6.69 120 20:39 23.10.2022
1318 Clouds 13 1009 100 4400 5.14 120 18:53 23.10.2022
1319 Clouds 13 1010 85 10000 3.69 116 17:29 23.10.2022
1320 Clouds 13 1010 85 10000 3.69 116 17:29 23.10.2022
1321 Clouds 15 1011 82 10000 3.6 140 15:41 23.10.2022
1322 Clouds 15 1012 82 10000 2.57 140 14:56 23.10.2022
1323 Clouds 12 1014 100 10000 2.06 180 11:56 23.10.2022
1324 Clouds 11 1014 100 1800 1.54 190 10:40 23.10.2022
1325 Clouds 12 1014 97 10000 2.79 219 06:27 23.10.2022
1326 Clouds 14 1013 95 10000 3.7 249 23:24 22.10.2022
1327 Clouds 14 1013 95 10000 3.7 249 22:30 22.10.2022
1328 Rain 14 1012 100 9000 6.69 250 21:40 22.10.2022
1329 Clouds 14 1012 95 10000 4.44 232 20:25 22.10.2022
1330 Clouds 14 1012 92 10000 4.59 225 19:31 22.10.2022
1331 Clouds 15 1011 94 10000 4.63 240 17:41 22.10.2022
1332 Rain 15 1011 88 10000 4.63 240 16:50 22.10.2022
1333 Clouds 16 1010 88 10000 1.54 200 15:18 22.10.2022
1334 Clouds 16 1010 74 10000 5.49 226 14:31 22.10.2022
1335 Clouds 13 1010 100 2700 3.09 210 11:35 22.10.2022
1336 Clouds 13 1009 100 200 0.51 0 09:46 22.10.2022
1337 Clouds 13 1009 100 250 1.03 200 08:37 22.10.2022
1338 Clouds 14 1008 100 3700 3.09 240 06:19 22.10.2022
1339 Clouds 12 1008 100 3600 1.54 220 00:55 22.10.2022
1340 Clouds 12 1008 100 3400 1.54 130 22:53 21.10.2022
1341 Clouds 13 1008 97 10000 2 201 21:34 21.10.2022
1342 Clouds 12 1007 94 800 2.06 140 20:39 21.10.2022
1343 Clouds 13 1007 94 10000 1.85 173 18:28 21.10.2022
1344 Clouds 13 1007 94 10000 2.06 160 14:47 21.10.2022
1345 Clouds 13 1007 94 10000 2.57 120 13:40 21.10.2022
1346 Rain 12 1008 94 8000 2.57 130 11:54 21.10.2022
1347 Clouds 11 1009 92 10000 3.21 133 10:26 21.10.2022
1348 Clouds 10 1008 100 5000 2.06 140 09:33 21.10.2022
1349 Clouds 10 1008 97 10000 3.04 129 08:26 21.10.2022
1350 Clouds 10 1009 100 1700 2.06 180 05:56 21.10.2022
1351 Rain 9 1011 100 8000 4.63 150 23:53 20.10.2022
1352 Rain 10 1013 68 10000 5.65 150 21:23 20.10.2022
1353 Rain 11 1013 71 10000 5.14 140 19:45 20.10.2022
1354 Clouds 11 1014 76 10000 6.17 130 18:51 20.10.2022
1355 Clouds 11 1014 76 10000 7.2 130 17:48 20.10.2022
1356 Clouds 12 1016 71 10000 8.75 130 15:37 20.10.2022
1357 Clouds 11 1019 71 10000 7.2 140 12:33 20.10.2022
1358 Clouds 11 1020 71 10000 6.17 130 11:53 20.10.2022
1359 Clouds 9 1021 87 10000 4.63 130 10:56 20.10.2022
1360 Clouds 6 1021 100 10000 4.12 130 09:35 20.10.2022
1361 Clouds 4 1022 93 5000 3.6 130 07:44 20.10.2022
1362 Clouds 7 1024 84 10000 3.56 131 03:31 20.10.2022
1363 Clouds 4 1026 100 10000 4.63 120 23:53 19.10.2022
1364 Clouds 4 1027 73 10000 3.15 124 22:32 19.10.2022
1365 Clouds 5 1027 93 10000 3.6 130 21:48 19.10.2022
1366 Clouds 5 1027 100 10000 4.12 150 20:40 19.10.2022
1367 Clouds 12 1027 62 10000 1.54 0 17:55 19.10.2022
1368 Clouds 13 1028 58 10000 3.09 100 16:58 19.10.2022
1369 Clouds 13 1028 58 10000 3.09 100 14:46 19.10.2022
1370 Clear 13 1029 67 10000 4.63 100 12:42 19.10.2022
1371 Clear 8 1028 89 10000 2.61 39 09:26 19.10.2022
1372 Clouds 9 1027 93 10000 3.09 360 07:51 19.10.2022
1373 Clouds 10 1026 87 10000 5.66 320 03:44 19.10.2022
1374 Clouds 11 1026 78 10000 4.93 303 00:21 19.10.2022
1375 Clouds 12 1025 82 10000 5.66 290 22:46 18.10.2022
1376 Clouds 12 1025 94 10000 6.17 290 21:36 18.10.2022
1377 Clouds 12 1025 87 10000 7.72 270 20:35 18.10.2022
1378 Clouds 12 1024 86 10000 5.27 281 19:27 18.10.2022
1379 Clouds 13 1024 77 10000 6.62 282 17:20 18.10.2022
1380 Clouds 14 1024 71 10000 6.55 279 16:20 18.10.2022
1381 Clouds 15 1023 72 10000 11.32 290 13:57 18.10.2022
1382 Clouds 15 1023 75 10000 6.58 273 12:21 18.10.2022
1383 Clouds 13 1023 88 10000 6.69 260 11:19 18.10.2022
1384 Clouds 11 1022 94 10000 4.03 252 09:27 18.10.2022
1385 Clouds 12 1022 94 10000 5.14 230 07:43 18.10.2022
1386 Clouds 13 1022 94 10000 5.66 260 01:57 18.10.2022
1387 Clouds 15 1020 94 10000 6.17 250 21:50 17.10.2022
1388 Clouds 15 1019 94 10000 5.66 240 20:50 17.10.2022
1389 Clouds 15 1020 95 10000 6.68 240 20:30 17.10.2022
1390 Clouds 15 1020 95 10000 6.68 240 20:30 17.10.2022
1391 Clouds 15 1019 94 10000 6.17 250 19:51 17.10.2022
1392 Clouds 15 1019 100 10000 6.17 230 18:42 17.10.2022
1393 Rain 16 1018 91 10000 5.81 227 16:39 17.10.2022
1394 Rain 16 1018 91 10000 8.07 232 15:29 17.10.2022
1395 Rain 18 1017 82 10000 7.72 240 14:34 17.10.2022
1396 Clouds 13 1017 85 10000 5.13 169 10:30 17.10.2022
1397 Clouds 8 1019 90 10000 3.22 144 05:26 17.10.2022
1398 Clouds 8 1020 86 10000 2.49 211 23:30 16.10.2022
1399 Clouds 11 1018 82 10000 3.6 240 21:48 16.10.2022
1400 Clouds 11 1017 76 10000 4.63 240 20:43 16.10.2022
1401 Clear 12 1016 71 10000 6.17 250 19:46 16.10.2022
1402 Clear 14 1014 72 10000 11.83 260 17:52 16.10.2022
1403 Clear 14 1015 74 10000 7.14 247 17:30 16.10.2022
1404 Clear 16 1013 72 10000 8.15 246 15:57 16.10.2022
1405 Clear 15 1011 72 10000 12.86 250 14:33 16.10.2022
1406 Clouds 15 1010 79 10000 9.38 227 12:23 16.10.2022
1407 Clouds 14 1008 85 10000 7.89 214 10:27 16.10.2022
1408 Clouds 12 1007 94 10000 6.17 210 08:47 16.10.2022
1409 Clouds 13 1006 95 10000 5.67 208 01:30 16.10.2022
1410 Clouds 14 1005 94 10000 5.14 240 23:41 15.10.2022
1411 Rain 14 1004 94 10000 6.19 219 21:26 15.10.2022
1412 Clouds 14 1003 94 2400 6.69 180 20:56 15.10.2022
1413 Clouds 15 1003 82 10000 5.66 180 18:50 15.10.2022
1414 Clouds 15 1003 88 10000 4.63 190 15:49 15.10.2022
1415 Clouds 15 1004 80 10000 6.43 192 15:31 15.10.2022
1416 Clouds 14 1005 88 10000 4.12 220 11:59 15.10.2022
1417 Clouds 13 1005 89 10000 5.58 209 11:24 15.10.2022
1418 Clouds 12 1004 100 6000 4.63 210 08:55 15.10.2022
1419 Clouds 13 1004 100 5000 3.6 220 03:40 15.10.2022
1420 Clouds 12 1005 100 4300 5.14 170 00:39 15.10.2022
1421 Rain 12 1007 90 10000 4.31 146 22:24 14.10.2022
1422 Rain 11 1007 100 6000 4.63 160 21:37 14.10.2022
1423 Rain 11 1007 100 6000 4.63 160 21:37 14.10.2022
1424 Clouds 10 1008 92 10000 2.68 140 20:26 14.10.2022
1425 Clouds 15 1009 80 10000 2.73 211 17:21 14.10.2022
1426 Clouds 14 1011 72 10000 2.57 200 14:56 14.10.2022
1427 Clouds 13 1012 88 10000 4.12 220 12:45 14.10.2022
1428 Clouds 11 1012 100 8000 4.12 190 10:36 14.10.2022
1429 Clouds 9 1012 92 10000 2.35 201 08:25 14.10.2022
1430 Clouds 9 1012 100 10000 4.12 210 06:18 14.10.2022
1431 Clouds 9 1012 100 10000 4.12 210 05:59 14.10.2022
1432 Clouds 9 1012 100 10000 4.12 210 05:41 14.10.2022
1433 Clouds 10 1013 97 10000 2.66 242 01:30 14.10.2022
1434 Clouds 12 1014 98 10000 3.73 227 23:20 13.10.2022
1435 Clouds 12 1013 97 10000 4.03 218 21:31 13.10.2022
1436 Clouds 12 1013 96 10000 4.79 208 20:20 13.10.2022
1437 Clouds 12 1013 94 4500 4.12 200 19:41 13.10.2022
1438 Clouds 12 1013 94 6000 4.12 200 18:45 13.10.2022
1439 Clouds 12 1013 94 7000 3.6 200 17:53 13.10.2022
1440 Clouds 11 1014 93 10000 2.57 200 15:49 13.10.2022
1441 Clouds 11 1014 93 7000 2.57 190 14:59 13.10.2022
1442 Rain 10 1014 93 5000 3.09 200 13:49 13.10.2022
1443 Rain 11 1015 80 10000 3.56 199 11:45 13.10.2022
1444 Clouds 9 1015 87 10000 3.6 180 10:18 13.10.2022
1445 Rain 8 1016 93 10000 1.54 0 08:33 13.10.2022
1446 Rain 8 1016 93 10000 1.54 0 08:33 13.10.2022
1447 Clouds 8 1016 93 10000 5.14 180 07:36 13.10.2022
1448 Clouds 8 1018 81 10000 5.66 180 03:45 13.10.2022
1449 Clouds 9 1018 87 10000 5.66 170 01:39 13.10.2022
1450 Clouds 7 1020 81 10000 3.2 174 00:21 13.10.2022
1451 Clouds 8 1020 93 10000 5.66 170 22:44 12.10.2022
1452 Clear 7 1021 85 10000 2.78 173 21:25 12.10.2022
1453 Clear 8 1021 100 10000 4.12 170 20:56 12.10.2022
1454 Clouds 8 1021 84 10000 2.43 187 20:27 12.10.2022
1455 Clouds 12 1021 76 10000 2.57 180 19:19 12.10.2022
1456 Clouds 13 1022 67 10000 3.09 190 17:54 12.10.2022
1457 Clouds 14 1022 62 10000 4.12 200 16:48 12.10.2022
1458 Clouds 14 1023 63 10000 4.8 209 14:26 12.10.2022
1459 Clouds 14 1023 61 10000 4.96 215 13:50 12.10.2022
1460 Clouds 13 1024 77 10000 4.6 208 11:26 12.10.2022
1461 Clouds 10 1024 93 10000 3.15 195 09:27 12.10.2022
1462 Clouds 9 1023 93 10000 5.66 190 07:41 12.10.2022
1463 Clouds 10 1024 93 10000 4.63 190 06:44 12.10.2022
1464 Clouds 9 1024 93 10000 4.63 200 05:18 12.10.2022
1465 Clouds 8 1024 93 10000 2.06 230 23:40 11.10.2022
1466 Clouds 10 1024 93 10000 4.63 240 20:59 11.10.2022
1467 Clouds 9 1024 85 10000 2.5 258 20:26 11.10.2022
1468 Clouds 12 1024 75 10000 3.26 280 18:25 11.10.2022
1469 Clouds 14 1023 62 10000 9.26 290 15:56 11.10.2022
1470 Clouds 14 1023 62 10000 10.29 290 13:37 11.10.2022
1471 Clouds 12 1022 76 10000 6.17 260 10:48 11.10.2022
1472 Clouds 11 1022 80 10000 3.95 264 10:26 11.10.2022
1473 Clouds 9 1021 87 10000 6.69 260 08:46 11.10.2022
1474 Clear 7 1020 89 10000 3.44 261 04:23 11.10.2022
1475 Clear 9 1017 93 10000 4.63 260 00:47 11.10.2022
1476 Clear 8 1017 91 10000 3.71 268 00:23 11.10.2022
1477 Clear 10 1014 93 10000 6.17 290 21:18 10.10.2022
1478 Clouds 10 1013 93 10000 8.23 310 19:43 10.10.2022
1479 Rain 12 1011 88 10000 7.2 230 18:18 10.10.2022
1480 Clouds 14 1010 77 10000 4.12 240 16:39 10.10.2022
1481 Clouds 15 1011 72 10000 7.12 228 14:31 10.10.2022
1482 Clouds 13 1012 68 10000 6.04 197 12:24 10.10.2022
1483 Clouds 10 1012 76 10000 5.66 180 10:57 10.10.2022
1484 Clouds 7 1013 87 10000 6.69 170 07:47 10.10.2022
1485 Clouds 8 1014 87 10000 6.69 170 05:38 10.10.2022
1486 Clear 9 1016 81 10000 5.66 170 02:42 10.10.2022
1487 Clouds 11 1019 79 10000 4.59 156 00:25 10.10.2022
1488 Clouds 8 1020 84 10000 3.91 154 22:27 09.10.2022
1489 Clouds 8 1020 93 10000 5.14 160 21:50 09.10.2022
1490 Clouds 8 1020 100 10000 4.12 160 20:57 09.10.2022
1491 Clouds 10 1021 87 10000 3.6 170 19:53 09.10.2022
1492 Clouds 12 1021 84 10000 3.13 170 19:23 09.10.2022
1493 Clouds 12 1021 76 10000 3.6 180 18:32 09.10.2022
1494 Clouds 14 1022 62 10000 4.12 210 16:56 09.10.2022
1495 Clouds 14 1022 64 10000 5.01 214 16:25 09.10.2022
1496 Clouds 15 1022 63 10000 4.12 220 15:37 09.10.2022
1497 Clouds 16 1023 63 10000 5.83 221 14:29 09.10.2022
1498 Clouds 14 1023 77 10000 4.12 230 12:58 09.10.2022
1499 Clouds 13 1024 88 10000 2.57 200 11:50 09.10.2022
1500 Clouds 11 1024 87 10000 3.6 200 10:37 09.10.2022
1501 Clouds 9 1023 91 10000 2.66 205 08:25 09.10.2022
1502 Clear 8 1022 87 2600 4.63 240 03:37 09.10.2022
1503 Clear 8 1021 93 10000 3.6 250 02:39 09.10.2022
1504 Clear 8 1021 90 10000 3.37 264 00:26 09.10.2022
1505 Rain 10 1020 82 10000 6.69 270 22:53 08.10.2022
1506 Clear 11 1019 82 10000 6.69 280 21:48 08.10.2022
1507 Rain 11 1018 84 10000 4.09 279 20:26 08.10.2022
1508 Clear 12 1017 82 10000 9.26 290 18:53 08.10.2022
1509 Clear 13 1015 76 10000 10.29 290 16:38 08.10.2022
1510 Clouds 14 1014 77 10000 10.8 290 14:54 08.10.2022
1511 Clear 13 1013 67 10000 7.5 278 13:25 08.10.2022
1512 Clear 13 1012 82 10000 5.66 290 10:39 08.10.2022
1513 Clear 12 1012 79 10000 5.22 267 10:21 08.10.2022
1514 Clear 11 1011 100 10000 5.14 240 08:48 08.10.2022
1515 Rain 12 1010 94 10000 4.12 220 03:59 08.10.2022
1516 Clouds 14 1011 77 10000 7.72 220 00:43 08.10.2022
1517 Clouds 14 1012 83 10000 7.79 217 23:27 07.10.2022
1518 Clouds 14 1012 77 10000 7.2 220 22:56 07.10.2022
1519 Clouds 14 1013 82 10000 7.79 219 21:40 07.10.2022
1520 Clouds 15 1014 77 10000 5.66 210 19:44 07.10.2022
1521 Clouds 15 1015 77 10000 7.72 230 17:53 07.10.2022
1522 Clouds 16 1015 73 10000 8.62 222 16:42 07.10.2022
1523 Clouds 16 1016 74 10000 8.57 226 15:25 07.10.2022
1524 Clouds 15 1017 77 10000 8.75 230 13:55 07.10.2022
1525 Clouds 13 1019 80 10000 8.46 218 11:28 07.10.2022
1526 Clouds 10 1020 86 10000 7.03 209 09:25 07.10.2022
1527 Clear 10 1020 91 10000 6.59 208 08:21 07.10.2022
1528 Clear 12 1023 82 10000 5.66 210 02:52 07.10.2022
1529 Clouds 13 1024 79 10000 7.2 235 23:21 06.10.2022
1530 Clouds 14 1024 77 10000 7.72 240 22:48 06.10.2022
1531 Clouds 13 1024 82 10000 7.2 240 21:37 06.10.2022
1532 Clouds 14 1024 77 10000 8.23 240 20:39 06.10.2022
1533 Clear 14 1024 72 10000 10.29 260 18:57 06.10.2022
1534 Clear 15 1024 75 10000 7.67 241 18:32 06.10.2022
1535 Clear 16 1023 63 10000 18.01 270 15:40 06.10.2022
1536 Clear 16 1021 63 10000 13.89 270 13:18 06.10.2022
1537 Clear 13 1019 75 10000 8.74 262 09:27 06.10.2022
1538 Clouds 13 1013 82 10000 9.26 250 05:19 06.10.2022
1539 Clouds 14 1011 84 10000 9.22 253 02:22 06.10.2022
1540 Rain 15 1008 76 10000 10.21 222 22:28 05.10.2022
1541 Clouds 16 1009 72 10000 7.2 220 19:54 05.10.2022
1542 Clouds 16 1009 72 10000 7.72 220 17:38 05.10.2022
1543 Clouds 16 1009 72 10000 7.72 220 16:45 05.10.2022
1544 Clouds 17 1009 73 10000 8.94 220 15:23 05.10.2022
1545 Clouds 16 1009 72 10000 8.23 220 14:38 05.10.2022
1546 Clouds 17 1010 69 10000 9.14 224 13:31 05.10.2022
1547 Clouds 15 1010 82 10000 7.72 220 11:53 05.10.2022
1548 Clouds 15 1011 87 10000 7.26 216 08:30 05.10.2022
1549 Clouds 15 1011 84 10000 6.92 215 07:22 05.10.2022
1550 Clouds 15 1012 82 10000 7.72 230 05:34 05.10.2022
1551 Clouds 15 1013 77 10000 7.72 240 02:37 05.10.2022
1552 Clouds 15 1014 72 10000 6.69 230 00:41 05.10.2022
1553 Clouds 15 1014 72 10000 6.72 220 00:23 05.10.2022
1554 Clouds 14 1015 77 10000 5.14 210 21:38 04.10.2022
1555 Clouds 14 1016 84 10000 4.35 207 20:20 04.10.2022
1556 Clouds 15 1015 72 10000 4.63 230 18:56 04.10.2022
1557 Clouds 15 1015 72 10000 4.63 230 18:34 04.10.2022
1558 Clouds 17 1016 59 10000 7.2 240 16:58 04.10.2022
1559 Clouds 17 1017 67 10000 6.74 225 16:26 04.10.2022
1560 Clouds 15 1018 71 10000 6.64 224 12:24 04.10.2022
1561 Clouds 12 1018 94 10000 5.14 210 08:42 04.10.2022
1562 Clouds 10 1019 92 10000 2.55 214 06:25 04.10.2022
1563 Clouds 12 1021 97 10000 3.08 272 01:24 04.10.2022
1564 Clouds 12 1022 100 10000 3.09 280 23:36 03.10.2022
1565 Clouds 13 1022 94 10000 4.12 290 21:52 03.10.2022
1566 Clouds 13 1022 94 10000 5.14 300 20:51 03.10.2022
1567 Clouds 14 1022 88 10000 7.72 300 18:57 03.10.2022
1568 Clouds 15 1022 77 10000 10.8 300 17:48 03.10.2022
1569 Clouds 16 1022 77 10000 8.75 300 16:41 03.10.2022
1570 Clouds 16 1022 65 10000 7.92 303 15:27 03.10.2022
1571 Clouds 17 1022 67 10000 11.83 300 13:44 03.10.2022
1572 Clouds 15 1022 67 10000 7.64 304 12:20 03.10.2022
1573 Clouds 14 1022 82 10000 8.75 320 10:38 03.10.2022
1574 Clouds 13 1021 88 10000 8.75 310 09:35 03.10.2022
1575 Clear 12 1020 87 10000 7.72 300 05:34 03.10.2022
1576 Clear 11 1019 93 10000 5.66 310 02:36 03.10.2022
1577 Clouds 11 1017 87 10000 6.62 303 22:29 02.10.2022
1578 Clear 13 1015 82 10000 6.69 300 20:42 02.10.2022
1579 Clear 14 1014 77 10000 6.8 297 18:31 02.10.2022
1580 Clear 14 1013 77 10000 10.8 310 17:38 02.10.2022
1581 Clear 14 1013 73 10000 6.99 298 16:33 02.10.2022
1582 Clear 15 1011 77 10000 11.32 300 15:41 02.10.2022
1583 Clouds 13 1011 88 10000 7.72 320 13:51 02.10.2022
1584 Clouds 15 1011 71 10000 7.47 293 13:21 02.10.2022
1585 Clouds 14 1010 76 10000 7.45 289 12:28 02.10.2022
1586 Clouds 15 1010 77 10000 9.77 290 11:37 02.10.2022
1587 Clouds 14 1009 82 10000 7.72 280 10:37 02.10.2022
1588 Clouds 11 1008 87 10000 5.66 277 09:27 02.10.2022
1589 Clear 11 1007 87 10000 6.17 260 07:39 02.10.2022
1590 Clear 11 1006 93 10000 6.17 260 02:55 02.10.2022
1591 Clear 12 1005 87 10000 7.72 260 00:46 02.10.2022
1592 Clear 12 1004 87 10000 6.69 260 00:20 02.10.2022
1593 Clear 11 1004 87 10000 5.14 260 22:43 01.10.2022
1594 Clear 13 1002 88 10000 7.72 280 20:36 01.10.2022
1595 Clouds 14 1000 82 10000 9.26 290 18:40 01.10.2022
1596 Clouds 14 999 88 10000 7.2 290 16:36 01.10.2022
1597 Clouds 15 997 82 10000 7.72 310 14:41 01.10.2022
1598 Clouds 13 998 79 10000 4.96 268 13:31 01.10.2022
1599 Clouds 12 998 95 10000 4.81 209 12:33 01.10.2022
1600 Clouds 11 998 96 10000 7.01 194 11:21 01.10.2022
1601 Rain 11 998 96 10000 7.01 194 10:32 01.10.2022
1602 Rain 11 998 95 8197 8.76 186 09:28 01.10.2022
1603 Rain 10 998 93 10000 8.23 170 08:58 01.10.2022
1604 Rain 10 998 93 10000 8.23 170 08:58 01.10.2022
1605 Rain 11 1000 76 10000 6.69 170 05:47 01.10.2022
1606 Clouds 11 1001 76 10000 8.23 180 03:34 01.10.2022
1607 Clouds 11 1004 63 10000 7.01 180 01:21 01.10.2022
1608 Clouds 11 1005 82 10000 7.2 170 22:55 30.09.2022
1609 Clouds 11 1006 82 10000 6.17 170 21:41 30.09.2022
1610 Clouds 11 1006 87 10000 5.66 180 20:45 30.09.2022
1611 Clouds 12 1006 82 10000 4.63 190 20:19 30.09.2022
1612 Clouds 14 1006 67 10000 5.66 220 17:40 30.09.2022
1613 Clouds 15 1007 66 10000 6.69 219 16:25 30.09.2022
1614 Clouds 15 1007 65 10000 6.47 221 14:21 30.09.2022
1615 Clear 13 1007 72 10000 4.97 232 12:24 30.09.2022
1616 Clear 12 1007 82 10000 4.12 240 11:48 30.09.2022
1617 Clear 10 1006 93 10000 2.57 210 08:38 30.09.2022
1618 Clouds 10 1006 94 10000 2.09 218 06:29 30.09.2022
1619 Clouds 10 1004 100 10000 4.63 300 02:45 30.09.2022
1620 Clouds 11 1004 93 10000 3.6 290 00:35 30.09.2022
1621 Clouds 11 1002 93 10000 5.14 310 21:39 29.09.2022
1622 Clouds 12 1002 82 10000 4.63 320 21:18 29.09.2022
1623 Clouds 12 1001 82 10000 6.69 350 18:48 29.09.2022
1624 Clouds 12 1001 87 10000 7.2 10 17:45 29.09.2022
1625 Clouds 12 1001 85 10000 4.76 1 16:28 29.09.2022
1626 Clouds 12 1000 87 10000 8.75 20 15:36 29.09.2022
1627 Clouds 12 1000 94 10000 6.69 360 14:59 29.09.2022
1628 Rain 11 999 93 6000 7.2 350 11:53 29.09.2022
1629 Rain 9 999 96 10000 3.28 245 07:31 29.09.2022
1630 Clouds 8 998 88 10000 2.22 257 03:24 29.09.2022
1631 Clouds 7 999 87 10000 1.34 296 00:29 29.09.2022
1632 Clouds 9 997 93 10000 3.09 260 23:19 28.09.2022
1633 Clouds 9 998 88 10000 1.31 301 21:31 28.09.2022
1634 Clouds 9 997 93 10000 2.57 240 20:49 28.09.2022
1635 Clouds 10 996 93 10000 2.57 240 19:48 28.09.2022
1636 Clouds 14 996 75 10000 3.24 232 16:27 28.09.2022
1637 Clouds 12 995 69 10000 0.59 187 13:28 28.09.2022
1638 Clouds 10 995 93 10000 1.03 0 11:43 28.09.2022
1639 Clouds 7 994 100 500 2.06 180 09:34 28.09.2022
1640 Clouds 6 993 100 5000 1.03 0 07:42 28.09.2022
1641 Clouds 5 994 90 10000 0.85 166 05:32 28.09.2022
1642 Clouds 8 994 93 10000 4.12 240 01:41 28.09.2022
1643 Clouds 7 994 88 10000 1.45 294 00:28 28.09.2022
1644 Clouds 8 994 93 10000 2.57 260 22:40 27.09.2022
1645 Clouds 9 994 89 10000 2.3 300 21:20 27.09.2022
1646 Clouds 9 994 89 10000 2.3 300 20:31 27.09.2022
1647 Clouds 10 993 93 10000 3.6 310 19:40 27.09.2022
1648 Clouds 11 992 87 10000 4.63 330 17:47 27.09.2022
1649 Clouds 11 992 93 10000 5.66 330 16:50 27.09.2022
1650 Clouds 11 991 93 10000 4.63 320 15:18 27.09.2022
1651 Rain 11 991 93 10000 5.14 320 13:52 27.09.2022
1652 Rain 11 991 93 9000 5.14 310 12:37 27.09.2022
1653 Rain 11 991 93 9000 5.14 310 12:37 27.09.2022
1654 Rain 11 991 93 10000 4.63 330 10:33 27.09.2022
1655 Rain 10 990 100 8000 3.09 300 07:55 27.09.2022
1656 Clouds 10 990 100 10000 1.54 260 04:52 27.09.2022
1657 Clouds 11 991 100 7000 3.09 290 01:40 27.09.2022
1658 Clouds 12 992 97 9105 4.75 185 00:23 27.09.2022
1659 Clouds 11 992 97 10000 5.78 188 23:24 26.09.2022
1660 Clouds 11 992 100 10000 6.69 190 21:35 26.09.2022
1661 Clouds 11 992 93 6000 7.2 190 19:49 26.09.2022
1662 Clouds 11 993 93 3200 7.72 190 19:19 26.09.2022
1663 Rain 12 994 94 10000 8.13 188 17:26 26.09.2022
1664 Rain 12 996 91 10000 8.19 187 15:25 26.09.2022
1665 Clouds 11 996 93 10000 7.2 200 12:42 26.09.2022
1666 Clouds 12 998 92 10000 8.11 192 11:28 26.09.2022
1667 Rain 11 997 87 10000 7.72 200 10:36 26.09.2022
1668 Rain 11 997 93 10000 7.2 200 10:18 26.09.2022
1669 Rain 11 997 93 10000 7.2 200 09:52 26.09.2022
1670 Rain 11 998 91 10000 8.03 202 09:21 26.09.2022
1671 Rain 10 1000 100 10000 5.14 190 05:49 26.09.2022
1672 Clouds 10 1003 93 10000 6.69 190 02:35 26.09.2022
1673 Clouds 9 1007 76 10000 3.14 226 23:25 25.09.2022
1674 Clouds 10 1008 76 10000 5.14 260 21:48 25.09.2022
1675 Clouds 11 1009 73 10000 3.17 261 21:25 25.09.2022
1676 Clouds 11 1008 82 10000 5.66 270 20:37 25.09.2022
1677 Clouds 13 1010 69 10000 4.45 280 19:25 25.09.2022
1678 Clouds 15 1010 63 10000 5.65 291 18:29 25.09.2022
1679 Clouds 15 1010 63 10000 5.65 291 18:29 25.09.2022
1680 Clouds 16 1009 59 10000 8.23 280 17:41 25.09.2022
1681 Clouds 16 1010 57 10000 5.19 302 16:21 25.09.2022
1682 Clouds 17 1010 51 10000 5.66 290 15:35 25.09.2022
1683 Clear 15 1011 47 10000 3.4 302 14:20 25.09.2022
1684 Clear 15 1012 67 10000 3.09 350 12:44 25.09.2022
1685 Clouds 12 1013 68 10000 2.41 321 10:20 25.09.2022
1686 Clouds 11 1012 93 7000 3.09 310 07:47 25.09.2022
1687 Clouds 12 1013 88 10000 2.68 337 05:31 25.09.2022
1688 Clouds 12 1013 94 10000 2.06 320 00:36 25.09.2022
1689 Clouds 12 1013 94 10000 2.57 340 22:34 24.09.2022
1690 Clouds 12 1013 94 10000 1.54 280 20:45 24.09.2022
1691 Clouds 14 1013 86 10000 2.32 16 19:21 24.09.2022
1692 Rain 15 1012 82 10000 3.6 350 17:19 24.09.2022
1693 Clouds 15 1012 66 10000 1.89 28 16:23 24.09.2022
1694 Clouds 15 1012 66 10000 1.89 28 16:23 24.09.2022
1695 Clouds 15 1012 72 10000 1.03 30 15:19 24.09.2022
1696 Clouds 15 1013 66 10000 1.49 135 13:23 24.09.2022
1697 Clouds 14 1012 88 6000 0 0 12:41 24.09.2022
1698 Rain 12 1012 100 4300 1.03 300 10:19 24.09.2022
1699 Rain 12 1012 100 4300 1.03 300 09:35 24.09.2022
1700 Rain 11 1011 100 3400 0.51 290 08:43 24.09.2022
1701 Clouds 11 1011 93 3700 1.03 0 06:53 24.09.2022
1702 Rain 11 1011 93 10000 1.54 230 04:35 24.09.2022
1703 Clouds 10 1012 93 7000 2.06 210 01:45 24.09.2022
1704 Clouds 11 1013 70 10000 2.37 203 22:24 23.09.2022
1705 Clouds 13 1013 68 10000 2.51 203 21:26 23.09.2022
1706 Clouds 11 1013 93 10000 2.06 230 20:55 23.09.2022
1707 Clouds 14 1013 88 10000 2.57 230 20:19 23.09.2022
1708 Clouds 16 1014 62 10000 2.64 226 18:26 23.09.2022
1709 Clouds 16 1015 63 10000 4.12 180 13:44 23.09.2022
1710 Clouds 16 1015 63 10000 4.12 180 13:44 23.09.2022
1711 Clouds 11 1017 64 10000 3.45 186 10:26 23.09.2022
1712 Clouds 9 1016 81 10000 1.03 0 08:57 23.09.2022
1713 Clouds 9 1017 87 10000 6.69 180 04:56 23.09.2022
1714 Clouds 10 1020 79 10000 3.08 160 23:31 22.09.2022
1715 Clouds 8 1020 100 10000 3.09 160 22:41 22.09.2022
1716 Clouds 9 1021 93 10000 0 0 22:19 22.09.2022
1717 Clouds 13 1021 71 10000 1.28 221 20:45 22.09.2022
1718 Clouds 14 1021 68 10000 2.38 245 19:23 22.09.2022
1719 Clouds 16 1022 48 10000 3.6 200 16:57 22.09.2022
1720 Clouds 15 1024 67 10000 2.57 210 11:58 22.09.2022
1721 Clear 11 1024 73 10000 2.54 185 10:20 22.09.2022
1722 Clear 6 1024 100 10000 2.06 180 08:46 22.09.2022
1723 Clouds 5 1024 100 10000 0 0 06:42 22.09.2022
1724 Clouds 7 1025 100 10000 0 0 02:43 22.09.2022
1725 Clouds 9 1025 100 10000 1.03 310 22:50 21.09.2022
1726 Clouds 10 1025 93 10000 1.54 310 21:41 21.09.2022
1727 Clouds 13 1025 76 10000 4.12 280 19:55 21.09.2022
1728 Clouds 17 1025 51 10000 4.63 270 17:47 21.09.2022
1729 Clouds 17 1025 53 10000 3.72 278 16:30 21.09.2022
1730 Clouds 17 1026 55 10000 2.06 310 14:00 21.09.2022
1731 Clouds 15 1026 63 10000 1.03 310 12:42 21.09.2022
1732 Clouds 17 1026 59 10000 2.19 207 11:29 21.09.2022
1733 Clouds 10 1026 100 10000 1.03 0 09:55 21.09.2022
1734 Clouds 6 1026 100 10000 0.51 0 09:00 21.09.2022
1735 Clouds 6 1025 100 10000 0 0 07:18 21.09.2022
1736 Clouds 7 1025 100 10000 0 0 02:47 21.09.2022
1737 Clouds 9 1025 84 10000 0.76 121 02:28 21.09.2022
1738 Clouds 8 1025 100 10000 1.03 320 00:34 21.09.2022
1739 Clouds 9 1024 93 10000 1.03 320 23:18 20.09.2022
1740 Clouds 11 1023 93 10000 1.54 60 20:52 20.09.2022
1741 Clouds 15 1023 71 10000 1.73 359 19:32 20.09.2022
1742 Clear 17 1021 45 10000 3.46 20 16:28 20.09.2022
1743 Clear 16 1021 51 10000 0.51 360 14:46 20.09.2022
1744 Clear 17 1021 50 10000 3.24 339 13:28 20.09.2022
1745 Clear 12 1020 64 10000 3.74 336 10:33 20.09.2022
1746 Clear 7 1019 89 10000 2.87 335 08:28 20.09.2022
1747 Clear 8 1018 100 10000 1.03 300 05:48 20.09.2022
1748 Clear 8 1018 93 10000 3.04 315 04:27 20.09.2022
1749 Clear 8 1016 100 10000 3.6 300 22:59 19.09.2022
1750 Clear 9 1017 87 10000 3.31 335 22:23 19.09.2022
1751 Clear 10 1015 93 10000 2.06 190 20:57 19.09.2022
1752 Clear 10 1015 93 10000 2.06 190 20:38 19.09.2022
1753 Rain 15 1014 58 10000 5.14 350 17:46 19.09.2022
1754 Clouds 16 1013 77 10000 6.17 270 15:53 19.09.2022
1755 Clouds 17 1013 55 10000 6.69 330 13:35 19.09.2022
1756 Clouds 16 1013 72 10000 4.71 336 11:29 19.09.2022
1757 Clouds 11 1012 93 10000 3.6 340 08:51 19.09.2022
1758 Clear 10 1011 100 10000 5.14 320 08:19 19.09.2022
1759 Clouds 10 1009 87 10000 7.2 340 02:18 19.09.2022
1760 Clouds 8 1009 91 10000 5.27 333 23:24 18.09.2022
1761 Clouds 11 1007 87 10000 3.09 350 21:45 18.09.2022
1762 Clouds 12 1006 82 10000 5.14 350 20:34 18.09.2022
1763 Clouds 12 1005 76 10000 8.75 10 18:41 18.09.2022
1764 Clouds 14 1004 58 10000 6.69 350 17:43 18.09.2022
1765 Clouds 14 1003 72 10000 9.77 300 15:56 18.09.2022
1766 Rain 13 1002 67 9228 6.51 342 14:30 18.09.2022
1767 Clouds 12 1004 87 10000 7.72 260 12:55 18.09.2022
1768 Rain 12 1003 76 10000 10.8 270 11:46 18.09.2022
1769 Clouds 10 1005 75 10000 6.49 296 06:30 18.09.2022
1770 Clouds 11 1006 77 10000 7.13 300 01:30 18.09.2022
1771 Clouds 12 1005 76 10000 8.23 300 00:48 18.09.2022
1772 Clouds 11 1006 81 10000 5.88 312 22:23 17.09.2022
1773 Clouds 13 1005 76 10000 6.17 320 20:48 17.09.2022
1774 Clouds 13 1005 72 10000 7.72 320 19:28 17.09.2022
1775 Clouds 14 1004 77 10000 9.26 330 17:19 17.09.2022
1776 Clouds 15 1003 72 10000 4.12 350 14:18 17.09.2022
1777 Clouds 14 1002 53 10000 5.01 9 12:33 17.09.2022
1778 Rain 13 1002 88 10000 3.6 310 10:47 17.09.2022
1779 Clouds 11 1003 75 10000 7.28 296 06:29 17.09.2022
1780 Clouds 13 1002 82 10000 8.75 310 03:55 17.09.2022
1781 Clouds 12 1002 85 10000 6.91 311 23:23 16.09.2022
1782 Clouds 13 1001 88 10000 7.72 320 21:46 16.09.2022
1783 Clouds 14 1000 82 10000 9.26 320 20:41 16.09.2022
1784 Clouds 15 999 79 9555 7.85 316 18:29 16.09.2022
1785 Clouds 16 998 78 10000 6.13 322 16:21 16.09.2022
1786 Clouds 15 997 77 10000 5.66 220 14:50 16.09.2022
1787 Clouds 13 998 94 10000 12.35 280 12:51 16.09.2022
1788 Rain 12 999 94 10000 10.29 270 09:39 16.09.2022
1789 Rain 10 1001 69 10000 8 282 07:23 16.09.2022
1790 Rain 11 1000 87 10000 9.77 290 06:48 16.09.2022
1791 Clouds 11 1001 82 10000 9.26 280 05:55 16.09.2022
1792 Clouds 10 1002 62 10000 7.78 286 01:31 16.09.2022
1793 Clouds 12 1002 71 10000 9.77 320 21:33 15.09.2022
1794 Clouds 11 1003 64 10000 7.07 295 20:33 15.09.2022
1795 Clouds 15 1001 58 10000 11.83 310 18:57 15.09.2022
1796 Clouds 16 1001 51 10000 13.38 320 17:39 15.09.2022
1797 Clouds 16 1002 53 10000 8.21 296 17:20 15.09.2022
1798 Clouds 17 1001 48 10000 14.92 310 15:38 15.09.2022
1799 Clouds 16 1001 63 5000 12.86 310 12:50 15.09.2022
1800 Clouds 15 1001 72 10000 11.32 300 11:47 15.09.2022
1801 Clouds 14 1001 77 10000 7.72 290 09:43 15.09.2022
1802 Clouds 13 1000 88 10000 7.2 290 06:45 15.09.2022
1803 Clouds 12 1001 83 10000 5.48 280 03:29 15.09.2022
1804 Clouds 14 1001 94 10000 5.14 270 22:51 14.09.2022
1805 Rain 14 1002 89 10000 3.8 263 20:30 14.09.2022
1806 Rain 16 1002 85 10000 4.27 277 19:32 14.09.2022
1807 Clouds 15 1002 88 10000 4.63 280 17:35 14.09.2022
1808 Clouds 16 1002 82 10000 8.23 280 16:36 14.09.2022
1809 Clouds 17 1003 72 10000 8.75 270 14:50 14.09.2022
1810 Clouds 17 1003 63 10000 6.17 280 12:38 14.09.2022
1811 Clouds 15 1004 77 10000 4.63 270 09:52 14.09.2022
1812 Clouds 14 1004 75 10000 4.67 281 08:28 14.09.2022
1813 Clouds 15 1004 82 10000 8.75 290 06:49 14.09.2022
1814 Clouds 14 1004 72 10000 4.79 282 06:28 14.09.2022
1815 Clouds 14 1005 73 10000 6.02 284 02:25 14.09.2022
1816 Clouds 14 1005 73 10000 6.02 284 01:34 14.09.2022
1817 Clouds 14 1005 79 10000 5.75 281 00:52 14.09.2022
1818 Clouds 15 1006 79 10000 6.04 278 23:54 13.09.2022
1819 Clouds 15 1006 79 10000 6.04 278 23:36 13.09.2022
1820 Clouds 15 1005 79 10000 6.22 279 23:18 13.09.2022
1821 Clouds 15 1006 76 10000 6.52 284 22:26 13.09.2022
1822 Clouds 15 1006 76 10000 6.52 284 21:35 13.09.2022
1823 Clouds 16 1005 82 10000 12.86 290 18:54 13.09.2022
1824 Clouds 18 1005 72 10000 13.89 270 16:39 13.09.2022
1825 Clouds 18 1005 63 10000 12.35 280 15:19 13.09.2022
1826 Clouds 18 1005 68 10000 11.83 290 13:37 13.09.2022
1827 Clouds 17 1006 68 10000 6.6 283 10:20 13.09.2022
1828 Clouds 15 1005 88 10000 6.17 270 07:54 13.09.2022
1829 Rain 16 1007 93 6692 6.49 218 02:22 13.09.2022
1830 Clouds 18 1009 66 10000 6.11 179 23:22 12.09.2022
1831 Clouds 18 1009 77 10000 5.66 170 22:40 12.09.2022
1832 Clouds 18 1011 71 10000 4.51 168 21:21 12.09.2022
1833 Rain 18 1011 77 10000 4.12 170 19:58 12.09.2022
1834 Clouds 20 1012 61 10000 3.71 199 18:24 12.09.2022
1835 Clouds 20 1014 64 10000 4.12 190 15:50 12.09.2022
1836 Clouds 18 1015 65 10000 4.18 192 12:31 12.09.2022
1837 Clouds 16 1016 70 10000 3.93 180 10:31 12.09.2022
1838 Clouds 10 1016 100 10000 3.6 170 07:40 12.09.2022
1839 Clouds 10 1017 100 10000 2.06 170 04:36 12.09.2022
1840 Clouds 13 1017 89 10000 0.88 208 02:24 12.09.2022
1841 Clouds 12 1018 100 10000 3.09 260 22:46 11.09.2022
1842 Clouds 16 1018 86 10000 2.14 311 21:30 11.09.2022
1843 Clouds 15 1018 94 10000 1.54 90 20:44 11.09.2022
1844 Clouds 17 1018 88 10000 2.57 80 19:39 11.09.2022
1845 Clouds 18 1018 77 10000 2.06 20 19:19 11.09.2022
1846 Clouds 19 1018 63 10000 1.54 30 17:47 11.09.2022
1847 Clouds 20 1018 60 10000 1.03 30 15:51 11.09.2022
1848 Clear 19 1018 59 10000 2.57 40 13:52 11.09.2022
1849 Clear 19 1018 63 10000 4.12 30 11:35 11.09.2022
1850 Clear 13 1018 93 10000 2.6 348 08:25 11.09.2022
1851 Clear 12 1016 94 10000 2.06 330 05:55 11.09.2022
1852 Clouds 14 1015 94 10000 3.6 50 00:34 11.09.2022
1853 Clouds 15 1015 93 10000 3.48 29 22:26 10.09.2022
1854 Clouds 16 1014 94 10000 4.12 50 20:51 10.09.2022
1855 Clouds 18 1013 77 10000 5.14 40 19:45 10.09.2022
1856 Clouds 19 1013 76 10000 3.36 48 19:27 10.09.2022
1857 Clouds 20 1013 68 10000 2.57 60 17:53 10.09.2022
1858 Clouds 19 1012 72 10000 3.09 100 15:45 10.09.2022
1859 Clouds 18 1012 88 10000 2.57 80 14:37 10.09.2022
1860 Rain 16 1012 100 10000 2.06 100 12:52 10.09.2022
1861 Clouds 16 1012 100 10000 1.54 0 10:35 10.09.2022
1862 Clouds 16 1011 85 10000 1.39 101 09:24 10.09.2022
1863 Clouds 15 1011 90 10000 1.22 137 08:26 10.09.2022
1864 Clouds 15 1010 93 10000 1.72 121 05:25 10.09.2022
1865 Clouds 12 1010 100 700 3.6 110 23:56 09.09.2022
1866 Clouds 13 1010 92 10000 2.57 147 23:29 09.09.2022
1867 Rain 17 1009 91 10000 2.93 151 21:24 09.09.2022
1868 Rain 17 1009 83 10000 2.5 152 20:28 09.09.2022
1869 Rain 18 1008 77 10000 2.4 140 19:23 09.09.2022
1870 Clouds 17 1009 88 10000 3.6 100 18:33 09.09.2022
1871 Rain 21 1008 79 10000 2.04 195 16:21 09.09.2022
1872 Clouds 18 1009 82 10000 1.54 170 13:48 09.09.2022
1873 Clouds 15 1008 94 7000 2.57 170 11:52 09.09.2022
1874 Clouds 15 1007 90 10000 3.24 180 09:21 09.09.2022
1875 Clouds 14 1006 94 4400 1.54 190 03:48 09.09.2022
1876 Clouds 14 1007 94 2300 2.57 130 00:46 09.09.2022
1877 Rain 14 1007 94 9000 6.17 110 21:52 08.09.2022
1878 Rain 14 1008 94 9000 6.69 110 20:51 08.09.2022
1879 Rain 16 1008 95 6096 6.91 93 20:29 08.09.2022
1880 Rain 13 1008 100 9000 7.72 110 19:39 08.09.2022
1881 Rain 13 1009 100 8000 7.72 110 17:44 08.09.2022
1882 Rain 14 1009 94 10000 4.63 120 16:19 08.09.2022
1883 Rain 14 1009 94 6000 6.17 120 14:40 08.09.2022
1884 Rain 18 1010 49 10000 10.64 100 13:23 08.09.2022
1885 Clouds 18 1010 63 10000 7.2 110 11:37 08.09.2022
1886 Clouds 17 1010 72 10000 8.23 120 10:48 08.09.2022
1887 Clouds 16 1010 77 10000 5.66 120 07:57 08.09.2022
1888 Clouds 16 1011 82 10000 5.14 120 06:41 08.09.2022
1889 Clouds 16 1012 88 10000 4.12 130 02:36 08.09.2022
1890 Clouds 16 1012 88 10000 5.66 130 02:18 08.09.2022
1891 Clouds 17 1013 91 10000 5.63 104 00:27 08.09.2022
1892 Clouds 16 1013 88 10000 5.66 120 22:42 07.09.2022
1893 Clouds 16 1013 88 10000 5.14 120 21:42 07.09.2022
1894 Clouds 16 1013 88 10000 4.12 120 20:38 07.09.2022
1895 Clouds 17 1012 77 10000 5.66 120 19:36 07.09.2022
1896 Clouds 20 1013 62 10000 5.67 117 17:28 07.09.2022
1897 Rain 16 1014 94 10000 3.6 110 12:49 07.09.2022
1898 Clouds 18 1014 68 10000 3.6 120 10:46 07.09.2022
1899 Clouds 16 1014 77 10000 4.63 130 08:38 07.09.2022
1900 Clouds 15 1014 82 10000 4.63 120 06:57 07.09.2022
1901 Clouds 16 1016 77 10000 5.14 130 02:46 07.09.2022
1902 Clouds 17 1018 67 10000 6.17 120 22:44 06.09.2022
1903 Clouds 17 1018 63 10000 6.69 120 21:39 06.09.2022
1904 Clouds 18 1018 63 10000 7.61 99 20:21 06.09.2022
1905 Clouds 18 1018 55 10000 7.72 120 18:45 06.09.2022
1906 Clouds 18 1019 54 10000 7.87 103 18:21 06.09.2022
1907 Rain 19 1019 48 10000 8.51 105 17:21 06.09.2022
1908 Clouds 19 1019 55 10000 7.72 120 16:37 06.09.2022
1909 Clouds 19 1020 55 10000 9.77 120 14:59 06.09.2022
1910 Clouds 19 1020 55 10000 8.75 120 13:45 06.09.2022
1911 Clouds 19 1021 44 10000 8.1 109 13:22 06.09.2022
1912 Clouds 18 1021 63 10000 7.72 120 11:54 06.09.2022
1913 Clouds 17 1021 67 10000 8.23 120 10:41 06.09.2022
1914 Clouds 16 1021 72 10000 6.69 120 08:50 06.09.2022
1915 Clouds 16 1021 72 10000 6.17 120 07:37 06.09.2022
1916 Clouds 16 1022 77 10000 7.2 120 02:43 06.09.2022
1917 Clouds 18 1023 69 10000 8.63 105 23:23 05.09.2022
1918 Clouds 18 1023 59 10000 7.72 120 21:53 05.09.2022
1919 Clouds 18 1023 55 10000 8.23 120 20:33 05.09.2022
1920 Clouds 20 1024 52 10000 8.23 120 19:19 05.09.2022
1921 Clouds 20 1024 52 10000 8.23 120 18:45 05.09.2022
1922 Clouds 21 1024 52 10000 8.21 99 18:21 05.09.2022
1923 Clouds 21 1024 52 10000 7.2 120 16:37 05.09.2022
1924 Clouds 22 1024 46 10000 8.75 120 15:47 05.09.2022
1925 Clouds 22 1025 43 10000 8.21 112 13:26 05.09.2022
1926 Clouds 21 1025 44 10000 8.08 113 12:27 05.09.2022
1927 Clouds 19 1025 68 10000 6.69 120 09:44 05.09.2022
1928 Clouds 16 1024 82 10000 4.12 120 06:42 05.09.2022
1929 Clouds 17 1024 77 10000 5.14 120 02:19 05.09.2022
1930 Clouds 17 1025 69 10000 7.13 103 23:26 04.09.2022
1931 Clouds 17 1025 68 10000 7.29 99 22:27 04.09.2022
1932 Clouds 17 1025 68 10000 7.29 99 21:32 04.09.2022
1933 Clouds 19 1023 55 10000 6.17 120 19:38 04.09.2022
1934 Clouds 20 1023 47 10000 7.92 100 18:20 04.09.2022
1935 Clouds 21 1023 52 10000 6.17 110 16:56 04.09.2022
1936 Clouds 21 1022 56 10000 5.14 100 14:36 04.09.2022
1937 Clouds 21 1022 56 10000 6.69 90 13:52 04.09.2022
1938 Clouds 20 1022 60 10000 4.63 110 12:18 04.09.2022
1939 Clouds 19 1022 63 10000 4.63 110 10:47 04.09.2022
1940 Clouds 17 1022 65 10000 5.62 110 08:21 04.09.2022
1941 Clouds 16 1020 72 10000 4.12 120 05:36 04.09.2022
1942 Clouds 16 1019 77 10000 6.17 130 00:53 04.09.2022
1943 Clouds 18 1019 67 10000 8.02 104 22:26 03.09.2022
1944 Clouds 17 1019 63 10000 8.1 101 21:24 03.09.2022
1945 Clear 18 1018 59 10000 8.28 98 20:26 03.09.2022
1946 Clear 21 1018 43 10000 8.75 120 17:35 03.09.2022
1947 Clear 21 1018 43 10000 8.23 120 16:33 03.09.2022
1948 Clear 21 1018 43 10000 8.23 110 14:47 03.09.2022
1949 Clouds 21 1018 38 10000 8.62 105 14:26 03.09.2022
1950 Clouds 21 1018 37 10000 6.69 130 13:39 03.09.2022
1951 Clouds 20 1019 49 10000 6.17 130 11:18 03.09.2022
1952 Clouds 17 1019 67 10000 3.6 130 08:55 03.09.2022
1953 Clouds 16 1018 77 10000 4.12 120 06:59 03.09.2022
1954 Clouds 15 1019 77 10000 4.12 120 04:43 03.09.2022
1955 Clouds 16 1019 72 10000 5.14 130 00:46 03.09.2022
1956 Clouds 17 1019 66 10000 5.41 109 23:28 02.09.2022
1957 Clouds 17 1019 59 10000 4.63 130 21:36 02.09.2022
1958 Clouds 17 1019 55 10000 5.14 120 20:40 02.09.2022
1959 Clouds 19 1019 45 10000 5.14 120 19:47 02.09.2022
1960 Clouds 20 1019 40 10000 5.66 120 18:43 02.09.2022
1961 Clouds 20 1019 44 10000 6.41 98 18:24 02.09.2022
1962 Clouds 21 1020 35 10000 6.69 120 16:51 02.09.2022
1963 Clouds 21 1020 43 10000 5.14 100 15:48 02.09.2022
1964 Clear 21 1021 43 10000 5.14 100 12:56 02.09.2022
1965 Clear 17 1022 42 10000 5.56 121 10:37 02.09.2022
1966 Clear 17 1022 63 10000 3.09 140 09:41 02.09.2022
1967 Clear 12 1022 87 10000 3.6 160 08:42 02.09.2022
1968 Clear 8 1022 100 10000 4.63 150 06:43 02.09.2022
1969 Clear 14 1022 87 10000 2.21 127 05:32 02.09.2022
1970 Clear 11 1023 87 10000 3.6 130 22:58 01.09.2022
1971 Clear 13 1023 76 10000 3.6 130 21:46 01.09.2022
1972 Clear 14 1024 66 10000 2.78 108 21:26 01.09.2022
1973 Clear 15 1023 72 10000 2.06 120 20:49 01.09.2022
1974 Clear 19 1024 46 10000 3.62 99 19:25 01.09.2022
1975 Clear 20 1024 42 10000 3.6 110 18:18 01.09.2022
1976 Clear 21 1024 40 10000 3.09 120 16:47 01.09.2022
1977 Clear 21 1025 37 10000 3.6 120 14:41 01.09.2022
1978 Clouds 21 1025 43 10000 5.04 74 13:20 01.09.2022
1979 Clouds 20 1025 49 10000 3.6 90 12:42 01.09.2022
1980 Clear 21 1025 46 10000 3.09 50 11:50 01.09.2022
1981 Clear 19 1025 59 10000 2.57 90 11:19 01.09.2022
1982 Clear 17 1025 62 10000 4.59 73 09:20 01.09.2022
1983 Clear 10 1025 83 10000 3.29 56 06:28 01.09.2022
1984 Clear 12 1026 78 10000 3.36 53 02:32 01.09.2022
1985 Clouds 12 1026 75 10000 3.6 52 01:29 01.09.2022
1986 Clouds 15 1026 69 10000 4.34 49 22:22 31.08.2022
1987 Clouds 17 1025 59 10000 3.61 71 20:27 31.08.2022
1988 Clear 21 1025 46 10000 5.14 40 18:19 31.08.2022
1989 Clear 20 1025 49 10000 3.09 80 16:35 31.08.2022
1990 Clear 20 1026 52 10000 6.17 40 15:18 31.08.2022
1991 Clouds 20 1025 43 10000 4.91 67 12:37 31.08.2022
1992 Clouds 20 1026 52 10000 4.63 40 11:48 31.08.2022
1993 Clouds 17 1026 55 10000 4.94 45 09:31 31.08.2022
1994 Clear 11 1025 81 10000 3.69 18 07:28 31.08.2022
1995 Clear 11 1026 81 10000 2.94 28 02:25 31.08.2022
1996 Clouds 14 1025 77 10000 3.6 80 22:18 30.08.2022
1997 Clouds 15 1025 63 10000 3.47 50 21:27 30.08.2022
1998 Clouds 18 1024 55 10000 2.57 90 19:51 30.08.2022
1999 Clouds 21 1024 40 10000 4.12 120 16:47 30.08.2022
2000 Clouds 21 1024 40 10000 4.12 120 16:47 30.08.2022
2001 Clouds 21 1025 43 10000 2.57 70 13:38 30.08.2022
2002 Clouds 19 1025 48 10000 4.12 70 11:44 30.08.2022
2003 Clouds 19 1025 55 10000 4.12 70 11:19 30.08.2022
2004 Clouds 18 1024 68 10000 3.6 40 09:32 30.08.2022
2005 Clouds 12 1023 80 10000 3.3 17 06:26 30.08.2022
2006 Clouds 13 1023 88 10000 3.6 40 00:33 30.08.2022
2007 Clouds 15 1023 72 10000 3.6 70 22:37 29.08.2022
2008 Clouds 16 1022 63 10000 4.63 60 21:51 29.08.2022
2009 Clouds 17 1022 59 10000 5.14 50 20:35 29.08.2022
2010 Clouds 20 1021 49 10000 7.2 40 18:59 29.08.2022
2011 Clouds 22 1022 46 10000 6.17 40 17:33 29.08.2022
2012 Clouds 21 1022 49 10000 6.69 30 16:58 29.08.2022
2013 Clouds 22 1022 49 10000 8.23 30 15:19 29.08.2022
2014 Clouds 20 1021 56 10000 7.72 40 13:54 29.08.2022
2015 Clouds 19 1021 73 10000 5.72 19 12:24 29.08.2022
2016 Clouds 18 1021 72 10000 7.72 20 10:43 29.08.2022
2017 Clouds 16 1020 88 10000 4.63 330 09:19 29.08.2022
2018 Clouds 14 1019 95 10000 3.59 334 07:20 29.08.2022
2019 Clouds 16 1019 97 10000 3.12 321 02:31 29.08.2022
2020 Clear 18 1018 94 10000 5.14 320 23:36 28.08.2022
2021 Clear 19 1017 88 10000 7.2 290 21:48 28.08.2022
2022 Clear 18 1017 87 10000 4.11 292 21:29 28.08.2022
2023 Clouds 19 1017 75 10000 4.26 321 20:23 28.08.2022
2024 Clouds 21 1016 68 10000 7.2 280 18:36 28.08.2022
2025 Clouds 21 1016 68 10000 8.75 300 18:18 28.08.2022
2026 Clouds 21 1016 64 10000 9.26 290 16:49 28.08.2022
2027 Clear 21 1016 64 10000 9.77 290 15:34 28.08.2022
2028 Clear 20 1016 68 10000 7.72 320 13:34 28.08.2022
2029 Clear 20 1016 64 10000 7.2 310 12:19 28.08.2022
2030 Clear 19 1016 58 10000 5.79 305 10:27 28.08.2022
2031 Clear 17 1016 77 10000 6.17 320 09:34 28.08.2022
2032 Clear 15 1016 76 10000 4.13 302 08:28 28.08.2022
2033 Clear 12 1016 76 10000 4.13 302 07:32 28.08.2022
2034 Clear 15 1016 88 10000 5.66 310 01:00 28.08.2022
2035 Clear 15 1016 88 10000 4.63 300 23:48 27.08.2022
2036 Clear 15 1015 73 10000 5.13 311 22:27 27.08.2022
2037 Clear 19 1015 68 10000 7.72 310 20:49 27.08.2022
2038 Clouds 21 1014 64 10000 7.2 300 19:37 27.08.2022
2039 Clouds 23 1014 53 10000 6.17 300 16:37 27.08.2022
2040 Clouds 24 1014 37 10000 5.75 323 15:31 27.08.2022
2041 Clouds 22 1014 56 10000 5.66 310 14:18 27.08.2022
2042 Clouds 21 1014 50 10000 5.03 337 12:22 27.08.2022
2043 Clouds 18 1015 72 10000 6.17 340 10:33 27.08.2022
2044 Clouds 17 1014 77 10000 6.17 340 09:40 27.08.2022
2045 Clouds 17 1014 77 10000 6.17 340 09:40 27.08.2022
2046 Clouds 16 1014 94 10000 4.63 330 06:55 27.08.2022
2047 Clouds 18 1014 95 10000 4.67 332 02:31 27.08.2022
2048 Clouds 20 1014 94 10000 5.14 320 23:53 26.08.2022
2049 Clouds 20 1013 98 10000 3.53 314 22:24 26.08.2022
2050 Clouds 23 1013 86 10000 3.11 299 20:25 26.08.2022
2051 Clouds 22 1012 75 10000 1.82 280 19:20 26.08.2022
2052 Rain 23 1013 78 10000 2.57 90 16:46 26.08.2022
2053 Clouds 27 1013 44 10000 2.09 101 15:27 26.08.2022
2054 Clouds 26 1014 69 10000 3.6 120 13:46 26.08.2022
2055 Clouds 24 1014 73 10000 4.12 120 12:35 26.08.2022
2056 Clouds 25 1014 55 10000 3.48 131 11:22 26.08.2022
2057 Clouds 23 1014 64 10000 3.46 129 10:25 26.08.2022
2058 Clouds 19 1015 94 10000 4.12 120 06:50 26.08.2022
2059 Clouds 21 1016 87 10000 5.16 111 01:22 26.08.2022
2060 Clouds 20 1016 89 10000 5.17 109 23:30 25.08.2022
2061 Clouds 21 1017 85 10000 5.95 102 21:26 25.08.2022
2062 Clouds 22 1017 79 10000 6.62 103 20:26 25.08.2022
2063 Clouds 24 1017 64 10000 5.66 140 18:49 25.08.2022
2064 Clouds 24 1018 64 10000 5.66 110 17:44 25.08.2022
2065 Clouds 24 1018 58 10000 7.47 106 17:24 25.08.2022
2066 Clouds 25 1018 54 10000 7.27 104 15:39 25.08.2022
2067 Clouds 25 1018 52 10000 7.15 103 14:33 25.08.2022
2068 Clouds 23 1021 73 10000 4.63 90 11:54 25.08.2022
2069 Clouds 22 1021 73 10000 5.14 130 10:46 25.08.2022
2070 Clear 19 1021 94 10000 4.63 130 08:54 25.08.2022
2071 Clouds 17 1021 97 10000 3.69 116 05:20 25.08.2022
2072 Clouds 19 1022 88 10000 4.63 130 01:37 25.08.2022
2073 Clouds 19 1022 84 10000 5.47 109 23:26 24.08.2022
2074 Clouds 20 1022 81 10000 5.66 110 22:22 24.08.2022
2075 Clouds 20 1022 77 10000 4.63 120 21:35 24.08.2022
2076 Clouds 21 1021 73 10000 5.14 120 20:52 24.08.2022
2077 Clear 25 1020 53 10000 5.14 120 18:58 24.08.2022
2078 Clear 25 1021 53 10000 5.66 120 16:46 24.08.2022
2079 Clear 25 1021 61 10000 4.12 110 15:52 24.08.2022
2080 Clouds 26 1021 47 10000 5.14 140 13:40 24.08.2022
2081 Clouds 24 1021 50 10000 6.17 140 11:38 24.08.2022
2082 Clouds 21 1020 68 10000 5.14 140 09:39 24.08.2022
2083 Clouds 19 1020 75 10000 5.26 122 08:25 24.08.2022
2084 Clouds 19 1019 72 10000 4.63 140 02:57 24.08.2022
2085 Clouds 19 1019 63 10000 5.66 130 23:34 23.08.2022
2086 Clouds 20 1019 71 10000 6.05 113 22:33 23.08.2022
2087 Clouds 20 1019 60 10000 5.14 130 21:35 23.08.2022
2088 Clouds 21 1018 68 10000 6.08 113 20:30 23.08.2022
2089 Clouds 24 1018 46 10000 5.66 140 18:50 23.08.2022
2090 Clouds 25 1018 47 10000 6.17 130 17:50 23.08.2022
2091 Clouds 26 1018 44 10000 7.2 120 17:18 23.08.2022
2092 Clouds 26 1018 47 10000 7.2 120 15:39 23.08.2022
2093 Clouds 26 1018 47 10000 5.14 140 13:36 23.08.2022
2094 Clouds 23 1018 53 10000 5.14 160 11:33 23.08.2022
2095 Clouds 22 1018 64 10000 3.6 140 10:51 23.08.2022
2096 Clouds 22 1018 64 10000 5.12 131 10:32 23.08.2022
2097 Clouds 18 1018 82 10000 3.09 140 08:54 23.08.2022
2098 Clouds 18 1017 70 10000 4.87 130 08:21 23.08.2022
2099 Clouds 18 1017 82 10000 4.12 140 07:43 23.08.2022
2100 Clouds 17 1017 88 10000 5.66 130 06:34 23.08.2022
2101 Clouds 16 1017 94 10000 4.12 130 05:52 23.08.2022
2102 Clouds 17 1017 94 10000 3.6 130 01:42 23.08.2022
2103 Clouds 16 1017 83 10000 3.64 102 00:26 23.08.2022
2104 Clouds 17 1018 85 10000 3.62 107 23:29 22.08.2022
2105 Clouds 17 1017 88 10000 3.6 130 21:51 22.08.2022
2106 Clouds 21 1017 60 10000 2.57 100 19:51 22.08.2022
2107 Clouds 21 1017 70 10000 4 90 19:30 22.08.2022
2108 Clouds 22 1017 56 10000 4.08 97 17:59 22.08.2022
2109 Clouds 21 1017 56 10000 3.09 90 15:45 22.08.2022
2110 Clouds 22 1018 53 10000 3.09 70 14:46 22.08.2022
2111 Clouds 21 1018 62 10000 2.27 95 11:20 22.08.2022
2112 Clouds 19 1018 72 10000 1.15 83 09:20 22.08.2022
2113 Clouds 13 1017 94 10000 1.03 260 04:45 22.08.2022
2114 Clouds 13 1016 100 10000 1.54 300 00:54 22.08.2022
2115 Clouds 14 1016 100 10000 1.54 300 00:35 22.08.2022
2116 Clouds 17 1016 82 10000 3.09 340 22:57 21.08.2022
2117 Clouds 18 1015 72 10000 3.6 330 21:50 21.08.2022
2118 Clouds 20 1015 68 10000 5.14 300 21:18 21.08.2022
2119 Clouds 21 1014 64 10000 7.2 300 19:42 21.08.2022
2120 Clouds 22 1014 64 10000 9.26 290 18:35 21.08.2022
2121 Clouds 24 1013 53 10000 9.77 260 16:34 21.08.2022
2122 Clouds 23 1014 60 10000 8.75 260 15:51 21.08.2022
2123 Clouds 23 1013 60 10000 8.75 270 14:41 21.08.2022
2124 Clear 24 1013 50 10000 8.75 260 13:48 21.08.2022
2125 Clear 23 1013 46 10000 5.14 240 12:55 21.08.2022
2126 Clear 21 1014 56 10000 4.63 230 10:36 21.08.2022
2127 Clear 16 1014 77 10000 4.63 200 08:57 21.08.2022
2128 Clear 16 1014 77 10000 4.63 200 08:39 21.08.2022
2129 Clear 15 1014 82 10000 4.63 190 08:18 21.08.2022
2130 Clear 15 1014 82 10000 4.63 200 06:33 21.08.2022
2131 Clear 15 1015 82 10000 3.6 210 01:47 21.08.2022
2132 Clear 15 1016 88 10000 3.6 250 23:34 20.08.2022
2133 Clear 18 1016 72 10000 5.66 280 21:55 20.08.2022
2134 Clear 20 1016 64 10000 6.17 290 20:51 20.08.2022
2135 Clouds 21 1015 56 10000 7.72 290 19:44 20.08.2022
2136 Clouds 22 1015 56 10000 9.26 300 18:48 20.08.2022
2137 Clouds 22 1015 58 10000 5.36 294 18:26 20.08.2022
2138 Clouds 23 1015 57 10000 5.76 304 17:21 20.08.2022
2139 Clouds 23 1014 51 10000 5.75 299 16:20 20.08.2022
2140 Clouds 23 1014 47 10000 4.39 265 14:26 20.08.2022
2141 Clouds 21 1014 73 10000 2.57 240 11:58 20.08.2022
2142 Clouds 21 1014 73 10000 2.57 240 11:37 20.08.2022
2143 Clouds 18 1014 76 10000 1.95 332 09:20 20.08.2022
2144 Clouds 19 1013 85 10000 2.81 319 07:31 20.08.2022
2145 Clouds 19 1012 98 10000 2.35 293 05:22 20.08.2022
2146 Clouds 16 1013 100 10000 3.6 280 00:58 20.08.2022
2147 Clouds 16 1012 94 10000 4.12 290 23:51 19.08.2022
2148 Clouds 16 1012 94 10000 3.09 280 22:45 19.08.2022
2149 Clouds 19 1012 75 10000 2.52 297 21:30 19.08.2022
2150 Clouds 22 1011 61 10000 3.8 285 19:22 19.08.2022
2151 Clouds 25 1011 54 10000 1.49 339 16:28 19.08.2022
2152 Clouds 22 1012 58 10000 1.01 303 14:22 19.08.2022
2153 Clouds 19 1013 88 10000 3.09 360 12:19 19.08.2022
2154 Clouds 18 1013 94 5000 3.6 350 10:39 19.08.2022
2155 Clouds 18 1012 94 7000 4.12 330 08:48 19.08.2022
2156 Clear 18 1011 94 10000 3.09 300 04:56 19.08.2022
2157 Clouds 19 1012 88 10000 2.57 320 00:43 19.08.2022
2158 Clear 20 1011 88 10000 4.12 320 00:19 19.08.2022
2159 Clear 21 1011 83 10000 3.6 320 22:58 18.08.2022
2160 Clear 20 1012 95 10000 3.8 316 22:26 18.08.2022
2161 Clear 22 1011 83 10000 4.63 320 21:50 18.08.2022
2162 Clear 22 1011 83 10000 3.6 350 20:56 18.08.2022
2163 Clouds 23 1011 73 10000 4.63 360 19:40 18.08.2022
2164 Clouds 23 1011 78 10000 3.71 282 19:20 18.08.2022
2165 Clouds 23 1011 78 10000 5.66 30 17:38 18.08.2022
2166 Clouds 24 1011 73 10000 3.6 40 16:19 18.08.2022
2167 Clouds 23 1011 65 10000 3.27 331 14:22 18.08.2022
2168 Clouds 24 1011 64 10000 2.06 20 13:44 18.08.2022
2169 Clouds 24 1011 64 10000 2.06 20 13:44 18.08.2022
2170 Clouds 24 1011 64 10000 2.06 20 13:44 18.08.2022
2171 Clouds 23 1012 68 10000 2.74 344 12:30 18.08.2022
2172 Clouds 22 1012 80 10000 2.15 31 11:21 18.08.2022
2173 Clouds 21 1011 88 10000 4.12 40 09:43 18.08.2022
2174 Clouds 19 1011 100 9000 4.12 50 07:53 18.08.2022
2175 Clouds 19 1011 94 10000 3.6 40 06:37 18.08.2022
2176 Clouds 18 1011 94 10000 3.54 58 02:32 18.08.2022
2177 Rain 18 1012 94 10000 3.09 60 22:50 17.08.2022
2178 Clouds 21 1012 73 10000 3.6 110 20:37 17.08.2022
2179 Clouds 23 1012 78 10000 3.09 90 19:59 17.08.2022
2180 Clouds 23 1012 73 10000 2.06 100 18:39 17.08.2022
2181 Clouds 26 1011 54 10000 3.65 58 17:27 17.08.2022
2182 Clouds 26 1012 51 10000 3.06 66 16:20 17.08.2022
2183 Clouds 25 1012 61 10000 2.06 90 14:46 17.08.2022
2184 Clouds 24 1013 69 10000 2.06 30 12:50 17.08.2022
2185 Clouds 23 1013 73 10000 1.54 20 11:36 17.08.2022
2186 Clouds 22 1013 64 10000 1.42 322 09:30 17.08.2022
2187 Clouds 19 1012 92 10000 1.18 288 07:28 17.08.2022
2188 Clouds 18 1010 94 4000 1.54 280 01:45 17.08.2022
2189 Clouds 19 1010 94 5000 2.57 260 23:45 16.08.2022
2190 Clouds 22 1009 78 10000 4.12 310 21:52 16.08.2022
2191 Clouds 25 1008 66 10000 3.74 257 20:26 16.08.2022
2192 Clouds 25 1008 61 10000 7.72 260 19:40 16.08.2022
2193 Clear 27 1007 45 10000 5.07 249 18:23 16.08.2022
2194 Clear 29 1007 41 10000 5.69 239 17:28 16.08.2022
2195 Clouds 28 1006 50 10000 4.63 260 15:46 16.08.2022
2196 Clouds 28 1007 50 10000 6.69 250 14:55 16.08.2022
2197 Clouds 27 1007 50 10000 6.69 250 14:37 16.08.2022
2198 Clouds 26 1006 57 10000 6.17 260 12:43 16.08.2022
2199 Clouds 22 1005 78 10000 5.66 260 10:35 16.08.2022
2200 Clouds 20 1005 94 10000 3.6 240 09:43 16.08.2022
2201 Rain 19 1004 94 5000 3.09 230 08:43 16.08.2022
2202 Clouds 19 1004 100 5000 3.09 240 07:33 16.08.2022
2203 Clouds 19 1004 100 6000 2.06 90 01:42 16.08.2022
2204 Clouds 22 1004 87 10000 1.48 162 22:29 15.08.2022
2205 Clouds 22 1004 83 10000 2.06 100 21:53 15.08.2022
2206 Clouds 24 1004 69 10000 4.12 120 20:52 15.08.2022
2207 Clouds 25 1004 65 10000 4.12 130 20:19 15.08.2022
2208 Clouds 25 1004 65 10000 4.12 130 20:19 15.08.2022
2209 Clear 27 1003 57 10000 5.66 140 18:41 15.08.2022
2210 Clear 28 1003 39 10000 6.42 93 17:23 15.08.2022
2211 Clear 29 1003 36 10000 5.96 90 16:21 15.08.2022
2212 Clouds 27 1004 61 10000 4.12 90 13:57 15.08.2022
2213 Clouds 26 1004 61 10000 2.57 110 12:37 15.08.2022
2214 Clouds 26 1004 61 10000 2.57 110 12:37 15.08.2022
2215 Clouds 22 1005 83 10000 3.09 110 10:18 15.08.2022
2216 Clouds 20 1005 94 10000 3.6 120 08:42 15.08.2022
2217 Clouds 18 1006 97 10000 3.59 92 06:27 15.08.2022
2218 Clouds 19 1007 82 10000 2.57 110 02:57 15.08.2022
2219 Clouds 21 1009 81 10000 6.07 104 23:22 14.08.2022
2220 Clouds 22 1009 68 10000 6.17 130 21:42 14.08.2022
2221 Clouds 24 1009 59 10000 6.05 97 20:29 14.08.2022
2222 Clouds 25 1009 61 10000 4.12 120 19:36 14.08.2022
2223 Clouds 26 1010 56 10000 6.6 98 18:21 14.08.2022
2224 Clouds 26 1010 42 10000 7.66 92 17:27 14.08.2022
2225 Clouds 27 1010 40 10000 7.37 95 16:22 14.08.2022
2226 Clouds 26 1012 53 10000 6.17 120 14:39 14.08.2022
2227 Clouds 25 1012 61 10000 6.17 120 13:50 14.08.2022
2228 Clouds 28 1012 46 10000 6.6 101 13:31 14.08.2022
2229 Clouds 25 1013 65 10000 4.12 100 12:35 14.08.2022
2230 Clouds 26 1013 59 10000 6.01 89 11:22 14.08.2022
2231 Clouds 22 1014 78 10000 4.63 110 08:56 14.08.2022
2232 Clouds 20 1015 77 10000 2.76 97 06:27 14.08.2022
2233 Clouds 18 1016 94 10000 3.09 90 04:47 14.08.2022
2234 Clouds 18 1017 82 10000 1.54 100 01:36 14.08.2022
2235 Clouds 18 1017 82 10000 3.09 120 22:56 13.08.2022
2236 Clear 21 1017 65 10000 2.93 102 22:27 13.08.2022
2237 Clear 24 1017 46 10000 3.6 130 20:50 13.08.2022
2238 Clear 28 1017 34 10000 3.6 120 19:48 13.08.2022
2239 Clear 29 1018 30 10000 4.12 120 19:18 13.08.2022
2240 Clear 29 1018 31 10000 5.41 92 17:21 13.08.2022
2241 Clear 29 1019 39 10000 3.6 100 14:50 13.08.2022
2242 Clear 31 1019 30 10000 4.62 91 14:24 13.08.2022
2243 Clear 29 1019 51 10000 3.6 100 13:34 13.08.2022
2244 Clear 27 1019 30 10000 3.11 117 11:33 13.08.2022
2245 Clear 23 1020 45 10000 2.28 120 09:26 13.08.2022
2246 Clouds 16 1020 100 10000 3.09 120 07:43 13.08.2022
2247 Clear 15 1020 94 10000 2.57 90 01:52 13.08.2022
2248 Clear 19 1021 73 10000 2.87 99 23:32 12.08.2022
2249 Clouds 19 1020 77 10000 4.12 130 21:40 12.08.2022
2250 Clear 26 1020 38 10000 3.6 110 19:50 12.08.2022
2251 Clear 26 1020 38 10000 4.4 92 19:24 12.08.2022
2252 Clear 27 1021 34 10000 4.7 89 18:29 12.08.2022
2253 Clear 27 1021 32 10000 4.64 89 16:27 12.08.2022
2254 Clear 28 1021 32 10000 4.74 90 15:23 12.08.2022
2255 Clear 26 1022 47 10000 4.12 80 13:50 12.08.2022
2256 Clear 25 1023 50 10000 3.09 90 12:50 12.08.2022
2257 Clear 21 1022 48 10000 3.03 96 09:22 12.08.2022
2258 Clear 14 1023 94 10000 1.54 80 07:47 12.08.2022
2259 Clear 12 1023 87 10000 2.38 102 06:25 12.08.2022
2260 Clear 14 1024 75 10000 2.73 114 01:22 12.08.2022
2261 Clear 15 1023 70 10000 2.8 106 00:20 12.08.2022
2262 Clear 18 1023 67 10000 2.96 102 23:29 11.08.2022
2263 Clear 18 1023 82 10000 4.12 120 21:57 11.08.2022
2264 Clear 19 1023 82 10000 4.12 120 21:35 11.08.2022
2265 Clear 23 1023 59 10000 3.15 94 20:32 11.08.2022
2266 Clear 25 1023 44 10000 2.57 90 19:53 11.08.2022
2267 Clear 23 1023 46 10000 3.11 99 19:30 11.08.2022
2268 Clear 26 1023 41 10000 3.6 90 17:34 11.08.2022
2269 Clear 28 1023 33 10000 4.41 95 16:32 11.08.2022
2270 Clear 28 1024 32 10000 4.15 91 15:20 11.08.2022
2271 Clouds 25 1025 50 10000 3.09 90 12:39 11.08.2022
2272 Clear 21 1025 83 10000 1.54 0 09:54 11.08.2022
2273 Clear 13 1025 94 10000 2.06 110 06:59 11.08.2022
2274 Clear 13 1025 100 10000 2.57 100 03:45 11.08.2022
2275 Clouds 15 1026 94 10000 1.03 340 00:35 11.08.2022
2276 Clouds 18 1026 76 10000 1.12 120 22:22 10.08.2022
2277 Clouds 20 1026 69 10000 1.32 90 21:24 10.08.2022
2278 Clouds 22 1026 56 10000 3.09 120 20:54 10.08.2022
2279 Clouds 24 1025 46 10000 1.89 72 19:24 10.08.2022
2280 Clouds 26 1026 47 10000 3.09 90 17:55 10.08.2022
2281 Clouds 26 1026 44 10000 1.03 200 16:35 10.08.2022
2282 Clouds 24 1028 53 10000 2.57 320 13:35 10.08.2022
2283 Clouds 23 1028 56 10000 1.54 330 12:35 10.08.2022
2284 Clouds 20 1029 72 10000 0.34 56 09:25 10.08.2022
2285 Clouds 15 1029 100 10000 0 0 08:33 10.08.2022
2286 Clouds 12 1029 100 10000 1.03 360 07:18 10.08.2022
2287 Clouds 12 1029 91 10000 1.28 355 03:25 10.08.2022
2288 Clouds 15 1029 94 10000 2.06 350 23:34 09.08.2022
2289 Clouds 16 1029 88 10000 1.54 310 22:56 09.08.2022
2290 Clouds 17 1029 88 10000 2.57 340 21:35 09.08.2022
2291 Clouds 20 1029 76 10000 3.34 313 20:30 09.08.2022
2292 Clouds 22 1029 56 10000 1.03 0 18:44 09.08.2022
2293 Clouds 24 1027 41 10000 2.64 343 17:28 09.08.2022
2294 Clouds 24 1027 41 10000 2.64 343 17:28 09.08.2022
2295 Clouds 22 1029 53 10000 1.54 40 16:40 09.08.2022
2296 Clouds 22 1029 56 10000 1.54 30 15:58 09.08.2022
2297 Clouds 21 1029 52 10000 2.57 30 12:52 09.08.2022
2298 Clouds 17 1029 82 10000 1.03 360 09:39 09.08.2022
2299 Clouds 15 1029 94 10000 1.03 50 08:50 09.08.2022
2300 Clouds 13 1029 94 10000 1.03 330 07:53 09.08.2022
2301 Clouds 10 1028 92 10000 2.61 353 04:25 09.08.2022
2302 Clear 15 1027 88 10000 3.6 310 23:35 08.08.2022
2303 Clear 16 1027 82 10000 3.6 280 22:56 08.08.2022
2304 Clear 15 1027 82 10000 3.55 318 22:22 08.08.2022
2305 Clear 17 1027 70 10000 3.6 311 21:27 08.08.2022
2306 Clouds 21 1025 52 10000 6.17 320 19:51 08.08.2022
2307 Clouds 20 1025 51 10000 5.25 309 19:22 08.08.2022
2308 Clouds 22 1025 60 10000 6.17 290 17:34 08.08.2022
2309 Clouds 22 1025 56 10000 2.06 240 15:45 08.08.2022
2310 Clouds 22 1025 56 10000 2.57 270 14:33 08.08.2022
2311 Clouds 21 1025 70 10000 1.11 287 12:29 08.08.2022
2312 Clouds 20 1025 79 10000 0.89 235 10:23 08.08.2022
2313 Clouds 13 1024 94 10000 2.06 260 06:56 08.08.2022
2314 Clear 12 1024 100 10000 2.57 230 03:34 08.08.2022
2315 Clouds 16 1023 77 10000 3.6 250 22:52 07.08.2022
2316 Clouds 17 1023 67 10000 5.14 260 21:41 07.08.2022
2317 Clouds 17 1023 72 10000 3.09 260 20:54 07.08.2022
2318 Clouds 19 1023 63 10000 6.17 280 20:18 07.08.2022
2319 Clouds 19 1023 63 10000 6.17 280 19:50 07.08.2022
2320 Clouds 19 1023 63 10000 6.69 270 18:41 07.08.2022
2321 Clouds 21 1023 47 10000 5.46 263 17:21 07.08.2022
2322 Clouds 20 1024 60 10000 5.66 280 16:41 07.08.2022
2323 Clouds 21 1024 52 10000 4.98 269 15:26 07.08.2022
2324 Clouds 17 1024 77 10000 4.63 320 13:47 07.08.2022
2325 Clouds 19 1025 55 10000 6.17 260 12:38 07.08.2022
2326 Clouds 17 1025 72 10000 5.14 260 10:42 07.08.2022
2327 Clouds 15 1025 82 10000 3.09 200 09:35 07.08.2022
2328 Clouds 12 1025 87 10000 5.14 220 04:33 07.08.2022
2329 Clouds 11 1026 87 10000 1.54 230 01:59 07.08.2022
2330 Clouds 13 1026 82 10000 2.57 280 22:33 06.08.2022
2331 Clouds 15 1026 67 10000 6.17 300 21:48 06.08.2022
2332 Clouds 18 1025 59 10000 7.72 290 19:43 06.08.2022
2333 Clouds 19 1025 52 10000 11.32 310 18:38 06.08.2022
2334 Clouds 20 1025 52 10000 8.23 290 17:45 06.08.2022
2335 Clouds 21 1025 45 10000 7.06 290 16:24 06.08.2022
2336 Clouds 19 1025 52 10000 9.77 300 13:51 06.08.2022
2337 Clear 20 1025 44 10000 6.78 287 12:27 06.08.2022
2338 Clear 20 1025 44 10000 6.78 287 12:27 06.08.2022
2339 Clear 18 1025 44 10000 6.58 288 11:21 06.08.2022
2340 Clear 16 1024 67 10000 7.2 300 09:41 06.08.2022
2341 Clear 11 1022 87 10000 5.14 270 04:43 06.08.2022
2342 Clouds 13 1020 82 10000 6.69 310 00:49 06.08.2022
2343 Clouds 14 1019 82 10000 7.2 300 22:36 05.08.2022
2344 Clouds 15 1018 82 10000 6.17 300 21:18 05.08.2022
2345 Rain 17 1017 67 10000 9.77 310 19:18 05.08.2022
2346 Rain 17 1017 67 10000 9.77 310 18:41 05.08.2022
2347 Clouds 19 1015 59 10000 7.72 320 16:53 05.08.2022
2348 Clouds 22 1015 65 10000 2.83 218 15:25 05.08.2022
2349 Clouds 21 1015 52 10000 1.54 250 14:54 05.08.2022
2350 Clouds 20 1015 59 10000 2.57 280 13:39 05.08.2022
2351 Clouds 20 1014 59 10000 1.03 300 13:19 05.08.2022
2352 Clouds 18 1015 68 10000 3.09 360 11:58 05.08.2022
2353 Clouds 16 1015 69 10000 2.61 340 10:25 05.08.2022
2354 Clouds 15 1014 94 10000 3.6 310 07:58 05.08.2022
2355 Rain 14 1014 92 10000 2.59 360 05:25 05.08.2022
2356 Clouds 17 1014 82 10000 3.6 320 23:50 04.08.2022
2357 Clouds 19 1013 88 10000 6.17 320 21:58 04.08.2022
2358 Clear 19 1013 67 10000 4.32 319 21:25 04.08.2022
2359 Clear 20 1012 88 10000 7.2 310 20:41 04.08.2022
2360 Clouds 23 1011 62 10000 5.52 298 19:21 04.08.2022
2361 Clouds 24 1012 73 10000 9.77 280 18:34 04.08.2022
2362 Clouds 28 1011 57 10000 5.32 290 17:31 04.08.2022
2363 Clouds 31 1010 37 10000 5.14 210 13:44 04.08.2022
2364 Clouds 29 1011 51 10000 4.63 190 11:47 04.08.2022
2365 Clouds 27 1011 61 10000 1.54 170 10:48 04.08.2022
2366 Clouds 18 1012 100 10000 1.54 130 07:52 04.08.2022
2367 Clouds 16 1013 90 10000 3 160 04:30 04.08.2022
2368 Clouds 15 1014 92 10000 1.63 164 02:20 04.08.2022
2369 Clear 18 1014 94 10000 0.51 240 23:43 03.08.2022
2370 Clear 19 1014 93 10000 2.74 254 22:29 03.08.2022
2371 Clear 22 1014 78 10000 5.14 270 20:45 03.08.2022
2372 Clouds 24 1014 73 10000 6.17 260 19:35 03.08.2022
2373 Clouds 26 1013 61 10000 5.74 255 18:23 03.08.2022
2374 Clouds 26 1013 57 10000 7.01 248 16:24 03.08.2022
2375 Clouds 25 1013 65 10000 7.2 250 14:45 03.08.2022
2376 Clouds 25 1013 55 10000 7.36 235 12:32 03.08.2022
2377 Clouds 20 1012 83 10000 5.14 210 08:50 03.08.2022
2378 Clouds 18 1013 82 10000 3.09 200 04:47 03.08.2022
2379 Clouds 17 1013 88 10000 5.14 180 03:37 03.08.2022
2380 Clouds 18 1014 88 10000 4.63 190 01:36 03.08.2022
2381 Clouds 18 1014 92 10000 3.15 200 23:23 02.08.2022
2382 Clouds 18 1014 88 10000 5.14 220 21:55 02.08.2022
2383 Clouds 18 1014 88 10000 5.14 220 21:33 02.08.2022
2384 Rain 18 1014 88 10000 4.63 190 19:19 02.08.2022
2385 Rain 22 1014 49 10000 4.63 200 16:38 02.08.2022
2386 Clouds 21 1016 39 10000 4.96 202 13:21 02.08.2022
2387 Clouds 16 1017 77 10000 3.6 190 09:53 02.08.2022
2388 Clouds 14 1018 72 10000 2.95 188 08:27 02.08.2022
2389 Clouds 11 1017 87 10000 3.6 190 07:50 02.08.2022
2390 Clouds 9 1018 100 10000 1.54 240 04:56 02.08.2022
2391 Clouds 10 1018 93 10000 3.6 300 01:58 02.08.2022
2392 Clouds 11 1019 84 10000 2.92 297 23:21 01.08.2022
2393 Clear 15 1018 72 10000 7.2 300 21:37 01.08.2022
2394 Clouds 18 1017 59 10000 8.23 310 19:45 01.08.2022
2395 Clouds 19 1017 55 10000 7.72 310 18:53 01.08.2022
2396 Clouds 20 1016 55 10000 7.72 320 16:56 01.08.2022
2397 Clouds 21 1016 39 10000 6.22 301 16:33 01.08.2022
2398 Clouds 20 1016 56 10000 8.75 300 15:44 01.08.2022
2399 Clouds 20 1016 55 10000 7.72 320 14:45 01.08.2022
2400 Clouds 20 1016 40 10000 6.38 300 13:32 01.08.2022
2401 Clouds 16 1015 67 10000 9.26 330 11:18 01.08.2022
2402 Clouds 14 1014 88 10000 6.69 340 08:55 01.08.2022
2403 Clouds 14 1014 89 10000 5.07 325 07:23 01.08.2022
2404 Clouds 17 1011 100 8000 4.63 300 04:37 01.08.2022
2405 Clouds 17 1012 94 7000 2.06 270 01:33 01.08.2022
2406 Rain 16 1012 100 7000 2.06 160 22:47 31.07.2022
2407 Rain 16 1012 97 10000 2.25 129 22:29 31.07.2022
2408 Rain 18 1012 94 8000 3.09 230 20:44 31.07.2022
2409 Rain 19 1012 88 10000 2.57 190 18:42 31.07.2022
2410 Rain 21 1013 81 10000 0.95 322 17:29 31.07.2022
2411 Clouds 22 1013 60 10000 3.09 190 14:57 31.07.2022
2412 Clouds 23 1014 60 10000 3.09 230 13:19 31.07.2022
2413 Clouds 21 1015 68 10000 1.54 200 11:44 31.07.2022
2414 Clouds 17 1015 94 10000 1.54 260 09:18 31.07.2022
2415 Clouds 14 1016 89 10000 1.99 250 06:31 31.07.2022
2416 Clouds 15 1016 94 10000 2.2 272 02:31 31.07.2022
2417 Clouds 17 1017 94 600 1.54 270 22:50 30.07.2022
2418 Clouds 18 1017 94 6000 1.03 10 21:55 30.07.2022
2419 Clouds 18 1017 94 6000 1.03 10 21:37 30.07.2022
2420 Clouds 18 1016 94 6000 1.54 20 20:38 30.07.2022
2421 Clouds 19 1016 88 4100 2.57 40 19:57 30.07.2022
2422 Rain 22 1016 49 10000 2.13 129 18:23 30.07.2022
2423 Clouds 23 1016 56 10000 4.12 140 16:54 30.07.2022
2424 Clouds 23 1017 60 10000 2.06 100 15:35 30.07.2022
2425 Clouds 22 1017 46 10000 2.19 74 14:32 30.07.2022
2426 Clouds 19 1017 82 10000 3.6 90 12:43 30.07.2022
2427 Clouds 18 1017 88 10000 1.54 0 11:55 30.07.2022
2428 Clouds 20 1018 67 10000 1.79 136 10:25 30.07.2022
2429 Clouds 17 1017 94 10000 2.57 70 09:45 30.07.2022
2430 Clouds 16 1017 94 10000 2.57 80 07:47 30.07.2022
2431 Clouds 16 1018 88 10000 2.06 90 02:34 30.07.2022
2432 Clouds 16 1018 88 10000 2.57 70 01:43 30.07.2022
2433 Clouds 17 1019 89 10000 3.54 65 22:25 29.07.2022
2434 Clouds 20 1019 56 10000 1.54 0 20:59 29.07.2022
2435 Clouds 20 1019 56 10000 3.09 110 19:57 29.07.2022
2436 Clouds 22 1019 37 10000 3.6 100 17:53 29.07.2022
2437 Clouds 23 1019 44 10000 4.31 93 15:21 29.07.2022
2438 Clouds 20 1020 60 10000 3.09 90 12:59 29.07.2022
2439 Clouds 19 1020 68 10000 2.57 80 10:42 29.07.2022
2440 Clouds 15 1020 88 10000 1.03 90 08:50 29.07.2022
2441 Clouds 13 1020 100 10000 1.54 0 07:54 29.07.2022
2442 Clouds 11 1021 87 10000 4.12 30 01:52 29.07.2022
2443 Clouds 14 1021 77 10000 1.54 280 22:49 28.07.2022
2444 Clouds 16 1020 65 10000 0.94 37 21:20 28.07.2022
2445 Clouds 17 1020 67 10000 3.19 327 20:31 28.07.2022
2446 Clouds 20 1019 49 10000 2.57 320 19:43 28.07.2022
2447 Clouds 18 1019 46 10000 2.89 332 19:23 28.07.2022
2448 Clouds 19 1020 45 10000 1.03 320 17:44 28.07.2022
2449 Clouds 20 1020 45 10000 1.54 260 16:55 28.07.2022
2450 Clouds 20 1019 41 10000 3 304 16:28 28.07.2022
2451 Clouds 19 1020 44 10000 3.18 279 13:30 28.07.2022
2452 Clouds 17 1020 54 10000 2.61 280 11:27 28.07.2022
2453 Clouds 11 1019 87 10000 1.54 280 06:46 28.07.2022
2454 Clouds 13 1019 59 10000 3.26 311 05:33 28.07.2022
2455 Clouds 13 1019 76 10000 3.6 280 02:40 28.07.2022
2456 Clouds 14 1018 67 10000 4.63 320 22:45 27.07.2022
2457 Clouds 15 1018 62 10000 5.35 302 21:29 27.07.2022
2458 Clouds 16 1017 59 10000 10.8 310 19:44 27.07.2022
2459 Clouds 16 1017 59 10000 10.8 310 18:39 27.07.2022
2460 Clouds 17 1017 56 10000 7.54 299 16:31 27.07.2022
2461 Clouds 16 1017 63 10000 11.83 300 15:40 27.07.2022
2462 Clouds 16 1017 63 10000 11.32 300 14:41 27.07.2022
2463 Clouds 15 1016 67 10000 12.35 290 12:52 27.07.2022
2464 Clouds 14 1015 72 10000 9.77 310 08:55 27.07.2022
2465 Clouds 13 1016 65 10000 6.28 291 07:33 27.07.2022
2466 Clouds 13 1015 76 10000 7.72 280 02:43 27.07.2022
2467 Clouds 14 1015 77 10000 7.2 290 22:47 26.07.2022
2468 Clouds 14 1015 62 10000 6.04 278 21:25 26.07.2022
2469 Clouds 15 1014 67 10000 9.26 300 20:47 26.07.2022
2470 Clouds 17 1014 59 10000 12.86 290 18:46 26.07.2022
2471 Clouds 18 1014 57 10000 7.45 287 18:28 26.07.2022
2472 Clouds 17 1013 59 10000 12.35 310 16:54 26.07.2022
2473 Clouds 18 1013 55 10000 13.89 290 15:43 26.07.2022
2474 Clouds 18 1013 59 10000 12.86 300 14:38 26.07.2022
2475 Clouds 18 1011 55 10000 12.35 300 11:47 26.07.2022
2476 Clouds 15 1010 88 10000 10.8 320 09:44 26.07.2022
2477 Clouds 14 1009 94 10000 8.75 310 08:18 26.07.2022
2478 Rain 17 1006 88 10000 6.69 250 01:52 26.07.2022
2479 Clear 18 1007 82 10000 5.14 250 23:44 25.07.2022
2480 Clear 18 1006 77 10000 5.66 260 22:39 25.07.2022
2481 Clear 18 1006 77 10000 8.75 270 21:43 25.07.2022
2482 Clear 19 1006 72 10000 9.77 270 20:43 25.07.2022
2483 Clouds 20 1005 73 10000 6.58 267 20:23 25.07.2022
2484 Clouds 22 1005 72 10000 7.32 261 19:24 25.07.2022
2485 Clouds 21 1006 73 10000 8.23 260 17:37 25.07.2022
2486 Clouds 20 1006 83 10000 6.69 250 16:44 25.07.2022
2487 Clouds 28 1005 49 10000 6.65 235 13:22 25.07.2022
2488 Clouds 24 1006 57 10000 4.12 200 10:48 25.07.2022
2489 Clouds 21 1007 68 10000 4.12 170 07:53 25.07.2022
2490 Clouds 18 1013 88 10000 4.12 160 00:57 25.07.2022
2491 Rain 18 1013 82 10000 4.12 170 23:45 24.07.2022
2492 Clouds 18 1014 88 10000 3.09 230 22:44 24.07.2022
2493 Clouds 20 1014 73 10000 3.6 250 21:41 24.07.2022
2494 Clouds 22 1014 64 10000 3.09 250 20:59 24.07.2022
2495 Clouds 22 1014 64 10000 3.09 250 20:41 24.07.2022
2496 Clouds 23 1015 58 10000 4.64 248 19:20 24.07.2022
2497 Clouds 24 1015 53 10000 8.23 260 17:57 24.07.2022
2498 Clouds 23 1015 56 10000 5.66 240 15:55 24.07.2022
2499 Clouds 24 1015 53 10000 7.2 210 14:47 24.07.2022
2500 Clouds 24 1016 53 10000 5.66 200 13:49 24.07.2022
2501 Clouds 24 1017 50 10000 6.2 210 12:28 24.07.2022
2502 Clouds 21 1017 50 10000 6.2 210 11:31 24.07.2022
2503 Clouds 17 1018 72 10000 5.14 180 09:55 24.07.2022
2504 Clouds 13 1018 76 10000 4.07 192 08:22 24.07.2022
2505 Clouds 13 1018 88 10000 1.03 0 07:41 24.07.2022
2506 Clear 10 1019 93 10000 3.09 240 03:18 24.07.2022
2507 Clear 13 1019 82 10000 3.6 270 23:36 23.07.2022
2508 Clear 16 1018 67 10000 7.72 300 20:49 23.07.2022
2509 Clouds 17 1018 65 10000 5.34 288 19:30 23.07.2022
2510 Clouds 17 1018 63 10000 8.75 300 18:40 23.07.2022
2511 Clouds 18 1017 54 10000 6.72 282 17:28 23.07.2022
2512 Clouds 18 1017 54 10000 6.72 282 16:30 23.07.2022
2513 Clouds 18 1017 57 10000 6.2 287 15:22 23.07.2022
2514 Clouds 17 1017 67 10000 9.26 300 14:56 23.07.2022
2515 Clouds 18 1017 59 10000 5.84 287 14:24 23.07.2022
2516 Clouds 18 1017 59 10000 5.84 287 14:24 23.07.2022
2517 Clouds 17 1016 61 10000 5.99 287 12:22 23.07.2022
2518 Clouds 15 1016 82 10000 7.2 280 10:45 23.07.2022
2519 Clouds 15 1016 82 10000 7.2 270 09:54 23.07.2022
2520 Clouds 15 1016 70 10000 4.91 279 08:30 23.07.2022
2521 Clouds 15 1016 77 10000 5.66 270 03:38 23.07.2022
2522 Clouds 15 1016 77 10000 7.72 280 00:41 23.07.2022
2523 Clouds 15 1017 77 10000 8.23 290 22:19 22.07.2022
2524 Clouds 15 1017 77 10000 10.8 290 20:39 22.07.2022
2525 Clouds 16 1017 64 10000 6.7 276 19:34 22.07.2022
2526 Clouds 16 1017 63 10000 7 275 18:28 22.07.2022
2527 Clouds 17 1017 72 10000 10.29 270 16:48 22.07.2022
2528 Clear 17 1017 72 10000 10.8 280 14:40 22.07.2022
2529 Clouds 17 1017 60 10000 7.37 279 11:22 22.07.2022
2530 Clouds 15 1016 72 10000 6.56 285 09:25 22.07.2022
2531 Clouds 15 1016 83 10000 5.53 284 08:29 22.07.2022
2532 Clouds 16 1015 88 10000 8.23 290 05:18 22.07.2022
2533 Rain 16 1015 88 10000 7.2 290 00:48 22.07.2022
2534 Clouds 16 1016 94 10000 4.2 303 22:25 21.07.2022
2535 Clouds 17 1015 93 8144 4.17 295 21:29 21.07.2022
2536 Rain 19 1015 82 10000 4.39 291 19:26 21.07.2022
2537 Clouds 21 1015 78 10000 7.72 250 17:41 21.07.2022
2538 Clouds 21 1015 78 10000 7.72 260 17:19 21.07.2022
2539 Clouds 24 1015 69 10000 7.72 260 14:55 21.07.2022
2540 Clouds 24 1015 67 10000 5.88 262 14:31 21.07.2022
2541 Clouds 22 1015 61 10000 7.06 269 12:28 21.07.2022
2542 Rain 21 1015 78 10000 2.57 270 11:19 21.07.2022
2543 Clouds 21 1014 78 10000 6.17 310 09:38 21.07.2022
2544 Clouds 19 1015 88 10000 6.69 280 08:52 21.07.2022
2545 Clouds 18 1015 94 6000 5.66 280 07:50 21.07.2022
2546 Clouds 17 1014 90 10000 2.5 306 06:24 21.07.2022
2547 Clear 19 1016 88 10000 3.09 310 00:48 21.07.2022
2548 Clear 21 1016 84 10000 3.16 295 22:22 20.07.2022
2549 Clear 23 1015 73 10000 5.66 290 20:59 20.07.2022
2550 Clear 26 1015 61 10000 5.14 320 19:54 20.07.2022
2551 Clear 31 1015 58 10000 5.99 277 19:25 20.07.2022
2552 Clear 27 1015 57 10000 5.66 280 18:52 20.07.2022
2553 Clear 31 1015 45 10000 4.98 269 18:26 20.07.2022
2554 Clear 28 1015 51 10000 6.69 270 16:46 20.07.2022
2555 Clear 35 1015 37 10000 6.27 268 15:32 20.07.2022
2556 Clouds 29 1015 25 10000 5.05 186 14:20 20.07.2022
2557 Clouds 29 1015 51 3000 3.09 120 11:55 20.07.2022
2558 Clouds 24 1015 73 10000 2.57 130 09:43 20.07.2022
2559 Clear 14 1016 94 10000 3.6 130 04:50 20.07.2022
2560 Clear 18 1017 46 10000 4.17 126 00:54 20.07.2022
2561 Clear 18 1017 49 10000 4.19 121 00:25 20.07.2022
2562 Clear 20 1017 73 10000 4.63 130 22:34 19.07.2022
2563 Clear 22 1017 60 10000 4.12 130 21:53 19.07.2022
2564 Clear 25 1017 65 10000 3.09 130 20:49 19.07.2022
2565 Clear 28 1017 49 10000 3.7 120 19:22 19.07.2022
2566 Clear 28 1018 44 10000 3.6 100 18:35 19.07.2022
2567 Clear 29 1018 39 10000 2.57 110 17:53 19.07.2022
2568 Clear 31 1018 31 10000 1.12 216 15:26 19.07.2022
2569 Clear 28 1019 41 10000 1.54 0 12:44 19.07.2022
2570 Clear 26 1019 41 10000 2.57 220 11:32 19.07.2022
2571 Clear 24 1019 40 10000 2.11 226 09:51 19.07.2022
2572 Clear 18 1019 77 10000 0.51 0 08:46 19.07.2022
2573 Clear 12 1019 100 10000 2.57 230 07:19 19.07.2022
2574 Clear 16 1019 67 10000 2.01 229 06:27 19.07.2022
2575 Clear 12 1019 100 10000 2.57 250 05:18 19.07.2022
2576 Clear 13 1019 94 10000 2.57 270 02:38 19.07.2022
2577 Clouds 16 1019 82 10000 5.14 260 23:54 18.07.2022
2578 Clouds 16 1020 75 10000 2.79 261 23:20 18.07.2022
2579 Clouds 19 1020 71 10000 2.9 261 22:27 18.07.2022
2580 Clouds 21 1019 66 10000 2.99 252 21:24 18.07.2022
2581 Clouds 23 1019 46 10000 4.63 250 20:34 18.07.2022
2582 Clouds 24 1020 43 10000 7.2 260 18:50 18.07.2022
2583 Clouds 25 1021 41 10000 7.2 250 16:45 18.07.2022
2584 Clouds 24 1021 41 10000 6.17 250 15:34 18.07.2022
2585 Clouds 22 1022 53 10000 6.69 240 13:32 18.07.2022
2586 Clouds 24 1022 50 10000 6.23 226 12:21 18.07.2022
2587 Clouds 18 1022 77 10000 5.14 210 09:56 18.07.2022
2588 Rain 16 1023 82 10000 3.09 220 08:19 18.07.2022
2589 Clouds 16 1022 77 10000 3.09 210 06:39 18.07.2022
2590 Clouds 17 1024 82 10000 4.63 260 23:19 17.07.2022
2591 Clouds 16 1025 89 10000 3.08 241 22:32 17.07.2022
2592 Clouds 17 1024 77 10000 5.14 270 21:40 17.07.2022
2593 Clouds 17 1024 77 10000 6.69 280 20:46 17.07.2022
2594 Clouds 17 1025 72 10000 6.17 280 20:18 17.07.2022
2595 Clouds 19 1025 62 10000 5.38 277 19:26 17.07.2022
2596 Clouds 21 1025 60 10000 6.11 284 18:22 17.07.2022
2597 Clouds 19 1025 72 10000 8.23 280 17:37 17.07.2022
2598 Clouds 20 1025 68 10000 8.23 290 16:50 17.07.2022
2599 Clouds 22 1025 53 10000 6.07 288 16:25 17.07.2022
2600 Clouds 21 1025 53 10000 6.49 280 14:20 17.07.2022
2601 Clouds 20 1025 55 10000 5.76 290 13:24 17.07.2022
2602 Clouds 17 1025 67 10000 8.23 300 10:59 17.07.2022
2603 Clouds 15 1025 82 10000 7.2 300 08:44 17.07.2022
2604 Clouds 13 1024 76 10000 6.17 290 03:40 17.07.2022
2605 Clouds 13 1024 76 10000 5.66 290 01:47 17.07.2022
2606 Clouds 13 1023 76 10000 6.69 290 23:19 16.07.2022
2607 Clouds 14 1023 69 10000 5.5 294 21:21 16.07.2022
2608 Clear 17 1022 59 10000 7.31 299 19:25 16.07.2022
2609 Clear 17 1021 59 10000 12.86 300 17:56 16.07.2022
2610 Clear 20 1021 51 10000 8.5 304 16:27 16.07.2022
2611 Clouds 18 1020 50 10000 9.19 302 13:47 16.07.2022
2612 Clouds 16 1017 63 10000 13.38 320 10:50 16.07.2022
2613 Clear 15 1017 72 10000 10.8 310 09:32 16.07.2022
2614 Clear 14 1016 77 10000 9.26 310 08:43 16.07.2022
2615 Clouds 12 1016 87 10000 7.2 310 07:59 16.07.2022
2616 Clouds 13 1015 100 10000 5.66 310 03:58 16.07.2022
2617 Rain 13 1015 100 10000 4.12 300 02:40 16.07.2022
2618 Rain 13 1016 97 10000 2.98 250 23:30 15.07.2022
2619 Rain 14 1017 94 10000 4.63 250 22:40 15.07.2022
2620 Rain 15 1017 78 10000 4.44 263 21:29 15.07.2022
2621 Clouds 16 1018 64 10000 4.69 264 20:26 15.07.2022
2622 Clouds 16 1018 67 10000 8.23 280 18:40 15.07.2022
2623 Clouds 17 1019 63 10000 9.26 280 17:37 15.07.2022
2624 Clouds 18 1018 59 10000 9.26 300 14:54 15.07.2022
2625 Clouds 16 1018 67 10000 10.29 290 12:58 15.07.2022
2626 Clouds 17 1018 60 10000 6.39 297 11:27 15.07.2022
2627 Clouds 15 1018 67 10000 8.23 300 09:44 15.07.2022
2628 Clouds 13 1017 65 10000 6.4 300 06:30 15.07.2022
2629 Clouds 13 1017 82 10000 7.2 300 00:58 15.07.2022
2630 Clouds 13 1017 78 10000 5.15 290 00:21 15.07.2022
2631 Clouds 13 1017 77 10000 5.34 286 22:50 14.07.2022
2632 Clouds 14 1016 77 10000 9.77 300 21:51 14.07.2022
2633 Clouds 14 1016 70 10000 6.4 291 21:29 14.07.2022
2634 Clouds 15 1016 67 10000 10.29 320 20:45 14.07.2022
2635 Clouds 15 1016 63 10000 7.09 293 20:24 14.07.2022
2636 Clouds 17 1016 59 10000 10.8 310 19:19 14.07.2022
2637 Clouds 18 1015 48 10000 8.09 293 16:23 14.07.2022
2638 Rain 15 1016 88 10000 6.69 270 15:50 14.07.2022
2639 Clouds 14 1016 88 10000 7.72 260 14:43 14.07.2022
2640 Rain 18 1016 61 10000 7.44 268 13:21 14.07.2022
2641 Rain 17 1017 67 10000 9.77 270 12:18 14.07.2022
2642 Clouds 18 1017 58 10000 7.04 267 11:25 14.07.2022
2643 Clouds 17 1017 67 10000 9.26 270 10:39 14.07.2022
2644 Clouds 16 1018 68 10000 5.6 274 08:21 14.07.2022
2645 Clear 9 1018 89 10000 2.99 274 03:29 14.07.2022
2646 Clouds 12 1018 82 10000 4.63 300 00:54 14.07.2022
2647 Clear 12 1019 89 10000 3.28 280 23:38 13.07.2022
2648 Clear 14 1019 77 10000 4.5 299 22:26 13.07.2022
2649 Clear 16 1019 77 10000 4.5 299 21:30 13.07.2022
2650 Clear 17 1018 63 10000 6.73 305 20:26 13.07.2022
2651 Clear 21 1016 60 10000 10.29 300 17:59 13.07.2022
2652 Clear 22 1016 52 10000 7.65 299 17:20 13.07.2022
2653 Clear 22 1016 64 10000 10.8 290 15:59 13.07.2022
2654 Clouds 23 1015 60 10000 10.8 280 13:50 13.07.2022
2655 Clouds 23 1015 55 10000 5.14 265 11:30 13.07.2022
2656 Clouds 22 1015 73 10000 4.63 260 10:44 13.07.2022
2657 Clouds 20 1016 70 10000 3.37 237 09:28 13.07.2022
2658 Rain 20 1017 74 10000 3.32 245 08:23 13.07.2022
2659 Clouds 19 1018 77 10000 4.12 250 04:36 13.07.2022
2660 Clouds 19 1020 77 10000 4.12 230 00:47 13.07.2022
2661 Clouds 20 1021 77 10000 5.66 240 22:46 12.07.2022
2662 Clouds 20 1021 73 10000 4.63 250 21:49 12.07.2022
2663 Clouds 20 1021 73 10000 5.14 250 20:53 12.07.2022
2664 Clouds 21 1022 68 10000 4.12 250 19:54 12.07.2022
2665 Clouds 21 1022 64 10000 6.17 260 18:43 12.07.2022
2666 Clouds 23 1022 57 10000 5.13 254 17:23 12.07.2022
2667 Clouds 23 1022 57 10000 5.36 258 15:32 12.07.2022
2668 Clouds 22 1023 64 10000 5.66 270 13:43 12.07.2022
2669 Clouds 20 1024 77 10000 3.6 270 11:55 12.07.2022
2670 Clouds 18 1024 82 10000 4.12 280 10:46 12.07.2022
2671 Clouds 15 1023 94 10000 3.09 270 09:18 12.07.2022
2672 Clouds 15 1023 94 10000 3.09 290 07:55 12.07.2022
2673 Clouds 14 1023 100 10000 4.12 300 05:54 12.07.2022
2674 Clouds 14 1023 100 10000 4.12 300 05:35 12.07.2022
2675 Clouds 14 1023 94 10000 5.66 290 01:36 12.07.2022
2676 Clouds 15 1022 82 10000 5.14 280 22:52 11.07.2022
2677 Clouds 17 1022 77 10000 5.66 290 21:44 11.07.2022
2678 Clouds 19 1022 81 10000 3.66 292 20:33 11.07.2022
2679 Clouds 21 1022 72 10000 4.3 296 19:32 11.07.2022
2680 Clear 23 1022 65 10000 4.63 299 18:32 11.07.2022
2681 Clear 23 1021 49 10000 2.57 270 17:36 11.07.2022
2682 Clear 22 1021 53 10000 3.09 270 15:46 11.07.2022
2683 Clouds 21 1021 56 10000 2.06 270 13:39 11.07.2022
2684 Clouds 19 1021 63 10000 3.09 310 11:40 11.07.2022
2685 Clouds 18 1021 63 10000 3.05 323 10:22 11.07.2022
2686 Clouds 16 1021 77 10000 5.66 320 09:42 11.07.2022
2687 Clouds 14 1021 82 10000 3.09 300 08:33 11.07.2022
2688 Clouds 8 1020 100 10000 2.57 310 04:34 11.07.2022
2689 Clouds 11 1021 89 10000 3.33 300 00:22 11.07.2022
2690 Clouds 13 1020 77 10000 5.14 300 22:56 10.07.2022
2691 Clouds 15 1020 72 10000 7.2 300 21:51 10.07.2022
2692 Clouds 16 1020 67 10000 10.8 300 20:54 10.07.2022
2693 Clouds 17 1020 63 10000 9.77 310 19:50 10.07.2022
2694 Clouds 17 1020 63 10000 9.77 310 18:49 10.07.2022
2695 Clouds 18 1020 63 10000 8.75 310 17:37 10.07.2022
2696 Clouds 18 1020 59 10000 8.75 310 16:57 10.07.2022
2697 Clouds 19 1020 55 10000 9.77 310 15:33 10.07.2022
2698 Clouds 19 1020 49 10000 7.42 307 14:33 10.07.2022
2699 Clouds 18 1020 52 10000 7.43 311 12:30 10.07.2022
2700 Clouds 17 1020 58 10000 7.91 316 11:25 10.07.2022
2701 Clouds 14 1019 72 10000 9.26 320 08:46 10.07.2022
2702 Clouds 15 1020 61 10000 7.3 317 08:24 10.07.2022
2703 Clouds 13 1020 71 10000 7.72 330 03:38 10.07.2022
2704 Clouds 14 1021 79 10000 6.21 303 23:30 09.07.2022
2705 Clouds 14 1021 71 10000 6.49 307 22:25 09.07.2022
2706 Clouds 14 1021 71 10000 6.49 307 21:31 09.07.2022
2707 Clouds 15 1021 67 10000 13.38 320 18:59 09.07.2022
2708 Clouds 16 1021 62 10000 8.34 303 18:22 09.07.2022
2709 Clouds 17 1021 63 10000 12.35 310 16:59 09.07.2022
2710 Clouds 16 1022 63 10000 13.38 320 15:56 09.07.2022
2711 Clouds 16 1022 63 10000 13.38 320 15:36 09.07.2022
2712 Clouds 18 1022 63 10000 12.35 310 13:54 09.07.2022
2713 Clouds 19 1021 57 10000 8.92 303 13:28 09.07.2022
2714 Clouds 18 1022 63 10000 11.32 320 11:40 09.07.2022
2715 Clouds 18 1021 65 10000 7.4 309 10:25 09.07.2022
2716 Clouds 18 1021 77 10000 6.29 307 09:23 09.07.2022
2717 Clouds 16 1022 88 10000 7.2 310 07:43 09.07.2022
2718 Clouds 15 1023 100 8000 7.2 280 04:38 09.07.2022
2719 Clouds 15 1025 82 10000 8.23 290 23:40 08.07.2022
2720 Clouds 15 1025 77 10000 10.29 300 22:18 08.07.2022
2721 Clear 15 1025 82 10000 5.95 291 21:26 08.07.2022
2722 Clear 16 1025 72 10000 10.29 300 20:35 08.07.2022
2723 Clouds 16 1025 77 10000 11.83 300 19:38 08.07.2022
2724 Clear 17 1025 72 10000 11.32 300 17:45 08.07.2022
2725 Clear 20 1025 61 10000 8.41 296 16:29 08.07.2022
2726 Clear 18 1026 68 10000 11.83 300 14:50 08.07.2022
2727 Clouds 19 1025 72 10000 11.32 300 12:42 08.07.2022
2728 Clouds 15 1025 94 10000 8.75 310 10:52 08.07.2022
2729 Clouds 15 1025 94 7000 4.63 310 09:58 08.07.2022
2730 Clouds 14 1024 88 10000 7.72 290 07:53 08.07.2022
2731 Clear 13 1024 88 10000 7.72 300 05:37 08.07.2022
2732 Clear 14 1023 82 10000 10.29 320 00:41 08.07.2022
2733 Clear 15 1021 82 10000 9.77 320 22:53 07.07.2022
2734 Clear 16 1020 77 10000 11.32 320 21:52 07.07.2022
2735 Clouds 19 1018 72 10000 12.35 310 19:35 07.07.2022
2736 Clouds 19 1017 68 10000 9.26 310 17:50 07.07.2022
2737 Clear 19 1016 62 10000 8.94 306 16:23 07.07.2022
2738 Clouds 19 1015 54 10000 9.89 305 14:21 07.07.2022
2739 Clouds 16 1015 82 10000 11.32 310 12:45 07.07.2022
2740 Clouds 17 1014 58 10000 8.62 312 12:23 07.07.2022
2741 Clouds 17 1014 77 10000 11.83 320 11:34 07.07.2022
2742 Clouds 17 1013 77 10000 8.23 310 10:46 07.07.2022
2743 Clouds 18 1013 74 10000 7.12 316 10:27 07.07.2022
2744 Clouds 16 1013 74 10000 7.12 316 09:32 07.07.2022
2745 Rain 16 1011 97 10000 4.06 320 06:31 07.07.2022
2746 Rain 15 1014 97 7983 6.82 248 00:28 07.07.2022
2747 Rain 15 1014 97 7983 6.82 248 23:36 06.07.2022
2748 Rain 15 1015 100 6000 7.72 250 23:18 06.07.2022
2749 Rain 15 1015 100 6000 7.72 250 22:51 06.07.2022
2750 Rain 15 1015 100 6000 7.72 250 22:33 06.07.2022
2751 Rain 15 1017 87 10000 6.6 235 20:23 06.07.2022
2752 Clouds 16 1018 72 10000 6.91 244 19:22 06.07.2022
2753 Clouds 19 1019 54 10000 7.34 261 17:21 06.07.2022
2754 Clouds 19 1020 59 10000 9.77 270 15:57 06.07.2022
2755 Clouds 18 1021 59 10000 7.2 290 12:44 06.07.2022
2756 Clouds 19 1021 56 10000 5.82 282 12:21 06.07.2022
2757 Clouds 17 1021 67 10000 6.17 310 10:55 06.07.2022
2758 Clouds 17 1021 73 10000 4.12 316 09:27 06.07.2022
2759 Clouds 17 1021 73 10000 4.12 316 09:27 06.07.2022
2760 Clouds 14 1020 77 10000 4.12 280 07:44 06.07.2022
2761 Clouds 13 1020 88 10000 4.63 280 06:49 06.07.2022
2762 Clouds 13 1020 88 10000 6.69 270 00:38 06.07.2022
2763 Clouds 15 1020 72 10000 5.66 290 22:43 05.07.2022
2764 Clouds 16 1019 72 10000 8.75 280 20:57 05.07.2022
2765 Clouds 16 1019 72 10000 8.75 280 20:33 05.07.2022
2766 Clouds 18 1019 63 10000 9.77 290 19:39 05.07.2022
2767 Clouds 17 1019 72 10000 7.72 280 17:55 05.07.2022
2768 Clouds 17 1019 57 10000 7.39 269 17:25 05.07.2022
2769 Clouds 18 1019 63 10000 10.29 310 16:33 05.07.2022
2770 Clouds 18 1019 68 10000 7.72 250 14:54 05.07.2022
2771 Clouds 18 1019 68 10000 9.77 270 13:36 05.07.2022
2772 Clouds 17 1018 54 10000 6.56 255 12:26 05.07.2022
2773 Rain 15 1018 82 5000 7.2 290 10:46 05.07.2022
2774 Clouds 17 1018 67 10000 6.69 290 09:58 05.07.2022
2775 Clouds 15 1018 75 10000 4.74 246 08:23 05.07.2022
2776 Clouds 12 1018 85 10000 3.6 237 07:20 05.07.2022
2777 Clouds 12 1017 88 10000 5.14 250 04:39 05.07.2022
2778 Clouds 15 1017 77 10000 3.6 230 01:54 05.07.2022
2779 Clouds 15 1017 77 10000 5.66 260 23:40 04.07.2022
2780 Clouds 15 1017 77 10000 6.17 270 22:58 04.07.2022
2781 Clouds 16 1017 72 10000 10.29 270 22:19 04.07.2022
2782 Clouds 17 1016 67 10000 11.83 260 20:58 04.07.2022
2783 Clouds 17 1016 67 10000 11.83 260 20:37 04.07.2022
2784 Clouds 18 1016 63 10000 11.32 270 20:18 04.07.2022
2785 Clouds 18 1016 63 10000 11.32 270 19:43 04.07.2022
2786 Clouds 18 1017 69 10000 7.62 256 19:24 04.07.2022
2787 Clouds 20 1017 58 10000 8.3 258 17:23 04.07.2022
2788 Clouds 21 1016 56 10000 10.8 260 15:41 04.07.2022
2789 Clouds 19 1016 59 10000 8.4 257 14:21 04.07.2022
2790 Clouds 18 1016 68 10000 7.72 240 12:56 04.07.2022
2791 Clouds 18 1016 72 10000 5.14 240 11:43 04.07.2022
2792 Rain 18 1016 68 10000 8.23 260 10:33 04.07.2022
2793 Clouds 18 1016 72 10000 3.6 250 09:33 04.07.2022
2794 Clear 14 1016 94 10000 4.63 260 06:42 04.07.2022
2795 Clear 14 1016 94 10000 4.63 270 02:59 04.07.2022
2796 Clouds 16 1016 94 10000 4.63 280 23:53 03.07.2022
2797 Clouds 16 1015 94 10000 1.03 340 22:55 03.07.2022
2798 Rain 19 1016 72 10000 3.09 310 20:46 03.07.2022
2799 Rain 18 1016 74 10000 4.08 254 20:20 03.07.2022
2800 Clouds 19 1016 63 10000 4.24 271 19:25 03.07.2022
2801 Clouds 19 1016 63 10000 4.24 271 18:31 03.07.2022
2802 Clouds 23 1015 56 10000 6.17 290 17:42 03.07.2022
2803 Clouds 24 1016 49 10000 5.61 254 15:28 03.07.2022
2804 Clouds 25 1016 57 10000 5.66 290 14:57 03.07.2022
2805 Clouds 23 1016 56 10000 2.57 320 13:50 03.07.2022
2806 Clouds 23 1016 53 10000 1.03 360 12:51 03.07.2022
2807 Clouds 25 1016 50 10000 2.57 246 12:22 03.07.2022
2808 Clouds 20 1016 82 10000 1.03 0 10:55 03.07.2022
2809 Clouds 19 1016 82 10000 1.03 0 10:36 03.07.2022
2810 Clouds 18 1016 88 10000 1.03 130 08:48 03.07.2022
2811 Clouds 17 1016 94 10000 0 0 07:34 03.07.2022
2812 Clouds 15 1018 88 10000 3.6 110 01:33 03.07.2022
2813 Clouds 15 1019 82 10000 4.12 120 23:50 02.07.2022
2814 Clouds 16 1020 77 10000 2.06 110 22:32 02.07.2022
2815 Clouds 20 1020 56 10000 4.12 290 20:37 02.07.2022
2816 Clouds 21 1020 52 10000 5.66 280 19:50 02.07.2022
2817 Clouds 22 1020 43 10000 8.23 260 19:19 02.07.2022
2818 Clouds 22 1021 43 10000 9.26 260 17:41 02.07.2022
2819 Clouds 21 1021 46 10000 6.69 230 16:38 02.07.2022
2820 Clouds 21 1021 49 10000 6.69 220 13:51 02.07.2022
2821 Clear 20 1021 49 10000 6.69 230 12:19 02.07.2022
2822 Clear 20 1021 60 10000 5.14 240 10:54 02.07.2022
2823 Clear 20 1021 60 10000 5.14 240 10:33 02.07.2022
2824 Clear 17 1020 77 10000 5.14 220 08:54 02.07.2022
2825 Clear 16 1020 88 10000 4.63 200 08:19 02.07.2022
2826 Clear 14 1019 88 10000 5.14 200 06:59 02.07.2022
2827 Clouds 14 1019 88 10000 4.63 230 01:44 02.07.2022
2828 Clouds 15 1019 77 10000 4.12 240 23:37 01.07.2022
2829 Clouds 16 1018 72 10000 5.66 260 22:40 01.07.2022
2830 Clouds 17 1017 72 10000 5.14 260 21:47 01.07.2022
2831 Clouds 16 1018 75 10000 4.18 254 21:27 01.07.2022
2832 Clouds 17 1017 77 10000 6.17 280 20:38 01.07.2022
2833 Clouds 18 1016 72 10000 6.69 260 19:42 01.07.2022
2834 Clouds 19 1016 68 10000 6.69 270 17:53 01.07.2022
2835 Rain 17 1015 88 10000 6.69 270 15:50 01.07.2022
2836 Rain 17 1014 88 10000 7.72 270 13:54 01.07.2022
2837 Rain 17 1013 94 10000 6.17 280 11:56 01.07.2022
2838 Rain 17 1013 92 10000 6.03 266 10:20 01.07.2022
2839 Rain 17 1013 92 10000 6.03 266 10:20 01.07.2022
2840 Clouds 18 1013 92 10000 6.03 266 09:31 01.07.2022
2841 Rain 19 1010 94 7000 4.12 130 04:49 01.07.2022
2842 Clear 17 1011 93 10000 3.77 94 00:26 01.07.2022
2843 Clear 19 1011 82 10000 4.63 130 22:59 30.06.2022
2844 Clear 19 1011 82 10000 4.63 130 22:41 30.06.2022
2845 Clear 19 1012 87 10000 4.29 92 22:22 30.06.2022
2846 Clear 20 1011 60 10000 3.09 110 21:41 30.06.2022
2847 Clear 22 1012 80 10000 4.71 91 20:30 30.06.2022
2848 Clouds 24 1012 46 10000 3.6 120 19:54 30.06.2022
2849 Clouds 24 1012 65 10000 4.48 90 19:25 30.06.2022
2850 Clouds 24 1012 46 10000 4.63 110 18:42 30.06.2022
2851 Clouds 24 1012 43 10000 5.14 110 17:44 30.06.2022
2852 Clouds 24 1013 46 10000 4.63 100 16:55 30.06.2022
2853 Clouds 24 1013 46 10000 5.66 100 15:42 30.06.2022
2854 Clear 23 1013 53 10000 3.6 100 13:36 30.06.2022
2855 Clouds 23 1014 56 10000 4.12 90 12:35 30.06.2022
2856 Clouds 22 1014 60 10000 4.12 120 11:55 30.06.2022
2857 Clear 21 1014 68 10000 5.14 110 09:55 30.06.2022
2858 Clear 21 1014 68 10000 5.14 110 09:35 30.06.2022
2859 Clouds 18 1014 94 10000 3.6 110 08:19 30.06.2022
2860 Clouds 18 1015 85 10000 3.49 109 07:24 30.06.2022
2861 Clear 15 1015 94 10000 4.12 120 02:38 30.06.2022
2862 Clouds 17 1016 85 10000 4.41 100 23:36 29.06.2022
2863 Clouds 18 1016 77 10000 4.63 120 22:41 29.06.2022
2864 Clouds 19 1015 63 10000 4.63 120 21:58 29.06.2022
2865 Clouds 21 1015 52 10000 5.14 120 20:34 29.06.2022
2866 Clouds 23 1016 46 10000 5.66 120 19:55 29.06.2022
2867 Clouds 23 1016 43 10000 5.66 120 17:55 29.06.2022
2868 Clouds 23 1016 60 10000 4.63 100 16:51 29.06.2022
2869 Clouds 24 1017 60 10000 4.63 100 15:33 29.06.2022
2870 Clouds 23 1018 56 10000 5.14 100 13:36 29.06.2022
2871 Clouds 22 1018 60 10000 6.17 120 12:36 29.06.2022
2872 Clouds 21 1018 68 10000 4.63 130 09:46 29.06.2022
2873 Clouds 21 1018 65 10000 4.25 122 09:22 29.06.2022
2874 Clear 13 1019 87 10000 2.9 124 06:29 29.06.2022
2875 Clear 11 1019 100 10000 2.57 80 04:42 29.06.2022
2876 Clear 13 1021 94 10000 1.54 80 00:53 29.06.2022
2877 Clear 13 1021 94 10000 1.54 80 00:33 29.06.2022
2878 Clear 15 1021 82 10000 1.03 280 22:50 28.06.2022
2879 Clear 17 1020 77 10000 2.57 280 21:58 28.06.2022
2880 Clear 17 1020 77 10000 2.57 280 21:39 28.06.2022
2881 Clear 20 1020 49 10000 3.6 280 21:19 28.06.2022
2882 Clouds 21 1020 46 10000 3.09 260 19:54 28.06.2022
2883 Clouds 21 1021 65 10000 2.55 270 19:30 28.06.2022
2884 Clouds 21 1020 46 10000 4.12 190 18:40 28.06.2022
2885 Clouds 22 1020 53 10000 4.52 246 17:25 28.06.2022
2886 Clouds 22 1021 49 10000 5.66 270 15:55 28.06.2022
2887 Clouds 21 1020 56 10000 6.17 270 14:52 28.06.2022
2888 Clouds 21 1020 52 10000 3.09 240 14:19 28.06.2022
2889 Clouds 21 1020 52 10000 3.09 240 13:45 28.06.2022
2890 Clouds 20 1020 56 10000 5.12 248 12:30 28.06.2022
2891 Clear 20 1020 74 10000 4.29 241 10:23 28.06.2022
2892 Clouds 16 1020 88 10000 1.03 0 08:56 28.06.2022
2893 Clouds 16 1020 88 10000 1.03 0 08:37 28.06.2022
2894 Clouds 13 1019 93 10000 0.54 219 07:20 28.06.2022
2895 Clouds 14 1018 100 10000 3.09 300 03:55 28.06.2022
2896 Clouds 15 1017 94 10000 4.63 290 23:51 27.06.2022
2897 Clouds 14 1017 98 10000 3.01 290 23:26 27.06.2022
2898 Clouds 15 1016 97 10000 2.31 296 22:25 27.06.2022
2899 Clouds 15 1016 97 10000 2.4 309 21:29 27.06.2022
2900 Rain 15 1016 100 10000 5.14 350 20:33 27.06.2022
2901 Rain 16 1015 94 10000 7.2 320 18:52 27.06.2022
2902 Clouds 16 1015 94 10000 6.17 310 17:44 27.06.2022
2903 Clouds 16 1015 100 10000 3.6 300 15:50 27.06.2022
2904 Rain 17 1015 93 10000 1.3 317 14:25 27.06.2022
2905 Clouds 16 1015 88 10000 2.57 360 12:58 27.06.2022
2906 Clouds 16 1015 88 10000 2.57 360 12:36 27.06.2022
2907 Clouds 15 1014 94 10000 7.72 360 09:53 27.06.2022
2908 Rain 14 1015 94 10000 4.63 330 08:43 27.06.2022
2909 Rain 14 1015 94 10000 5.14 30 07:53 27.06.2022
2910 Rain 14 1015 94 10000 7.72 10 06:37 27.06.2022
2911 Rain 17 1016 79 10000 2.58 11 01:26 27.06.2022
2912 Rain 18 1017 83 10000 2.08 360 23:27 26.06.2022
2913 Rain 19 1017 72 10000 4.63 300 21:51 26.06.2022
2914 Clouds 20 1017 68 10000 3.6 330 20:34 26.06.2022
2915 Clouds 21 1016 68 10000 6.69 270 19:19 26.06.2022
2916 Clouds 23 1016 65 10000 4.34 294 18:23 26.06.2022
2917 Clouds 23 1015 64 10000 8.75 270 15:38 26.06.2022
2918 Clouds 24 1015 64 10000 8.75 260 14:34 26.06.2022
2919 Clouds 26 1015 66 10000 6.19 246 13:29 26.06.2022
2920 Clouds 26 1013 57 10000 4.12 200 12:44 26.06.2022
2921 Clouds 25 1012 69 10000 3.6 150 10:53 26.06.2022
2922 Clouds 25 1013 77 10000 3.67 167 10:22 26.06.2022
2923 Clouds 20 1012 94 10000 4.12 120 08:45 26.06.2022
2924 Clouds 18 1012 100 2500 4.12 120 07:18 26.06.2022
2925 Clouds 18 1013 88 10000 2.03 111 00:48 26.06.2022
2926 Clouds 18 1013 89 10000 1.64 112 00:20 26.06.2022
2927 Clouds 17 1013 94 10000 3.6 110 23:33 25.06.2022
2928 Clouds 18 1013 94 5000 3.09 110 22:51 25.06.2022
2929 Clouds 21 1013 85 10000 1.84 79 22:26 25.06.2022
2930 Clouds 20 1013 100 6000 2.06 100 21:37 25.06.2022
2931 Clouds 21 1013 88 10000 1.03 90 21:18 25.06.2022
2932 Clouds 23 1012 78 10000 0.67 5 20:25 25.06.2022
2933 Clouds 20 1012 94 10000 1.54 50 19:19 25.06.2022
2934 Clouds 24 1012 71 10000 2.43 281 17:53 25.06.2022
2935 Clouds 23 1012 53 10000 3.09 100 17:19 25.06.2022
2936 Clouds 25 1012 50 10000 3.6 90 14:59 25.06.2022
2937 Clouds 24 1011 57 10000 2.57 70 12:57 25.06.2022
2938 Clouds 24 1011 57 10000 2.57 70 12:37 25.06.2022
2939 Clouds 23 1011 61 10000 1.6 152 10:32 25.06.2022
2940 Clouds 19 1010 82 10000 1.03 290 08:58 25.06.2022
2941 Clouds 18 1010 82 10000 1.03 290 08:35 25.06.2022
2942 Clouds 16 1010 100 10000 1.54 280 07:54 25.06.2022
2943 Clouds 16 1008 100 250 2.06 280 03:33 25.06.2022
2944 Clouds 18 1008 94 10000 2.06 270 00:34 25.06.2022
2945 Clouds 19 1007 88 10000 2.06 240 22:53 24.06.2022
2946 Clouds 19 1007 88 10000 3.09 250 21:41 24.06.2022
2947 Clouds 21 1006 78 10000 3.09 100 20:45 24.06.2022
2948 Clouds 21 1006 78 10000 1.54 90 20:18 24.06.2022
2949 Clouds 20 1007 95 10000 4.91 272 19:21 24.06.2022
2950 Clouds 20 1006 83 10000 4.63 260 18:48 24.06.2022
2951 Clouds 20 1007 95 10000 4.91 272 18:30 24.06.2022
2952 Clouds 20 1006 84 10000 5.28 285 17:20 24.06.2022
2953 Clear 26 1004 49 10000 3.6 182 15:29 24.06.2022
2954 Clouds 28 1005 47 10000 5.17 150 14:27 24.06.2022
2955 Clear 24 1005 64 10000 6.17 110 13:55 24.06.2022
2956 Clear 22 1006 68 10000 5.14 110 11:44 24.06.2022
2957 Clear 23 1006 64 10000 6.96 109 10:55 24.06.2022
2958 Clear 21 1007 73 10000 4.63 110 09:55 24.06.2022
2959 Clear 22 1008 68 10000 6.81 103 09:29 24.06.2022
2960 Clear 20 1008 77 10000 4.63 110 08:52 24.06.2022
2961 Clear 16 1009 88 10000 5.66 110 06:48 24.06.2022
2962 Clear 17 1009 81 10000 4.6 110 06:30 24.06.2022
2963 Clear 15 1009 94 10000 5.66 110 05:52 24.06.2022
2964 Clear 17 1012 95 10000 4.55 106 01:28 24.06.2022
2965 Clear 17 1012 82 10000 4.63 110 22:44 23.06.2022
2966 Clear 19 1012 72 10000 4.12 110 21:54 23.06.2022
2967 Clear 21 1013 64 10000 3.09 110 20:54 23.06.2022
2968 Clear 21 1013 64 10000 3.09 110 20:32 23.06.2022
2969 Clouds 22 1013 73 10000 3.6 100 18:49 23.06.2022
2970 Clouds 22 1013 68 10000 4.63 90 17:45 23.06.2022
2971 Clouds 22 1014 73 10000 4.12 100 16:42 23.06.2022
2972 Clouds 22 1014 68 10000 3.6 90 15:43 23.06.2022
2973 Clouds 24 1014 56 10000 3.72 119 15:23 23.06.2022
2974 Clouds 19 1015 77 10000 4.12 30 12:43 23.06.2022
2975 Clouds 18 1015 61 10000 2.29 114 11:23 23.06.2022
2976 Clouds 15 1016 82 10000 2.06 180 09:46 23.06.2022
2977 Clouds 13 1016 88 10000 1.03 230 08:18 23.06.2022
2978 Clouds 13 1014 88 10000 1.03 50 02:38 23.06.2022
2979 Clouds 13 1015 94 10000 1.99 322 00:26 23.06.2022
2980 Clouds 14 1015 95 10000 2.56 324 23:27 22.06.2022
2981 Clouds 14 1015 95 10000 2.56 324 22:31 22.06.2022
2982 Clouds 15 1014 85 10000 3.21 309 21:21 22.06.2022
2983 Clouds 17 1014 77 10000 4.04 309 20:25 22.06.2022
2984 Clouds 16 1014 77 10000 3.95 313 19:52 22.06.2022
2985 Clouds 18 1013 67 10000 4.61 298 18:21 22.06.2022
2986 Clouds 18 1013 64 10000 5.24 291 17:26 22.06.2022
2987 Clouds 17 1013 77 10000 6.17 290 16:18 22.06.2022
2988 Clouds 18 1013 62 10000 4.19 290 15:26 22.06.2022
2989 Clouds 17 1013 72 10000 4.12 270 14:18 22.06.2022
2990 Clouds 17 1013 72 10000 4.12 270 13:37 22.06.2022
2991 Clouds 17 1013 77 10000 4.63 300 13:18 22.06.2022
2992 Clouds 16 1013 77 10000 4.12 310 11:48 22.06.2022
2993 Clouds 15 1013 88 10000 3.09 270 10:55 22.06.2022
2994 Clouds 15 1013 88 8000 4.12 270 09:59 22.06.2022
2995 Clouds 14 1013 88 10000 5.66 260 07:59 22.06.2022
2996 Clouds 13 1012 88 10000 4.63 270 03:50 22.06.2022
2997 Clouds 12 1013 94 10000 3.15 252 01:23 22.06.2022
2998 Clouds 13 1013 88 10000 4.63 270 23:42 21.06.2022
2999 Clouds 15 1013 77 10000 5.66 300 22:18 21.06.2022
3000 Clear 17 1013 67 10000 6.69 280 19:55 21.06.2022
3001 Clear 19 1013 59 10000 6.17 280 18:35 21.06.2022
3002 Clear 18 1013 63 10000 6.69 280 17:39 21.06.2022
3003 Clouds 18 1014 63 10000 8.23 260 13:54 21.06.2022
3004 Clear 17 1014 67 10000 7.2 280 11:37 21.06.2022
3005 Clear 15 1014 77 10000 7.2 280 09:54 21.06.2022
3006 Clear 14 1014 82 10000 8.75 310 08:48 21.06.2022
3007 Clear 12 1013 94 10000 7.2 290 06:36 21.06.2022
3008 Clear 11 1014 96 10000 3.47 291 01:31 21.06.2022
3009 Clear 12 1013 92 10000 3.68 302 23:25 20.06.2022
3010 Clear 15 1012 82 10000 7.2 290 21:55 20.06.2022
3011 Clear 16 1012 72 10000 6.17 300 20:53 20.06.2022
3012 Clouds 16 1012 67 10000 7.2 330 19:44 20.06.2022
3013 Clouds 15 1011 72 10000 6.17 320 18:48 20.06.2022
3014 Clouds 16 1011 79 10000 5.76 322 18:20 20.06.2022
3015 Clouds 17 1011 63 10000 3.6 320 17:36 20.06.2022
3016 Clouds 13 1011 88 6000 5.66 290 15:58 20.06.2022
3017 Rain 15 1011 77 1200 5.14 290 13:34 20.06.2022
3018 Rain 15 1011 65 10000 5 284 11:25 20.06.2022
3019 Rain 14 1011 77 10000 3.09 270 09:48 20.06.2022
3020 Clear 14 1011 77 10000 3.09 260 08:45 20.06.2022
3021 Clouds 11 1011 93 10000 3.09 240 06:49 20.06.2022
3022 Clouds 11 1012 93 10000 2.13 213 03:29 20.06.2022
3023 Clouds 11 1012 87 10000 3.09 260 00:37 20.06.2022
3024 Clouds 11 1013 92 10000 2.44 271 23:25 19.06.2022
3025 Clouds 14 1012 77 10000 5.14 290 22:19 19.06.2022
3026 Clouds 14 1012 77 10000 5.14 290 21:41 19.06.2022
3027 Clouds 15 1011 67 10000 7.2 300 20:46 19.06.2022
3028 Clouds 16 1011 67 10000 6.69 300 19:48 19.06.2022
3029 Clouds 17 1012 62 10000 3.75 287 19:24 19.06.2022
3030 Clouds 18 1012 62 10000 3.75 287 18:31 19.06.2022
3031 Clouds 17 1012 59 10000 2.57 250 17:39 19.06.2022
3032 Clouds 16 1011 67 10000 1.03 260 16:39 19.06.2022
3033 Clouds 15 1011 77 10000 0 0 15:44 19.06.2022
3034 Clouds 16 1012 78 10000 1.43 260 15:26 19.06.2022
3035 Clouds 14 1011 77 10000 0.51 40 14:41 19.06.2022
3036 Clouds 13 1011 88 10000 1.03 20 13:52 19.06.2022
3037 Clouds 12 1011 94 10000 5.66 330 12:19 19.06.2022
3038 Clouds 12 1010 94 10000 1.54 40 10:52 19.06.2022
3039 Clouds 11 1011 92 10000 2.19 11 09:21 19.06.2022
3040 Rain 10 1011 95 10000 2.54 21 08:32 19.06.2022
3041 Rain 11 1012 96 10000 3.6 349 07:26 19.06.2022
3042 Rain 11 1012 96 10000 3.6 349 07:26 19.06.2022
3043 Rain 13 1013 85 10000 2.16 320 04:27 19.06.2022
3044 Clouds 13 1014 95 10000 3.25 306 01:28 19.06.2022
3045 Clouds 13 1014 94 10000 2.83 285 00:23 19.06.2022
3046 Clouds 14 1014 88 10000 4.63 270 23:35 18.06.2022
3047 Rain 15 1015 89 10000 2.91 276 22:30 18.06.2022
3048 Clouds 16 1014 77 10000 4.63 290 20:54 18.06.2022
3049 Rain 16 1015 79 10000 4.11 265 20:24 18.06.2022
3050 Clouds 18 1015 68 10000 9.26 280 19:21 18.06.2022
3051 Clouds 18 1015 68 10000 9.26 280 18:42 18.06.2022
3052 Clouds 21 1015 64 10000 4.77 275 17:30 18.06.2022
3053 Clouds 21 1015 64 10000 4.77 275 17:30 18.06.2022
3054 Clouds 21 1015 50 10000 6.14 276 16:20 18.06.2022
3055 Clouds 21 1015 56 10000 9.77 290 15:18 18.06.2022
3056 Clouds 21 1015 56 10000 9.77 290 14:42 18.06.2022
3057 Clouds 21 1014 60 10000 9.26 280 12:51 18.06.2022
3058 Clouds 22 1015 52 10000 6.7 278 11:31 18.06.2022
3059 Clouds 21 1015 63 10000 5.68 291 10:26 18.06.2022
3060 Clouds 18 1013 77 10000 4.12 280 09:19 18.06.2022
3061 Clouds 18 1013 77 10000 2.57 250 08:18 18.06.2022
3062 Clouds 17 1013 82 10000 5.14 260 06:43 18.06.2022
3063 Clouds 18 1015 60 10000 5.06 213 03:24 18.06.2022
3064 Clouds 18 1016 66 10000 5.8 189 01:24 18.06.2022
3065 Clouds 20 1015 56 10000 9.77 180 00:42 18.06.2022
3066 Clouds 19 1016 63 10000 8.23 180 23:52 17.06.2022
3067 Clouds 19 1016 63 10000 8.23 180 23:52 17.06.2022
3068 Clouds 19 1017 68 10000 6.69 170 22:56 17.06.2022
3069 Clouds 20 1018 64 10000 4.63 180 20:42 17.06.2022
3070 Rain 21 1019 74 10000 4.91 164 19:30 17.06.2022
3071 Rain 21 1020 52 10000 4.63 220 18:34 17.06.2022
3072 Rain 21 1021 52 10000 4.12 230 17:34 17.06.2022
3073 Rain 21 1021 56 10000 4.12 220 16:42 17.06.2022
3074 Clouds 21 1022 56 10000 3.6 230 15:43 17.06.2022
3075 Rain 20 1022 60 10000 3.6 230 14:58 17.06.2022
3076 Clouds 19 1023 69 10000 4.49 249 14:20 17.06.2022
3077 Rain 19 1022 59 10000 5.14 250 13:45 17.06.2022
3078 Rain 20 1022 56 10000 5.14 260 12:53 17.06.2022
3079 Clouds 20 1022 60 10000 5.66 250 11:57 17.06.2022
3080 Clouds 20 1022 60 10000 5.66 250 11:36 17.06.2022
3081 Clouds 19 1022 63 10000 3.09 240 10:48 17.06.2022
3082 Clouds 16 1023 69 10000 3.48 244 08:30 17.06.2022
3083 Clouds 13 1023 80 10000 3.09 234 07:30 17.06.2022
3084 Clouds 11 1023 100 2800 3.09 250 05:51 17.06.2022
3085 Clouds 12 1022 94 9000 3.09 260 02:52 17.06.2022
3086 Clouds 14 1022 88 10000 3.09 290 00:42 17.06.2022
3087 Clouds 14 1022 88 10000 3.09 290 00:42 17.06.2022
3088 Clouds 15 1023 82 10000 4.63 290 22:45 16.06.2022
3089 Clouds 15 1023 85 10000 3.36 278 22:20 16.06.2022
3090 Clouds 16 1021 72 10000 6.69 290 21:19 16.06.2022
3091 Clouds 16 1021 72 10000 6.69 290 20:50 16.06.2022
3092 Clouds 18 1021 63 10000 8.75 290 19:57 16.06.2022
3093 Clear 19 1021 55 10000 8.75 290 18:34 16.06.2022
3094 Clear 20 1021 52 10000 9.26 290 17:44 16.06.2022
3095 Clear 20 1021 52 10000 9.26 290 17:44 16.06.2022
3096 Clear 20 1021 52 10000 8.23 300 16:46 16.06.2022
3097 Clear 20 1021 49 10000 7.72 320 15:37 16.06.2022
3098 Clear 20 1021 45 10000 7.72 320 15:18 16.06.2022
3099 Clouds 20 1021 49 10000 8.75 320 13:49 16.06.2022
3100 Clouds 19 1020 52 10000 7.72 320 12:38 16.06.2022
3101 Clouds 18 1021 59 10000 6.69 310 11:55 16.06.2022
3102 Clouds 18 1021 59 10000 6.69 290 11:19 16.06.2022
3103 Clouds 18 1021 59 10000 6.69 290 10:34 16.06.2022
3104 Clouds 17 1020 72 10000 4.63 310 09:37 16.06.2022
3105 Clouds 15 1020 77 10000 4.12 310 08:50 16.06.2022
3106 Clouds 13 1020 88 10000 3.6 320 07:38 16.06.2022
3107 Clouds 10 1020 100 10000 1.54 290 05:43 16.06.2022
3108 Clouds 11 1019 87 3200 2.57 340 03:44 16.06.2022
3109 Clouds 12 1019 87 10000 1.03 270 01:52 16.06.2022
3110 Clouds 12 1019 87 10000 1.03 270 01:52 16.06.2022
3111 Clouds 11 1020 88 10000 2.8 322 01:22 16.06.2022
3112 Clouds 12 1019 87 10000 2.57 280 23:58 15.06.2022
3113 Clouds 13 1019 82 7000 3.6 300 22:53 15.06.2022
3114 Clouds 15 1019 72 4200 3.6 320 21:34 15.06.2022
3115 Clouds 16 1019 63 10000 5.66 330 20:58 15.06.2022
3116 Clouds 16 1019 63 10000 5.66 330 20:36 15.06.2022
3117 Clouds 17 1019 59 10000 5.66 330 19:52 15.06.2022
3118 Clouds 17 1019 55 1600 5.66 330 18:37 15.06.2022
3119 Clouds 18 1019 55 10000 4.12 320 17:46 15.06.2022
3120 Clouds 19 1020 52 10000 3.65 290 16:23 15.06.2022
3121 Clouds 17 1020 59 10000 1.54 310 14:57 15.06.2022
3122 Clouds 19 1020 54 10000 3.82 287 13:22 15.06.2022
3123 Clouds 16 1020 67 10000 2.57 310 12:47 15.06.2022
3124 Clouds 18 1020 57 10000 3.12 284 11:25 15.06.2022
3125 Clouds 17 1020 60 10000 3.21 285 10:22 15.06.2022
3126 Clouds 15 1020 82 10000 3.09 280 08:59 15.06.2022
3127 Clouds 12 1020 94 10000 3.6 270 07:43 15.06.2022
3128 Clouds 11 1020 93 10000 3.09 260 05:57 15.06.2022
3129 Clouds 12 1020 94 10000 3.09 250 02:55 15.06.2022
3130 Clouds 12 1020 94 10000 4.63 230 01:37 15.06.2022
3131 Clouds 11 1020 93 10000 3.09 250 00:37 15.06.2022
3132 Clouds 12 1020 87 10000 2.57 270 23:38 14.06.2022
3133 Clouds 13 1020 82 10000 3.6 260 22:48 14.06.2022
3134 Clouds 14 1020 82 10000 5.66 270 21:44 14.06.2022
3135 Clouds 15 1020 82 10000 3.38 263 21:21 14.06.2022
3136 Clouds 14 1020 82 10000 5.14 280 20:41 14.06.2022
3137 Clouds 15 1020 77 10000 6.17 270 19:58 14.06.2022
3138 Clouds 16 1020 77 10000 6.17 280 18:45 14.06.2022
3139 Clouds 18 1020 66 10000 5.81 275 17:29 14.06.2022
3140 Clouds 16 1021 77 10000 9.77 270 16:43 14.06.2022
3141 Clouds 17 1021 72 10000 9.77 270 15:49 14.06.2022
3142 Clouds 16 1021 77 10000 7.72 270 14:57 14.06.2022
3143 Clouds 16 1021 77 10000 6.69 290 14:19 14.06.2022
3144 Clouds 17 1021 58 10000 6.71 274 13:32 14.06.2022
3145 Clouds 17 1021 59 10000 6.24 279 12:27 14.06.2022
3146 Clouds 17 1021 61 10000 6.05 279 11:27 14.06.2022
3147 Clouds 15 1021 72 10000 8.75 290 10:35 14.06.2022
3148 Clouds 14 1021 77 10000 8.23 290 09:45 14.06.2022
3149 Clouds 13 1020 82 10000 5.66 270 08:41 14.06.2022
3150 Clouds 12 1020 76 10000 4.2 267 07:26 14.06.2022
3151 Clouds 12 1020 76 10000 4.2 267 07:26 14.06.2022
3152 Clouds 12 1020 76 10000 6.17 270 04:35 14.06.2022
3153 Clouds 12 1020 76 10000 6.69 270 02:45 14.06.2022
3154 Clouds 11 1020 89 10000 3.92 267 00:27 14.06.2022
3155 Clouds 13 1020 71 10000 8.23 290 23:18 13.06.2022
3156 Clouds 12 1020 78 10000 5.13 280 22:25 13.06.2022
3157 Clouds 13 1019 71 10000 9.26 290 21:48 13.06.2022
3158 Clouds 14 1019 74 10000 6.43 290 20:23 13.06.2022
3159 Clouds 14 1019 62 10000 10.29 300 19:34 13.06.2022
3160 Clouds 16 1018 59 10000 11.83 290 17:57 13.06.2022
3161 Clouds 16 1018 59 10000 11.83 290 17:38 13.06.2022
3162 Clouds 17 1018 55 10000 12.35 300 16:40 13.06.2022
3163 Clouds 15 1017 77 10000 9.77 300 15:37 13.06.2022
3164 Clouds 17 1017 63 10000 9.77 290 14:42 13.06.2022
3165 Clouds 14 1017 77 10000 11.32 320 13:46 13.06.2022
3166 Rain 17 1016 63 10000 9.26 290 12:47 13.06.2022
3167 Clouds 17 1016 70 10000 5.97 282 11:26 13.06.2022
3168 Clouds 15 1016 72 10000 5.81 276 10:27 13.06.2022
3169 Clouds 15 1016 72 10000 5.81 276 10:27 13.06.2022
3170 Clouds 13 1016 76 10000 4.63 10 09:38 13.06.2022
3171 Clouds 13 1016 82 10000 4.63 260 07:51 13.06.2022
3172 Clouds 10 1015 87 10000 5.66 210 05:49 13.06.2022
3173 Clouds 11 1016 87 10000 5.14 260 02:55 13.06.2022
3174 Clouds 12 1017 82 10000 4.63 260 01:37 13.06.2022
3175 Clouds 12 1017 95 10000 3.52 253 00:22 13.06.2022
3176 Clear 12 1017 95 10000 3.58 256 23:25 12.06.2022
3177 Clear 13 1018 90 10000 4.45 265 22:22 12.06.2022
3178 Clear 14 1018 83 10000 5.36 266 21:27 12.06.2022
3179 Clear 16 1017 72 10000 8.75 280 20:34 12.06.2022
3180 Clear 17 1017 63 10000 11.32 280 19:36 12.06.2022
3181 Clear 18 1018 59 10000 11.32 280 17:54 12.06.2022
3182 Clear 19 1018 59 10000 11.32 270 16:42 12.06.2022
3183 Clear 21 1018 58 10000 7.33 263 15:24 12.06.2022
3184 Clear 21 1018 58 10000 7.33 263 14:31 12.06.2022
3185 Clouds 20 1018 52 10000 10.8 250 13:55 12.06.2022
3186 Clouds 19 1018 59 10000 8.75 240 12:46 12.06.2022
3187 Clouds 18 1019 68 10000 7.72 260 11:47 12.06.2022
3188 Clouds 18 1019 72 10000 7.72 240 10:45 12.06.2022
3189 Clouds 16 1019 77 10000 6.22 225 09:25 12.06.2022
3190 Clouds 15 1019 82 10000 4.12 210 08:48 12.06.2022
3191 Clouds 13 1019 94 10000 5.14 200 07:40 12.06.2022
3192 Clouds 13 1019 82 10000 6.69 200 05:39 12.06.2022
3193 Clouds 11 1020 87 10000 5.14 200 03:38 12.06.2022
3194 Clouds 11 1020 87 10000 3.09 210 01:43 12.06.2022
3195 Clear 12 1020 94 10000 3.6 260 00:59 12.06.2022
3196 Clear 11 1021 93 10000 3.2 231 00:28 12.06.2022
3197 Clear 13 1020 82 10000 3.6 260 23:56 11.06.2022
3198 Clear 14 1021 77 10000 5.14 250 22:49 11.06.2022
3199 Clear 13 1021 92 10000 3.33 250 22:29 11.06.2022
3200 Clear 17 1020 59 10000 7.2 260 20:55 11.06.2022
3201 Clear 17 1021 73 10000 4.71 259 20:26 11.06.2022
3202 Clear 18 1020 59 10000 9.77 270 19:33 11.06.2022
3203 Clear 19 1020 52 10000 11.32 270 18:37 11.06.2022
3204 Clear 19 1020 52 10000 11.32 270 18:37 11.06.2022
3205 Clear 19 1020 55 10000 10.8 270 17:58 11.06.2022
3206 Clear 19 1020 55 10000 10.8 270 17:38 11.06.2022
3207 Clear 19 1020 59 10000 11.32 270 17:19 11.06.2022
3208 Clear 19 1020 59 10000 11.32 270 16:38 11.06.2022
3209 Clear 20 1020 52 10000 11.83 250 15:47 11.06.2022
3210 Clouds 21 1019 61 10000 8.03 260 14:23 11.06.2022
3211 Clouds 20 1019 68 10000 7.2 240 13:47 11.06.2022
3212 Clouds 19 1019 68 10000 8.75 270 11:36 11.06.2022
3213 Clear 20 1018 69 10000 7.04 236 10:30 11.06.2022
3214 Clouds 19 1018 68 10000 3.6 230 09:40 11.06.2022
3215 Clouds 16 1018 81 10000 4.75 222 08:21 11.06.2022
3216 Clouds 15 1018 88 10000 5.66 180 06:32 11.06.2022
3217 Clouds 12 1019 89 10000 2.48 212 05:26 11.06.2022
3218 Clouds 14 1019 94 10000 3.6 200 02:42 11.06.2022
3219 Clouds 13 1019 94 10000 3.6 210 01:41 11.06.2022
3220 Clouds 14 1019 94 10000 3.09 230 00:54 11.06.2022
3221 Clear 16 1019 88 10000 4.63 240 22:55 10.06.2022
3222 Clear 16 1019 95 10000 2.93 221 22:20 10.06.2022
3223 Clouds 17 1019 91 10000 3.42 232 21:22 10.06.2022
3224 Clouds 19 1019 72 10000 5.14 240 20:37 10.06.2022
3225 Clouds 19 1019 68 10000 6.17 250 20:19 10.06.2022
3226 Clouds 19 1019 72 10000 6.17 250 19:19 10.06.2022
3227 Clouds 18 1019 82 10000 4.5 236 18:29 10.06.2022
3228 Clouds 18 1019 72 10000 5.14 260 17:42 10.06.2022
3229 Clouds 19 1019 79 10000 5.09 235 17:21 10.06.2022
3230 Clouds 20 1019 71 10000 6.59 234 16:25 10.06.2022
3231 Clouds 20 1019 60 10000 6.17 240 15:37 10.06.2022
3232 Clouds 20 1019 60 10000 6.69 250 13:57 10.06.2022
3233 Clouds 19 1019 59 10000 9.26 260 12:51 10.06.2022
3234 Clouds 19 1019 52 10000 6.69 220 11:53 10.06.2022
3235 Clouds 19 1019 59 10000 4.12 240 10:45 10.06.2022
3236 Clouds 17 1019 72 10000 5.14 240 09:54 10.06.2022
3237 Clear 15 1019 82 10000 4.12 210 08:44 10.06.2022
3238 Clouds 14 1019 84 10000 4.26 230 07:30 10.06.2022
3239 Clouds 12 1019 94 10000 2.57 220 06:45 10.06.2022
3240 Clouds 12 1019 96 10000 2.77 236 06:26 10.06.2022
3241 Clouds 12 1018 87 10000 4.12 250 04:37 10.06.2022
3242 Clouds 13 1018 88 10000 8.23 270 01:42 10.06.2022
3243 Clouds 13 1017 88 10000 8.75 270 00:40 10.06.2022
3244 Clouds 13 1017 94 10000 8.75 270 23:49 09.06.2022
3245 Clouds 14 1016 92 10000 5.03 265 22:21 09.06.2022
3246 Clouds 14 1015 94 10000 8.23 280 21:37 09.06.2022
3247 Clouds 14 1015 94 10000 9.26 270 20:58 09.06.2022
3248 Clouds 14 1014 91 10000 5.32 269 20:26 09.06.2022
3249 Clouds 14 1014 90 10000 5.24 270 19:31 09.06.2022
3250 Clouds 14 1014 90 10000 5.24 270 19:31 09.06.2022
3251 Clouds 15 1013 88 10000 9.26 270 18:34 09.06.2022
3252 Clouds 17 1012 79 10000 6.07 256 17:25 09.06.2022
3253 Clouds 19 1011 73 10000 6.54 256 16:21 09.06.2022
3254 Clouds 18 1010 82 10000 5.66 260 14:42 09.06.2022
3255 Clouds 19 1010 78 10000 5.35 267 14:23 09.06.2022
3256 Clouds 18 1009 85 10000 5.48 263 13:29 09.06.2022
3257 Clouds 16 1009 94 10000 4.63 280 12:46 09.06.2022
3258 Clouds 15 1008 94 3800 4.12 280 11:19 09.06.2022
3259 Clouds 16 1007 94 7000 2.57 210 09:54 09.06.2022
3260 Clouds 16 1007 94 7000 2.57 210 09:36 09.06.2022
3261 Clouds 15 1006 93 10000 3.25 208 08:27 09.06.2022
3262 Clouds 15 1006 98 10000 3.53 201 07:23 09.06.2022
3263 Rain 14 1005 97 10000 1.34 172 03:29 09.06.2022
3264 Clouds 15 1006 98 10000 1.55 183 00:32 09.06.2022
3265 Clouds 15 1005 88 10000 4.12 120 22:59 08.06.2022
3266 Clouds 15 1006 96 10000 3.26 114 22:30 08.06.2022
3267 Clouds 16 1005 82 10000 4.12 120 21:59 08.06.2022
3268 Clouds 16 1006 94 10000 3.19 104 21:32 08.06.2022
3269 Clouds 17 1006 89 10000 3.81 110 20:25 08.06.2022
3270 Clouds 18 1005 72 10000 4.63 120 19:40 08.06.2022
3271 Clouds 19 1005 72 10000 1.03 140 18:48 08.06.2022
3272 Clouds 19 1006 72 10000 2.06 160 17:38 08.06.2022
3273 Clouds 19 1006 63 10000 3.09 180 15:53 08.06.2022
3274 Clouds 18 1007 63 10000 2.57 220 14:38 08.06.2022
3275 Clouds 17 1007 65 10000 4.03 227 12:55 08.06.2022
3276 Clouds 17 1007 65 10000 4.03 227 12:55 08.06.2022
3277 Clouds 17 1007 65 10000 4.03 227 12:55 08.06.2022
3278 Clouds 15 1007 77 10000 3.09 210 11:36 08.06.2022
3279 Clouds 15 1008 77 10000 3.6 240 10:51 08.06.2022
3280 Clouds 13 1008 81 10000 4.92 227 09:28 08.06.2022
3281 Clouds 13 1008 81 10000 4.92 227 08:54 08.06.2022
3282 Clouds 12 1008 93 10000 3.82 226 07:21 08.06.2022
3283 Clouds 12 1008 87 10000 8.23 250 04:47 08.06.2022
3284 Clouds 13 1008 96 10000 5.28 243 01:25 08.06.2022
3285 Clouds 12 1008 96 10000 5.09 244 23:32 07.06.2022
3286 Clouds 12 1008 82 10000 5.14 230 22:54 07.06.2022
3287 Clouds 12 1008 82 10000 5.14 230 22:34 07.06.2022
3288 Clouds 13 1008 82 10000 5.66 240 21:41 07.06.2022
3289 Clouds 12 1008 93 10000 5.63 235 21:20 07.06.2022
3290 Clouds 13 1008 82 10000 8.75 250 20:42 07.06.2022
3291 Clouds 13 1008 88 10000 8.75 250 19:57 07.06.2022
3292 Clouds 12 1007 87 10000 9.2 239 18:26 07.06.2022
3293 Clouds 13 1007 88 10000 8.23 220 17:36 07.06.2022
3294 Clouds 14 1007 77 10000 8.75 220 16:47 07.06.2022
3295 Clouds 13 1006 88 10000 9.26 226 16:28 07.06.2022
3296 Clouds 14 1007 77 10000 8.75 220 15:37 07.06.2022
3297 Clouds 13 1006 88 10000 8.23 200 15:18 07.06.2022
3298 Clouds 13 1006 88 10000 8.23 200 14:43 07.06.2022
3299 Rain 13 1006 88 10000 7.2 200 13:42 07.06.2022
3300 Rain 13 1006 88 10000 7.2 200 13:42 07.06.2022
3301 Clouds 13 1007 89 10000 9.6 205 13:23 07.06.2022
3302 Clouds 13 1007 88 10000 7.72 180 11:56 07.06.2022
3303 Clouds 14 1007 82 10000 9.26 170 10:57 07.06.2022
3304 Clouds 13 1008 92 10000 7.74 180 09:28 07.06.2022
3305 Rain 12 1008 93 10000 7.3 177 08:28 07.06.2022
3306 Clouds 12 1008 94 10000 6.17 160 07:19 07.06.2022
3307 Rain 11 1009 93 10000 5.66 160 05:19 07.06.2022
3308 Rain 12 1010 87 10000 4.12 210 01:43 07.06.2022
3309 Rain 13 1010 94 10000 5.66 180 23:59 06.06.2022
3310 Rain 13 1010 96 7751 5.92 208 23:25 06.06.2022
3311 Rain 14 1010 82 10000 5.66 180 22:37 06.06.2022
3312 Rain 14 1011 82 10000 5.14 200 21:33 06.06.2022
3313 Clouds 19 1010 59 10000 2.57 180 19:37 06.06.2022
3314 Clouds 20 1010 49 10000 4.12 200 19:19 06.06.2022
3315 Clouds 20 1010 49 10000 4.12 200 18:34 06.06.2022
3316 Clouds 19 1011 63 10000 5.66 230 17:36 06.06.2022
3317 Clouds 20 1011 56 10000 7.72 220 16:33 06.06.2022
3318 Clouds 18 1011 72 10000 5.66 240 15:39 06.06.2022
3319 Clouds 18 1011 68 10000 5.14 230 14:39 06.06.2022
3320 Clouds 18 1010 83 10000 8.08 203 13:27 06.06.2022
3321 Clouds 15 1010 94 10000 7.2 210 12:38 06.06.2022
3322 Clouds 17 1010 82 10000 6.17 200 12:19 06.06.2022
3323 Clouds 17 1010 82 10000 6.17 200 11:42 06.06.2022
3324 Clouds 16 1009 88 10000 5.14 180 09:41 06.06.2022
3325 Rain 15 1008 100 5000 6.17 160 08:35 06.06.2022
3326 Rain 15 1008 94 10000 6.17 120 07:40 06.06.2022
3327 Rain 14 1009 100 10000 6.17 110 05:34 06.06.2022
3328 Rain 14 1011 94 5000 4.12 110 03:47 06.06.2022
3329 Clouds 15 1013 79 10000 5.47 93 01:30 06.06.2022
3330 Clouds 15 1013 72 10000 5.14 100 00:43 06.06.2022
3331 Clouds 16 1014 67 10000 4.12 100 00:19 06.06.2022
3332 Clouds 16 1014 72 10000 4.12 90 22:57 05.06.2022
3333 Clouds 16 1015 72 10000 2.57 90 21:33 05.06.2022
3334 Clouds 18 1016 76 10000 3.87 81 20:23 05.06.2022
3335 Clouds 18 1016 52 10000 3.6 110 18:47 05.06.2022
3336 Clouds 19 1016 52 10000 3.09 100 17:57 05.06.2022
3337 Clouds 19 1016 52 10000 3.09 100 17:38 05.06.2022
3338 Clouds 19 1017 52 10000 4.63 110 17:19 05.06.2022
3339 Clouds 19 1017 52 10000 4.63 110 16:46 05.06.2022
3340 Clouds 19 1018 59 10000 4.12 90 14:59 05.06.2022
3341 Clouds 19 1019 59 10000 5.66 90 13:55 05.06.2022
3342 Clouds 19 1020 68 10000 3.09 90 11:58 05.06.2022
3343 Clouds 17 1020 77 10000 2.57 80 10:45 05.06.2022
3344 Clouds 18 1021 62 10000 2.7 121 10:24 05.06.2022
3345 Clouds 16 1021 67 10000 2.19 122 09:21 05.06.2022
3346 Clear 13 1021 75 10000 1.66 121 08:22 05.06.2022
3347 Clear 7 1021 100 1800 3.09 70 05:58 05.06.2022
3348 Clear 9 1022 90 10000 1.42 120 05:19 05.06.2022
3349 Clear 8 1023 92 10000 0.62 55 02:23 05.06.2022
3350 Clear 9 1023 91 10000 0.64 59 01:23 05.06.2022
3351 Clear 9 1023 91 10000 0.64 59 01:23 05.06.2022
3352 Clear 13 1023 88 10000 1.54 210 22:49 04.06.2022
3353 Clear 16 1023 85 10000 1.62 342 21:25 04.06.2022
3354 Clouds 19 1022 67 10000 3.26 323 19:26 04.06.2022
3355 Clear 18 1022 55 10000 1.54 20 16:48 04.06.2022
3356 Clear 17 1022 57 10000 2.33 338 16:20 04.06.2022
3357 Clear 20 1022 57 10000 2.33 338 15:35 04.06.2022
3358 Clouds 16 1023 63 10000 1.03 350 13:59 04.06.2022
3359 Clear 13 1023 76 10000 0.51 300 11:41 04.06.2022
3360 Clear 12 1023 71 10000 1.03 0 10:54 04.06.2022
3361 Clouds 12 1022 76 10000 2.06 360 09:56 04.06.2022
3362 Clear 12 1023 76 10000 2.46 346 09:38 04.06.2022
3363 Clear 11 1022 82 10000 3.09 340 08:38 04.06.2022
3364 Clear 11 1022 82 10000 4.63 340 06:32 04.06.2022
3365 Clouds 9 1022 87 10000 3.6 340 03:57 04.06.2022
3366 Clouds 8 1022 95 10000 3.21 347 00:22 04.06.2022
3367 Clouds 11 1021 82 10000 4.12 310 23:19 03.06.2022
3368 Clouds 13 1021 76 10000 5.66 320 21:54 03.06.2022
3369 Clouds 15 1020 67 10000 5.66 310 20:40 03.06.2022
3370 Clear 16 1020 59 10000 5.66 310 19:49 03.06.2022
3371 Clear 18 1020 55 10000 6.17 330 16:59 03.06.2022
3372 Clear 19 1021 56 10000 4.49 316 16:30 03.06.2022
3373 Clear 18 1021 55 10000 4.12 300 14:47 03.06.2022
3374 Clouds 15 1021 59 10000 2.6 271 12:26 03.06.2022
3375 Clouds 14 1021 71 10000 3.6 300 10:18 03.06.2022
3376 Clouds 15 1021 77 10000 2.48 291 09:29 03.06.2022
3377 Clouds 11 1021 82 10000 5.66 310 07:53 03.06.2022
3378 Clouds 11 1022 91 10000 2.27 273 07:20 03.06.2022
3379 Clouds 10 1022 91 10000 2.27 273 06:30 03.06.2022
3380 Clouds 10 1021 87 10000 5.66 290 04:40 03.06.2022
3381 Clouds 11 1021 96 10000 3.29 260 00:22 03.06.2022
3382 Clouds 12 1021 76 10000 7.2 260 22:35 02.06.2022
3383 Clouds 12 1020 87 10000 4.23 272 21:29 02.06.2022
3384 Clouds 13 1020 80 10000 4.98 278 20:22 02.06.2022
3385 Clouds 13 1020 76 10000 6.69 300 19:41 02.06.2022
3386 Clouds 13 1020 71 10000 9.77 290 19:18 02.06.2022
3387 Clouds 14 1019 72 10000 9.26 280 16:46 02.06.2022
3388 Clouds 13 1019 69 10000 7.85 281 16:20 02.06.2022
3389 Clouds 12 1018 82 10000 10.29 290 13:47 02.06.2022
3390 Clouds 13 1018 75 10000 7.77 278 13:26 02.06.2022
3391 Clouds 12 1017 87 10000 7.72 270 11:18 02.06.2022
3392 Clouds 12 1016 87 10000 7.72 270 10:19 02.06.2022
3393 Clouds 11 1016 91 10000 6.07 283 09:27 02.06.2022
3394 Clouds 11 1016 92 10000 5.73 278 08:26 02.06.2022
3395 Clouds 11 1015 93 10000 8.75 270 06:59 02.06.2022
3396 Clouds 10 1015 93 10000 4.63 240 04:40 02.06.2022
3397 Clouds 7 1015 95 10000 3.64 245 02:30 02.06.2022
3398 Clouds 9 1014 81 10000 5.14 280 23:43 01.06.2022
3399 Clouds 9 1014 81 10000 5.14 280 23:43 01.06.2022
3400 Clouds 9 1014 81 10000 5.14 280 23:43 01.06.2022
3401 Clouds 9 1014 81 10000 5.14 280 23:43 01.06.2022
3402 Clouds 9 1014 81 10000 5.14 280 23:43 01.06.2022
3403 Clouds 9 1014 81 10000 5.14 280 23:43 01.06.2022
3404 Clouds 9 1014 81 10000 5.14 280 23:43 01.06.2022
3405 Clouds 11 1014 83 10000 3.29 296 22:23 01.06.2022
3406 Clouds 12 1014 71 10000 6.69 300 21:32 01.06.2022
3407 Clouds 13 1013 67 10000 6.69 310 20:40 01.06.2022
3408 Clouds 15 1013 55 10000 8.75 300 19:59 01.06.2022
3409 Clouds 15 1013 55 10000 7.2 300 19:19 01.06.2022
3410 Clouds 15 1013 58 10000 3.6 260 17:44 01.06.2022
3411 Clouds 14 1013 67 10000 2.57 210 16:34 01.06.2022
3412 Clouds 14 1012 67 10000 3.6 140 14:53 01.06.2022
3413 Clouds 13 1012 87 10000 3.6 110 13:51 01.06.2022
3414 Clouds 16 1012 68 10000 1.68 27 12:26 01.06.2022
3415 Clouds 13 1012 82 10000 2.57 30 09:41 01.06.2022
3416 Clouds 12 1012 87 10000 2.06 30 08:40 01.06.2022
3417 Clouds 9 1013 87 10000 1.29 5 07:22 01.06.2022
3418 Clouds 7 1012 100 10000 1.54 30 05:52 01.06.2022
3419 Clouds 7 1013 100 10000 1.03 280 00:40 01.06.2022
3420 Clouds 8 1014 90 10000 2.04 34 23:30 31.05.2022
3421 Clouds 9 1013 93 10000 0 0 22:37 31.05.2022
3422 Clouds 11 1013 82 10000 1.03 160 21:46 31.05.2022
3423 Clouds 12 1013 82 10000 1.54 130 20:45 31.05.2022
3424 Clouds 12 1013 75 10000 2.83 344 20:20 31.05.2022
3425 Clouds 14 1013 62 10000 3.6 360 18:53 31.05.2022
3426 Clouds 14 1013 67 10000 2.06 330 17:50 31.05.2022
3427 Rain 15 1013 55 10000 2.57 260 17:18 31.05.2022
3428 Clouds 16 1013 58 10000 3.09 280 15:41 31.05.2022
3429 Clouds 15 1014 51 10000 1.03 310 14:18 31.05.2022
3430 Clouds 17 1014 63 10000 0.78 255 12:21 31.05.2022
3431 Clouds 14 1014 66 10000 1.05 290 11:23 31.05.2022
3432 Clouds 12 1015 68 10000 1.59 296 09:31 31.05.2022
3433 Clouds 9 1015 84 10000 2.06 275 07:28 31.05.2022
3434 Clouds 6 1015 88 10000 2.39 273 05:23 31.05.2022
3435 Clouds 10 1014 81 10000 4.63 290 01:41 31.05.2022
3436 Clouds 10 1015 82 10000 2.85 286 23:29 30.05.2022
3437 Clouds 11 1014 76 10000 2.57 290 22:57 30.05.2022
3438 Clouds 11 1014 82 10000 2.85 291 22:21 30.05.2022
3439 Clouds 12 1013 71 10000 2.57 320 21:34 30.05.2022
3440 Clouds 12 1013 82 10000 2.65 320 20:22 30.05.2022
3441 Clouds 12 1013 66 10000 3.6 330 18:58 30.05.2022
3442 Clouds 12 1013 66 10000 4.63 320 17:41 30.05.2022
3443 Clouds 12 1012 71 10000 4.63 320 16:45 30.05.2022
3444 Clouds 13 1012 65 10000 1.62 321 15:22 30.05.2022
3445 Clouds 13 1011 71 10000 5.66 270 12:44 30.05.2022
3446 Clouds 11 1011 66 10000 1.03 260 10:57 30.05.2022
3447 Clouds 11 1011 76 10000 0.51 0 09:39 30.05.2022
3448 Clouds 9 1011 75 10000 0.89 322 07:24 30.05.2022
3449 Clouds 8 1010 93 10000 0.51 160 05:51 30.05.2022
3450 Clouds 7 1010 87 10000 3.09 300 02:36 30.05.2022
3451 Clouds 8 1011 83 10000 3.69 313 23:28 29.05.2022
3452 Clouds 10 1010 71 10000 5.66 310 22:39 29.05.2022
3453 Clouds 11 1010 78 10000 4.49 316 21:31 29.05.2022
3454 Clouds 13 1009 62 10000 8.75 300 19:57 29.05.2022
3455 Clouds 13 1009 78 10000 5.02 311 19:27 29.05.2022
3456 Clouds 15 1008 67 10000 9.77 310 17:48 29.05.2022
3457 Clouds 16 1008 63 10000 4.63 280 15:50 29.05.2022
3458 Clouds 18 1008 77 10000 4.23 298 15:32 29.05.2022
3459 Clouds 16 1009 55 10000 2.57 260 14:44 29.05.2022
3460 Clouds 15 1009 70 10000 2.24 284 12:21 29.05.2022
3461 Clouds 14 1009 71 10000 1.54 250 10:45 29.05.2022
3462 Clouds 12 1009 76 10000 2.57 330 09:54 29.05.2022
3463 Clouds 10 1009 93 10000 2.57 280 07:42 29.05.2022
3464 Clouds 8 1010 93 10000 2.57 260 04:51 29.05.2022
3465 Clouds 8 1010 97 10000 2.77 293 04:31 29.05.2022
3466 Clouds 9 1011 93 10000 5.66 280 00:53 29.05.2022
3467 Clouds 10 1011 87 10000 6.17 290 23:47 28.05.2022
3468 Clouds 10 1011 87 10000 5.66 300 23:18 28.05.2022
3469 Clouds 11 1011 82 10000 7.72 300 21:46 28.05.2022
3470 Clouds 11 1011 87 10000 8.23 300 20:46 28.05.2022
3471 Clouds 12 1012 82 10000 10.29 300 19:19 28.05.2022
3472 Clouds 12 1012 76 10000 8.86 299 18:21 28.05.2022
3473 Clouds 13 1012 76 10000 8.86 299 17:32 28.05.2022
3474 Clouds 12 1012 76 10000 12.86 300 15:49 28.05.2022
3475 Clouds 13 1012 74 10000 9.55 302 15:20 28.05.2022
3476 Clouds 13 1012 75 10000 9.71 300 13:29 28.05.2022
3477 Clouds 12 1011 71 10000 13.38 320 12:42 28.05.2022
3478 Clouds 12 1011 71 10000 13.38 310 11:37 28.05.2022
3479 Clouds 12 1011 71 10000 13.38 320 10:38 28.05.2022
3480 Clouds 11 1011 76 10000 13.38 310 09:54 28.05.2022
3481 Clouds 10 1011 77 10000 9.67 308 08:24 28.05.2022
3482 Clouds 10 1010 76 10000 11.83 310 06:34 28.05.2022
3483 Clouds 9 1009 81 10000 10.29 300 04:46 28.05.2022
3484 Clouds 8 1011 77 10000 8.23 292 02:26 28.05.2022
3485 Rain 10 1011 81 10000 11.32 300 23:57 27.05.2022
3486 Clear 10 1011 81 10000 13.38 290 22:38 27.05.2022
3487 Rain 9 1012 70 10000 8.89 284 21:28 27.05.2022
3488 Clear 11 1011 76 10000 13.38 290 20:44 27.05.2022
3489 Clouds 11 1011 82 10000 11.32 290 20:19 27.05.2022
3490 Clouds 11 1011 82 10000 11.32 290 19:38 27.05.2022
3491 Clouds 9 1012 87 5000 13.38 300 19:19 27.05.2022
3492 Clouds 12 1011 69 10000 10.02 284 17:24 27.05.2022
3493 Clouds 13 1011 71 10000 14.4 300 15:57 27.05.2022
3494 Clouds 11 1011 87 10000 13.89 280 14:57 27.05.2022
3495 Rain 12 1011 71 4700 18.52 280 13:41 27.05.2022
3496 Clouds 12 1011 79 10000 9.88 277 12:20 27.05.2022
3497 Rain 13 1011 79 10000 9.88 277 11:31 27.05.2022
3498 Clouds 13 1010 62 10000 15.95 270 10:43 27.05.2022
3499 Clouds 13 1011 67 10000 14.92 280 09:59 27.05.2022
3500 Clouds 13 1011 73 10000 9.28 275 09:31 27.05.2022
3501 Clear 12 1011 78 10000 7.83 273 07:40 27.05.2022
3502 Clear 10 1011 87 10000 5.14 275 05:25 27.05.2022
3503 Clouds 12 1010 94 10000 9.26 250 01:44 27.05.2022
3504 Rain 11 1012 96 10000 5.48 243 23:31 26.05.2022
3505 Rain 11 1013 94 10000 5 246 22:28 26.05.2022
3506 Rain 13 1013 95 10000 4.71 245 21:32 26.05.2022
3507 Rain 14 1014 67 10000 11.83 270 19:39 26.05.2022
3508 Clouds 14 1014 67 10000 12.35 270 18:52 26.05.2022
3509 Clouds 15 1014 63 10000 14.4 280 17:36 26.05.2022
3510 Clouds 16 1014 63 10000 8.88 270 16:31 26.05.2022
3511 Clouds 15 1014 58 10000 14.92 280 15:34 26.05.2022
3512 Clouds 16 1014 58 10000 10.23 267 14:21 26.05.2022
3513 Clear 17 1014 60 10000 9.65 269 12:20 26.05.2022
3514 Clouds 15 1012 72 10000 14.92 290 11:21 26.05.2022
3515 Clouds 14 1012 72 10000 13.38 280 09:40 26.05.2022
3516 Clear 13 1011 76 10000 13.38 280 08:57 26.05.2022
3517 Clouds 13 1011 82 10000 10.8 270 07:38 26.05.2022
3518 Clouds 13 1009 94 10000 9.77 260 02:59 26.05.2022
3519 Rain 13 1009 95 10000 7.43 237 00:21 26.05.2022
3520 Rain 12 1009 95 10000 6.76 224 23:22 25.05.2022
3521 Rain 14 1010 72 10000 6.17 240 21:47 25.05.2022
3522 Rain 14 1010 74 10000 6.53 234 21:28 25.05.2022
3523 Clouds 14 1011 72 10000 5.66 230 19:59 25.05.2022
3524 Clouds 15 1010 71 10000 6.06 242 19:21 25.05.2022
3525 Clouds 14 1011 67 10000 6.17 210 17:33 25.05.2022
3526 Clouds 15 1011 72 10000 8.75 230 16:36 25.05.2022
3527 Clouds 17 1011 51 10000 8.75 250 15:53 25.05.2022
3528 Clouds 17 1011 55 10000 10.29 250 14:51 25.05.2022
3529 Clouds 18 1011 56 10000 7.75 243 14:32 25.05.2022
3530 Clouds 16 1011 59 10000 8.23 250 13:42 25.05.2022
3531 Clouds 16 1011 59 10000 7.2 240 12:36 25.05.2022
3532 Clouds 16 1011 67 10000 6.54 232 10:43 25.05.2022
3533 Clouds 13 1010 87 10000 5.66 200 09:54 25.05.2022
3534 Clouds 14 1011 75 10000 4.79 229 08:23 25.05.2022
3535 Clouds 11 1010 87 10000 3.17 220 07:22 25.05.2022
3536 Clouds 10 1009 90 10000 4.47 239 03:22 25.05.2022
3537 Clouds 12 1007 82 10000 5.14 240 23:56 24.05.2022
3538 Clouds 12 1008 87 10000 5.82 244 23:31 24.05.2022
3539 Clouds 12 1007 83 10000 6.07 232 22:21 24.05.2022
3540 Clouds 13 1006 76 10000 7.2 240 21:40 24.05.2022
3541 Clouds 13 1006 81 10000 6.14 237 21:20 24.05.2022
3542 Clouds 14 1005 72 10000 10.8 250 19:45 24.05.2022
3543 Clouds 15 1004 67 10000 10.29 250 18:54 24.05.2022
3544 Clouds 15 1003 77 10000 7.2 240 16:45 24.05.2022
3545 Clouds 15 1002 74 10000 7.45 244 16:23 24.05.2022
3546 Clouds 16 1002 72 10000 7.2 240 14:58 24.05.2022
3547 Clouds 17 1001 90 10000 6.92 227 14:21 24.05.2022
3548 Rain 15 1001 77 10000 5.66 240 12:50 24.05.2022
3549 Clouds 14 1000 82 10000 4.63 230 11:33 24.05.2022
3550 Clouds 14 999 82 10000 5.66 250 09:45 24.05.2022
3551 Clouds 13 998 88 10000 8.23 250 08:50 24.05.2022
3552 Clouds 13 996 94 10000 10.8 260 06:57 24.05.2022
3553 Rain 14 996 96 10000 7.45 258 04:30 24.05.2022
3554 Rain 13 996 94 10000 6.17 120 02:37 24.05.2022
3555 Rain 14 997 88 8000 5.66 130 01:42 24.05.2022
3556 Clouds 15 997 77 10000 7.2 120 23:33 23.05.2022
3557 Clouds 16 999 72 10000 6.69 110 21:59 23.05.2022
3558 Clouds 16 999 72 10000 6.69 110 21:41 23.05.2022
3559 Clouds 16 999 72 10000 6.69 110 20:42 23.05.2022
3560 Clouds 18 1000 63 10000 7.72 120 19:33 23.05.2022
3561 Clouds 19 1001 59 10000 6.17 120 18:59 23.05.2022
3562 Clouds 19 1001 59 10000 6.17 120 18:35 23.05.2022
3563 Clouds 20 1002 56 10000 8.23 120 17:38 23.05.2022
3564 Clouds 21 1004 52 10000 7.72 120 15:47 23.05.2022
3565 Clouds 20 1005 56 10000 6.17 140 13:44 23.05.2022
3566 Clouds 19 1007 48 10000 5.66 150 11:36 23.05.2022
3567 Clouds 18 1008 52 10000 6.17 150 10:43 23.05.2022
3568 Clouds 17 1008 55 10000 5.66 140 09:40 23.05.2022
3569 Clouds 15 1009 67 10000 4.63 140 08:38 23.05.2022
3570 Clouds 11 1010 82 10000 5.14 140 06:47 23.05.2022
3571 Clouds 9 1010 86 10000 3.87 134 06:24 23.05.2022
3572 Clouds 10 1012 93 10000 4.63 160 02:36 23.05.2022
3573 Clouds 9 1012 93 10000 4.12 160 01:48 23.05.2022
3574 Clouds 10 1013 93 10000 1.03 20 01:19 23.05.2022
3575 Clouds 11 1013 87 10000 1.54 340 22:48 22.05.2022
3576 Clouds 12 1014 85 10000 1.22 321 22:21 22.05.2022
3577 Clouds 14 1014 72 10000 3.09 260 21:50 22.05.2022
3578 Clouds 16 1014 63 10000 2.06 280 20:43 22.05.2022
3579 Clouds 16 1015 77 10000 2.61 272 20:20 22.05.2022
3580 Clouds 17 1014 55 10000 2.57 280 19:19 22.05.2022
3581 Clouds 17 1014 55 10000 2.57 280 18:46 22.05.2022
3582 Clouds 17 1015 59 10000 2.9 275 18:21 22.05.2022
3583 Clouds 18 1014 48 10000 3.6 300 16:51 22.05.2022
3584 Clouds 16 1015 55 10000 3.86 281 15:25 22.05.2022
3585 Clouds 17 1015 51 10000 4.63 280 14:44 22.05.2022
3586 Clouds 16 1016 63 10000 5.66 290 12:55 22.05.2022
3587 Clouds 16 1016 63 10000 5.66 290 12:33 22.05.2022
3588 Clouds 14 1016 72 10000 5.14 270 10:53 22.05.2022
3589 Clouds 13 1016 68 10000 3.81 277 09:31 22.05.2022
3590 Clouds 12 1016 87 10000 4.63 270 07:52 22.05.2022
3591 Clouds 11 1017 94 10000 2.58 267 07:20 22.05.2022
3592 Clouds 11 1016 97 10000 2.65 277 04:30 22.05.2022
3593 Clouds 11 1017 97 10000 3.63 273 01:20 22.05.2022
3594 Clouds 12 1017 87 10000 8.23 280 23:57 21.05.2022
3595 Clouds 12 1017 97 10000 4.06 274 23:32 21.05.2022
3596 Clouds 12 1017 96 10000 4.68 276 22:22 21.05.2022
3597 Clouds 12 1016 94 10000 9.26 280 21:39 21.05.2022
3598 Clouds 13 1016 88 10000 8.75 290 20:48 21.05.2022
3599 Clouds 12 1016 94 10000 11.32 280 20:19 21.05.2022
3600 Clouds 12 1016 89 10000 6.7 284 19:24 21.05.2022
3601 Clouds 14 1015 77 10000 13.38 280 17:38 21.05.2022
3602 Clouds 15 1014 72 10000 13.38 280 15:38 21.05.2022
3603 Clouds 15 1014 72 10000 14.4 280 14:37 21.05.2022
3604 Clouds 14 1013 82 10000 12.35 270 13:39 21.05.2022
3605 Clouds 15 1013 77 10000 12.86 290 12:40 21.05.2022
3606 Clouds 15 1012 77 10000 10.29 280 11:54 21.05.2022
3607 Clouds 14 1012 82 10000 6.66 279 10:22 21.05.2022
3608 Clouds 13 1011 94 10000 5.14 280 09:38 21.05.2022
3609 Rain 13 1011 88 10000 6.17 260 08:52 21.05.2022
3610 Clouds 11 1012 94 10000 4.32 269 06:28 21.05.2022
3611 Clouds 10 1012 96 10000 3.36 303 02:26 21.05.2022
3612 Rain 13 1010 94 10000 1.54 300 23:50 20.05.2022
3613 Rain 13 1010 94 10000 2.06 100 22:42 20.05.2022
3614 Rain 13 1010 94 10000 2.06 100 22:42 20.05.2022
3615 Rain 14 1010 95 4002 2.76 9 22:23 20.05.2022
3616 Rain 14 1010 82 10000 2.57 70 21:40 20.05.2022
3617 Rain 14 1011 77 10000 3.6 100 20:54 20.05.2022
3618 Rain 16 1012 67 10000 2.57 110 19:57 20.05.2022
3619 Clouds 17 1011 75 10000 3.84 76 19:26 20.05.2022
3620 Clouds 16 1013 63 10000 3.09 100 18:36 20.05.2022
3621 Clouds 17 1015 55 10000 1.54 350 16:53 20.05.2022
3622 Clouds 17 1016 59 10000 1.54 270 16:19 20.05.2022
3623 Clouds 17 1016 59 10000 1.54 270 15:44 20.05.2022
3624 Clouds 18 1017 59 10000 2.7 261 14:30 20.05.2022
3625 Clouds 17 1018 63 10000 3.6 260 13:55 20.05.2022
3626 Clouds 15 1019 72 10000 5.14 300 11:33 20.05.2022
3627 Clouds 13 1019 82 10000 7.2 290 09:52 20.05.2022
3628 Clouds 13 1019 82 10000 6.17 310 08:44 20.05.2022
3629 Clouds 14 1018 88 10000 7.72 300 06:50 20.05.2022
3630 Clouds 14 1019 96 10000 3.75 285 06:31 20.05.2022
3631 Clouds 13 1018 95 10000 4.59 297 04:31 20.05.2022
3632 Clouds 16 1016 94 10000 4.63 270 00:48 20.05.2022
3633 Clouds 17 1016 94 10000 5.66 290 22:47 19.05.2022
3634 Clouds 17 1015 88 10000 0.51 340 22:19 19.05.2022
3635 Clouds 17 1015 88 10000 0.51 340 21:42 19.05.2022
3636 Clouds 19 1015 93 10000 2.08 244 21:22 19.05.2022
3637 Clouds 18 1014 82 10000 0.51 330 20:34 19.05.2022
3638 Clouds 18 1015 88 10000 1.54 150 19:50 19.05.2022
3639 Clouds 21 1016 86 8273 4.67 258 18:22 19.05.2022
3640 Rain 21 1016 64 10000 2.06 80 16:51 19.05.2022
3641 Clouds 20 1016 68 10000 3.09 40 15:19 19.05.2022
3642 Clouds 19 1017 85 10000 2.31 20 14:25 19.05.2022
3643 Clouds 20 1017 77 10000 3.14 258 13:23 19.05.2022
3644 Clouds 20 1017 78 10000 4.12 350 11:41 19.05.2022
3645 Clouds 19 1017 80 10000 1.4 148 09:29 19.05.2022
3646 Clouds 15 1018 100 3500 1.54 150 07:52 19.05.2022
3647 Clouds 14 1018 94 2400 2.06 260 06:18 19.05.2022
3648 Clouds 14 1018 94 2400 2.06 260 06:18 19.05.2022
3649 Clouds 15 1019 88 10000 2.61 249 02:27 19.05.2022
3650 Clouds 15 1018 94 10000 0.51 110 00:40 19.05.2022
3651 Clouds 16 1019 88 10000 0.51 0 22:53 18.05.2022
3652 Clouds 17 1019 88 10000 0.51 0 22:35 18.05.2022
3653 Clouds 21 1020 88 10000 2.23 238 21:31 18.05.2022
3654 Clouds 17 1019 82 10000 1.03 140 20:54 18.05.2022
3655 Clouds 19 1019 77 10000 1.54 0 20:19 18.05.2022
3656 Clouds 24 1020 78 10000 2.55 232 18:43 18.05.2022
3657 Clouds 21 1020 68 10000 1.54 90 17:41 18.05.2022
3658 Clouds 24 1020 67 10000 4.2 192 17:23 18.05.2022
3659 Clouds 22 1020 60 10000 4.63 100 16:35 18.05.2022
3660 Clouds 21 1021 60 10000 3.6 100 15:42 18.05.2022
3661 Clouds 21 1021 60 10000 4.12 80 14:54 18.05.2022
3662 Clouds 21 1021 60 10000 3.09 90 13:48 18.05.2022
3663 Clouds 21 1022 60 10000 5.14 140 12:53 18.05.2022
3664 Clouds 19 1022 59 10000 3.6 130 11:41 18.05.2022
3665 Clouds 19 1022 71 10000 5.23 149 11:23 18.05.2022
3666 Clouds 16 1022 63 10000 4.63 130 09:59 18.05.2022
3667 Clouds 12 1022 66 10000 4.63 120 07:56 18.05.2022
3668 Clouds 11 1023 66 10000 4.63 120 06:50 18.05.2022
3669 Clouds 13 1023 54 10000 6.17 130 02:47 18.05.2022
3670 Clouds 13 1023 67 10000 6.73 114 00:31 18.05.2022
3671 Clouds 13 1022 67 10000 4.63 120 22:59 17.05.2022
3672 Clouds 14 1023 76 10000 5.74 100 21:21 17.05.2022
3673 Clouds 14 1023 76 10000 5.74 100 21:21 17.05.2022
3674 Clouds 15 1022 55 10000 5.66 120 20:38 17.05.2022
3675 Clouds 16 1022 75 10000 5.46 94 19:29 17.05.2022
3676 Clouds 17 1022 68 10000 6.09 97 18:22 17.05.2022
3677 Clouds 17 1022 68 10000 6.09 97 17:31 17.05.2022
3678 Clouds 17 1021 63 10000 3.6 100 16:53 17.05.2022
3679 Clouds 16 1021 67 10000 4.12 110 15:45 17.05.2022
3680 Clouds 16 1021 67 10000 2.06 110 14:52 17.05.2022
3681 Clouds 16 1022 65 10000 5.49 93 14:28 17.05.2022
3682 Clouds 14 1021 67 10000 3.6 100 12:37 17.05.2022
3683 Rain 14 1021 81 10000 4.27 96 10:23 17.05.2022
3684 Rain 12 1020 94 10000 2.57 100 08:51 17.05.2022
3685 Rain 12 1019 94 10000 1.03 0 07:46 17.05.2022
3686 Rain 12 1019 97 10000 4.25 86 06:21 17.05.2022
3687 Rain 13 1018 71 10000 3.09 90 00:47 17.05.2022
3688 Clouds 14 1018 62 10000 4.12 100 23:43 16.05.2022
3689 Clouds 14 1018 58 10000 4.12 120 22:33 16.05.2022
3690 Clouds 15 1018 63 10000 5.66 110 21:18 16.05.2022
3691 Clouds 15 1018 63 10000 5.66 110 20:37 16.05.2022
3692 Clouds 17 1018 59 10000 6.17 100 18:51 16.05.2022
3693 Clouds 17 1018 55 10000 6.17 110 17:18 16.05.2022
3694 Clouds 17 1018 55 10000 6.17 110 17:18 16.05.2022
3695 Clouds 17 1019 59 10000 5.66 90 15:35 16.05.2022
3696 Clouds 17 1019 55 10000 5.14 100 13:48 16.05.2022
3697 Clouds 17 1019 63 10000 6.69 110 12:41 16.05.2022
3698 Clouds 16 1020 67 10000 4.12 100 10:37 16.05.2022
3699 Clouds 13 1020 74 10000 4.96 98 08:32 16.05.2022
3700 Clouds 9 1020 86 10000 2.88 111 06:30 16.05.2022
3701 Clouds 8 1020 93 10000 3.09 140 01:43 16.05.2022
3702 Clouds 11 1021 82 10000 3.6 160 22:45 15.05.2022
3703 Clouds 12 1021 86 10000 1.41 119 22:20 15.05.2022
3704 Clouds 13 1021 71 10000 3.6 150 21:37 15.05.2022
3705 Clouds 15 1020 63 10000 3.09 140 20:53 15.05.2022
3706 Clouds 17 1020 59 10000 4.12 100 18:52 15.05.2022
3707 Clouds 19 1021 59 10000 1.83 11 17:29 15.05.2022
3708 Clouds 17 1022 51 10000 1.54 270 14:58 15.05.2022
3709 Clouds 16 1022 55 10000 0.51 340 13:47 15.05.2022
3710 Clouds 17 1022 62 10000 1.87 298 12:21 15.05.2022
3711 Clouds 17 1023 66 10000 1.82 294 11:29 15.05.2022
3712 Clouds 11 1023 82 10000 2.57 280 09:58 15.05.2022
3713 Clouds 8 1022 91 10000 1.6 275 07:25 15.05.2022
3714 Clouds 8 1022 93 650 2.57 320 06:56 15.05.2022
3715 Clouds 5 1022 93 10000 1.97 282 04:26 15.05.2022
3716 Clear 9 1021 87 10000 3.6 290 00:47 15.05.2022
3717 Clouds 10 1021 87 10000 4.63 270 23:38 14.05.2022
3718 Clear 11 1021 82 10000 5.66 290 22:41 14.05.2022
3719 Clear 12 1021 82 10000 3.07 287 21:27 14.05.2022
3720 Clear 13 1021 82 10000 3.07 287 20:30 14.05.2022
3721 Clouds 14 1020 67 10000 5.28 304 19:21 14.05.2022
3722 Clouds 15 1020 58 10000 10.8 300 18:59 14.05.2022
3723 Clouds 15 1019 58 10000 11.32 300 17:54 14.05.2022
3724 Clouds 16 1019 59 10000 7.39 304 16:32 14.05.2022
3725 Clouds 15 1019 63 10000 11.83 290 14:56 14.05.2022
3726 Clouds 16 1019 58 10000 8.27 298 14:30 14.05.2022
3727 Clouds 15 1017 67 10000 10.29 290 12:18 14.05.2022
3728 Clouds 14 1017 72 10000 9.26 290 10:53 14.05.2022
3729 Clouds 15 1017 72 10000 6.87 291 10:20 14.05.2022
3730 Clouds 13 1016 82 10000 8.23 290 09:51 14.05.2022
3731 Clouds 12 1016 85 10000 5.66 278 08:22 14.05.2022
3732 Clouds 12 1014 87 10000 6.36 268 05:26 14.05.2022
3733 Clouds 12 1014 76 10000 10.29 260 01:57 14.05.2022
3734 Clouds 12 1014 86 10000 7 247 23:32 13.05.2022
3735 Clouds 12 1015 82 10000 9.26 250 22:57 13.05.2022
3736 Clouds 12 1015 88 10000 6.57 247 22:23 13.05.2022
3737 Clouds 12 1015 82 10000 9.77 260 21:38 13.05.2022
3738 Clouds 12 1014 82 10000 10.29 270 20:44 13.05.2022
3739 Clouds 13 1015 88 10000 7.4 256 20:23 13.05.2022
3740 Clouds 13 1014 87 10000 8.12 258 19:21 13.05.2022
3741 Clouds 13 1014 76 10000 10.8 270 17:50 13.05.2022
3742 Clouds 14 1014 81 10000 8.89 263 17:27 13.05.2022
3743 Clouds 13 1014 82 10000 10.8 260 16:18 13.05.2022
3744 Clouds 13 1013 76 10000 11.83 270 14:54 13.05.2022
3745 Clouds 14 1013 74 10000 8.54 261 13:29 13.05.2022
3746 Clouds 13 1013 73 10000 6.77 252 12:25 13.05.2022
3747 Clouds 13 1013 73 10000 6.77 252 12:25 13.05.2022
3748 Clouds 13 1012 71 10000 5.14 240 10:46 13.05.2022
3749 Rain 11 1012 79 10000 6.1 249 09:33 13.05.2022
3750 Clouds 11 1012 78 10000 4.71 212 08:23 13.05.2022
3751 Clouds 10 1012 87 10000 4.12 190 07:42 13.05.2022
3752 Clouds 10 1012 87 10000 4.63 200 05:59 13.05.2022
3753 Clouds 10 1014 87 10000 5.14 250 02:44 13.05.2022
3754 Clouds 10 1014 87 10000 5.66 260 23:56 12.05.2022
3755 Clouds 11 1014 82 10000 6.17 260 22:44 12.05.2022
3756 Clouds 11 1014 87 10000 8.23 270 21:54 12.05.2022
3757 Clouds 12 1015 82 10000 6 262 20:27 12.05.2022
3758 Clouds 14 1014 67 10000 12.86 280 18:50 12.05.2022
3759 Clouds 15 1014 58 10000 14.4 270 16:58 12.05.2022
3760 Clouds 15 1014 62 10000 12.35 270 15:55 12.05.2022
3761 Clouds 16 1014 60 10000 8.67 256 14:40 12.05.2022
3762 Clouds 15 1014 63 10000 9.77 250 13:38 12.05.2022
3763 Clear 14 1013 67 10000 8.75 280 10:45 12.05.2022
3764 Clear 13 1012 81 10000 6.26 279 09:28 12.05.2022
3765 Clear 13 1012 81 10000 6.26 279 09:28 12.05.2022
3766 Clear 11 1011 87 10000 10.29 280 08:51 12.05.2022
3767 Clouds 11 1010 93 10000 8.23 280 07:40 12.05.2022
3768 Clouds 10 1008 93 10000 8.75 290 05:46 12.05.2022
3769 Rain 11 1005 93 6000 6.69 320 02:56 12.05.2022
3770 Rain 10 1005 100 10000 3.6 190 00:35 12.05.2022
3771 Rain 10 1006 93 10000 4.12 180 22:35 11.05.2022
3772 Rain 10 1006 93 10000 3.09 210 21:50 11.05.2022
3773 Rain 10 1006 95 10000 3.29 245 21:23 11.05.2022
3774 Rain 11 1007 87 7000 6.69 270 18:49 11.05.2022
3775 Clouds 14 1007 72 10000 10.29 280 16:55 11.05.2022
3776 Clouds 14 1007 69 10000 5.22 257 15:31 11.05.2022
3777 Clouds 16 1007 63 10000 8.23 240 14:39 11.05.2022
3778 Clouds 16 1007 72 10000 11.83 270 14:18 11.05.2022
3779 Clouds 16 1007 72 10000 6.17 240 11:54 11.05.2022
3780 Rain 16 1007 77 10000 6.69 220 11:19 11.05.2022
3781 Clouds 13 1008 88 10000 4.63 190 08:40 11.05.2022
3782 Clouds 10 1010 96 10000 3.69 192 05:31 11.05.2022
3783 Clouds 10 1010 96 10000 3.69 192 05:31 11.05.2022
3784 Clouds 10 1011 93 10000 3.6 210 00:45 11.05.2022
3785 Clouds 12 1012 97 10000 3.37 243 22:32 10.05.2022
3786 Clouds 13 1011 88 10000 7.72 280 21:57 10.05.2022
3787 Clouds 14 1011 82 10000 11.32 280 20:58 10.05.2022
3788 Clouds 15 1011 72 10000 13.38 270 20:18 10.05.2022
3789 Rain 15 1012 88 10000 5.48 244 18:27 10.05.2022
3790 Rain 17 1011 77 10000 5.66 230 17:34 10.05.2022
3791 Rain 16 1013 82 10000 3.09 190 15:42 10.05.2022
3792 Rain 20 1014 42 10000 8.75 240 12:48 10.05.2022
3793 Clouds 19 1014 48 10000 5.66 210 11:51 10.05.2022
3794 Clouds 20 1015 68 10000 5.58 215 11:21 10.05.2022
3795 Clouds 18 1015 55 10000 4.12 200 10:54 10.05.2022
3796 Clouds 15 1016 75 10000 4.34 203 09:27 10.05.2022
3797 Clouds 13 1016 62 10000 2.57 190 07:47 10.05.2022
3798 Clouds 13 1018 58 10000 6.69 180 04:35 10.05.2022
3799 Clouds 13 1019 62 10000 7.2 160 01:36 10.05.2022
3800 Clouds 12 1021 71 10000 6.17 140 23:37 09.05.2022
3801 Clouds 12 1022 82 10000 4.18 147 22:30 09.05.2022
3802 Clouds 13 1023 84 10000 3.86 131 21:25 09.05.2022
3803 Clouds 16 1023 59 10000 4.63 120 19:52 09.05.2022
3804 Clear 18 1024 60 10000 3.52 134 18:22 09.05.2022
3805 Clear 16 1025 59 10000 5.66 90 16:55 09.05.2022
3806 Clear 16 1025 59 10000 5.66 90 16:55 09.05.2022
3807 Clear 17 1026 59 10000 5.66 90 15:54 09.05.2022
3808 Clear 17 1026 59 10000 5.66 90 15:35 09.05.2022
3809 Clouds 16 1026 63 10000 5.14 90 14:33 09.05.2022
3810 Clouds 16 1027 63 10000 3.6 80 13:56 09.05.2022
3811 Clouds 17 1028 48 10000 4.12 110 12:51 09.05.2022
3812 Clouds 16 1028 48 10000 5.66 150 11:52 09.05.2022
3813 Clouds 15 1028 51 10000 5.14 160 10:46 09.05.2022
3814 Clouds 16 1028 62 10000 3.68 152 10:20 09.05.2022
3815 Clouds 7 1029 93 10000 3.6 120 07:56 09.05.2022
3816 Clouds 5 1029 93 10000 4.63 120 04:35 09.05.2022
3817 Clouds 7 1029 77 10000 2.07 115 00:23 09.05.2022
3818 Clouds 8 1029 76 10000 2.16 120 23:27 08.05.2022
3819 Clouds 10 1028 74 10000 2.35 118 22:29 08.05.2022
3820 Clouds 14 1027 47 10000 2.57 140 20:53 08.05.2022
3821 Clouds 14 1027 69 10000 2.11 110 20:22 08.05.2022
3822 Clouds 16 1027 69 10000 2.11 110 19:32 08.05.2022
3823 Clouds 17 1027 34 10000 3.09 30 18:35 08.05.2022
3824 Clear 17 1027 27 10000 1.03 60 17:36 08.05.2022
3825 Clear 16 1027 29 10000 4.63 30 15:46 08.05.2022
3826 Clear 18 1027 45 10000 2.55 48 15:21 08.05.2022
3827 Clouds 15 1027 47 10000 2.06 20 12:46 08.05.2022
3828 Clouds 12 1026 62 10000 5.14 310 10:59 08.05.2022
3829 Clouds 13 1026 59 10000 4.72 308 10:22 08.05.2022
3830 Clouds 10 1026 71 10000 5.66 310 09:51 08.05.2022
3831 Clear 6 1026 87 10000 6.69 300 07:43 08.05.2022
3832 Clear 3 1025 82 10000 3.3 289 05:22 08.05.2022
3833 Clear 4 1026 84 10000 3.25 295 03:21 08.05.2022
3834 Clouds 6 1025 81 10000 5.14 310 00:42 08.05.2022
3835 Clouds 7 1025 71 10000 5.66 330 23:55 07.05.2022
3836 Clouds 6 1025 84 10000 3.46 304 23:28 07.05.2022
3837 Clouds 9 1024 71 10000 7.2 320 22:35 07.05.2022
3838 Clouds 10 1024 66 10000 6.69 300 21:55 07.05.2022
3839 Clouds 9 1024 71 10000 4.82 315 21:20 07.05.2022
3840 Clouds 11 1023 68 10000 5.37 312 20:23 07.05.2022
3841 Clouds 14 1023 54 10000 9.26 310 18:41 07.05.2022
3842 Clouds 17 1022 58 10000 6.83 307 16:24 07.05.2022
3843 Clouds 17 1022 63 10000 7.2 310 14:53 07.05.2022
3844 Clouds 16 1023 87 10000 2.76 303 11:23 07.05.2022
3845 Clouds 12 1022 94 10000 5.14 310 09:42 07.05.2022
3846 Clouds 11 1021 90 10000 3.48 309 08:30 07.05.2022
3847 Clouds 11 1020 93 7000 3.6 250 07:19 07.05.2022
3848 Clouds 11 1020 93 7000 3.6 250 06:42 07.05.2022
3849 Clouds 11 1020 87 8000 4.63 260 03:57 07.05.2022
3850 Clouds 12 1021 76 10000 4.12 240 23:44 06.05.2022
3851 Clouds 13 1021 76 10000 4.12 230 22:35 06.05.2022
3852 Clouds 13 1021 76 10000 2.57 250 21:53 06.05.2022
3853 Clouds 12 1021 89 10000 3.07 231 21:29 06.05.2022
3854 Clouds 14 1021 72 10000 6.69 270 19:47 06.05.2022
3855 Clouds 16 1021 77 10000 4.34 256 19:24 06.05.2022
3856 Clouds 17 1021 77 10000 4.34 256 18:30 06.05.2022
3857 Clouds 16 1022 67 10000 8.23 280 17:34 06.05.2022
3858 Clouds 16 1022 67 10000 6.69 280 15:51 06.05.2022
3859 Clouds 17 1023 75 10000 4.98 245 15:28 06.05.2022
3860 Clouds 16 1023 72 10000 6.69 260 13:49 06.05.2022
3861 Clouds 15 1023 72 10000 5.66 250 12:50 06.05.2022
3862 Clouds 13 1024 76 10000 5.14 260 11:58 06.05.2022
3863 Clouds 13 1024 73 10000 4.55 244 11:24 06.05.2022
3864 Clouds 10 1024 93 6000 3.09 220 09:47 06.05.2022
3865 Clouds 9 1024 93 6000 4.12 230 09:18 06.05.2022
3866 Clouds 8 1024 100 7000 3.6 250 07:49 06.05.2022
3867 Clouds 7 1023 96 10000 2.24 227 06:26 06.05.2022
3868 Clouds 8 1023 93 300 2.57 270 03:42 06.05.2022
3869 Clouds 8 1024 93 750 2.57 280 02:38 06.05.2022
3870 Clouds 10 1023 87 10000 4.63 290 22:58 05.05.2022
3871 Clouds 11 1023 87 10000 6.69 300 21:50 05.05.2022
3872 Clouds 12 1022 82 10000 6.69 290 20:37 05.05.2022
3873 Clouds 14 1022 72 10000 6.17 290 18:56 05.05.2022
3874 Clouds 16 1022 71 10000 5.02 273 16:42 05.05.2022
3875 Clouds 14 1022 70 10000 4.91 267 15:31 05.05.2022
3876 Clouds 13 1022 69 10000 4.54 265 13:30 05.05.2022
3877 Clouds 12 1021 71 10000 5.14 270 12:56 05.05.2022
3878 Clouds 11 1021 66 10000 4.63 270 11:42 05.05.2022
3879 Clouds 10 1021 71 10000 2.57 290 09:46 05.05.2022
3880 Clouds 8 1020 76 10000 1.03 250 08:54 05.05.2022
3881 Clouds 3 1020 86 10000 1.78 295 06:28 05.05.2022
3882 Clouds 2 1020 89 10000 1.93 307 02:27 05.05.2022
3883 Clouds 4 1019 93 10000 2.57 290 01:44 05.05.2022
3884 Clouds 4 1019 87 10000 4.12 300 00:57 05.05.2022
3885 Clouds 5 1019 88 10000 2.65 303 23:22 04.05.2022
3886 Clouds 8 1018 71 10000 5.66 300 22:18 04.05.2022
3887 Clouds 8 1018 71 10000 5.66 300 21:45 04.05.2022
3888 Clouds 9 1018 66 10000 7.72 300 21:18 04.05.2022
3889 Clouds 9 1018 75 10000 3.61 272 20:20 04.05.2022
3890 Clouds 11 1017 62 10000 6.69 280 19:35 04.05.2022
3891 Clouds 12 1017 58 10000 6.69 290 18:44 04.05.2022
3892 Clouds 12 1017 62 10000 3.55 265 18:20 04.05.2022
3893 Clouds 14 1017 60 10000 3.45 263 17:22 04.05.2022
3894 Clouds 14 1017 62 10000 3.65 264 15:35 04.05.2022
3895 Clouds 13 1017 54 10000 5.14 260 14:46 04.05.2022
3896 Clouds 13 1018 64 10000 3.69 254 14:20 04.05.2022
3897 Clouds 13 1018 64 10000 3.69 254 14:20 04.05.2022
3898 Clouds 13 1018 54 10000 3.6 260 12:58 04.05.2022
3899 Clouds 14 1018 61 10000 1.95 248 12:28 04.05.2022
3900 Clouds 11 1018 67 10000 1.89 248 10:30 04.05.2022
3901 Clouds 10 1018 77 10000 1.86 247 09:28 04.05.2022
3902 Clouds 9 1018 77 10000 1.86 247 08:33 04.05.2022
3903 Clouds 5 1017 93 10000 3.09 270 05:44 04.05.2022
3904 Clouds 6 1018 87 10000 2.57 270 02:43 04.05.2022
3905 Clouds 7 1018 90 10000 1.63 287 23:31 03.05.2022
3906 Clouds 8 1018 89 10000 2.18 289 22:20 03.05.2022
3907 Clouds 9 1017 71 10000 5.14 270 21:36 03.05.2022
3908 Clouds 11 1017 66 10000 6.17 280 20:52 03.05.2022
3909 Clouds 12 1017 62 10000 7.72 280 19:44 03.05.2022
3910 Clouds 14 1017 54 10000 6.17 280 18:50 03.05.2022
3911 Clouds 14 1017 58 10000 6.69 280 17:45 03.05.2022
3912 Clouds 15 1017 58 10000 6.17 280 16:35 03.05.2022
3913 Clouds 15 1017 51 10000 4.63 270 14:51 03.05.2022
3914 Clouds 13 1017 54 10000 3.09 310 12:47 03.05.2022
3915 Clouds 14 1017 55 10000 5.62 294 12:27 03.05.2022
3916 Clouds 11 1017 62 10000 5.66 280 10:57 03.05.2022
3917 Clouds 9 1017 67 10000 5.45 302 09:21 03.05.2022
3918 Clouds 7 1016 81 10000 6.17 300 06:46 03.05.2022
3919 Clouds 7 1016 81 10000 6.69 320 05:56 03.05.2022
3920 Clouds 8 1017 89 10000 3.93 262 00:32 03.05.2022
3921 Clouds 9 1017 71 10000 4.63 270 22:36 02.05.2022
3922 Clouds 10 1018 71 10000 6.69 290 21:52 02.05.2022
3923 Clouds 11 1017 66 10000 7.72 290 20:51 02.05.2022
3924 Clouds 13 1018 58 10000 8.23 280 18:40 02.05.2022
3925 Clouds 13 1018 62 10000 5.41 297 18:21 02.05.2022
3926 Clouds 14 1018 44 10000 7.72 280 17:37 02.05.2022
3927 Clouds 14 1019 51 10000 5.39 291 16:22 02.05.2022
3928 Clouds 14 1018 53 10000 5.57 288 15:30 02.05.2022
3929 Clouds 14 1018 53 10000 5.57 288 15:30 02.05.2022
3930 Clouds 14 1020 44 10000 4.63 280 13:51 02.05.2022
3931 Clear 13 1021 43 10000 3.09 260 12:19 02.05.2022
3932 Clear 11 1021 50 10000 1.54 250 10:47 02.05.2022
3933 Clear 11 1021 68 10000 2.3 290 09:20 02.05.2022
3934 Clouds 4 1021 100 10000 1.03 290 07:51 02.05.2022
3935 Clouds 4 1021 100 10000 1.03 290 07:51 02.05.2022
3936 Clouds 3 1022 93 10000 1.54 310 03:53 02.05.2022
3937 Clouds 3 1023 89 10000 2.22 322 00:24 02.05.2022
3938 Clouds 7 1022 61 10000 3.6 340 23:48 01.05.2022
3939 Clouds 6 1023 84 10000 2.99 311 22:33 01.05.2022
3940 Clouds 9 1023 78 10000 3.2 310 21:22 01.05.2022
3941 Clouds 14 1022 41 10000 6.17 310 19:53 01.05.2022
3942 Clouds 14 1022 41 10000 4.63 320 18:58 01.05.2022
3943 Clouds 14 1022 62 10000 3.83 289 18:28 01.05.2022
3944 Clouds 13 1022 47 10000 4.12 310 17:38 01.05.2022
3945 Clouds 14 1022 54 10000 2.98 263 16:23 01.05.2022
3946 Clouds 14 1023 44 10000 4.63 280 15:36 01.05.2022
3947 Clouds 14 1023 38 10000 1.54 350 13:47 01.05.2022
3948 Clouds 13 1024 64 10000 2.38 286 11:23 01.05.2022
3949 Clouds 8 1024 71 10000 2.39 292 09:32 01.05.2022
3950 Clouds 6 1023 100 10000 2.06 270 08:42 01.05.2022
3951 Clouds 4 1023 93 10000 4.12 300 03:44 01.05.2022
3952 Clouds 6 1023 87 10000 5.14 290 00:34 01.05.2022
3953 Clouds 10 1023 66 10000 7.72 300 21:51 30.04.2022
3954 Clouds 11 1023 62 10000 6.17 300 21:19 30.04.2022
3955 Clouds 12 1023 58 10000 5.66 310 19:45 30.04.2022
3956 Clouds 12 1023 66 10000 5.66 280 18:45 30.04.2022
3957 Clouds 12 1023 71 10000 6.69 270 16:54 30.04.2022
3958 Clouds 13 1024 58 10000 3.6 300 15:48 30.04.2022
3959 Clouds 12 1024 54 10000 3.09 270 14:54 30.04.2022
3960 Clouds 15 1024 54 10000 3.79 299 13:30 30.04.2022
3961 Clouds 11 1025 66 10000 5.14 290 11:34 30.04.2022
3962 Clouds 10 1026 71 10000 6.17 290 10:55 30.04.2022
3963 Clouds 8 1025 81 10000 5.14 320 09:50 30.04.2022
3964 Clouds 5 1026 81 10000 3.13 336 07:31 30.04.2022
3965 Clouds 5 1026 87 10000 2.06 330 03:34 30.04.2022
3966 Clouds 8 1026 66 10000 5.66 320 23:54 29.04.2022
3967 Clouds 9 1026 66 10000 5.66 290 22:35 29.04.2022
3968 Clouds 9 1026 71 10000 7.2 300 21:54 29.04.2022
3969 Clouds 10 1026 71 10000 6.69 280 21:19 29.04.2022
3970 Clouds 10 1026 71 10000 6.69 290 19:48 29.04.2022
3971 Clouds 10 1026 71 10000 7.72 290 18:47 29.04.2022
3972 Clouds 11 1027 64 10000 5.01 301 17:33 29.04.2022
3973 Clouds 11 1028 62 10000 7.2 290 15:58 29.04.2022
3974 Clouds 11 1028 62 10000 5.66 290 14:34 29.04.2022
3975 Clouds 11 1029 57 10000 3.83 301 13:27 29.04.2022
3976 Clouds 12 1029 60 10000 3.29 306 12:26 29.04.2022
3977 Clouds 8 1029 71 10000 5.66 310 09:48 29.04.2022
3978 Clouds 6 1029 81 10000 4.12 310 07:52 29.04.2022
3979 Clouds 3 1030 90 10000 2.39 324 07:24 29.04.2022
3980 Clouds 4 1029 87 10000 4.12 330 05:57 29.04.2022
3981 Clouds 4 1031 94 10000 3.15 314 00:51 29.04.2022
3982 Clouds 7 1030 81 10000 3.6 310 23:49 28.04.2022
3983 Clouds 8 1030 76 10000 2.57 280 22:47 28.04.2022
3984 Clouds 9 1030 76 10000 5.14 280 21:59 28.04.2022
3985 Clouds 9 1030 76 10000 5.14 280 21:37 28.04.2022
3986 Clouds 11 1029 71 10000 5.14 290 20:41 28.04.2022
3987 Clouds 12 1029 66 10000 7.2 310 19:49 28.04.2022
3988 Clouds 12 1029 70 10000 5.23 305 19:23 28.04.2022
3989 Clouds 13 1028 58 10000 7.2 300 18:45 28.04.2022
3990 Clear 14 1029 63 10000 5.94 309 17:32 28.04.2022
3991 Clear 14 1029 51 10000 8.75 290 16:51 28.04.2022
3992 Clear 15 1029 55 10000 6.07 306 16:20 28.04.2022
3993 Clear 15 1029 55 10000 6.07 306 16:20 28.04.2022
3994 Clear 14 1029 44 10000 7.2 300 15:43 28.04.2022
3995 Clear 14 1029 41 10000 7.2 300 14:56 28.04.2022
3996 Clouds 14 1029 52 10000 5.71 302 13:33 28.04.2022
3997 Clouds 13 1029 49 10000 4.63 303 12:28 28.04.2022
3998 Clouds 11 1029 58 10000 4.12 300 10:59 28.04.2022
3999 Clouds 11 1029 55 10000 3.71 317 10:26 28.04.2022
4000 Clouds 9 1029 81 10000 2.06 330 09:47 28.04.2022
4001 Clouds 4 1028 100 10000 2.06 330 07:40 28.04.2022
4002 Clouds 3 1028 100 3400 2.06 290 06:43 28.04.2022
4003 Clouds 3 1027 100 4400 1.54 290 05:52 28.04.2022
4004 Clouds 3 1027 93 6000 2.06 290 04:42 28.04.2022
4005 Clouds 5 1027 93 10000 3.09 270 01:53 28.04.2022
4006 Clouds 6 1027 93 10000 3.41 280 23:25 27.04.2022
4007 Clouds 7 1027 90 10000 3.5 279 22:20 27.04.2022
4008 Clouds 9 1026 71 10000 5.66 280 21:43 27.04.2022
4009 Clouds 10 1026 66 10000 7.72 280 20:45 27.04.2022
4010 Clouds 11 1025 62 10000 7.72 280 19:55 27.04.2022
4011 Clouds 11 1025 62 10000 7.72 280 19:34 27.04.2022
4012 Clouds 12 1025 58 10000 7.2 280 18:41 27.04.2022
4013 Clouds 12 1025 63 10000 5.24 290 18:20 27.04.2022
4014 Clouds 12 1025 53 10000 4.04 284 16:18 27.04.2022
4015 Clouds 12 1025 54 10000 4.63 280 13:18 27.04.2022
4016 Clouds 12 1025 61 10000 2.09 276 11:25 27.04.2022
4017 Clouds 10 1024 62 10000 3.09 290 10:50 27.04.2022
4018 Clouds 7 1024 83 10000 1.88 303 08:28 27.04.2022
4019 Clouds 3 1023 93 10000 2.06 330 06:42 27.04.2022
4020 Clear 4 1022 87 10000 3.09 330 02:35 27.04.2022
4021 Clear 4 1022 91 10000 2.26 305 01:23 27.04.2022
4022 Clear 6 1021 81 10000 3.09 310 00:34 27.04.2022
4023 Clear 6 1021 91 10000 2.96 305 23:24 26.04.2022
4024 Clear 7 1020 81 10000 3.09 290 22:51 26.04.2022
4025 Clear 6 1021 91 10000 2.96 305 22:31 26.04.2022
4026 Clear 8 1020 83 10000 3.38 304 21:25 26.04.2022
4027 Clear 10 1019 66 10000 6.69 310 20:39 26.04.2022
4028 Clouds 13 1018 50 10000 5.14 310 19:45 26.04.2022
4029 Clouds 12 1018 66 10000 3.94 298 19:26 26.04.2022
4030 Clouds 13 1018 50 10000 5.14 300 18:40 26.04.2022
4031 Clouds 14 1018 47 10000 7.2 300 17:42 26.04.2022
4032 Clouds 13 1018 50 10000 5.14 300 15:59 26.04.2022
4033 Clear 14 1017 51 10000 3.6 300 13:58 26.04.2022
4034 Clear 14 1017 49 10000 2.62 289 13:29 26.04.2022
4035 Clear 12 1017 52 10000 2.3 316 11:29 26.04.2022
4036 Clear 10 1017 52 10000 2.3 316 10:31 26.04.2022
4037 Clear 6 1017 61 10000 2.06 330 08:47 26.04.2022
4038 Clear 2 1016 100 5000 2.06 270 05:46 26.04.2022
4039 Clear 4 1016 84 10000 0.95 282 04:23 26.04.2022
4040 Clouds 4 1015 93 10000 1.03 220 00:53 26.04.2022
4041 Clouds 5 1015 87 10000 3.6 130 23:52 25.04.2022
4042 Clouds 8 1015 66 10000 2.06 100 22:18 25.04.2022
4043 Clouds 9 1015 66 10000 2.06 100 21:33 25.04.2022
4044 Clouds 11 1014 67 10000 1.53 98 20:26 25.04.2022
4045 Clouds 12 1014 54 10000 4.63 30 18:54 25.04.2022
4046 Clouds 12 1014 54 10000 3.09 50 17:41 25.04.2022
4047 Clouds 12 1014 50 10000 3.6 30 16:51 25.04.2022
4048 Clouds 14 1014 52 10000 2.92 68 15:23 25.04.2022
4049 Clouds 13 1014 50 10000 2.06 20 14:34 25.04.2022
4050 Clear 12 1015 53 10000 3.35 61 13:29 25.04.2022
4051 Clear 10 1014 57 10000 4.12 30 11:37 25.04.2022
4052 Clear 11 1014 60 10000 4.29 60 10:20 25.04.2022
4053 Clear 7 1014 64 10000 4.25 54 08:33 25.04.2022
4054 Clouds 4 1013 85 10000 3.65 54 06:27 25.04.2022
4055 Clouds 5 1013 88 10000 3.87 69 03:44 25.04.2022
4056 Clouds 6 1013 83 10000 4.34 64 00:33 25.04.2022
4057 Clouds 7 1013 82 10000 4.87 68 23:51 24.04.2022
4058 Clouds 8 1013 82 10000 5.27 68 22:41 24.04.2022
4059 Clouds 8 1012 81 10000 5.56 69 21:58 24.04.2022
4060 Clouds 8 1012 77 10000 6.02 71 21:24 24.04.2022
4061 Clouds 9 1012 77 10000 6.02 71 20:48 24.04.2022
4062 Clouds 9 1011 78 10000 6.64 66 20:22 24.04.2022
4063 Clouds 9 1011 79 10000 6.29 63 19:19 24.04.2022
4064 Clouds 10 1011 81 10000 6.28 56 18:20 24.04.2022
4065 Rain 11 1011 79 10000 6.86 59 17:27 24.04.2022
4066 Clouds 10 1011 79 10000 6.86 59 16:58 24.04.2022
4067 Clouds 10 1011 80 10000 6.87 59 16:32 24.04.2022
4068 Clouds 11 1011 78 10000 6.59 60 15:54 24.04.2022
4069 Clouds 12 1010 58 10000 5.14 110 14:58 24.04.2022
4070 Clouds 12 1010 58 10000 5.66 90 13:56 24.04.2022
4071 Clouds 12 1011 67 10000 7.29 74 13:25 24.04.2022
4072 Clear 11 1010 58 10000 6.17 40 11:56 24.04.2022
4073 Clear 11 1011 66 10000 7.01 62 11:27 24.04.2022
4074 Clear 11 1011 69 10000 7.08 59 10:24 24.04.2022
4075 Clear 9 1011 66 10000 5.66 60 09:19 24.04.2022
4076 Clouds 7 1010 81 10000 4.63 60 06:34 24.04.2022
4077 Clear 7 1011 87 10000 3.6 90 03:43 24.04.2022
4078 Clear 7 1012 82 10000 3.43 67 01:38 24.04.2022
4079 Clear 7 1012 87 10000 3.34 74 00:22 24.04.2022
4080 Clear 8 1011 76 10000 4.12 70 23:44 23.04.2022
4081 Clear 8 1012 87 10000 3.48 60 23:21 23.04.2022
4082 Clear 10 1011 66 10000 3.6 60 21:51 23.04.2022
4083 Clear 10 1012 84 10000 3.52 70 21:32 23.04.2022
4084 Clear 12 1011 58 10000 4.63 60 20:36 23.04.2022
4085 Clouds 13 1011 62 10000 2.57 80 19:46 23.04.2022
4086 Clouds 14 1011 51 10000 4.63 100 19:19 23.04.2022
4087 Clouds 14 1011 51 10000 4.63 100 18:49 23.04.2022
4088 Clouds 14 1011 44 10000 5.66 100 17:50 23.04.2022
4089 Clouds 15 1012 58 10000 6.05 79 17:20 23.04.2022
4090 Clouds 15 1012 41 10000 6.17 100 16:40 23.04.2022
4091 Clear 14 1013 58 10000 4.12 100 14:57 23.04.2022
4092 Clear 13 1014 62 10000 5.14 90 12:44 23.04.2022
4093 Clear 10 1014 81 10000 4.63 100 10:43 23.04.2022
4094 Clear 10 1014 80 10000 6.42 72 09:30 23.04.2022
4095 Clear 6 1014 94 10000 4.57 74 06:29 23.04.2022
4096 Clear 7 1014 87 10000 4.12 90 03:54 23.04.2022
4097 Clear 8 1014 87 10000 5.14 100 00:57 23.04.2022
4098 Clear 9 1014 84 10000 6.14 87 23:29 22.04.2022
4099 Clear 10 1014 84 10000 6.49 86 22:20 22.04.2022
4100 Clear 10 1013 71 10000 6.69 100 21:42 22.04.2022
4101 Clear 11 1013 66 10000 6.17 100 20:47 22.04.2022
4102 Clouds 12 1014 81 10000 7.31 77 20:27 22.04.2022
4103 Clouds 14 1013 54 10000 7.2 80 19:20 22.04.2022
4104 Clouds 14 1013 54 10000 7.2 80 18:41 22.04.2022
4105 Clouds 14 1013 54 10000 4.12 90 17:41 22.04.2022
4106 Clouds 15 1013 58 10000 4.12 100 16:46 22.04.2022
4107 Clouds 14 1013 62 10000 5.66 90 15:42 22.04.2022
4108 Clouds 14 1014 62 10000 5.14 100 15:18 22.04.2022
4109 Clouds 13 1014 66 10000 5.66 100 13:50 22.04.2022
4110 Clouds 13 1014 62 10000 6.17 100 12:58 22.04.2022
4111 Clouds 12 1014 58 10000 4.63 100 11:52 22.04.2022
4112 Clear 13 1015 69 10000 7.78 76 11:22 22.04.2022
4113 Clear 12 1014 58 10000 5.14 40 10:50 22.04.2022
4114 Clear 12 1015 69 10000 7.78 76 10:30 22.04.2022
4115 Clear 11 1014 62 10000 5.66 60 09:50 22.04.2022
4116 Clear 10 1014 66 10000 4.12 60 08:50 22.04.2022
4117 Clear 8 1014 76 10000 3.6 50 07:33 22.04.2022
4118 Clear 8 1016 71 10000 3.6 90 03:47 22.04.2022
4119 Clouds 6 1017 93 10000 2.57 100 00:52 22.04.2022
4120 Clouds 9 1017 81 10000 4.66 76 23:25 21.04.2022
4121 Clouds 9 1017 84 10000 4.22 69 22:29 21.04.2022
4122 Clouds 11 1017 66 10000 3.09 110 20:43 21.04.2022
4123 Clouds 12 1017 78 10000 4.37 76 20:24 21.04.2022
4124 Clouds 14 1016 54 10000 3.6 90 18:44 21.04.2022
4125 Clouds 15 1016 47 10000 5.14 90 18:18 21.04.2022
4126 Clouds 15 1016 44 10000 5.66 100 16:47 21.04.2022
4127 Clouds 16 1017 56 10000 6.16 80 15:22 21.04.2022
4128 Clouds 15 1016 44 10000 4.63 40 14:50 21.04.2022
4129 Clouds 14 1017 47 10000 4.63 40 13:44 21.04.2022
4130 Clouds 14 1017 54 10000 2.57 60 13:18 21.04.2022
4131 Clouds 10 1017 81 10000 4.12 30 11:19 21.04.2022
4132 Clouds 8 1017 93 10000 1.03 320 08:57 21.04.2022
4133 Clouds 5 1017 93 4300 2.06 360 07:55 21.04.2022
4134 Clouds 5 1018 85 10000 1.16 87 06:21 21.04.2022
4135 Clouds 4 1018 100 9000 1.03 30 03:35 21.04.2022
4136 Clouds 5 1018 93 10000 1.03 60 02:48 21.04.2022
4137 Clouds 5 1018 93 10000 0.51 130 01:50 21.04.2022
4138 Clouds 7 1018 87 10000 1.54 120 23:53 20.04.2022
4139 Clouds 7 1019 81 10000 2.66 53 23:23 20.04.2022
4140 Clouds 8 1018 76 10000 1.54 120 22:51 20.04.2022
4141 Clouds 9 1019 81 10000 2.66 53 22:32 20.04.2022
4142 Clouds 9 1018 71 10000 2.06 100 21:33 20.04.2022
4143 Clouds 12 1018 54 10000 2.57 100 20:42 20.04.2022
4144 Clouds 13 1018 50 10000 2.06 130 19:55 20.04.2022
4145 Clouds 14 1018 69 10000 2.95 85 19:29 20.04.2022
4146 Clouds 15 1018 44 10000 3.6 100 18:33 20.04.2022
4147 Clouds 16 1018 39 10000 5.14 30 16:58 20.04.2022
4148 Clouds 16 1018 39 10000 5.14 30 16:38 20.04.2022
4149 Clouds 16 1019 39 10000 3.6 40 14:52 20.04.2022
4150 Clouds 13 1020 44 10000 2.57 30 11:57 20.04.2022
4151 Clouds 13 1020 44 10000 2.57 30 11:33 20.04.2022
4152 Clouds 14 1020 61 10000 2.74 60 10:29 20.04.2022
4153 Clouds 12 1020 64 10000 2.49 51 09:27 20.04.2022
4154 Clouds 9 1020 73 10000 2.08 53 08:25 20.04.2022
4155 Clouds 4 1020 100 10000 1.03 40 07:44 20.04.2022
4156 Clouds 3 1020 93 10000 2.57 40 04:49 20.04.2022
4157 Clear 4 1021 80 10000 2.56 83 01:20 20.04.2022
4158 Clear 4 1021 80 10000 2.56 83 01:20 20.04.2022
4159 Clear 5 1021 79 10000 2.66 87 00:20 20.04.2022
4160 Clear 6 1020 75 10000 1.54 20 22:44 19.04.2022
4161 Clear 6 1021 73 10000 2.3 96 22:22 19.04.2022
4162 Clear 8 1020 61 10000 2.06 110 21:38 19.04.2022
4163 Clear 10 1019 46 10000 2.57 110 20:57 19.04.2022
4164 Clear 10 1019 46 10000 2.57 110 20:37 19.04.2022
4165 Clear 12 1020 74 10000 2.77 83 19:32 19.04.2022
4166 Clear 13 1019 57 10000 4.57 92 18:27 19.04.2022
4167 Clear 14 1018 44 10000 4.63 110 16:50 19.04.2022
4168 Clear 16 1019 58 10000 5.16 86 16:25 19.04.2022
4169 Clear 14 1018 35 10000 5.14 100 15:57 19.04.2022
4170 Clear 15 1019 31 10000 4.63 110 14:44 19.04.2022
4171 Clouds 14 1018 44 10000 5.14 30 12:53 19.04.2022
4172 Clouds 15 1019 55 10000 4.26 75 12:31 19.04.2022
4173 Clouds 12 1019 61 10000 3.44 76 11:27 19.04.2022
4174 Clouds 10 1018 71 10000 3.09 60 09:35 19.04.2022
4175 Clouds 4 1018 93 5000 1.54 60 07:43 19.04.2022
4176 Clouds 4 1018 93 5000 1.54 60 07:43 19.04.2022
4177 Clouds 5 1018 77 10000 1.96 100 04:25 19.04.2022
4178 Clouds 5 1018 81 10000 3.09 130 01:42 19.04.2022
4179 Clouds 6 1019 75 10000 3.09 120 23:49 18.04.2022
4180 Clouds 7 1019 70 10000 2.06 110 22:53 18.04.2022
4181 Clouds 10 1019 64 10000 3.41 107 21:26 18.04.2022
4182 Clouds 12 1019 47 10000 3.6 120 20:39 18.04.2022
4183 Clouds 13 1019 44 10000 3.6 130 20:19 18.04.2022
4184 Clouds 13 1019 44 10000 3.6 130 19:33 18.04.2022
4185 Clouds 13 1019 47 10000 3.6 110 18:45 18.04.2022
4186 Clouds 14 1019 44 10000 4.12 100 17:49 18.04.2022
4187 Clouds 14 1020 41 10000 4.12 90 17:19 18.04.2022
4188 Clouds 14 1020 41 10000 4.12 90 16:39 18.04.2022
4189 Clouds 14 1020 41 10000 4.63 90 15:41 18.04.2022
4190 Clouds 15 1021 46 10000 3.8 123 14:27 18.04.2022
4191 Clouds 15 1021 45 10000 3.64 124 13:25 18.04.2022
4192 Clouds 14 1022 46 10000 3.34 130 12:27 18.04.2022
4193 Clear 12 1022 54 10000 2.06 120 10:59 18.04.2022
4194 Clear 10 1022 57 10000 2.06 130 10:18 18.04.2022
4195 Clear 11 1022 55 10000 2.89 132 09:30 18.04.2022
4196 Clear 1 1022 93 10000 2.57 130 07:34 18.04.2022
4197 Clear 2 1024 87 10000 3.09 120 03:57 18.04.2022
4198 Clear 5 1025 70 10000 3.6 150 23:41 17.04.2022
4199 Clear 5 1025 70 10000 3.09 140 22:39 17.04.2022
4200 Clear 8 1026 53 10000 3.6 140 21:39 17.04.2022
4201 Clear 10 1026 46 10000 3.6 120 21:19 17.04.2022
4202 Clear 10 1027 67 10000 3.38 119 20:32 17.04.2022
4203 Clear 13 1027 68 10000 3.8 102 19:21 17.04.2022
4204 Clear 14 1027 41 10000 4.12 120 17:38 17.04.2022
4205 Clear 15 1029 41 10000 3.09 100 15:38 17.04.2022
4206 Clear 14 1029 38 10000 2.57 80 14:53 17.04.2022
4207 Clouds 13 1030 38 10000 3.09 30 13:44 17.04.2022
4208 Clouds 13 1030 40 10000 2.06 330 12:56 17.04.2022
4209 Clouds 13 1031 57 10000 2.18 166 11:24 17.04.2022
4210 Clouds 11 1031 43 10000 2.06 250 10:38 17.04.2022
4211 Clouds 9 1032 57 10000 1.03 0 10:19 17.04.2022
4212 Clouds 7 1032 65 10000 1.81 150 09:23 17.04.2022
4213 Clouds 4 1032 81 10000 1.03 0 08:41 17.04.2022
4214 Clouds 0 1032 93 10000 1.54 210 06:53 17.04.2022
4215 Clouds 4 1034 66 10000 2.6 162 03:20 17.04.2022
4216 Clouds 3 1034 87 10000 3.09 140 00:55 17.04.2022
4217 Clouds 4 1034 81 10000 2.57 130 23:50 16.04.2022
4218 Clouds 5 1035 61 10000 1.93 146 22:27 16.04.2022
4219 Clouds 7 1036 65 10000 2.15 130 21:29 16.04.2022
4220 Clear 11 1035 46 10000 2.57 110 19:57 16.04.2022
4221 Clear 11 1035 43 10000 2.57 120 18:54 16.04.2022
4222 Clear 12 1035 40 10000 3.6 80 17:40 16.04.2022
4223 Clear 12 1036 40 10000 3.09 100 16:33 16.04.2022
4224 Clear 12 1036 37 10000 3.6 90 15:40 16.04.2022
4225 Clear 12 1036 43 10000 3.6 130 14:51 16.04.2022
4226 Clouds 11 1037 43 10000 2.57 120 13:57 16.04.2022
4227 Clouds 12 1037 50 10000 3.4 108 13:28 16.04.2022
4228 Clouds 11 1037 51 10000 3.2 115 12:20 16.04.2022
4229 Clouds 8 1037 76 10000 3.6 20 10:49 16.04.2022
4230 Clouds 8 1037 81 10000 2.57 30 09:44 16.04.2022
4231 Clouds 6 1036 93 10000 1.03 0 08:57 16.04.2022
4232 Clouds 2 1036 100 7000 2.57 110 07:35 16.04.2022
4233 Clouds 3 1035 93 7000 3.09 130 06:58 16.04.2022
4234 Clouds 6 1034 87 10000 2.06 110 02:34 16.04.2022
4235 Clouds 6 1034 83 10000 2.41 117 00:30 16.04.2022
4236 Clouds 6 1033 93 10000 3.09 130 22:58 15.04.2022
4237 Clouds 7 1034 84 10000 3.24 116 22:32 15.04.2022
4238 Clouds 6 1032 100 10000 3.09 130 21:50 15.04.2022
4239 Clouds 7 1031 93 2400 3.6 130 21:18 15.04.2022
4240 Clouds 8 1031 89 10000 3.7 117 20:21 15.04.2022
4241 Clouds 7 1030 100 9000 2.06 100 19:39 15.04.2022
4242 Clouds 8 1030 87 9000 1.54 100 18:54 15.04.2022
4243 Clouds 9 1030 88 10000 3.81 85 18:25 15.04.2022
4244 Clouds 9 1029 81 10000 3.09 80 17:34 15.04.2022
4245 Clouds 9 1029 81 10000 3.09 30 16:48 15.04.2022
4246 Clouds 8 1028 87 10000 4.12 30 16:18 15.04.2022
4247 Clouds 8 1028 87 10000 5.66 30 14:51 15.04.2022
4248 Clouds 8 1028 87 10000 6.69 30 13:41 15.04.2022
4249 Clouds 8 1027 81 10000 7.72 30 12:42 15.04.2022
4250 Clouds 8 1027 81 10000 8.23 30 11:57 15.04.2022
4251 Clouds 8 1027 81 10000 8.23 30 11:34 15.04.2022
4252 Clouds 8 1026 81 10000 7.72 30 10:43 15.04.2022
4253 Clouds 7 1025 87 10000 6.17 20 09:46 15.04.2022
4254 Clouds 7 1025 87 10000 4.63 4 09:21 15.04.2022
4255 Clouds 7 1023 87 10000 4.63 350 07:44 15.04.2022
4256 Clouds 7 1023 87 10000 4.12 320 06:37 15.04.2022
4257 Clouds 7 1021 89 10000 3.72 326 03:21 15.04.2022
4258 Clouds 8 1021 90 10000 3.86 300 23:32 14.04.2022
4259 Clouds 8 1020 87 10000 6.17 300 22:49 14.04.2022
4260 Clouds 8 1020 90 10000 4.45 296 22:31 14.04.2022
4261 Clouds 8 1019 87 10000 7.72 300 21:59 14.04.2022
4262 Clouds 8 1020 89 10000 4.75 289 21:30 14.04.2022
4263 Clouds 9 1018 83 10000 5.82 282 19:24 14.04.2022
4264 Clouds 8 1018 83 10000 5.82 282 18:30 14.04.2022
4265 Clouds 9 1018 81 10000 10.8 280 17:44 14.04.2022
4266 Clouds 9 1018 81 10000 9.26 270 16:46 14.04.2022
4267 Clouds 10 1017 70 10000 6.94 264 15:29 14.04.2022
4268 Clouds 11 1017 76 10000 9.26 300 13:49 14.04.2022
4269 Clouds 12 1017 76 10000 9.26 270 13:18 14.04.2022
4270 Clouds 13 1017 74 10000 7.13 263 12:31 14.04.2022
4271 Clouds 13 1017 72 10000 6.45 257 11:36 14.04.2022
4272 Clouds 13 1017 71 10000 7.2 260 10:56 14.04.2022
4273 Clouds 12 1017 78 10000 5.07 253 10:27 14.04.2022
4274 Clouds 10 1017 85 10000 4.06 251 09:26 14.04.2022
4275 Clouds 9 1017 93 4000 6.17 260 07:52 14.04.2022
4276 Clouds 9 1017 96 10000 3.04 224 05:23 14.04.2022
4277 Clouds 11 1017 87 10000 4.63 240 23:50 13.04.2022
4278 Clouds 11 1018 88 10000 3.17 256 22:29 13.04.2022
4279 Clouds 11 1017 87 10000 4.63 250 21:42 13.04.2022
4280 Clouds 12 1017 82 10000 2.57 240 20:35 13.04.2022
4281 Clouds 12 1016 82 10000 4.63 260 19:46 13.04.2022
4282 Clouds 13 1016 76 10000 6.69 260 18:36 13.04.2022
4283 Clouds 17 1016 67 10000 5.23 250 17:25 13.04.2022
4284 Clouds 16 1015 67 10000 7.72 280 16:52 13.04.2022
4285 Clouds 17 1015 63 10000 6.69 230 15:45 13.04.2022
4286 Clouds 17 1015 67 10000 5.59 246 15:23 13.04.2022
4287 Clouds 16 1014 63 10000 6.69 220 14:34 13.04.2022
4288 Clouds 16 1014 63 10000 4.63 230 13:38 13.04.2022
4289 Clouds 15 1014 55 10000 1.54 230 12:51 13.04.2022
4290 Clouds 15 1014 63 10000 4.19 229 11:32 13.04.2022
4291 Clouds 13 1014 73 10000 4.31 181 10:31 13.04.2022
4292 Clouds 7 1013 81 10000 1.54 110 08:45 13.04.2022
4293 Clouds 6 1013 87 10000 2.06 120 07:57 13.04.2022
4294 Clouds 6 1012 81 10000 3.09 100 06:48 13.04.2022
4295 Clouds 7 1013 77 10000 4.44 132 06:24 13.04.2022
4296 Clouds 7 1014 76 10000 5.14 110 01:51 13.04.2022
4297 Clouds 7 1015 81 10000 6.17 110 00:19 13.04.2022
4298 Clouds 8 1015 71 10000 6.17 110 22:33 12.04.2022
4299 Clouds 8 1015 71 10000 6.69 120 21:54 12.04.2022
4300 Clouds 9 1015 66 10000 6.69 120 20:48 12.04.2022
4301 Clouds 9 1015 76 10000 6.91 104 20:20 12.04.2022
4302 Clouds 9 1014 66 10000 7.72 120 19:40 12.04.2022
4303 Clouds 10 1015 62 10000 9.77 120 18:56 12.04.2022
4304 Clouds 10 1015 62 10000 9.26 120 17:39 12.04.2022
4305 Clouds 10 1015 62 10000 7.2 120 16:47 12.04.2022
4306 Clouds 11 1016 58 10000 7.72 110 15:35 12.04.2022
4307 Clouds 9 1016 66 10000 6.17 120 14:53 12.04.2022
4308 Clouds 10 1016 66 10000 5.66 110 13:53 12.04.2022
4309 Clouds 10 1018 66 10000 7.11 114 13:27 12.04.2022
4310 Clouds 9 1018 69 10000 6.56 114 12:21 12.04.2022
4311 Clouds 8 1018 66 10000 4.63 120 11:39 12.04.2022
4312 Clouds 6 1018 75 10000 4.12 120 09:52 12.04.2022
4313 Clouds 5 1018 81 10000 5.66 120 08:51 12.04.2022
4314 Clouds 2 1018 81 10000 3.53 115 07:20 12.04.2022
4315 Clouds 0 1017 93 10000 3.09 100 05:42 12.04.2022
4316 Clouds 0 1018 100 10000 3.09 120 02:49 12.04.2022
4317 Clouds 2 1019 73 10000 1.81 22 23:25 11.04.2022
4318 Clouds 3 1018 81 10000 1.54 340 22:43 11.04.2022
4319 Clouds 4 1018 81 10000 1.54 20 21:35 11.04.2022
4320 Clouds 7 1018 61 10000 2.06 340 20:37 11.04.2022
4321 Clouds 8 1017 57 10000 2.57 330 20:19 11.04.2022
4322 Clouds 8 1018 61 10000 2.98 306 19:27 11.04.2022
4323 Clouds 9 1017 49 10000 3.09 330 18:56 11.04.2022
4324 Clouds 9 1017 49 10000 3.09 330 18:33 11.04.2022
4325 Clouds 10 1017 50 10000 2.57 280 17:43 11.04.2022
4326 Clouds 9 1018 49 10000 4.02 292 16:36 11.04.2022
4327 Clouds 9 1018 51 10000 3.09 250 15:21 11.04.2022
4328 Clouds 7 1018 49 10000 2.57 270 13:44 11.04.2022
4329 Clouds 8 1018 61 10000 5.14 270 12:41 11.04.2022
4330 Clouds 8 1018 54 10000 5.06 290 12:22 11.04.2022
4331 Clouds 6 1018 65 10000 5.66 310 10:47 11.04.2022
4332 Clouds 5 1018 75 10000 5.14 300 09:58 11.04.2022
4333 Clouds 3 1018 84 10000 2.78 265 08:23 11.04.2022
4334 Clouds 2 1017 87 10000 3.6 260 04:57 11.04.2022
4335 Clouds 3 1017 88 10000 3.61 291 00:30 11.04.2022
4336 Clouds 4 1017 81 10000 5.19 285 22:27 10.04.2022
4337 Clouds 4 1017 81 10000 5.19 285 22:27 10.04.2022
4338 Clouds 3 1016 93 10000 6.69 290 21:53 10.04.2022
4339 Rain 4 1017 86 10000 5.47 287 21:23 10.04.2022
4340 Clouds 5 1016 83 10000 5.82 289 20:21 10.04.2022
4341 Clouds 5 1015 87 10000 8.75 290 19:37 10.04.2022
4342 Clouds 5 1015 87 10000 11.83 310 18:50 10.04.2022
4343 Clouds 6 1015 81 10000 6.89 295 18:27 10.04.2022
4344 Clouds 4 1015 87 2300 12.35 320 17:46 10.04.2022
4345 Clouds 7 1014 65 10000 12.35 300 16:59 10.04.2022
4346 Clouds 7 1014 61 10000 13.38 310 15:41 10.04.2022
4347 Clouds 7 1013 65 10000 14.4 300 14:42 10.04.2022
4348 Clouds 7 1013 65 10000 14.4 300 14:42 10.04.2022
4349 Clouds 6 1013 70 3800 13.38 310 13:44 10.04.2022
4350 Clouds 6 1014 53 10000 9.91 302 12:32 10.04.2022
4351 Rain 6 1012 65 10000 13.38 310 11:44 10.04.2022
4352 Clouds 7 1013 59 10000 9.34 298 11:20 10.04.2022
4353 Clouds 5 1011 75 10000 11.83 300 10:34 10.04.2022
4354 Clouds 5 1011 75 10000 9.77 290 09:46 10.04.2022
4355 Clouds 3 1011 87 10000 8.75 280 08:40 10.04.2022
4356 Clouds 3 1010 87 10000 10.29 280 08:18 10.04.2022
4357 Clouds 3 1009 87 10000 9.77 290 06:59 10.04.2022
4358 Clouds 4 1008 87 10000 10.8 290 03:40 10.04.2022
4359 Clouds 4 1007 87 10000 9.77 290 02:19 10.04.2022
4360 Clouds 4 1006 87 10000 9.77 290 23:54 09.04.2022
4361 Clouds 4 1006 87 10000 12.35 290 22:56 09.04.2022
4362 Clouds 4 1006 87 10000 12.35 290 22:38 09.04.2022
4363 Clouds 4 1006 82 10000 8.19 287 21:28 09.04.2022
4364 Clouds 4 1006 82 10000 8.19 287 20:31 09.04.2022
4365 Rain 4 1004 87 6000 16.46 310 19:57 09.04.2022
4366 Clouds 4 1004 87 6000 16.46 310 19:39 09.04.2022
4367 Clear 6 1003 71 10000 10.28 280 18:24 09.04.2022
4368 Clear 6 1003 65 10000 15.43 290 17:50 09.04.2022
4369 Clouds 7 1002 61 10000 15.95 290 16:59 09.04.2022
4370 Clouds 7 1002 61 10000 15.95 290 16:40 09.04.2022
4371 Clouds 6 1002 61 10000 17.49 300 15:51 09.04.2022
4372 Rain 8 1003 57 10000 10.89 292 15:26 09.04.2022
4373 Rain 8 1002 58 10000 10.89 294 14:26 09.04.2022
4374 Clouds 7 1001 65 10000 13.89 300 13:33 09.04.2022
4375 Rain 7 1000 65 10000 12.86 320 12:56 09.04.2022
4376 Clouds 5 999 81 10000 9.77 290 11:51 09.04.2022
4377 Rain 7 998 70 10000 11.32 290 10:52 09.04.2022
4378 Clouds 6 998 75 10000 10.8 290 10:18 09.04.2022
4379 Clouds 6 998 79 10000 7.42 280 09:23 09.04.2022
4380 Clouds 4 997 87 10000 9.26 280 08:35 09.04.2022
4381 Clear 2 995 83 10000 8.08 279 05:21 09.04.2022
4382 Clear 3 993 87 10000 8.23 280 00:35 09.04.2022
4383 Clear 2 993 80 10000 6.37 288 23:24 08.04.2022
4384 Clear 4 992 81 10000 7.72 290 21:54 08.04.2022
4385 Clear 5 991 87 10000 8.23 280 20:45 08.04.2022
4386 Clouds 4 991 81 10000 9.77 260 19:57 08.04.2022
4387 Clouds 5 991 81 10000 8.75 270 18:59 08.04.2022
4388 Clouds 7 991 70 10000 6.71 279 18:25 08.04.2022
4389 Rain 6 990 70 10000 12.86 290 17:38 08.04.2022
4390 Clouds 7 990 70 10000 12.86 270 17:19 08.04.2022
4391 Clouds 7 990 70 10000 12.86 270 16:35 08.04.2022
4392 Clouds 6 990 75 10000 13.38 280 15:39 08.04.2022
4393 Clouds 6 990 75 10000 14.4 280 14:52 08.04.2022
4394 Rain 6 990 72 5448 10.61 272 14:21 08.04.2022
4395 Clouds 5 990 87 10000 14.4 270 13:41 08.04.2022
4396 Rain 5 991 61 10000 10.78 266 13:22 08.04.2022
4397 Rain 4 989 93 10000 13.89 270 11:51 08.04.2022
4398 Clear 5 991 66 10000 10.5 264 10:31 08.04.2022
4399 Rain 4 990 73 10000 9.23 269 09:25 08.04.2022
4400 Clouds 4 989 73 10000 8.6 275 08:25 08.04.2022
4401 Clouds 4 987 70 10000 11.32 280 06:47 08.04.2022
4402 Clouds 3 987 71 10000 9.14 285 04:32 08.04.2022
4403 Clouds 4 980 87 10000 11.32 320 00:42 08.04.2022
4404 Clouds 5 977 81 10000 13.38 310 00:18 08.04.2022
4405 Clouds 6 975 87 10000 10.29 280 22:58 07.04.2022
4406 Clouds 6 975 87 10000 10.29 280 22:37 07.04.2022
4407 Clouds 5 975 93 10000 9.77 270 22:19 07.04.2022
4408 Clouds 5 975 93 10000 9.77 270 21:49 07.04.2022
4409 Clouds 5 974 93 10000 12.35 270 20:58 07.04.2022
4410 Rain 6 974 92 10000 7.54 266 20:30 07.04.2022
4411 Clouds 6 971 89 9498 10 233 18:29 07.04.2022
4412 Clouds 7 972 85 10000 9.33 230 17:25 07.04.2022
4413 Rain 6 973 87 10000 10.8 240 16:44 07.04.2022
4414 Clouds 8 973 81 10000 9.13 237 16:20 07.04.2022
4415 Rain 7 974 87 10000 5.66 270 14:36 07.04.2022
4416 Clouds 7 974 81 5000 11.32 240 13:42 07.04.2022
4417 Clouds 7 975 87 10000 6.69 230 12:41 07.04.2022
4418 Clouds 5 976 90 10000 7.32 219 11:29 07.04.2022
4419 Rain 7 977 93 7819 8.43 241 09:37 07.04.2022
4420 Rain 6 977 93 7819 8.43 241 09:37 07.04.2022
4421 Rain 8 977 93 7000 9.77 210 08:38 07.04.2022
4422 Rain 8 980 91 10000 9.15 212 06:42 07.04.2022
4423 Clouds 8 985 87 10000 8.23 250 02:51 07.04.2022
4424 Clouds 7 986 95 10000 7.14 236 02:20 07.04.2022
4425 Clouds 7 986 93 10000 7.89 236 00:26 07.04.2022
4426 Rain 8 986 93 10000 6.69 210 22:49 06.04.2022
4427 Rain 8 987 94 6062 7 219 22:27 06.04.2022
4428 Rain 8 988 93 7000 7.72 230 21:44 06.04.2022
4429 Rain 8 989 87 10000 7.2 240 20:36 06.04.2022
4430 Rain 8 989 93 10000 11.32 260 19:53 06.04.2022
4431 Clouds 9 990 87 10000 12.35 260 18:51 06.04.2022
4432 Clouds 8 989 89 10000 8.54 243 18:25 06.04.2022
4433 Clouds 8 989 89 10000 8.55 243 17:35 06.04.2022
4434 Clouds 9 990 87 10000 10.8 250 16:38 06.04.2022
4435 Clouds 8 991 93 3100 10.8 250 15:48 06.04.2022
4436 Clouds 8 991 94 10000 9.41 235 15:21 06.04.2022
4437 Clouds 8 992 94 10000 9.41 238 13:25 06.04.2022
4438 Clouds 8 992 94 10000 9.74 239 12:27 06.04.2022
4439 Clouds 8 992 93 10000 12.86 250 10:52 06.04.2022
4440 Clouds 8 992 93 10000 9.75 239 10:30 06.04.2022
4441 Clouds 8 992 93 10000 14.92 250 09:41 06.04.2022
4442 Rain 7 992 100 3100 10.29 240 08:34 06.04.2022
4443 Rain 7 992 100 4600 9.77 240 07:53 06.04.2022
4444 Clouds 3 996 98 268 3.14 154 04:31 06.04.2022
4445 Clouds 4 999 87 10000 2.06 310 23:56 05.04.2022
4446 Rain 4 1000 83 10000 2.55 237 23:22 05.04.2022
4447 Rain 5 1000 84 10000 2.93 261 21:29 05.04.2022
4448 Rain 5 999 75 10000 3.09 300 20:44 05.04.2022
4449 Clouds 5 999 75 10000 6.69 310 20:19 05.04.2022
4450 Clouds 6 1000 67 10000 6.03 277 18:24 05.04.2022
4451 Clouds 7 999 61 10000 11.32 300 16:55 05.04.2022
4452 Clouds 7 999 61 10000 11.32 300 16:35 05.04.2022
4453 Clouds 7 999 61 10000 10.8 290 15:49 05.04.2022
4454 Clouds 7 1000 57 10000 7.01 282 15:29 05.04.2022
4455 Clouds 6 1000 65 10000 9.77 290 13:42 05.04.2022
4456 Clouds 6 1000 70 10000 7.2 300 11:51 05.04.2022
4457 Clouds 7 1000 57 10000 7.38 292 11:33 05.04.2022
4458 Clouds 6 999 70 10000 9.77 300 10:57 05.04.2022
4459 Clouds 4 1000 68 10000 6.65 292 09:31 05.04.2022
4460 Clouds 3 999 80 10000 5.5 296 08:22 05.04.2022
4461 Clouds 4 996 81 10000 11.83 300 02:58 05.04.2022
4462 Clouds 5 994 75 10000 12.35 300 23:38 04.04.2022
4463 Clear 5 994 75 10000 11.83 300 22:37 04.04.2022
4464 Clear 5 993 75 10000 13.38 300 21:46 04.04.2022
4465 Clear 6 992 75 10000 14.92 300 21:18 04.04.2022
4466 Clear 6 992 75 10000 14.92 300 20:47 04.04.2022
4467 Clouds 6 992 83 10000 10.1 296 19:28 04.04.2022
4468 Clouds 7 990 81 10000 15.43 300 18:43 04.04.2022
4469 Clouds 7 990 89 10000 11.19 283 17:20 04.04.2022
4470 Clouds 8 990 89 10000 11.19 283 16:31 04.04.2022
4471 Clouds 8 989 93 10000 17.49 280 15:33 04.04.2022
4472 Clouds 8 990 93 9000 15.43 270 14:46 04.04.2022
4473 Clouds 8 990 95 9770 11.03 258 14:28 04.04.2022
4474 Rain 6 992 93 5000 13.38 240 12:59 04.04.2022
4475 Rain 5 995 96 176 13.57 229 11:29 04.04.2022
4476 Rain 4 996 96 104 13.86 230 10:29 04.04.2022
4477 Clouds 5 1002 87 10000 10.29 230 06:58 04.04.2022
4478 Clouds 5 1009 81 10000 10.29 250 03:18 04.04.2022
4479 Clouds 5 1011 87 10000 10.8 270 23:47 03.04.2022
4480 Clouds 5 1013 90 10000 6.13 271 22:24 03.04.2022
4481 Clouds 5 1013 90 10000 6.13 271 21:32 03.04.2022
4482 Clouds 5 1013 87 10000 9.77 270 20:36 03.04.2022
4483 Clouds 5 1014 82 10000 7.41 275 19:29 03.04.2022
4484 Clouds 5 1014 77 10000 7.54 282 18:29 03.04.2022
4485 Clouds 6 1014 81 10000 9.77 290 17:44 03.04.2022
4486 Rain 7 1014 65 10000 13.38 300 16:50 03.04.2022
4487 Clouds 7 1015 72 10000 8.07 287 16:21 03.04.2022
4488 Clouds 7 1016 68 7848 8.52 294 14:32 03.04.2022
4489 Clouds 6 1016 70 4800 12.35 300 13:45 03.04.2022
4490 Clouds 7 1017 62 10000 7.41 304 12:21 03.04.2022
4491 Clouds 6 1017 70 10000 8.23 320 10:54 03.04.2022
4492 Clouds 4 1017 74 10000 5.32 311 09:23 03.04.2022
4493 Clouds 1 1017 93 10000 5.14 270 07:37 03.04.2022
4494 Clouds -2 1019 93 10000 3.6 260 04:19 03.04.2022
4495 Clouds -2 1020 86 10000 5.14 320 00:41 03.04.2022
4496 Clouds 0 1020 69 10000 2.06 270 22:57 02.04.2022
4497 Clouds 0 1020 64 10000 1.54 300 21:57 02.04.2022
4498 Clouds 0 1020 64 10000 1.54 300 21:36 02.04.2022
4499 Clouds 2 1019 51 10000 2.06 350 20:52 02.04.2022
4500 Clouds 4 1020 58 10000 0.81 325 19:32 02.04.2022
4501 Clouds 4 1020 58 10000 0.81 325 19:32 02.04.2022
4502 Clouds 5 1019 42 10000 3.2 34 18:21 02.04.2022
4503 Clouds 5 1019 52 10000 4.12 30 17:52 02.04.2022
4504 Clouds 5 1019 42 10000 4.16 42 16:25 02.04.2022
4505 Clouds 5 1019 42 10000 4.15 47 15:21 02.04.2022
4506 Clouds 6 1019 42 10000 5.14 30 14:49 02.04.2022
4507 Clouds 5 1019 42 10000 5.14 30 14:49 02.04.2022
4508 Clouds 4 1019 52 10000 4.63 20 13:35 02.04.2022
4509 Clouds 5 1019 56 10000 4.12 30 12:38 02.04.2022
4510 Clouds 5 1020 49 10000 4.17 60 11:23 02.04.2022
4511 Clouds 2 1019 56 10000 3.84 54 09:30 02.04.2022
4512 Clouds -1 1017 80 10000 5.66 20 06:51 02.04.2022
4513 Clouds 0 1016 80 10000 5.66 20 03:52 02.04.2022
4514 Clouds 1 1016 69 10000 4.63 40 23:58 01.04.2022
4515 Clouds -1 1018 64 10000 3.96 29 23:30 01.04.2022
4516 Clouds 3 1016 52 10000 5.14 40 21:42 01.04.2022
4517 Clouds 3 1015 48 10000 7.2 40 20:51 01.04.2022
4518 Clouds 3 1016 51 10000 5.44 45 20:28 01.04.2022
4519 Clouds 4 1016 51 10000 4.96 46 19:34 01.04.2022
4520 Clouds 5 1014 42 10000 7.72 30 18:50 01.04.2022
4521 Clouds 5 1014 42 10000 7.72 30 17:54 01.04.2022
4522 Clouds 5 1014 42 10000 7.72 30 17:34 01.04.2022
4523 Clouds 6 1014 36 10000 7.2 40 15:42 01.04.2022
4524 Clouds 5 1015 43 10000 6.89 53 14:26 01.04.2022
4525 Clouds 5 1014 42 10000 6.17 60 13:34 01.04.2022
4526 Clouds 4 1015 45 10000 6.77 58 12:33 01.04.2022
4527 Clouds 4 1014 52 10000 4.12 60 11:44 01.04.2022
4528 Clouds 2 1013 60 10000 4.63 60 10:19 01.04.2022
4529 Clouds 2 1012 64 10000 5.66 60 09:19 01.04.2022
4530 Clouds 1 1011 64 10000 5.14 60 06:55 01.04.2022
4531 Clouds 1 1011 60 10000 4.12 60 04:53 01.04.2022
4532 Clouds 1 1011 60 10000 4.12 60 04:34 01.04.2022
4533 Clouds 1 1011 69 10000 5.14 60 01:58 01.04.2022
4534 Clouds 2 1010 60 10000 5.14 50 00:44 01.04.2022
4535 Clouds 2 1010 51 10000 5.14 60 21:54 31.03.2022
4536 Clouds 2 1011 58 10000 6.54 58 21:33 31.03.2022
4537 Clouds 2 1011 58 10000 6.31 63 20:30 31.03.2022
4538 Clouds 4 1009 35 10000 5.66 90 19:50 31.03.2022
4539 Clouds 4 1008 41 10000 7.2 90 18:52 31.03.2022
4540 Clouds 4 1008 41 10000 6.69 90 17:54 31.03.2022
4541 Clouds 4 1009 56 10000 8.07 73 16:40 31.03.2022
4542 Clouds 5 1008 45 10000 7.72 80 15:48 31.03.2022
4543 Clouds 4 1009 58 10000 8.15 77 15:20 31.03.2022
4544 Clouds 4 1008 48 10000 7.2 90 14:44 31.03.2022
4545 Clouds 3 1009 62 10000 8.42 85 12:48 31.03.2022
4546 Clouds 2 1009 64 10000 8.33 85 11:29 31.03.2022
4547 Clouds 2 1008 69 10000 3.09 70 10:19 31.03.2022
4548 Clouds 2 1007 69 10000 4.12 60 08:52 31.03.2022
4549 Snow 1 1007 68 10000 7.73 85 07:24 31.03.2022
4550 Snow 0 1006 100 2200 3.09 90 00:46 31.03.2022
4551 Snow 1 1007 96 69 6.56 95 23:23 30.03.2022
4552 Rain 2 1006 93 9000 5.14 50 21:50 30.03.2022
4553 Clouds 2 1006 80 10000 6.48 89 21:27 30.03.2022
4554 Clouds 2 1006 76 10000 5.81 85 20:22 30.03.2022
4555 Clouds 2 1006 87 10000 2.57 60 19:38 30.03.2022
4556 Rain 3 1005 87 10000 3.09 80 18:40 30.03.2022
4557 Rain 3 1005 87 10000 4.63 80 17:49 30.03.2022
4558 Rain 3 1006 87 10000 6.17 30 16:58 30.03.2022
4559 Rain 3 1006 87 10000 6.17 30 16:38 30.03.2022
4560 Clouds 4 1006 75 10000 7.72 40 15:38 30.03.2022
4561 Clouds 5 1006 56 10000 3.09 60 14:18 30.03.2022
4562 Clouds 6 1006 56 10000 3.09 70 13:19 30.03.2022
4563 Clouds 5 1006 65 10000 4.63 30 11:55 30.03.2022
4564 Clouds 4 1006 81 10000 2.06 40 10:38 30.03.2022
4565 Clouds 3 1007 74 10000 1.38 360 09:28 30.03.2022
4566 Clouds -1 1006 93 10000 1.03 350 07:59 30.03.2022
4567 Clouds -1 1006 100 10000 1.03 320 05:41 30.03.2022
4568 Clouds 2 1007 89 10000 2.26 334 05:23 30.03.2022
4569 Clouds 3 1008 81 10000 5.14 330 00:43 30.03.2022
4570 Clouds 4 1008 75 10000 5.14 310 22:38 29.03.2022
4571 Clouds 5 1008 70 10000 6.69 300 21:47 29.03.2022
4572 Clouds 5 1008 70 10000 6.69 300 20:55 29.03.2022
4573 Clouds 5 1009 74 10000 4.57 296 20:25 29.03.2022
4574 Clouds 6 1009 67 10000 5.23 299 19:27 29.03.2022
4575 Clouds 7 1008 53 10000 9.26 310 18:53 29.03.2022
4576 Clouds 8 1008 49 10000 10.29 310 17:40 29.03.2022
4577 Clouds 8 1009 53 10000 9.77 310 16:59 29.03.2022
4578 Clouds 8 1010 53 10000 7.16 306 16:25 29.03.2022
4579 Clouds 8 1010 53 10000 8.75 300 14:58 29.03.2022
4580 Clouds 8 1010 53 10000 8.75 300 14:39 29.03.2022
4581 Clouds 8 1010 53 10000 7.31 304 13:30 29.03.2022
4582 Clouds 7 1011 61 10000 8.23 320 11:58 29.03.2022
4583 Clouds 6 1011 70 10000 10.29 320 10:59 29.03.2022
4584 Clouds 5 1012 81 10000 6.69 300 09:50 29.03.2022
4585 Clouds 3 1012 73 10000 5.38 303 08:32 29.03.2022
4586 Clouds 3 1012 87 10000 6.69 300 05:44 29.03.2022
4587 Clouds 4 1015 84 10000 4.83 302 01:32 29.03.2022
4588 Clouds 6 1016 91 10000 5.17 297 23:26 28.03.2022
4589 Clouds 6 1015 87 10000 7.72 280 22:55 28.03.2022
4590 Clouds 6 1016 91 10000 5.17 297 22:30 28.03.2022
4591 Clouds 6 1016 87 10000 8.75 290 21:38 28.03.2022
4592 Clouds 6 1017 95 10000 5.02 290 20:32 28.03.2022
4593 Clouds 6 1016 87 10000 9.26 290 19:47 28.03.2022
4594 Clouds 6 1017 81 10000 5.76 284 19:29 28.03.2022
4595 Clouds 7 1017 81 10000 9.77 300 18:40 28.03.2022
4596 Clouds 7 1017 81 10000 9.77 290 17:40 28.03.2022
4597 Clouds 9 1017 71 10000 9.77 290 16:47 28.03.2022
4598 Clouds 8 1019 76 10000 10.29 280 14:53 28.03.2022
4599 Clouds 8 1020 70 10000 7.42 284 14:23 28.03.2022
4600 Clouds 7 1021 87 10000 9.26 300 12:51 28.03.2022
4601 Clouds 7 1021 87 10000 9.26 300 11:42 28.03.2022
4602 Clouds 7 1022 81 10000 6.69 290 09:55 28.03.2022
4603 Clouds 7 1023 86 10000 5.91 294 09:20 28.03.2022
4604 Clouds 6 1024 96 5894 4.77 286 08:23 28.03.2022
4605 Clear 6 1023 87 10000 5.66 270 07:56 28.03.2022
4606 Clouds 5 1024 97 10000 3.82 271 06:30 28.03.2022
4607 Clouds 6 1027 93 10000 8.75 300 00:19 28.03.2022
4608 Clouds 6 1028 93 10000 6.69 290 22:34 27.03.2022
4609 Clouds 6 1028 93 10000 6.69 290 21:42 27.03.2022
4610 Clouds 7 1028 87 10000 7.2 300 20:58 27.03.2022
4611 Clouds 7 1028 83 10000 5.33 299 20:21 27.03.2022
4612 Clouds 7 1028 87 10000 9.26 300 19:36 27.03.2022
4613 Clouds 8 1028 81 10000 8.75 280 18:42 27.03.2022
4614 Clouds 8 1028 68 10000 6.23 302 18:23 27.03.2022
4615 Clouds 10 1028 71 10000 9.77 300 17:35 27.03.2022
4616 Clear 11 1029 76 10000 9.26 270 15:47 27.03.2022
4617 Clouds 12 1030 58 10000 6.69 300 13:57 27.03.2022
4618 Clouds 12 1030 62 10000 5.66 280 12:58 27.03.2022
4619 Clouds 10 1031 62 10000 4.07 302 11:30 27.03.2022
4620 Clouds 4 1031 93 10000 3.6 260 09:37 27.03.2022
4621 Clouds 1 1031 100 5000 1.54 260 06:58 27.03.2022
4622 Clear 2 1031 100 1700 1.54 270 03:39 27.03.2022
4623 Clouds 5 1032 86 10000 0.44 348 00:25 27.03.2022
4624 Clear 6 1031 87 10000 2.57 290 22:49 26.03.2022
4625 Clear 6 1031 87 10000 3.09 290 21:54 26.03.2022
4626 Clear 6 1031 82 10000 2.51 321 21:29 26.03.2022
4627 Clear 8 1031 80 10000 2.97 307 19:32 26.03.2022
4628 Clear 9 1029 76 10000 5.14 290 18:40 26.03.2022
4629 Clear 11 1029 66 10000 4.12 280 17:34 26.03.2022
4630 Clear 12 1029 62 10000 6.17 290 16:34 26.03.2022
4631 Clear 12 1029 66 10000 6.69 290 15:39 26.03.2022
4632 Clouds 11 1029 71 10000 6.17 290 13:56 26.03.2022
4633 Clouds 13 1029 61 10000 5.82 309 13:20 26.03.2022
4634 Clouds 10 1029 81 10000 9.26 310 11:48 26.03.2022
4635 Clouds 9 1029 87 10000 8.75 320 10:48 26.03.2022
4636 Clouds 8 1028 93 10000 9.77 310 08:48 26.03.2022
4637 Clouds 8 1028 93 7000 8.75 300 06:38 26.03.2022
4638 Clear 6 1028 87 10000 6.78 287 05:30 26.03.2022
4639 Clear 6 1028 87 7000 6.17 270 01:47 26.03.2022
4640 Clouds 6 1030 78 10000 3.5 284 22:21 25.03.2022
4641 Clear 8 1029 81 9000 6.69 290 20:57 25.03.2022
4642 Clear 8 1030 75 10000 3.48 288 20:26 25.03.2022
4643 Clear 10 1029 71 10000 7.72 300 19:19 25.03.2022
4644 Clear 10 1029 71 10000 7.72 300 18:34 25.03.2022
4645 Clear 14 1029 59 10000 4.93 292 17:29 25.03.2022
4646 Clear 15 1029 53 10000 5.31 297 16:27 25.03.2022
4647 Clear 16 1029 53 10000 5.31 297 15:33 25.03.2022
4648 Clear 17 1030 47 10000 4.85 298 13:28 25.03.2022
4649 Clear 14 1030 51 10000 3.89 302 11:21 25.03.2022
4650 Clear 9 1030 57 10000 2.76 296 09:31 25.03.2022
4651 Clear 7 1030 65 10000 3.09 260 08:49 25.03.2022
4652 Clear 5 1029 81 7000 3.09 270 07:35 25.03.2022
4653 Clouds 4 1029 75 10000 3.09 280 06:59 25.03.2022
4654 Clear 4 1029 87 10000 2.06 290 02:37 25.03.2022
4655 Clear 7 1029 70 9000 1.54 300 22:56 24.03.2022
4656 Clear 7 1029 71 8000 1.03 0 22:19 24.03.2022
4657 Clear 8 1029 76 10000 2.57 300 20:52 24.03.2022
4658 Clear 8 1028 76 8000 1.54 0 19:49 24.03.2022
4659 Clear 12 1028 58 10000 2.06 290 18:44 24.03.2022
4660 Clear 13 1028 54 10000 4.63 260 17:36 24.03.2022
4661 Clear 13 1028 54 10000 4.63 260 17:36 24.03.2022
4662 Clear 16 1028 50 10000 3.17 267 16:28 24.03.2022
4663 Clear 15 1029 42 10000 2.57 280 14:52 24.03.2022
4664 Clear 17 1029 48 10000 2.46 251 14:22 24.03.2022
4665 Clear 15 1029 41 10000 2.57 280 13:34 24.03.2022
4666 Clear 15 1029 49 10000 2.98 242 12:24 24.03.2022
4667 Clear 14 1030 54 10000 2.64 231 11:27 24.03.2022
4668 Clear 9 1030 63 10000 2.16 207 09:28 24.03.2022
4669 Clear 4 1029 93 3200 2.06 220 08:34 24.03.2022
4670 Clear 4 1030 75 10000 1.92 171 05:30 24.03.2022
4671 Clear 4 1030 75 10000 1.92 171 05:30 24.03.2022
4672 Clear 2 1031 93 2800 1.54 120 00:38 24.03.2022
4673 Clear 5 1032 70 10000 2.59 139 22:21 23.03.2022
4674 Clear 6 1032 68 10000 2.61 131 21:24 23.03.2022
4675 Clear 5 1031 81 9000 2.57 120 20:36 23.03.2022
4676 Clear 8 1031 68 10000 2.91 111 19:28 23.03.2022
4677 Clear 12 1031 50 10000 3.09 110 18:18 23.03.2022
4678 Clear 14 1031 55 10000 2.97 97 17:25 23.03.2022
4679 Clear 14 1031 44 10000 2.57 100 15:56 23.03.2022
4680 Clear 14 1032 44 10000 3.09 90 14:48 23.03.2022
4681 Clear 14 1032 50 10000 2.57 100 13:34 23.03.2022
4682 Clouds 14 1033 46 10000 2.94 109 11:33 23.03.2022
4683 Clouds 4 1033 93 2600 2.57 110 08:49 23.03.2022
4684 Clouds 2 1032 69 10000 2.8 85 06:25 23.03.2022
4685 Clouds 2 1032 93 1700 3.09 100 03:44 23.03.2022
4686 Clouds 4 1033 72 10000 1.91 97 00:28 23.03.2022
4687 Clouds 4 1033 87 10000 1.54 90 21:53 22.03.2022
4688 Clouds 7 1033 65 10000 2.28 99 21:23 22.03.2022
4689 Clear 7 1033 65 10000 2.5 90 20:30 22.03.2022
4690 Clouds 8 1033 66 10000 2.72 87 19:27 22.03.2022
4691 Clear 9 1032 49 10000 1.54 0 18:50 22.03.2022
4692 Clear 11 1032 43 10000 1.54 100 17:44 22.03.2022
4693 Clear 13 1032 43 10000 1.54 0 16:58 22.03.2022
4694 Clear 14 1032 35 10000 2.06 90 15:49 22.03.2022
4695 Clear 16 1033 47 10000 2.06 112 15:21 22.03.2022
4696 Clear 15 1033 41 10000 2.06 80 14:45 22.03.2022
4697 Clear 17 1033 46 10000 2.09 119 14:24 22.03.2022
4698 Clear 14 1034 41 10000 1.54 80 12:41 22.03.2022
4699 Clear 12 1034 49 10000 1.8 146 11:26 22.03.2022
4700 Clear 8 1034 61 10000 1.54 130 09:55 22.03.2022
4701 Clear 1 1033 93 9000 0.51 110 07:48 22.03.2022
4702 Clear 1 1033 93 5000 1.54 150 04:36 22.03.2022
4703 Clouds 1 1033 93 5000 2.06 180 02:54 22.03.2022
4704 Clear 2 1033 93 10000 2.57 170 23:41 21.03.2022
4705 Clear 4 1033 81 10000 1.03 110 21:51 21.03.2022
4706 Clear 4 1033 81 10000 1.03 110 21:51 21.03.2022
4707 Clear 4 1033 75 10000 1.54 100 20:45 21.03.2022
4708 Clear 5 1033 68 10000 2.97 143 20:26 21.03.2022
4709 Clear 6 1032 70 10000 2.57 110 19:53 21.03.2022
4710 Clouds 7 1033 67 10000 2.76 132 19:23 21.03.2022
4711 Clouds 10 1032 50 10000 3.6 110 17:45 21.03.2022
4712 Clouds 11 1032 46 10000 4.63 110 17:18 21.03.2022
4713 Clouds 11 1032 46 10000 4.63 110 16:39 21.03.2022
4714 Clouds 11 1032 46 10000 4.12 90 15:47 21.03.2022
4715 Clouds 11 1032 50 10000 4.12 90 14:56 21.03.2022
4716 Clear 12 1033 35 10000 4.12 150 13:46 21.03.2022
4717 Clouds 11 1033 37 10000 4.12 140 12:34 21.03.2022
4718 Clouds 10 1033 37 10000 5.66 150 11:44 21.03.2022
4719 Clouds 8 1033 42 10000 5.66 140 10:36 21.03.2022
4720 Clouds 5 1034 64 10000 4.19 140 08:30 21.03.2022
4721 Clouds 3 1034 67 10000 4.73 134 06:38 21.03.2022
4722 Clear 4 1033 65 10000 5.14 120 02:48 21.03.2022
4723 Clear 5 1033 60 10000 6.17 120 23:43 20.03.2022
4724 Clear 5 1033 65 10000 6.69 120 22:44 20.03.2022
4725 Clear 6 1034 61 10000 6.69 120 21:52 20.03.2022
4726 Clear 6 1034 61 10000 6.69 120 21:52 20.03.2022
4727 Clear 6 1034 62 10000 7.68 116 21:25 20.03.2022
4728 Clear 6 1034 61 10000 7.2 120 20:43 20.03.2022
4729 Clear 6 1034 61 10000 8.23 110 19:59 20.03.2022
4730 Clear 6 1034 63 10000 7.42 111 19:31 20.03.2022
4731 Clear 7 1034 53 10000 7.72 110 18:34 20.03.2022
4732 Clear 8 1034 60 10000 8.02 109 17:33 20.03.2022
4733 Clear 8 1034 46 10000 8.23 110 16:57 20.03.2022
4734 Clear 9 1036 53 10000 9.24 105 15:35 20.03.2022
4735 Clear 8 1036 49 10000 9.26 110 14:35 20.03.2022
4736 Clear 8 1038 53 10000 7.2 120 12:42 20.03.2022
4737 Clear 8 1038 50 10000 9.44 107 11:32 20.03.2022
4738 Clear 6 1039 55 10000 8.67 104 09:30 20.03.2022
4739 Clear 3 1040 93 10000 6.17 100 07:47 20.03.2022
4740 Clouds 3 1041 93 10000 5.66 110 05:48 20.03.2022
4741 Clear 4 1042 93 10000 4.63 110 02:45 20.03.2022
4742 Clear 4 1043 87 10000 4.12 90 00:47 20.03.2022
4743 Clear 4 1044 84 10000 5.72 87 23:20 19.03.2022
4744 Clear 4 1045 82 10000 6.04 88 21:32 19.03.2022
4745 Clear 5 1045 70 10000 5.14 80 20:58 19.03.2022
4746 Clear 7 1045 53 10000 5.14 90 18:59 19.03.2022
4747 Clear 7 1045 73 10000 6.38 80 18:25 19.03.2022
4748 Clear 8 1045 49 10000 5.14 90 17:41 19.03.2022
4749 Clear 10 1046 61 10000 7.39 77 16:29 19.03.2022
4750 Clear 10 1046 57 10000 6.92 78 15:20 19.03.2022
4751 Clear 9 1047 57 10000 4.12 100 13:35 19.03.2022
4752 Clear 9 1048 61 10000 5.14 100 12:42 19.03.2022
4753 Clear 9 1048 61 10000 6.17 90 11:54 19.03.2022
4754 Clear 9 1048 61 10000 6.17 90 11:33 19.03.2022
4755 Clear 2 1048 79 10000 3.28 52 08:23 19.03.2022
4756 Clear 2 1048 77 10000 3.14 51 04:23 19.03.2022
4757 Clear 2 1048 76 10000 2.91 30 02:31 19.03.2022
4758 Clear 1 1048 93 10000 3.6 40 23:46 18.03.2022
4759 Clear 3 1048 87 10000 3.09 40 22:36 18.03.2022
4760 Clear 4 1048 75 10000 2.57 70 21:56 18.03.2022
4761 Clear 5 1047 62 10000 3.19 29 20:25 18.03.2022
4762 Clouds 7 1046 60 10000 3.08 22 19:23 18.03.2022
4763 Clouds 9 1045 53 10000 3.6 40 18:34 18.03.2022
4764 Clouds 12 1044 43 10000 5.66 340 16:52 18.03.2022
4765 Clouds 12 1044 40 10000 4.63 350 16:18 18.03.2022
4766 Clouds 13 1044 47 10000 4.1 326 14:25 18.03.2022
4767 Clouds 12 1044 58 10000 5.14 330 13:36 18.03.2022
4768 Clear 11 1042 65 10000 3.49 314 11:29 18.03.2022
4769 Clear 7 1041 93 10000 3.09 290 09:52 18.03.2022
4770 Clear 5 1041 100 10000 3.6 270 08:45 18.03.2022
4771 Clouds 3 1039 100 7000 3.6 230 06:45 18.03.2022
4772 Clouds 3 1039 100 7000 3.6 230 06:45 18.03.2022
4773 Clouds 4 1037 93 10000 5.66 250 04:39 18.03.2022
4774 Clear 3 1035 100 10000 5.66 260 00:55 18.03.2022
4775 Clear 3 1035 93 10000 5.14 250 23:52 17.03.2022
4776 Clear 4 1035 93 10000 7.2 260 22:44 17.03.2022
4777 Clear 3 1035 94 10000 3.53 245 22:18 17.03.2022
4778 Clear 4 1034 94 10000 3.88 249 21:27 17.03.2022
4779 Clear 5 1033 87 10000 7.2 260 20:53 17.03.2022
4780 Clear 5 1032 81 10000 7.2 260 20:19 17.03.2022
4781 Clear 6 1032 81 10000 7.2 260 19:38 17.03.2022
4782 Clouds 6 1030 81 10000 9.26 270 18:52 17.03.2022
4783 Clouds 7 1029 78 10000 6.38 271 17:29 17.03.2022
4784 Clouds 8 1028 77 10000 7.19 275 16:20 17.03.2022
4785 Clouds 7 1027 81 10000 10.29 280 15:43 17.03.2022
4786 Clouds 7 1025 87 10000 11.32 270 14:59 17.03.2022
4787 Clouds 7 1024 87 10000 9.26 260 13:45 17.03.2022
4788 Clouds 7 1023 93 10000 6.17 240 12:46 17.03.2022
4789 Rain 7 1023 93 10000 6.46 218 11:33 17.03.2022
4790 Rain 7 1021 87 5000 8.23 160 10:44 17.03.2022
4791 Rain 8 1021 71 10000 7.72 150 09:37 17.03.2022
4792 Clouds 6 1021 81 10000 8.23 140 08:19 17.03.2022
4793 Clouds 5 1022 87 7000 7.72 130 05:53 17.03.2022
4794 Clouds 4 1023 93 8000 7.2 130 04:40 17.03.2022
4795 Clear 4 1026 91 10000 5.86 119 00:27 17.03.2022
4796 Clear 4 1027 100 3100 7.2 120 22:57 16.03.2022
4797 Clear 4 1027 92 10000 5.69 116 22:36 16.03.2022
4798 Clear 3 1027 100 1500 6.17 120 21:56 16.03.2022
4799 Clouds 3 1027 100 5000 6.69 120 20:47 16.03.2022
4800 Clouds 3 1027 91 10000 5.81 105 19:24 16.03.2022
4801 Clouds 3 1027 100 2300 7.2 110 18:43 16.03.2022
4802 Clouds 4 1028 93 10000 5.14 120 17:50 16.03.2022
4803 Clouds 5 1028 81 10000 5.18 109 17:31 16.03.2022
4804 Clouds 4 1028 93 10000 5.66 120 16:36 16.03.2022
4805 Clouds 4 1028 93 10000 6.17 110 15:34 16.03.2022
4806 Clouds 6 1029 81 10000 3.09 110 13:41 16.03.2022
4807 Clouds 5 1029 93 10000 3.6 110 12:57 16.03.2022
4808 Clouds 3 1028 69 10000 4.23 129 11:26 16.03.2022
4809 Clouds 3 1029 100 1700 2.06 110 10:43 16.03.2022
4810 Clouds 3 1028 100 1000 4.12 120 09:57 16.03.2022
4811 Clouds 2 1028 100 400 3.09 110 08:33 16.03.2022
4812 Clouds 0 1027 100 100 1.54 0 02:46 16.03.2022
4813 Clouds 2 1025 100 200 2.06 110 22:58 15.03.2022
4814 Clouds 2 1025 100 200 2.06 110 22:36 15.03.2022
4815 Clouds 4 1025 85 10000 0.99 43 21:27 15.03.2022
4816 Clouds 6 1025 87 10000 1.54 110 19:47 15.03.2022
4817 Clouds 8 1025 79 10000 2.06 290 18:35 15.03.2022
4818 Clouds 10 1024 76 10000 2.57 110 16:45 15.03.2022
4819 Clouds 10 1024 71 10000 2.57 120 15:44 15.03.2022
4820 Clouds 11 1024 62 10000 1.03 310 14:55 15.03.2022
4821 Clouds 11 1024 58 10000 3.18 244 14:30 15.03.2022
4822 Clouds 9 1025 62 10000 2.96 233 13:24 15.03.2022
4823 Clouds 6 1026 93 10000 3.09 220 11:48 15.03.2022
4824 Clouds 6 1026 93 10000 2.06 230 10:56 15.03.2022
4825 Clouds 5 1027 73 10000 3.01 245 09:30 15.03.2022
4826 Clouds 5 1027 82 10000 2.88 244 08:32 15.03.2022
4827 Clouds 5 1026 93 2100 4.12 260 07:44 15.03.2022
4828 Clouds 5 1027 94 10000 2.94 240 06:32 15.03.2022
4829 Clouds 6 1026 100 5000 5.66 260 01:59 15.03.2022
4830 Clouds 7 1026 96 10000 3.94 259 23:32 14.03.2022
4831 Clouds 7 1025 93 4500 5.14 250 22:54 14.03.2022
4832 Clouds 7 1025 93 5000 4.12 260 21:56 14.03.2022
4833 Clouds 7 1025 97 10000 2.76 240 21:20 14.03.2022
4834 Clouds 7 1025 97 10000 2.76 240 20:31 14.03.2022
4835 Clouds 7 1024 81 10000 2.06 240 19:47 14.03.2022
4836 Clouds 9 1024 84 10000 0.89 278 18:20 14.03.2022
4837 Clouds 7 1023 70 10000 1.03 0 17:42 14.03.2022
4838 Clouds 7 1023 70 10000 1.03 90 16:54 14.03.2022
4839 Clouds 9 1023 58 10000 0.92 319 15:20 14.03.2022
4840 Clouds 9 1022 46 10000 2.06 30 14:00 14.03.2022
4841 Clouds 9 1023 52 10000 3.17 141 11:27 14.03.2022
4842 Clouds 6 1022 49 10000 3.6 130 09:58 14.03.2022
4843 Clouds 6 1022 49 10000 3.6 130 09:38 14.03.2022
4844 Clouds 6 1022 61 10000 3.97 138 09:18 14.03.2022
4845 Clouds 5 1022 61 10000 3.97 138 08:46 14.03.2022
4846 Clouds 2 1022 74 10000 3.73 130 07:21 14.03.2022
4847 Clouds 3 1021 75 10000 3.93 121 04:22 14.03.2022
4848 Clear 3 1020 70 10000 6.17 110 01:46 14.03.2022
4849 Clouds 3 1020 69 10000 5.66 110 00:38 14.03.2022
4850 Clouds 3 1019 75 10000 3.6 110 21:56 13.03.2022
4851 Clouds 4 1020 59 10000 5.4 127 21:27 13.03.2022
4852 Clouds 3 1019 70 10000 4.12 110 20:49 13.03.2022
4853 Clouds 5 1019 58 10000 5.73 126 20:26 13.03.2022
4854 Clouds 5 1018 65 10000 6.17 120 19:43 13.03.2022
4855 Clouds 6 1019 59 10000 5.6 121 19:25 13.03.2022
4856 Clouds 6 1018 56 10000 7.2 120 18:50 13.03.2022
4857 Clear 7 1019 57 10000 5.66 123 18:27 13.03.2022
4858 Clear 8 1018 46 10000 7.72 110 17:40 13.03.2022
4859 Clear 9 1018 43 10000 7.2 120 16:48 13.03.2022
4860 Clear 9 1019 48 10000 6.26 123 16:27 13.03.2022
4861 Clear 8 1018 49 10000 3.6 100 15:44 13.03.2022
4862 Clear 9 1018 40 10000 6.69 120 14:50 13.03.2022
4863 Clear 8 1019 38 10000 6.73 130 13:30 13.03.2022
4864 Clouds 8 1019 42 10000 5.14 130 12:37 13.03.2022
4865 Clouds 8 1019 39 10000 5.14 120 11:51 13.03.2022
4866 Clouds 8 1019 40 10000 6.43 137 11:30 13.03.2022
4867 Clouds 7 1019 39 10000 6.17 130 10:46 13.03.2022
4868 Clouds 5 1019 45 10000 5.14 130 09:53 13.03.2022
4869 Clear 5 1019 51 10000 5.88 128 09:29 13.03.2022
4870 Clear 3 1019 60 10000 6.17 120 08:40 13.03.2022
4871 Clouds 1 1019 64 10000 6.17 120 07:37 13.03.2022
4872 Clouds 1 1019 69 10000 6.17 130 05:40 13.03.2022
4873 Clouds 2 1020 65 10000 4.17 124 02:27 13.03.2022
4874 Clouds 5 1021 64 10000 3.95 126 23:31 12.03.2022
4875 Clouds 3 1020 75 10000 4.63 130 21:53 12.03.2022
4876 Clouds 5 1021 59 10000 4.53 128 20:29 12.03.2022
4877 Clouds 5 1020 60 10000 6.69 130 19:47 12.03.2022
4878 Clouds 6 1020 61 10000 6.17 120 18:55 12.03.2022
4879 Clouds 6 1021 63 10000 3.72 120 18:21 12.03.2022
4880 Clouds 8 1021 55 10000 3.38 145 17:23 12.03.2022
4881 Clouds 10 1021 50 10000 4.02 163 16:23 12.03.2022
4882 Clouds 11 1021 45 10000 5.35 163 15:22 12.03.2022
4883 Clouds 10 1020 29 10000 5.66 140 14:27 12.03.2022
4884 Clouds 8 1020 29 10000 5.66 130 12:45 12.03.2022
4885 Clouds 6 1020 31 10000 6.69 140 11:56 12.03.2022
4886 Clouds 6 1020 31 10000 6.69 140 11:34 12.03.2022
4887 Clouds 5 1021 33 10000 7.2 150 10:52 12.03.2022
4888 Clouds 4 1021 33 10000 6.17 140 09:44 12.03.2022
4889 Clear 2 1021 41 10000 6.69 140 08:55 12.03.2022
4890 Clear 1 1020 44 10000 5.14 130 07:19 12.03.2022
4891 Clear 2 1020 44 10000 5.14 130 02:34 12.03.2022
4892 Clear 4 1021 38 10000 5.66 130 23:56 11.03.2022
4893 Clear 4 1021 35 10000 6.69 130 22:56 11.03.2022
4894 Clear 5 1021 33 10000 7.2 130 21:35 11.03.2022
4895 Clear 5 1020 36 10000 8.23 140 20:54 11.03.2022
4896 Clear 5 1022 46 10000 8.42 135 20:29 11.03.2022
4897 Clear 5 1020 45 10000 5.66 130 19:42 11.03.2022
4898 Clear 6 1020 39 10000 7.2 120 19:22 11.03.2022
4899 Clear 7 1022 46 10000 8.51 135 17:30 11.03.2022
4900 Clouds 8 1022 45 10000 8.84 132 16:27 11.03.2022
4901 Clouds 8 1021 31 10000 8.23 130 15:53 11.03.2022
4902 Clouds 8 1022 31 10000 8.75 130 14:19 11.03.2022
4903 Clouds 7 1023 29 10000 10.29 140 12:44 11.03.2022
4904 Clouds 7 1024 35 10000 8.59 135 12:21 11.03.2022
4905 Clouds 6 1024 36 10000 8.23 130 11:51 11.03.2022
4906 Clouds 3 1025 52 10000 7.2 130 09:40 11.03.2022
4907 Clouds 2 1025 60 10000 5.66 130 08:56 11.03.2022
4908 Clouds 2 1025 60 10000 7.41 128 08:20 11.03.2022
4909 Clouds 1 1025 64 10000 6.69 120 07:40 11.03.2022
4910 Clouds 1 1025 64 10000 6.17 120 05:44 11.03.2022
4911 Clouds 2 1026 64 10000 5.66 120 03:41 11.03.2022
4912 Clouds 2 1026 64 10000 5.66 120 03:41 11.03.2022
4913 Clouds 4 1026 81 10000 4.63 130 23:36 10.03.2022
4914 Clouds 5 1027 76 10000 5.88 133 22:30 10.03.2022
4915 Clouds 5 1027 79 10000 5.83 134 21:27 10.03.2022
4916 Clouds 5 1027 81 10000 4.63 110 20:55 10.03.2022
4917 Clouds 6 1027 73 10000 5.19 129 19:23 10.03.2022
4918 Clouds 6 1027 75 10000 4.63 110 18:40 10.03.2022
4919 Clouds 8 1027 61 10000 6.69 130 17:19 10.03.2022
4920 Clouds 9 1027 57 10000 6.69 130 15:50 10.03.2022
4921 Clouds 9 1027 57 10000 6.17 140 14:39 10.03.2022
4922 Clouds 9 1028 61 10000 5.14 120 13:19 10.03.2022
4923 Clouds 9 1028 61 10000 4.63 120 11:57 10.03.2022
4924 Clouds 7 1028 70 10000 4.63 120 10:50 10.03.2022
4925 Clouds 3 1028 93 8000 6.17 120 08:56 10.03.2022
4926 Clouds 1 1028 78 10000 4.48 134 07:33 10.03.2022
4927 Clouds 1 1027 93 2700 5.66 120 04:18 10.03.2022
4928 Clouds 1 1027 100 4800 5.66 120 01:40 10.03.2022
4929 Clear 2 1027 87 10000 4.12 120 23:18 09.03.2022
4930 Clear 3 1026 81 10000 5.14 120 21:49 09.03.2022
4931 Clear 3 1027 82 10000 4.17 119 21:27 09.03.2022
4932 Clouds 4 1026 70 10000 5.66 130 19:43 09.03.2022
4933 Clear 6 1026 81 10000 4.11 106 18:29 09.03.2022
4934 Clear 8 1025 71 10000 4.13 107 17:27 09.03.2022
4935 Clear 8 1025 71 10000 4.13 107 17:26 09.03.2022
4936 Clear 10 1025 71 10000 4.13 107 16:31 09.03.2022
4937 Clear 11 1025 50 10000 3.6 80 14:59 09.03.2022
4938 Clear 11 1025 35 10000 4.12 150 13:53 09.03.2022
4939 Clouds 10 1025 37 10000 4.12 150 12:45 09.03.2022
4940 Clouds 8 1025 46 10000 2.57 140 11:53 09.03.2022
4941 Clouds 8 1025 46 10000 2.57 140 11:35 09.03.2022
4942 Clouds 5 1025 65 10000 2.06 170 09:54 09.03.2022
4943 Clouds 3 1026 69 10000 3.19 150 08:51 09.03.2022
4944 Clear -1 1025 83 10000 3.19 138 07:27 09.03.2022
4945 Clouds -1 1025 86 10000 1.54 0 02:42 09.03.2022
4946 Clear 0 1024 86 10000 2.57 140 00:41 09.03.2022
4947 Clear 1 1024 80 10000 5.14 140 22:47 08.03.2022
4948 Clear 2 1024 75 10000 4.63 130 21:59 08.03.2022
4949 Clear 2 1025 76 10000 3.12 129 21:23 08.03.2022
4950 Clear 2 1025 75 10000 3.02 126 20:29 08.03.2022
4951 Clear 4 1025 75 10000 3.02 126 19:31 08.03.2022
4952 Clear 5 1024 52 10000 4.12 130 18:44 08.03.2022
4953 Clear 8 1025 62 10000 2.14 123 17:26 08.03.2022
4954 Clear 9 1024 37 10000 1.54 320 15:45 08.03.2022
4955 Clear 9 1025 49 10000 3.09 290 14:19 08.03.2022
4956 Clouds 8 1025 46 10000 2.57 280 12:43 08.03.2022
4957 Clouds 7 1025 49 10000 1.03 270 11:45 08.03.2022
4958 Clouds 6 1026 52 10000 1.03 0 10:41 08.03.2022
4959 Clouds 3 1026 87 10000 3.09 220 09:43 08.03.2022
4960 Clouds -3 1025 93 10000 2.06 200 06:43 08.03.2022
4961 Clouds -3 1025 93 10000 1.54 230 04:47 08.03.2022
4962 Clouds -1 1026 93 10000 2.06 260 23:36 07.03.2022
4963 Clouds 0 1027 86 10000 1.54 280 21:54 07.03.2022
4964 Clouds 0 1027 84 10000 1.77 281 21:31 07.03.2022
4965 Clouds 1 1027 86 10000 2.06 300 20:44 07.03.2022
4966 Clouds 2 1026 80 10000 3.09 280 19:55 07.03.2022
4967 Clouds 3 1027 84 10000 2.82 295 19:29 07.03.2022
4968 Clear 4 1026 70 10000 4.12 270 18:42 07.03.2022
4969 Clear 6 1026 65 10000 4.63 270 17:47 07.03.2022
4970 Clear 8 1026 53 10000 3.6 270 16:55 07.03.2022
4971 Clear 8 1027 52 10000 1.79 304 15:32 07.03.2022
4972 Clear 7 1028 48 10000 1.47 297 13:24 07.03.2022
4973 Clear 7 1028 49 10000 1.75 272 12:23 07.03.2022
4974 Clear 5 1028 56 10000 1.03 270 10:38 07.03.2022
4975 Clear -1 1027 100 10000 1.03 290 08:48 07.03.2022
4976 Clear -3 1027 100 10000 1.54 330 03:49 07.03.2022
4977 Clear -2 1028 82 10000 1.87 25 00:22 07.03.2022
4978 Clear -2 1028 82 10000 1.87 25 23:31 06.03.2022
4979 Clear -1 1027 93 10000 1.03 20 22:40 06.03.2022
4980 Clear -1 1027 86 10000 1.54 40 21:46 06.03.2022
4981 Clear 0 1026 86 10000 1.03 350 20:38 06.03.2022
4982 Clear 1 1027 80 10000 2.79 35 20:20 06.03.2022
4983 Clear 4 1026 65 10000 2.57 40 18:52 06.03.2022
4984 Clear 4 1026 77 10000 2.07 29 18:23 06.03.2022
4985 Clear 6 1026 69 10000 2.09 50 17:21 06.03.2022
4986 Clear 7 1026 57 10000 4.12 30 16:41 06.03.2022
4987 Clear 7 1026 57 10000 3.09 20 15:49 06.03.2022
4988 Clear 7 1026 57 10000 3.09 20 15:49 06.03.2022
4989 Clear 7 1026 61 10000 1.03 10 14:49 06.03.2022
4990 Clear 7 1026 57 10000 2.63 35 14:31 06.03.2022
4991 Clouds 6 1027 70 10000 3.6 310 13:18 06.03.2022
4992 Clouds 6 1026 55 10000 2.4 19 12:31 06.03.2022
4993 Clouds 3 1027 69 10000 3.09 260 10:59 06.03.2022
4994 Clouds 2 1027 59 10000 1.61 328 10:22 06.03.2022
4995 Clouds -1 1027 75 10000 1.3 334 08:29 06.03.2022
4996 Clouds -1 1027 75 10000 1.3 334 08:29 06.03.2022
4997 Clouds -1 1027 75 10000 1.3 334 08:29 06.03.2022
4998 Clouds -1 1027 75 10000 1.3 334 08:29 06.03.2022
4999 Clouds -3 1027 93 10000 2.06 300 07:34 06.03.2022
5000 Clear -2 1027 80 10000 1.68 352 05:32 06.03.2022
5001 Clouds 0 1027 64 10000 2.57 60 00:51 06.03.2022
5002 Clear 0 1027 84 10000 1.81 10 00:30 06.03.2022
5003 Clear 1 1027 84 10000 1.7 39 23:21 05.03.2022
5004 Clear 1 1027 64 10000 4.12 30 22:47 05.03.2022
5005 Clear 1 1026 69 10000 2.57 60 21:46 05.03.2022
5006 Clouds 1 1027 84 10000 1.93 75 21:21 05.03.2022
5007 Clouds 2 1026 83 10000 2.68 90 19:26 05.03.2022
5008 Clouds 2 1026 60 10000 2.06 110 18:54 05.03.2022
5009 Clouds 2 1026 79 10000 2.97 88 18:27 05.03.2022
5010 Clouds 3 1026 60 10000 4.12 120 16:34 05.03.2022
5011 Clouds 4 1025 59 10000 4.33 83 15:31 05.03.2022
5012 Clouds 4 1026 56 10000 3.6 100 14:47 05.03.2022
5013 Clouds 5 1026 58 10000 4.34 87 14:29 05.03.2022
5014 Clouds 5 1026 57 10000 4.01 96 13:22 05.03.2022
5015 Clear 4 1026 65 10000 3.09 160 11:48 05.03.2022
5016 Clear 3 1026 75 10000 2.57 140 11:19 05.03.2022
5017 Clear 2 1026 93 10000 2.06 130 10:18 05.03.2022
5018 Clear 1 1026 79 10000 3.01 131 09:22 05.03.2022
5019 Clear -2 1025 100 10000 2.57 120 07:38 05.03.2022
5020 Clear -3 1025 100 10000 2.57 150 05:43 05.03.2022
5021 Clear -2 1025 93 10000 4.63 130 03:18 05.03.2022
5022 Clear -2 1026 100 10000 3.09 120 23:38 04.03.2022
5023 Clear -1 1026 100 10000 3.6 120 22:42 04.03.2022
5024 Clear -1 1026 93 10000 3.6 120 22:19 04.03.2022
5025 Clear 0 1025 100 10000 3.6 130 20:57 04.03.2022
5026 Clear 0 1026 91 10000 3.21 110 20:27 04.03.2022
5027 Clear 1 1025 100 10000 2.57 120 19:36 04.03.2022
5028 Clouds 2 1025 87 10000 2.57 120 18:45 04.03.2022
5029 Clouds 4 1025 70 10000 4.63 120 17:48 04.03.2022
5030 Clouds 4 1025 76 10000 4.72 109 17:28 04.03.2022
5031 Clouds 6 1025 67 10000 4.73 108 15:31 04.03.2022
5032 Clouds 5 1025 75 10000 3.09 90 14:36 04.03.2022
5033 Clouds 5 1025 63 10000 3.63 114 13:27 04.03.2022
5034 Clear 2 1025 93 1600 2.06 110 11:56 04.03.2022
5035 Clear 1 1025 100 200 0.51 80 10:57 04.03.2022
5036 Clear 1 1025 75 10000 2.4 97 10:21 04.03.2022
5037 Clear -2 1025 93 250 0.51 60 08:48 04.03.2022
5038 Clear -2 1024 100 200 0 0 07:47 04.03.2022
5039 Clear -1 1025 91 10000 1.71 127 05:26 04.03.2022
5040 Clear -1 1025 92 10000 2.88 87 00:41 04.03.2022
5041 Clear -1 1024 100 5000 3.6 50 22:54 03.03.2022
5042 Clear 0 1024 93 9000 2.57 40 21:58 03.03.2022
5043 Clear -1 1024 93 9000 2.57 40 21:35 03.03.2022
5044 Clear 0 1024 84 10000 3.06 57 20:27 03.03.2022
5045 Clear 2 1023 93 10000 1.03 0 18:58 03.03.2022
5046 Clear 3 1023 78 10000 2.31 63 18:25 03.03.2022
5047 Clear 4 1023 78 10000 2.31 63 17:31 03.03.2022
5048 Clear 5 1023 81 10000 1.03 50 16:38 03.03.2022
5049 Clear 5 1023 81 10000 1.54 120 15:43 03.03.2022
5050 Clear 5 1023 81 10000 3.09 30 14:44 03.03.2022
5051 Clear 6 1023 55 10000 4.54 77 14:25 03.03.2022
5052 Clear 3 1023 56 10000 4.61 80 12:33 03.03.2022
5053 Clear 2 1023 64 10000 4.05 75 11:23 03.03.2022
5054 Clear 1 1023 71 10000 3.33 70 10:21 03.03.2022
5055 Clear 0 1023 100 200 2.06 50 08:42 03.03.2022
5056 Clear -3 1022 100 8000 3.09 60 06:57 03.03.2022
5057 Clear -2 1022 100 5000 2.57 270 05:37 03.03.2022
5058 Clouds -1 1024 93 10000 1.54 290 23:57 02.03.2022
5059 Clouds -1 1024 93 10000 1.03 320 23:18 02.03.2022
5060 Clouds -1 1024 93 10000 1.03 320 22:42 02.03.2022
5061 Clouds 0 1025 81 10000 1.63 75 21:22 02.03.2022
5062 Clouds 0 1025 81 10000 1.63 75 20:30 02.03.2022
5063 Clouds 1 1025 80 10000 1.03 0 19:43 02.03.2022
5064 Clouds 2 1025 75 10000 2.06 40 19:24 02.03.2022
5065 Clouds 3 1025 75 10000 2.06 40 18:39 02.03.2022
5066 Clouds 5 1025 56 10000 2.06 30 17:45 02.03.2022
5067 Clouds 6 1025 53 10000 2.06 40 16:54 02.03.2022
5068 Clear 6 1025 60 10000 2.42 63 16:25 02.03.2022
5069 Clear 6 1026 65 10000 2.06 40 14:39 02.03.2022
5070 Clear 5 1027 61 10000 3.28 59 13:23 02.03.2022
5071 Clear 4 1027 81 10000 3.09 20 12:40 02.03.2022
5072 Clear 3 1028 87 10000 2.57 50 11:38 02.03.2022
5073 Clear 3 1028 87 10000 3.6 40 11:18 02.03.2022
5074 Clear 2 1028 93 8000 3.6 30 09:41 02.03.2022
5075 Clear 1 1028 93 10000 2.06 50 08:51 02.03.2022
5076 Clouds 0 1028 96 10000 2.73 54 07:25 02.03.2022
5077 Clouds 1 1028 93 4700 3.09 60 05:44 02.03.2022
5078 Clouds 3 1029 87 10000 3.6 20 00:58 02.03.2022
5079 Clouds 2 1029 100 4800 2.06 10 23:46 01.03.2022
5080 Clouds 3 1030 93 6000 1.54 10 22:45 01.03.2022
5081 Rain 3 1029 87 6000 1.03 0 21:56 01.03.2022
5082 Rain 3 1030 87 10000 1.7 39 21:23 01.03.2022
5083 Rain 3 1029 83 10000 1.53 58 20:29 01.03.2022
5084 Rain 3 1029 82 10000 1.6 84 19:24 01.03.2022
5085 Clouds 4 1029 70 10000 2.06 20 18:37 01.03.2022
5086 Clouds 4 1029 70 10000 1.03 350 18:18 01.03.2022
5087 Clouds 4 1029 65 10000 1.54 360 17:19 01.03.2022
5088 Rain 5 1029 80 10000 1.97 353 16:31 01.03.2022
5089 Clouds 4 1028 65 10000 0.51 10 15:38 01.03.2022
5090 Clouds 5 1029 65 10000 0.51 290 14:34 01.03.2022
5091 Rain 5 1029 65 10000 2.06 280 13:52 01.03.2022
5092 Clouds 5 1029 56 10000 2.54 210 13:24 01.03.2022
5093 Clouds 4 1029 55 10000 2.92 214 12:32 01.03.2022
5094 Clouds 2 1029 64 10000 3.09 220 10:36 01.03.2022
5095 Clouds 1 1029 64 10000 2.57 190 08:42 01.03.2022
5096 Clouds 0 1028 74 10000 3.09 160 07:52 01.03.2022
5097 Clouds 0 1029 69 10000 3.09 160 05:54 01.03.2022
5098 Clouds 1 1029 69 10000 8.75 170 02:44 01.03.2022
5099 Clouds 2 1030 69 10000 7.2 170 00:34 01.03.2022
5100 Clouds 2 1031 61 10000 5.39 169 23:30 28.02.2022
5101 Clouds 2 1031 70 10000 5.66 160 22:18 28.02.2022
5102 Clouds 3 1031 70 10000 5.66 160 21:37 28.02.2022
5103 Clouds 4 1031 65 10000 6.17 150 19:56 28.02.2022
5104 Clouds 5 1031 65 10000 6.17 150 19:36 28.02.2022
5105 Clear 5 1031 61 10000 5.66 150 18:43 28.02.2022
5106 Clear 6 1031 69 10000 4.05 155 17:33 28.02.2022
5107 Clear 8 1031 49 10000 5.66 170 16:43 28.02.2022
5108 Clear 9 1032 54 10000 5.32 164 15:27 28.02.2022
5109 Clear 9 1032 54 10000 5.32 164 14:32 28.02.2022
5110 Clear 9 1032 49 10000 5.14 170 13:48 28.02.2022
5111 Clear 7 1033 57 10000 5.14 170 12:48 28.02.2022
5112 Clear 6 1033 61 10000 4.63 180 11:58 28.02.2022
5113 Clear 5 1033 70 10000 4.12 170 11:18 28.02.2022
5114 Clear 4 1033 64 10000 5.59 170 10:21 28.02.2022
5115 Clear 3 1033 80 10000 3.6 160 09:36 28.02.2022
5116 Clear 1 1032 80 10000 5.66 160 08:48 28.02.2022
5117 Clear 0 1032 86 10000 5.66 160 07:43 28.02.2022
5118 Clear 0 1033 86 10000 5.14 150 05:52 28.02.2022
5119 Clear 0 1033 90 10000 3.92 156 04:30 28.02.2022
5120 Clear 1 1034 87 10000 5.14 150 00:42 28.02.2022
5121 Clear 2 1034 93 10000 4.63 140 22:38 27.02.2022
5122 Clear 2 1034 93 10000 4.12 140 21:58 27.02.2022
5123 Clear 2 1034 93 10000 4.12 140 21:36 27.02.2022
5124 Clear 2 1035 93 10000 4.63 130 20:43 27.02.2022
5125 Clear 2 1035 93 10000 4.12 120 20:18 27.02.2022
5126 Clear 2 1035 93 10000 4.12 120 19:43 27.02.2022
5127 Clear 3 1035 81 10000 3.09 134 19:21 27.02.2022
5128 Clear 4 1035 76 10000 2.74 132 18:24 27.02.2022
5129 Clear 5 1035 81 10000 4.63 120 17:45 27.02.2022
5130 Clear 7 1035 58 10000 3.54 155 16:23 27.02.2022
5131 Clear 7 1035 52 10000 4.54 159 15:21 27.02.2022
5132 Clear 6 1036 56 10000 4.1 160 12:37 27.02.2022
5133 Clear 5 1037 65 10000 5.14 140 11:51 27.02.2022
5134 Clear 4 1037 70 10000 4.12 140 10:37 27.02.2022
5135 Clear 2 1037 80 10000 5.14 140 09:58 27.02.2022
5136 Clear 2 1037 80 10000 5.14 140 09:58 27.02.2022
5137 Clear 2 1037 72 10000 3.93 148 09:23 27.02.2022
5138 Clear 0 1036 93 10000 4.12 150 08:48 27.02.2022
5139 Clear -1 1036 87 10000 3.09 142 06:26 27.02.2022
5140 Clear -1 1036 93 10000 3.09 160 03:44 27.02.2022
5141 Clear 1 1036 86 10000 3.17 149 00:31 27.02.2022
5142 Clear 0 1036 86 10000 2.57 150 22:48 26.02.2022
5143 Clear 1 1036 77 10000 2.49 140 21:29 26.02.2022
5144 Clear 1 1035 86 10000 1.03 0 20:43 26.02.2022
5145 Clear 2 1035 75 10000 4.12 160 19:58 26.02.2022
5146 Clear 3 1036 77 10000 2.39 126 19:33 26.02.2022
5147 Clear 4 1035 70 10000 3.09 140 18:34 26.02.2022
5148 Clear 6 1034 53 10000 2.06 130 17:38 26.02.2022
5149 Clear 8 1034 42 10000 0.51 20 16:39 26.02.2022
5150 Clear 8 1034 46 10000 0 0 15:45 26.02.2022
5151 Clear 9 1034 48 10000 1.36 117 15:20 26.02.2022
5152 Clear 8 1034 42 10000 0 0 14:51 26.02.2022
5153 Clear 8 1034 49 10000 0.76 96 14:24 26.02.2022
5154 Clear 7 1034 57 10000 1.03 320 12:59 26.02.2022
5155 Clear 7 1034 61 10000 0.51 270 11:54 26.02.2022
5156 Clear 7 1034 61 10000 1.86 355 11:28 26.02.2022
5157 Clear 5 1034 61 10000 1.86 355 10:31 26.02.2022
5158 Clear 1 1032 93 10000 2.57 320 08:45 26.02.2022
5159 Clear 1 1030 93 10000 1.54 260 06:46 26.02.2022
5160 Clear 4 1024 87 10000 7.72 320 00:38 26.02.2022
5161 Clear 4 1021 87 10000 9.26 310 22:47 25.02.2022
5162 Clear 5 1020 81 10000 9.77 310 21:40 25.02.2022
5163 Clear 5 1020 75 10000 8.51 305 21:21 25.02.2022
5164 Clear 5 1020 75 10000 8.51 305 20:32 25.02.2022
5165 Clouds 5 1016 81 10000 11.32 310 18:41 25.02.2022
5166 Clouds 6 1014 81 10000 7.98 308 17:23 25.02.2022
5167 Clouds 6 1012 81 10000 7.6 309 16:24 25.02.2022
5168 Clouds 6 1011 81 10000 11.83 320 15:43 25.02.2022
5169 Clouds 6 1011 80 10000 6.91 303 15:20 25.02.2022
5170 Clouds 6 1010 81 10000 10.29 310 14:42 25.02.2022
5171 Clouds 5 1010 80 10000 7.38 292 13:36 25.02.2022
5172 Clouds 5 1008 93 10000 9.26 290 12:56 25.02.2022
5173 Rain 3 1007 85 5044 9.25 265 11:28 25.02.2022
5174 Clouds 3 1007 87 5000 5.66 240 10:40 25.02.2022
5175 Rain 3 1007 84 10000 8.6 247 10:22 25.02.2022
5176 Rain 3 1006 87 10000 12.35 280 09:18 25.02.2022
5177 Rain 3 1005 87 10000 9.77 250 07:42 25.02.2022
5178 Clouds 3 1005 81 10000 10.29 250 05:51 25.02.2022
5179 Clouds 3 1005 87 10000 11.83 250 04:41 25.02.2022
5180 Clouds 3 1004 82 10000 6.88 262 00:27 25.02.2022
5181 Clouds 2 1001 87 10000 8.23 270 21:59 24.02.2022
5182 Clouds 2 1001 87 10000 8.23 270 21:40 24.02.2022
5183 Clouds 2 1002 94 10000 7.43 262 21:20 24.02.2022
5184 Snow 2 1002 94 10000 7.43 262 20:30 24.02.2022
5185 Snow 1 998 100 10000 9.26 290 18:52 24.02.2022
5186 Rain 2 997 93 10000 10.29 280 18:19 24.02.2022
5187 Rain 3 997 93 10000 10.29 280 17:42 24.02.2022
5188 Rain 6 996 87 10000 9.26 210 16:56 24.02.2022
5189 Rain 6 996 77 10000 10.27 207 16:25 24.02.2022
5190 Rain 6 996 77 10000 10.3 207 16:25 24.02.2022
5191 Clouds 8 996 77 10000 10.3 207 15:30 24.02.2022
5192 Clouds 8 999 76 6000 7.2 210 14:37 24.02.2022
5193 Clouds 8 1000 76 10000 7.72 210 13:45 24.02.2022
5194 Clouds 8 1001 78 10000 8.34 206 13:27 24.02.2022
5195 Clouds 6 1004 87 7000 8.23 210 10:48 24.02.2022
5196 Rain 6 1005 87 10000 8.75 210 09:42 24.02.2022
5197 Rain 6 1006 76 10000 9.77 230 08:43 24.02.2022
5198 Rain 6 1006 76 10000 9.77 230 08:43 24.02.2022
5199 Clouds 7 1007 81 10000 8.74 219 06:27 24.02.2022
5200 Clouds 7 1007 76 10000 9.26 230 05:36 24.02.2022
5201 Clouds 7 1011 71 10000 9.52 217 00:30 24.02.2022
5202 Clouds 7 1014 65 10000 9.26 230 21:56 23.02.2022
5203 Clouds 7 1015 65 10000 9.77 240 20:43 23.02.2022
5204 Clouds 6 1015 76 10000 9.26 230 20:20 23.02.2022
5205 Clouds 7 1015 70 10000 8.23 240 19:34 23.02.2022
5206 Clouds 7 1016 75 10000 9.38 234 18:22 23.02.2022
5207 Clouds 8 1017 77 10000 9.12 235 16:27 23.02.2022
5208 Clear 8 1018 76 10000 12.86 270 13:45 23.02.2022
5209 Clouds 8 1019 75 10000 8.47 246 12:31 23.02.2022
5210 Clouds 7 1019 82 10000 7.65 258 10:56 23.02.2022
5211 Clouds 6 1017 87 10000 10.8 280 09:49 23.02.2022
5212 Clouds 5 1016 87 10000 10.29 270 08:54 23.02.2022
5213 Clouds 5 1015 87 10000 10.29 280 07:53 23.02.2022
5214 Clear 5 1010 81 10000 11.83 290 02:58 23.02.2022
5215 Clouds 6 1007 81 10000 12.86 290 00:18 23.02.2022
5216 Clouds 6 1007 81 10000 12.86 290 23:33 22.02.2022
5217 Clouds 6 1006 81 10000 9.75 291 22:28 22.02.2022
5218 Clouds 6 1004 87 10000 12.35 300 21:45 22.02.2022
5219 Clouds 6 1005 86 10000 9.22 288 21:21 22.02.2022
5220 Clouds 6 1002 100 2000 13.38 290 20:43 22.02.2022
5221 Clouds 6 1003 88 10000 11.39 301 20:25 22.02.2022
5222 Rain 7 1001 93 9000 9.77 250 19:34 22.02.2022
5223 Rain 6 1002 100 9000 7.2 220 18:43 22.02.2022
5224 Clouds 6 1003 93 4600 9.26 210 17:35 22.02.2022
5225 Clouds 5 1004 93 6000 7.2 200 16:58 22.02.2022
5226 Rain 5 1005 90 10000 7.57 202 16:26 22.02.2022
5227 Clouds 6 1006 81 10000 7.2 210 15:36 22.02.2022
5228 Clouds 6 1008 75 10000 6.69 220 14:37 22.02.2022
5229 Clouds 6 1010 75 10000 9.26 270 11:41 22.02.2022
5230 Clouds 5 1011 82 10000 3.88 291 10:22 22.02.2022
5231 Clouds 4 1009 81 10000 8.75 300 07:41 22.02.2022
5232 Clouds 4 1009 81 10000 6.54 303 07:23 22.02.2022
5233 Clouds 5 1004 70 10000 12.86 310 02:51 22.02.2022
5234 Clouds 5 1001 75 10000 12.35 320 00:44 22.02.2022
5235 Clouds 6 998 81 10000 11.32 310 22:38 21.02.2022
5236 Clouds 6 997 86 10000 8.34 305 21:24 21.02.2022
5237 Clouds 5 994 87 10000 8.75 290 20:19 21.02.2022
5238 Clouds 5 993 87 10000 9.77 300 18:40 21.02.2022
5239 Clouds 5 990 81 10000 10.8 270 16:40 21.02.2022
5240 Clouds 5 989 93 1966 7.68 257 14:24 21.02.2022
5241 Clouds 4 987 87 10000 10.29 260 13:56 21.02.2022
5242 Rain 4 987 87 10000 12.35 280 12:57 21.02.2022
5243 Rain 4 986 81 10000 13.38 270 12:22 21.02.2022
5244 Clouds 4 985 81 10000 13.89 270 10:35 21.02.2022
5245 Clouds 3 985 83 10000 10.17 264 08:31 21.02.2022
5246 Rain 7 976 93 10000 14.4 260 00:56 21.02.2022
5247 Rain 9 979 93 9000 11.32 220 22:45 20.02.2022
5248 Rain 9 982 93 8000 11.83 220 22:18 20.02.2022
5249 Rain 9 982 93 8000 11.83 220 21:40 20.02.2022
5250 Rain 8 984 93 10000 10.29 220 20:51 20.02.2022
5251 Rain 8 985 95 9880 9.84 223 20:21 20.02.2022
5252 Rain 8 988 96 10000 10.24 233 19:21 20.02.2022
5253 Rain 8 988 93 4800 10.8 250 18:42 20.02.2022
5254 Rain 8 989 95 10000 10.02 239 18:23 20.02.2022
5255 Clouds 8 989 95 10000 10.02 239 17:30 20.02.2022
5256 Rain 7 992 95 10000 10.32 245 15:30 20.02.2022
5257 Rain 7 991 100 2100 9.77 240 14:33 20.02.2022
5258 Rain 3 995 93 10000 8.75 180 13:22 20.02.2022
5259 Rain 4 995 96 10000 8.54 193 13:22 20.02.2022
5260 Rain 4 995 96 10000 8.54 193 13:22 20.02.2022
5261 Rain 3 997 93 10000 8.23 190 11:56 20.02.2022
5262 Rain 3 997 93 10000 8.23 190 11:56 20.02.2022
5263 Rain 3 997 93 10000 8.23 190 11:56 20.02.2022
5264 Rain 3 1001 88 10000 7.4 207 10:21 20.02.2022
5265 Rain 3 1000 93 10000 5.14 200 09:35 20.02.2022
5266 Clouds 1 1003 88 10000 3.27 222 06:30 20.02.2022
5267 Rain 2 1002 93 10000 6.69 220 00:32 20.02.2022
5268 Rain 3 1003 93 10000 6.69 240 23:33 19.02.2022
5269 Rain 3 1003 86 10000 6.49 235 22:24 19.02.2022
5270 Clouds 4 1003 86 10000 6.49 235 21:50 19.02.2022
5271 Clouds 4 1003 87 10000 8.75 260 20:41 19.02.2022
5272 Clouds 4 1003 81 10000 9.77 250 19:36 19.02.2022
5273 Rain 4 1003 87 2500 14.92 260 18:41 19.02.2022
5274 Clouds 5 1003 75 10000 11.83 250 17:58 19.02.2022
5275 Clouds 4 1003 84 10000 9.93 250 17:23 19.02.2022
5276 Clouds 6 1003 75 10000 15.43 260 15:59 19.02.2022
5277 Clouds 6 1002 81 10000 12.86 260 14:55 19.02.2022
5278 Rain 5 1002 75 10000 12.35 260 13:58 19.02.2022
5279 Clouds 5 1001 75 10000 14.4 280 11:58 19.02.2022
5280 Clouds 6 1001 79 10000 10.01 267 11:29 19.02.2022
5281 Clouds 4 998 78 10000 10.83 280 09:21 19.02.2022
5282 Clouds 4 991 81 10000 16.98 290 06:51 19.02.2022
5283 Clouds 5 977 87 7000 17.49 260 00:55 19.02.2022
5284 Clouds 5 976 87 10000 19.55 260 22:41 18.02.2022
5285 Clouds 6 974 85 10000 16.4 249 21:27 18.02.2022
5286 Rain 6 974 85 10000 16.4 249 20:31 18.02.2022
5287 Rain 6 975 81 7000 12.35 240 19:51 18.02.2022
5288 Rain 6 975 81 7000 12.35 240 19:51 18.02.2022
5289 Rain 6 977 87 6000 11.83 250 18:39 18.02.2022
5290 Clouds 7 979 81 10000 11.83 230 18:19 18.02.2022
5291 Clouds 7 980 80 10000 13.91 236 17:20 18.02.2022
5292 Rain 4 986 93 10000 5.14 170 14:39 18.02.2022
5293 Rain 4 989 93 7000 8.75 150 13:47 18.02.2022
5294 Rain 4 993 93 10000 7.72 180 12:51 18.02.2022
5295 Rain 5 995 87 10000 4.63 190 11:57 18.02.2022
5296 Rain 5 997 81 10000 5.66 200 10:47 18.02.2022
5297 Clouds 4 1000 89 10000 5.37 219 09:29 18.02.2022
5298 Clouds 5 1001 81 10000 7.2 250 06:50 18.02.2022
5299 Clouds 5 1001 81 10000 8.23 260 05:36 18.02.2022
5300 Clouds 5 998 81 10000 12.35 280 22:43 17.02.2022
5301 Clouds 5 998 87 10000 14.4 300 21:42 17.02.2022
5302 Clouds 5 996 81 10000 15.95 290 20:52 17.02.2022
5303 Clouds 5 996 81 10000 15.95 290 20:33 17.02.2022
5304 Rain 5 995 81 10000 20.58 280 19:43 17.02.2022
5305 Rain 5 994 81 10000 18.01 280 18:34 17.02.2022
5306 Rain 6 993 81 2300 16.46 270 17:46 17.02.2022
5307 Clouds 6 993 80 10000 11.88 275 16:20 17.02.2022
5308 Clouds 6 991 81 10000 16.46 290 14:39 17.02.2022
5309 Rain 6 990 76 10000 15.95 290 13:47 17.02.2022
5310 Clouds 6 988 87 10000 13.89 290 11:59 17.02.2022
5311 Rain 6 988 83 10000 8.73 283 11:21 17.02.2022
5312 Clouds 6 981 87 10000 11.83 320 08:37 17.02.2022
5313 Clouds 8 974 81 10000 15.13 259 00:29 17.02.2022
5314 Clouds 10 973 87 4600 16.98 250 22:39 16.02.2022
5315 Rain 9 977 93 8000 11.83 230 20:39 16.02.2022
5316 Rain 9 979 94 6110 11.61 232 19:32 16.02.2022
5317 Rain 9 981 87 6000 13.38 250 18:36 16.02.2022
5318 -273 0 0 0 0 0 17:35 16.02.2022
5319 -273 0 0 0 0 0 17:35 16.02.2022
5320 Clouds 10 984 87 10000 12.55 252 15:26 16.02.2022
5321 Clouds 9 982 87 10000 16.46 260 14:57 16.02.2022
5322 Rain 9 982 93 8000 11.32 230 12:34 16.02.2022
5323 Clouds 7 983 100 5000 8.23 190 11:53 16.02.2022
5324 Rain 7 986 95 10000 7.43 194 11:23 16.02.2022
5325 Rain 6 989 97 5527 5.7 148 10:29 16.02.2022
5326 Rain 5 994 87 10000 5.66 210 06:57 16.02.2022
5327 Clouds 5 996 93 10000 5.66 230 04:42 16.02.2022
5328 Rain 5 997 87 10000 9.26 240 23:35 15.02.2022
5329 Clouds 5 998 87 6000 10.29 210 22:18 15.02.2022
5330 Rain 5 998 87 6000 10.29 210 21:45 15.02.2022
5331 Rain 5 999 96 633 10.87 202 21:27 15.02.2022
5332 Rain 5 998 87 9000 9.26 200 20:53 15.02.2022
5333 Rain 6 999 81 10000 9.26 200 19:55 15.02.2022
5334 Rain 7 1000 70 10000 7.72 190 18:52 15.02.2022
5335 Clouds 6 1002 75 10000 7.72 210 18:19 15.02.2022
5336 Clouds 6 1002 75 10000 7.72 210 17:48 15.02.2022
5337 Clouds 7 1002 80 10000 7.96 211 16:32 15.02.2022
5338 Clouds 7 1004 79 10000 8 228 15:22 15.02.2022
5339 Clouds 7 1005 65 10000 6.12 229 13:26 15.02.2022
5340 Clouds 7 1004 65 10000 8.75 260 11:57 15.02.2022
5341 Clouds 6 1004 75 10000 7.72 260 10:59 15.02.2022
5342 Clouds 5 1004 68 10000 6.93 265 09:28 15.02.2022
5343 Clouds 5 1001 93 10000 10.29 270 06:52 15.02.2022
5344 Rain 6 997 93 9000 11.32 240 03:55 15.02.2022
5345 Clouds 7 998 70 10000 8.23 220 22:36 14.02.2022
5346 Clouds 7 998 66 10000 7.2 210 21:36 14.02.2022
5347 Clouds 7 998 66 10000 8.23 220 20:37 14.02.2022
5348 Clouds 7 999 84 10000 8.11 220 19:34 14.02.2022
5349 Clouds 8 998 76 10000 8.75 240 18:42 14.02.2022
5350 Clouds 8 998 84 10000 7.88 217 18:22 14.02.2022
5351 Clouds 9 997 82 10000 7.29 219 17:26 14.02.2022
5352 Clouds 9 997 84 10000 7.56 220 16:24 14.02.2022
5353 Clouds 9 997 84 10000 9.07 222 14:29 14.02.2022
5354 Clouds 10 997 84 10000 9.07 222 13:31 14.02.2022
5355 Clouds 10 995 62 10000 8.75 200 12:52 14.02.2022
5356 Clouds 10 995 62 10000 8.23 190 11:54 14.02.2022
5357 Clouds 9 995 66 10000 7.72 190 10:56 14.02.2022
5358 Clouds 8 995 66 10000 8.75 180 08:45 14.02.2022
5359 Clouds 8 996 75 10000 7.71 189 07:32 14.02.2022
5360 Clouds 8 996 66 10000 8.75 180 05:56 14.02.2022
5361 Clouds 6 1001 61 10000 9.26 190 22:43 13.02.2022
5362 Clouds 6 1002 72 10000 7.91 187 22:25 13.02.2022
5363 Clouds 5 1002 72 10000 7.91 187 21:32 13.02.2022
5364 Clouds 5 1002 60 10000 7.72 190 20:40 13.02.2022
5365 Clouds 5 1003 60 10000 8.23 190 19:51 13.02.2022
5366 Clouds 5 1004 65 10000 6.69 190 18:54 13.02.2022
5367 Clouds 5 1004 65 10000 6.69 190 18:35 13.02.2022
5368 Clouds 6 1005 61 10000 5.66 200 16:38 13.02.2022
5369 Clouds 5 1007 65 10000 6.91 207 15:27 13.02.2022
5370 Clouds 5 1007 65 10000 7.2 220 14:37 13.02.2022
5371 Clouds 4 1009 65 10000 7.2 220 12:52 13.02.2022
5372 Clouds 3 1010 67 10000 7.43 210 12:33 13.02.2022
5373 Clouds 2 1010 75 10000 6.17 210 10:38 13.02.2022
5374 Clouds 2 1010 69 10000 6.17 200 09:49 13.02.2022
5375 Clouds 1 1010 69 10000 7.2 210 07:54 13.02.2022
5376 Clouds 2 1015 73 10000 8.27 201 01:24 13.02.2022
5377 Clouds 2 1016 69 10000 8.33 205 00:21 13.02.2022
5378 Clouds 2 1016 69 10000 8.23 200 22:34 12.02.2022
5379 Clouds 3 1017 65 10000 8.75 200 21:40 12.02.2022
5380 Clouds 3 1018 65 10000 9.26 200 20:55 12.02.2022
5381 Clouds 3 1019 65 10000 6.69 190 19:56 12.02.2022
5382 Clouds 3 1020 65 10000 7.72 190 18:54 12.02.2022
5383 Clouds 3 1020 65 10000 7.72 190 18:36 12.02.2022
5384 Clouds 3 1020 60 10000 6.17 200 17:39 12.02.2022
5385 Clouds 4 1021 60 10000 7.2 210 16:45 12.02.2022
5386 Clouds 5 1022 60 10000 7.72 220 15:53 12.02.2022
5387 Clouds 5 1023 64 10000 7.97 211 15:20 12.02.2022
5388 Clouds 5 1024 65 10000 8.18 214 14:25 12.02.2022
5389 Clouds 4 1026 69 10000 8.08 213 11:31 12.02.2022
5390 Clouds 2 1026 73 10000 7.57 211 10:32 12.02.2022
5391 Clouds 1 1026 80 10000 6.17 200 09:37 12.02.2022
5392 Clouds 1 1027 75 10000 6.17 200 08:46 12.02.2022
5393 Clouds 0 1027 75 10000 6.17 200 07:44 12.02.2022
5394 Clouds 0 1029 75 10000 6.17 210 04:47 12.02.2022
5395 Clear -1 1030 75 10000 7.2 230 02:19 12.02.2022
5396 Clear -1 1030 80 10000 4.12 230 23:34 11.02.2022
5397 Clear -1 1031 82 10000 2.71 248 22:23 11.02.2022
5398 Clear -1 1030 86 10000 4.63 280 21:34 11.02.2022
5399 Clear 0 1030 80 10000 2.79 294 20:28 11.02.2022
5400 Clear 1 1029 80 10000 3.39 295 19:29 11.02.2022
5401 Clear 2 1028 69 10000 6.17 310 18:44 11.02.2022
5402 Clear 3 1027 70 10000 4.88 315 17:27 11.02.2022
5403 Clear 4 1026 60 10000 8.75 330 16:47 11.02.2022
5404 Clear 5 1025 66 10000 6.03 324 15:26 11.02.2022
5405 Clear 5 1024 56 10000 9.77 340 14:38 11.02.2022
5406 Clear 5 1024 67 10000 6.06 329 14:20 11.02.2022
5407 Clear 5 1022 65 10000 9.26 340 13:47 11.02.2022
5408 Clouds 4 1023 68 10000 6.27 334 13:28 11.02.2022
5409 Clouds 3 1021 90 10000 4.98 353 11:26 11.02.2022
5410 Clouds 2 1017 93 10000 2.06 260 09:38 11.02.2022
5411 Clouds 1 1016 100 8000 1.03 280 08:39 11.02.2022
5412 Clouds 1 1016 97 10000 2.81 230 08:21 11.02.2022
5413 Clouds 1 1016 96 10000 2.96 231 06:31 11.02.2022
5414 Clear 2 1015 93 10000 3.85 230 02:25 11.02.2022
5415 Clouds 3 1014 87 10000 3.6 240 00:46 11.02.2022
5416 Clouds 3 1015 87 10000 6.17 250 22:45 10.02.2022
5417 Clouds 3 1015 87 10000 5.66 260 21:44 10.02.2022
5418 Clouds 3 1015 87 10000 6.69 250 20:52 10.02.2022
5419 Clouds 3 1015 83 10000 4.98 261 20:29 10.02.2022
5420 Clouds 3 1015 82 10000 5.37 258 19:24 10.02.2022
5421 Clouds 4 1014 87 10000 5.66 250 18:43 10.02.2022
5422 Clouds 5 1014 82 10000 5.4 265 17:26 10.02.2022
5423 Clouds 5 1014 81 10000 6.69 270 16:47 10.02.2022
5424 Clouds 6 1014 80 10000 5.9 267 15:47 10.02.2022
5425 Clouds 6 1014 78 10000 5.9 267 15:28 10.02.2022
5426 Clouds 6 1013 70 10000 11.32 280 14:46 10.02.2022
5427 Clouds 6 1014 77 10000 6.21 268 14:23 10.02.2022
5428 Clouds 7 1014 78 10000 6.23 266 13:22 10.02.2022
5429 Clouds 7 1014 80 10000 5.39 263 12:23 10.02.2022
5430 Clouds 6 1014 81 10000 7.72 260 11:33 10.02.2022
5431 Clouds 6 1014 81 10000 6.17 250 10:35 10.02.2022
5432 Clouds 5 1014 87 10000 6.17 260 09:50 10.02.2022
5433 Clouds 5 1014 87 10000 5.66 260 09:18 10.02.2022
5434 Clouds 5 1014 87 10000 6.17 250 06:50 10.02.2022
5435 Clouds 4 1016 81 10000 5.14 230 03:55 10.02.2022
5436 Clouds 4 1017 87 10000 7.2 250 01:43 10.02.2022
5437 Clouds 4 1017 93 10000 6.69 250 00:42 10.02.2022
5438 Clouds 4 1019 94 10000 4.16 245 00:24 10.02.2022
5439 Clouds 4 1018 93 10000 6.69 260 22:58 09.02.2022
5440 Clouds 5 1018 93 10000 6.69 260 22:34 09.02.2022
5441 Clouds 5 1018 93 10000 8.23 270 21:49 09.02.2022
5442 Clouds 5 1019 88 10000 5.11 261 21:28 09.02.2022
5443 Clouds 5 1019 88 10000 5.11 261 20:47 09.02.2022
5444 Clouds 5 1019 88 10000 5.66 265 20:24 09.02.2022
5445 Clouds 6 1018 87 10000 9.26 280 19:44 09.02.2022
5446 Clouds 6 1017 93 10000 9.26 270 18:58 09.02.2022
5447 Clouds 7 1018 91 10000 6.29 267 17:32 09.02.2022
5448 Clouds 8 1018 88 10000 6.95 268 16:32 09.02.2022
5449 Clouds 8 1017 86 10000 7.32 269 15:33 09.02.2022
5450 Clouds 7 1017 93 10000 7.92 256 14:25 09.02.2022
5451 Clouds 7 1016 93 10000 8.94 253 12:27 09.02.2022
5452 Clouds 7 1016 93 4200 11.83 250 10:47 09.02.2022
5453 Clouds 7 1015 93 8000 11.83 250 09:59 09.02.2022
5454 Clouds 7 1016 91 10000 9.89 244 09:23 09.02.2022
5455 Clouds 7 1016 100 2400 11.32 250 08:58 09.02.2022
5456 Rain 7 1016 91 10000 10.1 239 07:47 09.02.2022
5457 Rain 7 1016 94 10000 9.2 238 05:30 09.02.2022
5458 Rain 7 1016 94 10000 9.2 238 05:30 09.02.2022
5459 Rain 7 1017 100 4100 9.77 260 03:50 09.02.2022
5460 Clouds 7 1019 96 10000 5.39 241 00:23 09.02.2022
5461 Clouds 7 1019 96 10000 5.39 241 23:30 08.02.2022
5462 Clouds 7 1018 93 10000 8.23 250 22:46 08.02.2022
5463 Clouds 7 1019 97 1243 5.61 246 22:21 08.02.2022
5464 Clouds 7 1018 87 10000 6.69 250 21:38 08.02.2022
5465 Clouds 7 1018 87 10000 6.69 250 21:38 08.02.2022
5466 Clouds 7 1018 87 10000 7.72 250 21:19 08.02.2022
5467 Clouds 7 1018 87 10000 7.72 250 20:41 08.02.2022
5468 Clouds 7 1018 87 10000 9.26 270 19:45 08.02.2022
5469 Clouds 7 1018 87 10000 9.77 270 18:35 08.02.2022
5470 Clouds 7 1017 87 10000 9.26 270 17:38 08.02.2022
5471 Clouds 8 1017 85 10000 7.16 274 16:22 08.02.2022
5472 Clouds 8 1017 87 10000 7.24 274 15:29 08.02.2022
5473 Clouds 8 1016 91 10000 7.68 271 14:26 08.02.2022
5474 Clouds 8 1015 93 7000 13.89 290 12:41 08.02.2022
5475 Clouds 8 1015 91 10000 8.88 270 11:28 08.02.2022
5476 Clouds 8 1013 93 10000 14.4 270 10:18 08.02.2022
5477 Clouds 7 1013 93 10000 14.4 270 09:41 08.02.2022
5478 Clouds 7 1013 93 10000 13.89 260 07:37 08.02.2022
5479 Clouds 7 1014 93 10000 11.32 250 05:37 08.02.2022
5480 Clouds 6 1015 100 9000 11.83 250 04:39 08.02.2022
5481 Clouds 6 1016 94 10000 9.32 242 04:21 08.02.2022
5482 Clouds 5 1015 93 10000 9.77 250 03:36 08.02.2022
5483 Clouds 5 1016 93 10000 10.29 240 03:18 08.02.2022
5484 Clouds 5 1016 93 10000 10.29 240 02:58 08.02.2022
5485 Clouds 5 1016 93 10000 10.29 240 02:36 08.02.2022
5486 Clouds 5 1017 87 10000 9.26 240 02:18 08.02.2022
5487 Clouds 5 1017 87 10000 9.26 240 01:43 08.02.2022
5488 Clouds 5 1018 85 10000 7.95 236 01:24 08.02.2022
5489 Clouds 5 1018 87 10000 8.23 250 00:49 08.02.2022
5490 Clouds 5 1018 87 10000 6.69 250 23:54 07.02.2022
5491 Clouds 5 1019 84 10000 7.21 250 23:36 07.02.2022
5492 Clouds 5 1018 87 10000 8.75 260 23:18 07.02.2022
5493 Clouds 5 1018 81 10000 6.69 260 22:19 07.02.2022
5494 Clouds 5 1018 81 10000 6.69 260 21:53 07.02.2022
5495 Clouds 4 1019 89 10000 6.39 266 21:29 07.02.2022
5496 Clouds 4 1018 81 10000 8.75 280 20:56 07.02.2022
5497 Clouds 4 1018 81 10000 8.75 280 20:38 07.02.2022
5498 Clouds 5 1018 75 10000 9.77 280 19:49 07.02.2022
5499 Clouds 4 1019 83 10000 6.46 277 19:31 07.02.2022
5500 Clouds 5 1016 75 10000 8.75 290 17:52 07.02.2022
5501 Clouds 6 1015 65 10000 14.4 300 16:52 07.02.2022
5502 Clear 6 1014 65 10000 14.92 310 15:49 07.02.2022
5503 Clear 6 1013 61 10000 16.46 310 14:55 07.02.2022
5504 Clear 7 1013 66 10000 9.91 295 13:28 07.02.2022
5505 Clear 6 1011 65 10000 16.46 310 12:42 07.02.2022
5506 Clear 5 1010 65 10000 11.83 320 11:58 07.02.2022
5507 Clear 5 1010 65 10000 11.83 320 11:35 07.02.2022
5508 Clear 4 1009 87 10000 9.26 330 10:50 07.02.2022
5509 Clear 4 1011 70 10000 9.62 304 10:30 07.02.2022
5510 Clear 4 1008 75 10000 11.32 300 09:53 07.02.2022
5511 Clear 3 1006 87 10000 5.14 320 09:18 07.02.2022
5512 Clear 3 1006 87 10000 5.14 320 08:36 07.02.2022
5513 Clouds 3 1003 87 10000 10.8 310 06:54 07.02.2022
5514 Clouds 3 1003 87 10000 10.8 310 06:34 07.02.2022
5515 Clouds 2 996 93 10000 8.23 300 02:58 07.02.2022
5516 Clouds 1 993 93 10000 7.72 280 00:45 07.02.2022
5517 Clouds 1 993 93 10000 7.72 280 00:45 07.02.2022
5518 Clouds 1 992 93 10000 9.26 290 23:47 06.02.2022
5519 Clouds 1 991 100 10000 11.32 320 22:48 06.02.2022
5520 Rain 2 990 93 10000 8.75 280 21:55 06.02.2022
5521 Clouds 2 990 93 10000 8.75 280 21:35 06.02.2022
5522 Rain 2 989 93 10000 6.17 290 20:54 06.02.2022
5523 Rain 2 990 81 10000 6.11 304 20:31 06.02.2022
5524 Rain 4 988 87 10000 9.26 300 19:38 06.02.2022
5525 Rain 4 988 81 10000 7.2 260 18:40 06.02.2022
5526 Clouds 4 988 81 10000 8.75 270 17:56 06.02.2022
5527 Clouds 5 988 87 10000 8.75 280 17:19 06.02.2022
5528 Clouds 5 988 87 10000 8.75 280 16:38 06.02.2022
5529 Clouds 6 988 81 10000 9.77 280 15:49 06.02.2022
5530 Clouds 6 988 79 10000 5.45 265 15:26 06.02.2022
5531 Clouds 6 988 87 10000 9.26 260 14:45 06.02.2022
5532 Rain 6 990 84 10000 7.89 256 13:26 06.02.2022
5533 Clouds 6 990 87 10000 7.2 250 12:58 06.02.2022
5534 Clouds 6 991 87 10000 8.23 250 11:35 06.02.2022
5535 Clouds 6 992 85 10000 6.98 246 10:31 06.02.2022
5536 Clouds 6 994 89 10000 6.15 249 09:25 06.02.2022
5537 Clouds 5 994 89 10000 6.15 249 08:30 06.02.2022
5538 Rain 6 994 93 10000 9.26 280 05:33 06.02.2022
5539 Clouds 7 997 93 5000 13.89 260 03:18 06.02.2022
5540 Rain 7 997 93 10000 10.6 246 02:24 06.02.2022
5541 Rain 6 999 93 10000 11.65 250 00:29 06.02.2022
5542 Rain 6 1001 93 6000 12.86 240 22:36 05.02.2022
5543 Rain 5 1002 93 9000 12.86 240 21:33 05.02.2022
5544 Rain 5 1004 96 528 11.04 231 20:25 05.02.2022
5545 Rain 5 1004 93 5000 12.86 240 19:49 05.02.2022
5546 Rain 5 1005 87 10000 12.35 240 19:18 05.02.2022
5547 Clouds 5 1006 81 8000 11.32 240 17:45 05.02.2022
5548 Clouds 5 1007 86 10000 10.3 237 17:27 05.02.2022
5549 Clouds 5 1008 81 10000 12.86 250 15:42 05.02.2022
5550 Clouds 6 1009 82 10000 9.1 244 15:24 05.02.2022
5551 Clouds 6 1009 75 10000 10.29 260 12:54 05.02.2022
5552 Clouds 5 1009 75 10000 10.29 260 12:34 05.02.2022
5553 Clouds 5 1009 75 10000 9.26 260 10:57 05.02.2022
5554 Clouds 5 1009 75 10000 9.26 260 10:38 05.02.2022
5555 Clouds 4 1008 81 10000 8.23 260 09:47 05.02.2022
5556 Clouds 3 1009 81 10000 7.48 269 08:21 05.02.2022
5557 Clouds 3 1006 87 10000 9.26 270 06:58 05.02.2022
5558 Clouds 2 1006 87 10000 9.77 270 05:38 05.02.2022
5559 Clouds 3 1003 87 10000 9.77 260 01:40 05.02.2022
5560 Clouds 3 1002 87 10000 10.29 270 01:18 05.02.2022
5561 Rain 3 1002 87 10000 8.75 270 23:59 04.02.2022
5562 Clouds 3 1002 87 10000 8.75 270 23:33 04.02.2022
5563 Clouds 3 1000 93 10000 8.23 260 22:18 04.02.2022
5564 Clouds 3 1000 93 10000 8.23 260 21:36 04.02.2022
5565 Clouds 2 1000 100 10000 7.2 260 21:18 04.02.2022
5566 Clouds 2 1000 88 10000 5.5 268 20:21 04.02.2022
5567 Rain 3 999 96 852 5.81 311 18:27 04.02.2022
5568 Rain 6 996 93 6000 10.29 280 15:55 04.02.2022
5569 Rain 6 997 93 5000 9.77 230 14:56 04.02.2022
5570 Rain 7 998 90 10000 9.9 219 14:24 04.02.2022
5571 Clouds 7 999 93 3800 10.29 230 12:43 04.02.2022
5572 Rain 7 1000 93 5000 8.75 230 11:43 04.02.2022
5573 Clouds 7 1001 93 10000 9.26 230 10:48 04.02.2022
5574 Clouds 7 1002 87 10000 9.26 230 08:50 04.02.2022
5575 Clouds 6 1003 87 10000 7.2 220 06:58 04.02.2022
5576 Clouds 6 1005 100 9000 5.66 240 02:54 04.02.2022
5577 Clouds 6 1006 93 10000 6.42 236 02:20 04.02.2022
5578 Clouds 6 1006 96 10000 5.45 232 23:32 03.02.2022
5579 Clouds 6 1006 100 2900 5.14 240 22:48 03.02.2022
5580 Clouds 6 1006 100 6000 5.66 250 21:50 03.02.2022
5581 Clouds 6 1006 100 5000 5.66 250 20:50 03.02.2022
5582 Clouds 6 1007 97 10000 5.32 235 20:21 03.02.2022
5583 Clouds 6 1006 100 4500 5.66 240 19:34 03.02.2022
5584 Clouds 6 1007 100 3900 5.66 240 18:48 03.02.2022
5585 Clouds 6 1007 100 5000 5.66 240 17:51 03.02.2022
5586 Clouds 7 1007 93 5000 6.17 240 16:46 03.02.2022
5587 Clouds 7 1008 93 4700 7.2 240 14:55 03.02.2022
5588 Clouds 7 1009 100 4600 9.77 250 13:19 03.02.2022
5589 Rain 7 1009 100 5000 8.75 250 11:44 03.02.2022
5590 Rain 6 1010 93 6000 6.69 190 08:55 03.02.2022
5591 Rain 5 1011 100 5000 5.14 190 07:41 03.02.2022
5592 Clouds 5 1015 93 10000 8.23 260 00:35 03.02.2022
5593 Clouds 4 1015 93 10000 9.26 250 23:47 02.02.2022
5594 Clouds 4 1015 87 10000 8.75 250 22:38 02.02.2022
5595 Clouds 4 1015 81 10000 7.2 250 21:42 02.02.2022
5596 Clouds 3 1016 90 10000 4.34 245 21:24 02.02.2022
5597 Clouds 3 1016 88 10000 3.53 251 20:20 02.02.2022
5598 Clouds 3 1015 81 10000 8.75 290 19:45 02.02.2022
5599 Clouds 4 1015 81 10000 9.26 290 18:55 02.02.2022
5600 Clouds 4 1015 80 10000 4.72 286 18:23 02.02.2022
5601 Clouds 5 1015 73 10000 6.36 304 17:20 02.02.2022
5602 Clouds 5 1014 70 10000 10.29 310 16:54 02.02.2022
5603 Clouds 6 1012 61 10000 13.38 320 14:42 02.02.2022
5604 Clouds 6 1010 66 10000 8.42 311 12:29 02.02.2022
5605 Clouds 6 1009 70 10000 11.83 320 11:44 02.02.2022
5606 Clouds 6 1010 68 10000 8.6 315 11:24 02.02.2022
5607 Clouds 5 1006 74 10000 11.16 314 08:27 02.02.2022
5608 Clouds 6 999 81 10000 13.89 300 01:46 02.02.2022
5609 Clouds 5 999 78 10000 10.98 300 22:29 01.02.2022
5610 Clouds 7 996 76 10000 15.43 300 20:50 01.02.2022
5611 Clouds 6 997 80 10000 11.34 301 19:23 01.02.2022
5612 Rain 7 995 81 10000 18.52 300 16:57 01.02.2022
5613 Clouds 7 995 87 10000 16.98 290 16:19 01.02.2022
5614 Clouds 6 997 100 10000 14.4 280 12:57 01.02.2022
5615 Clouds 5 999 93 4000 10.8 240 11:57 01.02.2022
5616 Clouds 4 1006 87 10000 7.2 240 08:52 01.02.2022
5617 Clouds 2 1012 78 10000 4.94 304 02:20 01.02.2022
5618 Clouds 2 1010 93 10000 6.69 260 23:37 31.01.2022
5619 Clouds 1 1011 93 10000 6.69 270 22:33 31.01.2022
5620 Clouds 2 1011 93 10000 5.66 290 21:35 31.01.2022
5621 Clouds 2 1011 93 10000 5.66 290 21:35 31.01.2022
5622 Clouds 2 1011 87 10000 5.66 310 20:35 31.01.2022
5623 Clouds 2 1010 93 10000 5.14 310 19:58 31.01.2022
5624 Clouds 2 1010 84 10000 3.34 318 18:32 31.01.2022
5625 Clouds 2 1010 85 10000 3.12 308 18:32 31.01.2022
5626 Clouds 3 1008 87 10000 3.6 340 17:57 31.01.2022
5627 Clouds 3 1008 87 10000 3.6 340 17:57 31.01.2022
5628 Clouds 3 1008 82 10000 2.59 13 17:24 31.01.2022
5629 Clouds 3 1007 84 10000 3.65 33 16:23 31.01.2022
5630 Clouds 3 1006 87 10000 2.06 40 14:53 31.01.2022
5631 Clouds 3 1005 87 10000 1.54 40 13:34 31.01.2022
5632 Clouds 3 1004 87 10000 2.06 100 12:38 31.01.2022
5633 Clouds 2 1002 97 329 4.03 109 11:26 31.01.2022
5634 Clouds 2 1002 93 10000 3.09 120 10:48 31.01.2022
5635 Clouds 1 1002 100 10000 3.09 130 09:38 31.01.2022
5636 Clouds 1 1002 100 10000 4.12 140 08:56 31.01.2022
5637 Clouds 1 1001 97 29 4.89 131 08:20 31.01.2022
5638 Clouds 1 1001 100 10000 4.63 140 07:43 31.01.2022
5639 Clouds 2 1003 93 10000 5.14 160 05:33 31.01.2022
5640 Clouds 4 1012 75 10000 4.63 220 00:43 31.01.2022
5641 Clouds 4 1015 75 10000 8.75 270 22:33 30.01.2022
5642 Clouds 4 1017 75 10000 4.63 282 21:47 30.01.2022
5643 Clouds 4 1018 74 10000 5.27 286 21:26 30.01.2022
5644 Clouds 5 1017 65 10000 6.69 290 20:55 30.01.2022
5645 Clouds 4 1018 74 10000 5.27 286 20:31 30.01.2022
5646 Clouds 5 1018 65 10000 9.26 310 19:58 30.01.2022
5647 Clouds 5 1018 70 10000 10.8 320 18:52 30.01.2022
5648 Clouds 5 1019 72 10000 8.29 305 18:26 30.01.2022
5649 Clouds 5 1017 65 10000 11.83 320 17:40 30.01.2022
5650 Clear 5 1018 65 10000 14.92 320 17:19 30.01.2022
5651 Clear 5 1018 65 10000 14.92 320 16:36 30.01.2022
5652 Clear 6 1018 61 10000 13.38 320 16:18 30.01.2022
5653 Clear 6 1018 61 10000 13.38 320 15:45 30.01.2022
5654 Clear 6 1019 62 10000 10.67 307 15:25 30.01.2022
5655 Clear 6 1018 61 10000 14.4 320 14:44 30.01.2022
5656 Clouds 6 1017 56 10000 18.52 330 12:46 30.01.2022
5657 Clouds 6 1016 61 10000 18.52 320 11:52 30.01.2022
5658 Clouds 6 1016 64 10000 13.44 314 10:27 30.01.2022
5659 Clouds 6 1013 61 10000 19.03 330 09:48 30.01.2022
5660 Clouds 6 1013 65 10000 16.46 320 08:48 30.01.2022
5661 Clouds 6 1010 65 10000 16.62 305 05:30 30.01.2022
5662 Clouds 6 1006 65 10000 23.15 300 01:55 30.01.2022
5663 Clouds 6 1005 87 10000 19.55 300 00:19 30.01.2022
5664 Clouds 6 1004 75 7000 20.58 300 22:58 29.01.2022
5665 Clouds 7 1004 70 10000 21.09 290 21:47 29.01.2022
5666 Clouds 7 1005 67 10000 15.38 290 21:23 29.01.2022
5667 Clouds 7 1004 70 10000 15.35 285 20:22 29.01.2022
5668 Rain 7 1003 70 10000 21.61 290 19:33 29.01.2022
5669 Clouds 8 1001 71 10000 22.64 300 18:51 29.01.2022
5670 Clouds 8 1000 81 10000 19.55 280 18:18 29.01.2022
5671 Clouds 9 1002 78 10000 15.19 270 17:28 29.01.2022
5672 Clouds 9 1001 81 10000 20.06 260 15:50 29.01.2022
5673 Clouds 8 1006 86 10000 13.95 258 14:23 29.01.2022
5674 Clouds 8 1003 93 10000 16.98 260 13:42 29.01.2022
5675 Clouds 8 1007 87 10000 13.16 252 13:23 29.01.2022
5676 Clouds 8 1007 93 10000 15.43 260 11:47 29.01.2022
5677 Clouds 8 1008 93 10000 14.4 260 10:54 29.01.2022
5678 Clouds 7 1010 100 7000 14.4 260 08:42 29.01.2022
5679 Clouds 7 1012 93 2900 13.89 250 06:55 29.01.2022
5680 Rain 5 1020 93 8000 7.72 230 00:35 29.01.2022
5681 Clouds 5 1021 87 10000 7.72 220 23:51 28.01.2022
5682 Clouds 5 1023 87 10000 6.17 220 22:50 28.01.2022
5683 Clouds 4 1024 90 10000 6.62 219 22:21 28.01.2022
5684 Clouds 4 1024 81 10000 5.66 210 21:36 28.01.2022
5685 Clouds 4 1026 83 10000 4.8 222 20:29 28.01.2022
5686 Clouds 4 1027 83 10000 3.92 230 19:29 28.01.2022
5687 Clouds 5 1026 75 10000 6.17 250 18:42 28.01.2022
5688 Clouds 5 1027 75 10000 6.69 300 16:54 28.01.2022
5689 Clouds 6 1028 70 10000 5.17 300 15:20 28.01.2022
5690 Clouds 6 1027 65 10000 6.69 290 13:50 28.01.2022
5691 Clouds 6 1027 67 10000 5.63 314 12:29 28.01.2022
5692 Clear 5 1026 70 10000 5.67 320 11:24 28.01.2022
5693 Clear 3 1025 81 10000 8.23 330 09:52 28.01.2022
5694 Clear 3 1023 71 10000 7.71 324 08:22 28.01.2022
5695 Clear 4 1022 70 10000 9.77 320 07:34 28.01.2022
5696 Clouds 5 1017 65 10000 14.4 320 03:57 28.01.2022
5697 Clouds 5 1017 66 10000 11.84 312 03:20 28.01.2022
5698 Clouds 5 1016 72 10000 11.94 309 02:22 28.01.2022
5699 Clouds 5 1016 72 10000 11.94 309 02:22 28.01.2022
5700 Clouds 5 1016 72 10000 11.94 309 01:31 28.01.2022
5701 Clouds 6 1012 75 10000 18.01 310 22:52 27.01.2022
5702 Clouds 6 1010 75 10000 18.01 310 21:47 27.01.2022
5703 Clouds 6 1011 74 10000 13.76 300 21:29 27.01.2022
5704 Clouds 6 1010 75 10000 13.24 293 20:26 27.01.2022
5705 Clouds 6 1008 75 10000 17.49 290 18:40 27.01.2022
5706 Clouds 6 1009 77 10000 12.39 288 17:55 27.01.2022
5707 Clouds 7 1008 76 10000 19.03 280 14:42 27.01.2022
5708 Clouds 8 1008 76 10000 19.03 290 13:35 27.01.2022
5709 Clouds 8 1008 76 10000 16.46 290 12:39 27.01.2022
5710 Clouds 8 1009 79 10000 10.6 286 10:23 27.01.2022
5711 Clouds 7 1008 93 6000 16.46 270 08:52 27.01.2022
5712 Clouds 7 1009 87 10000 11 274 08:30 27.01.2022
5713 Clouds 7 1009 87 10000 11 274 08:30 27.01.2022
5714 Clouds 6 1010 93 2200 15.43 260 05:59 27.01.2022
5715 Clouds 7 1013 81 5000 14.4 250 02:36 27.01.2022
5716 Clouds 6 1018 93 10000 10.29 260 22:44 26.01.2022
5717 Clouds 6 1019 93 10000 10.29 260 21:57 26.01.2022
5718 Clouds 6 1019 93 10000 10.29 260 21:33 26.01.2022
5719 Clouds 6 1019 93 10000 11.83 270 20:36 26.01.2022
5720 Clouds 6 1020 93 10000 12.35 270 19:55 26.01.2022
5721 Clouds 6 1020 83 10000 7.82 260 19:20 26.01.2022
5722 Clouds 6 1020 93 10000 11.32 270 18:45 26.01.2022
5723 Clouds 6 1021 93 10000 11.83 270 17:50 26.01.2022
5724 Clouds 6 1022 84 10000 7.39 267 17:22 26.01.2022
5725 Clouds 6 1022 84 10000 7.39 267 16:31 26.01.2022
5726 Clouds 6 1022 93 10000 12.35 280 15:49 26.01.2022
5727 Clouds 6 1022 93 10000 12.35 280 15:49 26.01.2022
5728 Clouds 5 1022 93 7000 10.29 260 13:58 26.01.2022
5729 Clouds 5 1024 87 9000 8.75 250 11:48 26.01.2022
5730 Clouds 4 1025 84 10000 6.79 258 10:28 26.01.2022
5731 Clouds 4 1024 93 3600 9.77 270 09:46 26.01.2022
5732 Clouds 4 1024 93 7000 10.29 270 07:44 26.01.2022
5733 Clouds 5 1027 77 10000 6.67 267 03:31 26.01.2022
5734 Clouds 5 1028 100 2100 7.72 270 23:57 25.01.2022
5735 Clouds 5 1028 100 6000 7.72 270 23:19 25.01.2022
5736 Rain 5 1029 93 10000 4.79 259 22:21 25.01.2022
5737 Rain 5 1028 93 10000 6.17 260 21:58 25.01.2022
5738 Clouds 6 1029 93 10000 5.14 260 20:47 25.01.2022
5739 Clouds 5 1029 93 10000 4.51 260 20:28 25.01.2022
5740 Clouds 5 1029 93 10000 4.51 260 20:28 25.01.2022
5741 Clouds 5 1029 93 10000 4.51 260 20:28 25.01.2022
5742 Clouds 6 1029 93 10000 5.66 270 19:52 25.01.2022
5743 Clouds 6 1029 93 10000 6.69 280 18:38 25.01.2022
5744 Clouds 6 1029 93 8000 7.2 290 17:45 25.01.2022
5745 Clouds 6 1029 93 10000 8.23 280 16:45 25.01.2022
5746 Clouds 6 1029 86 10000 5.31 266 16:21 25.01.2022
5747 Clouds 6 1029 93 10000 8.23 290 15:38 25.01.2022
5748 Clouds 6 1029 93 10000 7.2 290 14:57 25.01.2022
5749 Clouds 6 1030 100 10000 7.72 290 13:42 25.01.2022
5750 Clouds 6 1030 93 10000 5.66 270 10:58 25.01.2022
5751 Clouds 5 1030 93 10000 6.17 270 08:38 25.01.2022
5752 Clouds 5 1030 98 10000 3.92 269 07:29 25.01.2022
5753 Clouds 5 1030 87 10000 5.66 280 06:50 25.01.2022
5754 Clouds 5 1031 85 10000 5.76 283 05:22 25.01.2022
5755 Clouds 5 1031 87 10000 6.69 260 23:37 24.01.2022
5756 Clouds 5 1032 87 10000 6.17 250 23:19 24.01.2022
5757 Clouds 5 1032 87 10000 6.17 250 22:59 24.01.2022
5758 Clouds 5 1032 87 10000 6.17 250 22:41 24.01.2022
5759 Clouds 5 1032 87 10000 5.66 260 21:55 24.01.2022
5760 Clouds 5 1031 83 10000 4.2 265 21:29 24.01.2022
5761 Clouds 5 1031 93 10000 5.66 270 20:33 24.01.2022
5762 Clouds 5 1031 93 10000 6.17 290 19:57 24.01.2022
5763 Clouds 4 1032 80 10000 4.31 264 19:35 24.01.2022
5764 Clouds 5 1031 87 10000 6.69 270 18:35 24.01.2022
5765 Clouds 5 1032 73 10000 5.75 272 17:24 24.01.2022
5766 Clouds 5 1031 81 10000 6.69 270 16:55 24.01.2022
5767 Clouds 5 1031 75 10000 5.69 268 16:21 24.01.2022
5768 Clouds 5 1031 87 10000 7.2 250 14:45 24.01.2022
5769 Clouds 5 1031 87 10000 6.69 250 13:38 24.01.2022
5770 Clouds 5 1032 77 10000 5.25 255 12:32 24.01.2022
5771 Clouds 5 1032 79 10000 4.84 252 11:20 24.01.2022
5772 Clouds 5 1032 87 10000 5.14 240 09:49 24.01.2022
5773 Clouds 5 1032 75 10000 4.82 257 09:20 24.01.2022
5774 Clouds 5 1032 84 10000 4.07 248 07:20 24.01.2022
5775 Clouds 5 1032 85 10000 4.03 245 07:20 24.01.2022
5776 Clouds 5 1032 85 10000 4.03 245 07:20 24.01.2022
5777 Clouds 5 1033 96 10000 3.71 234 01:32 24.01.2022
5778 Clouds 6 1033 87 10000 5.14 250 00:46 24.01.2022
5779 Clouds 6 1033 96 10000 3.97 239 00:27 24.01.2022
5780 Clouds 6 1033 93 10000 5.66 260 22:46 23.01.2022
5781 Clouds 6 1033 93 10000 6.17 250 21:50 23.01.2022
5782 Clouds 6 1033 95 10000 3.55 244 21:27 23.01.2022
5783 Clouds 6 1033 93 10000 5.66 260 20:54 23.01.2022
5784 Clouds 6 1033 93 10000 5.14 260 19:55 23.01.2022
5785 Clouds 6 1033 93 10000 7.2 260 18:52 23.01.2022
5786 Clouds 6 1033 93 10000 7.2 270 17:54 23.01.2022
5787 Clouds 6 1032 93 10000 6.69 270 16:52 23.01.2022
5788 Clouds 7 1032 87 10000 6.17 280 15:45 23.01.2022
5789 Clouds 7 1032 87 10000 5.66 280 14:34 23.01.2022
5790 Clouds 7 1032 87 10000 7.2 270 13:43 23.01.2022
5791 Clouds 8 1032 87 10000 7.72 280 12:44 23.01.2022
5792 Clouds 7 1032 87 10000 6.69 290 12:19 23.01.2022
5793 Clouds 7 1033 88 10000 3.78 265 11:25 23.01.2022
5794 Clouds 6 1032 93 10000 5.66 290 10:57 23.01.2022
5795 Clouds 6 1032 91 10000 3.34 266 10:24 23.01.2022
5796 Clouds 6 1032 93 10000 3.22 268 09:26 23.01.2022
5797 Clouds 6 1030 100 10000 7.2 310 06:18 23.01.2022
5798 Clouds 6 1030 100 10000 5.14 290 03:34 23.01.2022
5799 Clouds 6 1029 100 8000 5.14 300 01:37 23.01.2022
5800 Clouds 6 1029 93 8000 6.17 300 00:47 23.01.2022
5801 Clouds 6 1029 93 4800 6.17 300 23:59 22.01.2022
5802 Clouds 6 1029 93 3900 5.66 290 22:49 22.01.2022
5803 Clouds 6 1029 93 10000 6.69 300 22:19 22.01.2022
5804 Clouds 6 1029 85 10000 4.33 287 20:33 22.01.2022
5805 Clouds 6 1028 93 10000 7.2 300 19:46 22.01.2022
5806 Clouds 6 1028 93 10000 7.72 300 18:38 22.01.2022
5807 Clouds 6 1028 93 9000 7.72 300 17:49 22.01.2022
5808 Clouds 6 1028 87 10000 4.67 288 17:29 22.01.2022
5809 Clouds 6 1028 93 10000 8.23 310 16:54 22.01.2022
5810 Clouds 6 1027 100 3300 6.69 300 15:45 22.01.2022
5811 Clouds 6 1027 93 2900 6.69 290 14:56 22.01.2022
5812 Clouds 7 1028 81 10000 4.51 295 13:31 22.01.2022
5813 Clouds 6 1027 100 2000 5.66 310 12:40 22.01.2022
5814 Clouds 6 1028 86 10000 4.88 300 12:20 22.01.2022
5815 Clouds 6 1027 93 9000 4.12 300 10:55 22.01.2022
5816 Clouds 6 1027 93 10000 4.97 302 10:27 22.01.2022
5817 Clouds 5 1027 100 10000 5.14 310 09:43 22.01.2022
5818 Clouds 5 1026 100 10000 5.66 310 08:51 22.01.2022
5819 Clouds 5 1026 98 10000 2.48 289 07:27 22.01.2022
5820 Clouds 5 1025 100 10000 2.57 290 04:50 22.01.2022
5821 Clouds 5 1024 100 10000 4.12 310 00:57 22.01.2022
5822 Clouds 6 1024 96 10000 4.95 313 23:21 21.01.2022
5823 Clouds 6 1023 93 4400 7.2 320 22:19 21.01.2022
5824 Clouds 6 1022 93 10000 9.26 310 19:55 21.01.2022
5825 Clouds 5 1022 95 10000 6.76 300 18:23 21.01.2022
5826 Clouds 5 1023 93 10000 7.2 260 17:18 21.01.2022
5827 Clouds 5 1024 90 10000 6.52 281 15:27 21.01.2022
5828 Clouds 5 1026 81 10000 7.2 290 13:18 21.01.2022
5829 Clear 4 1026 79 10000 4.83 295 12:28 21.01.2022
5830 Clear 3 1026 79 10000 4.31 304 11:27 21.01.2022
5831 Clear -1 1026 75 10000 6.69 300 09:46 21.01.2022
5832 Clear -2 1026 76 10000 3.06 305 08:22 21.01.2022
5833 Clear -1 1025 80 10000 5.66 330 04:49 21.01.2022
5834 Clear -2 1024 61 10000 4.49 305 23:27 20.01.2022
5835 Clear -1 1023 69 10000 6.69 320 21:50 20.01.2022
5836 Clear -1 1024 56 10000 4.48 313 21:32 20.01.2022
5837 Clear -1 1023 64 10000 7.72 330 20:40 20.01.2022
5838 Clear 0 1021 55 10000 6.69 330 19:19 20.01.2022
5839 Clear 0 1021 49 10000 5.44 328 18:23 20.01.2022
5840 Clear 1 1019 51 10000 8.23 340 16:53 20.01.2022
5841 Clear 2 1019 48 10000 8.09 337 15:41 20.01.2022
5842 Clear 3 1017 44 10000 11.32 350 14:41 20.01.2022
5843 Clear 3 1017 52 10000 9.77 350 13:41 20.01.2022
5844 Clouds 3 1016 56 10000 13.89 330 12:34 20.01.2022
5845 Clouds 3 1016 60 10000 13.38 320 11:50 20.01.2022
5846 Clouds 2 1016 69 10000 11.32 320 10:39 20.01.2022
5847 Clouds 2 1015 69 10000 9.26 320 09:37 20.01.2022
5848 Clear 1 1014 69 10000 12.86 320 07:51 20.01.2022
5849 Clouds 3 1011 87 10000 13.38 310 00:46 20.01.2022
5850 Clouds 3 1012 65 10000 9.44 304 23:28 19.01.2022
5851 Clouds 3 1011 64 10000 9.55 307 22:24 19.01.2022
5852 Rain 4 1010 70 10000 10.22 312 21:23 19.01.2022
5853 Clouds 5 1009 75 10000 12.35 310 20:49 19.01.2022
5854 Clouds 5 1008 87 10000 13.89 300 19:45 19.01.2022
5855 Clouds 6 1006 93 10000 18.52 290 18:40 19.01.2022
5856 Clouds 6 1007 93 10000 10.8 240 17:45 19.01.2022
5857 Clouds 5 1009 93 5000 10.8 240 16:48 19.01.2022
5858 Clouds 5 1012 93 8000 8.75 230 14:42 19.01.2022
5859 Clouds 5 1015 87 10000 8.23 240 12:43 19.01.2022
5860 Clouds 5 1017 87 8000 7.72 230 11:42 19.01.2022
5861 Clouds 4 1019 93 8000 8.75 240 10:35 19.01.2022
5862 Clouds 4 1020 87 8000 7.72 240 09:34 19.01.2022
5863 Clouds 3 1023 93 6000 8.23 240 06:56 19.01.2022
5864 Clouds 4 1025 93 5000 7.2 240 05:18 19.01.2022
5865 Clouds 4 1030 95 10000 5.39 233 23:20 18.01.2022
5866 Clouds 5 1030 93 10000 7.72 250 22:34 18.01.2022
5867 Clouds 5 1032 95 10000 4.52 239 21:20 18.01.2022
5868 Clouds 5 1032 93 10000 9.26 260 19:55 18.01.2022
5869 Clouds 5 1032 93 10000 9.26 260 19:37 18.01.2022
5870 Clouds 5 1032 87 10000 9.26 260 18:54 18.01.2022
5871 Clouds 6 1032 87 10000 9.26 270 17:58 18.01.2022
5872 Clouds 6 1033 93 10000 9.77 270 16:59 18.01.2022
5873 Clouds 6 1033 93 10000 9.77 270 15:48 18.01.2022
5874 Clouds 6 1033 93 10000 9.77 270 15:48 18.01.2022
5875 Clouds 6 1034 85 10000 5.53 261 15:22 18.01.2022
5876 Clouds 6 1034 86 10000 4.99 271 13:26 18.01.2022
5877 Clouds 6 1034 93 10000 8.23 290 10:48 18.01.2022
5878 Clouds 6 1033 97 10000 3.19 277 09:29 18.01.2022
5879 Clouds 6 1033 93 10000 5.66 310 07:58 18.01.2022
5880 Clouds 5 1033 93 10000 3.97 302 05:31 18.01.2022
5881 Clouds 5 1031 81 10000 6.17 320 23:55 17.01.2022
5882 Clouds 4 1031 83 10000 3.9 295 22:30 17.01.2022
5883 Clouds 4 1030 87 10000 6.17 310 21:36 17.01.2022
5884 Clouds 3 1030 80 10000 4.15 305 20:29 17.01.2022
5885 Clouds 3 1029 76 10000 5.3 318 18:31 17.01.2022
5886 Clouds 3 1027 75 10000 6.17 310 17:55 17.01.2022
5887 Clear 4 1026 75 10000 8.23 330 16:53 17.01.2022
5888 Clear 5 1025 66 10000 8.09 329 15:24 17.01.2022
5889 Clear 6 1024 61 10000 9.26 340 14:57 17.01.2022
5890 Clear 6 1025 65 10000 8.62 329 13:30 17.01.2022
5891 Clouds 6 1022 65 10000 13.38 340 12:57 17.01.2022
5892 Clouds 6 1022 70 10000 11.83 330 11:50 17.01.2022
5893 Clouds 6 1020 70 10000 11.83 330 10:43 17.01.2022
5894 Clouds 6 1018 81 10000 14.92 320 09:35 17.01.2022
5895 Clouds 7 1016 93 7000 18.01 330 08:18 17.01.2022
5896 Rain 7 1015 93 3700 18.01 290 07:19 17.01.2022
5897 Clouds 6 1017 81 10000 14.92 290 00:57 17.01.2022
5898 Clouds 6 1017 75 10000 14.92 290 22:53 16.01.2022
5899 Clouds 6 1016 75 10000 11.32 300 20:40 16.01.2022
5900 Clouds 6 1016 87 10000 11.83 300 19:44 16.01.2022
5901 Clouds 6 1015 93 10000 11.83 290 18:42 16.01.2022
5902 Clouds 6 1015 93 5000 11.83 270 17:45 16.01.2022
5903 Clouds 6 1015 93 10000 10.29 270 16:48 16.01.2022
5904 Clouds 7 1014 87 10000 11.83 280 15:34 16.01.2022
5905 Clouds 6 1015 84 10000 6.3 267 14:29 16.01.2022
5906 Clouds 5 1015 93 8000 6.69 260 12:51 16.01.2022
5907 Clouds 5 1015 93 3900 6.69 240 11:48 16.01.2022
5908 Clouds 4 1015 93 3200 7.2 240 10:58 16.01.2022
5909 Clouds 4 1015 89 10000 6.08 257 10:26 16.01.2022
5910 Clouds 4 1015 93 3900 6.69 240 09:56 16.01.2022
5911 Clouds 3 1015 93 10000 5.83 244 09:23 16.01.2022
5912 Clouds 3 1015 93 3800 7.2 240 08:47 16.01.2022
5913 Clouds 4 1017 93 8000 7.72 250 05:35 16.01.2022
5914 Clouds 3 1021 93 7000 2.57 220 23:51 15.01.2022
5915 Clouds 4 1022 93 10000 3.09 210 22:37 15.01.2022
5916 Clouds 3 1024 97 10000 3.23 201 21:21 15.01.2022
5917 Clouds 3 1023 93 3300 3.09 190 20:43 15.01.2022
5918 Clouds 3 1024 87 10000 2.57 200 19:58 15.01.2022
5919 Clouds 3 1025 96 10000 2.97 210 19:23 15.01.2022
5920 Clouds 4 1025 87 10000 3.6 230 17:49 15.01.2022
5921 Clouds 5 1025 75 10000 2.57 220 16:42 15.01.2022
5922 Clouds 6 1026 89 10000 2.45 232 14:32 15.01.2022
5923 Clouds 5 1027 84 10000 3.18 244 12:33 15.01.2022
5924 Clouds 2 1028 100 10000 3.09 250 11:19 15.01.2022
5925 Clouds 0 1029 92 10000 2.52 250 09:21 15.01.2022
5926 Clouds 1 1030 93 10000 2.85 280 01:25 15.01.2022
5927 Clear 2 1030 87 10000 4.63 300 21:57 14.01.2022
5928 Clear 2 1031 93 10000 4.12 300 20:54 14.01.2022
5929 Clear 3 1031 86 10000 4.11 315 20:23 14.01.2022
5930 Clear 4 1030 87 10000 5.14 320 19:49 14.01.2022
5931 Clouds 4 1030 81 10000 6.17 310 18:33 14.01.2022
5932 Clouds 6 1030 75 10000 7.72 310 16:56 14.01.2022
5933 Clouds 6 1030 75 10000 7.72 310 16:38 14.01.2022
5934 Clouds 7 1029 76 10000 8.75 310 14:50 14.01.2022
5935 Clouds 8 1028 81 10000 8.75 310 13:48 14.01.2022
5936 Clouds 8 1029 81 10000 8.75 320 12:37 14.01.2022
5937 Clouds 8 1028 93 3500 8.75 300 11:34 14.01.2022
5938 Clouds 7 1029 86 10000 7.79 313 10:22 14.01.2022
5939 Clouds 7 1026 93 10000 10.8 300 08:52 14.01.2022
5940 Clouds 7 1027 91 10000 7.15 283 07:27 14.01.2022
5941 Clouds 7 1028 87 10000 11.83 270 01:43 14.01.2022
5942 Clouds 7 1029 93 10000 11.32 280 23:39 13.01.2022
5943 Clouds 7 1029 87 10000 12.35 280 21:45 13.01.2022
5944 Clouds 7 1030 95 10000 6.99 263 21:27 13.01.2022
5945 Clouds 7 1030 87 10000 11.83 280 19:44 13.01.2022
5946 Clouds 7 1030 90 10000 6.5 267 19:23 13.01.2022
5947 Clouds 7 1030 87 10000 11.32 280 18:33 13.01.2022
5948 Clouds 7 1030 93 10000 11.32 280 16:48 13.01.2022
5949 Clouds 7 1030 87 10000 12.86 280 15:38 13.01.2022
5950 Clouds 7 1031 93 10000 11.83 290 14:50 13.01.2022
5951 Clouds 7 1031 93 10000 11.83 290 14:50 13.01.2022
5952 Clouds 7 1032 89 10000 8.4 276 13:22 13.01.2022
5953 Clouds 7 1032 92 10000 7.21 274 10:29 13.01.2022
5954 Clouds 7 1032 93 10000 7.1 273 09:22 13.01.2022
5955 Clouds 7 1032 94 10000 7.16 273 08:28 13.01.2022
5956 Clouds 7 1031 93 10000 12.86 280 07:58 13.01.2022
5957 Clouds 7 1031 93 10000 12.35 280 07:18 13.01.2022
5958 Clouds 7 1032 94 10000 6.96 271 05:20 13.01.2022
5959 Clouds 7 1032 93 10000 10.8 270 03:33 13.01.2022
5960 Clouds 7 1033 93 7000 9.77 270 00:57 13.01.2022
5961 Clouds 7 1033 93 7000 10.29 270 23:53 12.01.2022
5962 Clouds 7 1033 96 10000 6.01 257 23:32 12.01.2022
5963 Clouds 7 1033 93 10000 8.75 270 21:58 12.01.2022
5964 Clouds 7 1033 93 10000 8.75 270 21:39 12.01.2022
5965 Clouds 7 1033 93 10000 7.72 260 21:18 12.01.2022
5966 Clouds 6 1033 93 10000 7.72 260 20:41 12.01.2022
5967 Clouds 6 1034 100 10000 8.75 270 18:48 12.01.2022
5968 Clouds 6 1033 93 10000 10.29 280 17:53 12.01.2022
5969 Clouds 6 1033 93 10000 9.26 270 16:43 12.01.2022
5970 Clouds 6 1033 93 10000 9.26 270 14:49 12.01.2022
5971 Clouds 6 1034 100 10000 7.72 260 13:40 12.01.2022
5972 Clouds 5 1034 100 10000 4.12 250 12:56 12.01.2022
5973 Clouds 2 1034 94 10000 3.01 255 09:26 12.01.2022
5974 Clouds 3 1033 100 350 2.57 270 07:57 12.01.2022
5975 Clouds 2 1034 94 10000 2.58 263 07:33 12.01.2022
5976 Clouds 4 1032 99 2729 3.6 232 02:20 12.01.2022
5977 Clouds 3 1032 95 10000 4.39 215 23:26 11.01.2022
5978 Clouds 3 1032 91 10000 4.52 215 22:25 11.01.2022
5979 Clouds 3 1031 93 3300 3.6 220 21:58 11.01.2022
5980 Clouds 3 1031 87 10000 4.63 230 20:39 11.01.2022
5981 Rain 3 1030 81 10000 4.12 220 19:35 11.01.2022
5982 Clouds 3 1030 75 10000 5.14 210 17:54 11.01.2022
5983 Clouds 4 1030 81 10000 5.66 200 16:40 11.01.2022
5984 Clouds 4 1030 81 10000 5.66 200 16:40 11.01.2022
5985 Clouds 4 1030 81 10000 6.17 200 16:18 11.01.2022
5986 Clouds 4 1030 81 10000 5.14 200 14:53 11.01.2022
5987 Clouds 4 1030 81 10000 5.14 200 14:34 11.01.2022
5988 Clouds 3 1030 87 9000 5.14 190 13:52 11.01.2022
5989 Rain 3 1032 84 10000 4.38 200 13:28 11.01.2022
5990 Clouds 3 1031 87 10000 5.14 190 12:36 11.01.2022
5991 Clouds 3 1031 93 7000 5.14 180 10:40 11.01.2022
5992 Clouds 3 1031 96 10000 3.67 184 08:26 11.01.2022
5993 Clouds 3 1031 94 10000 2.71 179 04:30 11.01.2022
5994 Clouds 3 1030 96 10000 2.39 176 00:28 11.01.2022
5995 Clouds 3 1029 93 6000 2.06 170 23:40 10.01.2022
5996 Clouds 3 1029 93 6000 2.06 160 22:43 10.01.2022
5997 Clouds 3 1028 93 7000 2.06 120 22:18 10.01.2022
5998 Clouds 3 1028 93 7000 2.06 120 21:42 10.01.2022
5999 Clouds 3 1028 93 5000 2.57 130 21:18 10.01.2022
6000 Clouds 3 1028 93 5000 2.57 130 20:55 10.01.2022
6001 Clouds 3 1028 96 10000 2.41 117 20:24 10.01.2022
6002 Clouds 3 1027 93 6000 4.12 130 19:41 10.01.2022
6003 Clouds 3 1027 93 10000 3.6 120 19:19 10.01.2022
6004 Clouds 3 1027 93 10000 3.6 120 18:48 10.01.2022
6005 Clouds 3 1025 87 8000 2.06 110 16:59 10.01.2022
6006 Clouds 4 1025 87 8000 2.06 110 16:41 10.01.2022
6007 Clouds 4 1024 85 10000 3.41 92 15:20 10.01.2022
6008 Clouds 4 1022 87 9000 3.09 100 13:39 10.01.2022
6009 Clouds 3 1020 93 8000 2.06 80 11:57 10.01.2022
6010 Clouds 3 1021 90 10000 3.64 72 11:24 10.01.2022
6011 Clouds 2 1018 93 7000 2.57 70 09:41 10.01.2022
6012 Clouds 2 1014 98 82 2.79 50 06:22 10.01.2022
6013 Clouds 2 1012 100 7000 2.06 70 05:49 10.01.2022
6014 Clouds 1 1007 99 38 2.65 77 01:26 10.01.2022
6015 Clouds 1 1006 99 116 1.85 92 00:23 10.01.2022
6016 Snow 1 1005 99 87 1.98 88 23:28 09.01.2022
6017 Clouds 1 1004 100 3300 2.57 120 22:33 09.01.2022
6018 Clouds 1 1002 100 1300 1.54 110 21:44 09.01.2022
6019 Clouds 1 1002 99 49 1.44 97 21:23 09.01.2022
6020 Clouds 1 1002 99 49 1.44 97 21:23 09.01.2022
6021 Clouds 1 1001 93 4000 2.06 130 20:50 09.01.2022
6022 Clouds 1 1002 99 49 1.44 97 20:32 09.01.2022
6023 Clouds 1 1000 93 3300 2.57 130 19:44 09.01.2022
6024 Snow 1 1000 99 35 1.76 105 19:23 09.01.2022
6025 Snow 1 999 93 4100 2.57 120 18:52 09.01.2022
6026 Snow 1 999 93 4100 2.57 120 18:33 09.01.2022
6027 Snow 1 998 99 148 1.87 104 17:31 09.01.2022
6028 Snow 1 997 100 6000 2.06 160 16:53 09.01.2022
6029 Snow 2 995 93 10000 2.06 160 15:58 09.01.2022
6030 Snow 2 995 93 10000 2.06 160 15:35 09.01.2022
6031 Rain 2 994 93 8000 2.06 150 14:40 09.01.2022
6032 Rain 2 994 93 10000 2.06 140 13:51 09.01.2022
6033 Rain 2 993 98 28 3.59 136 13:22 09.01.2022
6034 Clouds 2 992 93 10000 4.12 160 11:55 09.01.2022
6035 Clouds 2 991 93 10000 5.14 160 10:53 09.01.2022
6036 Clouds 1 991 100 10000 5.66 150 09:50 09.01.2022
6037 Clouds 2 990 93 10000 5.66 150 08:52 09.01.2022
6038 Clouds 2 989 93 10000 6.17 150 05:38 09.01.2022
6039 Snow 1 991 97 24 6.51 153 01:24 09.01.2022
6040 Rain 1 991 93 7000 7.2 150 00:37 09.01.2022
6041 Snow 1 993 97 44 7.25 152 23:27 08.01.2022
6042 Snow 1 994 97 69 7.3 151 22:35 08.01.2022
6043 Clouds 1 996 90 10000 6.98 158 21:26 08.01.2022
6044 Snow 2 996 87 10000 6.17 170 20:43 08.01.2022
6045 Rain 2 997 89 10000 6.59 168 20:21 08.01.2022
6046 Clouds 3 998 81 10000 6.69 170 18:45 08.01.2022
6047 Clouds 2 1000 92 10000 5.77 193 17:23 08.01.2022
6048 Clouds 3 1000 87 10000 6.69 200 16:40 08.01.2022
6049 Clouds 4 1002 81 10000 6.17 230 14:50 08.01.2022
6050 Clouds 5 1002 87 10000 5.66 220 13:41 08.01.2022
6051 Clouds 4 1003 80 10000 4.7 242 11:30 08.01.2022
6052 Clouds 3 1004 82 10000 4.55 244 10:31 08.01.2022
6053 Clouds 2 1003 93 10000 6.69 220 09:57 08.01.2022
6054 Clouds 2 1003 92 10000 3.87 225 09:30 08.01.2022
6055 Clouds 2 1004 94 10000 4.96 207 04:25 08.01.2022
6056 Clouds 2 1004 93 10000 6.17 200 00:59 08.01.2022
6057 Clouds 2 1005 95 10000 4.69 195 23:30 07.01.2022
6058 Clouds 1 1004 93 10000 3.6 190 21:46 07.01.2022
6059 Clouds 2 1005 91 10000 5.37 209 20:23 07.01.2022
6060 Rain 3 1004 87 10000 5.66 210 19:26 07.01.2022
6061 Rain 4 1004 87 10000 5.66 210 18:45 07.01.2022
6062 Clouds 4 1004 87 10000 5.66 210 18:18 07.01.2022
6063 Clouds 4 1005 88 10000 6.12 223 17:23 07.01.2022
6064 Clouds 4 1004 93 10000 7.2 220 14:55 07.01.2022
6065 Clouds 4 1004 93 10000 6.17 210 13:52 07.01.2022
6066 Clouds 3 1004 93 8000 6.17 200 12:50 07.01.2022
6067 Clouds 2 1006 97 118 6.91 208 10:21 07.01.2022
6068 Clouds 2 1009 93 10000 6.69 190 02:59 07.01.2022
6069 Clouds 2 1009 93 10000 6.69 190 02:59 07.01.2022
6070 Clouds 2 1010 88 10000 6.55 202 02:22 07.01.2022
6071 Clouds 2 1010 93 10000 5.14 200 01:48 07.01.2022
6072 Clouds 2 1011 91 10000 6.28 203 01:25 07.01.2022
6073 Clouds 2 1011 90 10000 6.4 204 00:30 07.01.2022
6074 Clouds 2 1012 92 10000 6.04 204 22:33 06.01.2022
6075 Clouds 1 1013 87 10000 5.66 190 20:51 06.01.2022
6076 Clouds 1 1013 87 10000 5.66 200 20:18 06.01.2022
6077 Clouds 1 1013 87 10000 5.66 200 19:36 06.01.2022
6078 Clouds 1 1014 87 10000 2.57 230 17:51 06.01.2022
6079 Clouds 1 1015 87 10000 3.24 204 17:27 06.01.2022
6080 Clouds 2 1014 75 10000 3.6 240 16:38 06.01.2022
6081 Clear 2 1014 75 10000 4.63 240 15:44 06.01.2022
6082 Clear 3 1014 82 10000 2.9 213 15:22 06.01.2022
6083 Clear 3 1015 77 10000 2.76 217 14:20 06.01.2022
6084 Clear 3 1014 56 10000 4.63 220 13:41 06.01.2022
6085 Clouds 2 1015 67 10000 1.9 237 12:28 06.01.2022
6086 Clouds 0 1015 67 10000 1.9 237 11:31 06.01.2022
6087 Clouds -1 1014 100 10000 3.09 250 10:59 06.01.2022
6088 Clouds -2 1011 100 10000 2.57 240 06:54 06.01.2022
6089 Clouds 0 1006 86 10000 4.63 320 00:35 06.01.2022
6090 Clouds 0 1005 93 10000 5.14 320 23:34 05.01.2022
6091 Clouds 1 1004 86 10000 5.66 330 22:48 05.01.2022
6092 Clouds 1 1003 85 10000 3.3 320 22:29 05.01.2022
6093 Clouds 1 1002 86 10000 6.17 320 21:44 05.01.2022
6094 Clouds 2 1001 80 10000 6.17 340 20:44 05.01.2022
6095 Clouds 2 999 75 10000 8.75 350 19:53 05.01.2022
6096 Clouds 3 997 86 10000 5.41 327 18:27 05.01.2022
6097 Clouds 4 994 87 10000 9.26 330 16:59 05.01.2022
6098 Clouds 4 994 84 10000 7.27 317 16:22 05.01.2022
6099 Clouds 5 992 82 10000 7.69 310 15:20 05.01.2022
6100 Clouds 5 990 87 10000 8.75 290 13:37 05.01.2022
6101 Clouds 4 989 93 10000 9.26 270 12:49 05.01.2022
6102 Clouds 3 988 87 10000 7.72 230 08:57 05.01.2022
6103 Clouds 3 990 83 10000 5.77 260 07:31 05.01.2022
6104 Clouds 2 990 81 10000 7.2 230 01:59 05.01.2022
6105 Clouds 2 990 81 10000 7.2 230 00:33 05.01.2022
6106 Clouds 2 991 77 10000 6.28 255 23:26 04.01.2022
6107 Clouds 2 991 78 10000 6.06 256 22:27 04.01.2022
6108 Clouds 3 990 81 10000 6.69 240 20:50 04.01.2022
6109 Clouds 3 990 87 4100 10.8 260 19:19 04.01.2022
6110 Clouds 3 990 87 10000 6.69 250 17:38 04.01.2022
6111 Clouds 3 990 87 10000 4.63 260 16:40 04.01.2022
6112 Clouds 3 990 87 10000 4.63 260 16:40 04.01.2022
6113 Clouds 4 991 78 10000 4.12 257 16:21 04.01.2022
6114 Clouds 5 990 81 10000 5.66 250 14:52 04.01.2022
6115 Clouds 5 990 81 10000 5.66 250 14:33 04.01.2022
6116 Clouds 4 992 86 10000 3.85 259 13:26 04.01.2022
6117 Clouds 5 991 93 7000 3.09 360 10:40 04.01.2022
6118 Rain 5 991 100 10000 0.51 240 08:59 04.01.2022
6119 Clouds 5 993 92 10000 1.02 298 08:25 04.01.2022
6120 Rain 7 995 87 10000 10.29 250 01:51 04.01.2022
6121 Clouds 8 995 87 10000 9.77 250 00:40 04.01.2022
6122 Clouds 8 996 87 10000 9.77 250 22:51 03.01.2022
6123 Clouds 8 996 87 10000 10.29 250 21:50 03.01.2022
6124 Clouds 8 997 84 10000 9.22 244 21:24 03.01.2022
6125 Clouds 8 997 87 10000 9.26 240 19:47 03.01.2022
6126 Clouds 8 997 87 10000 11.32 250 18:47 03.01.2022
6127 Clouds 8 999 86 10000 9.41 244 18:24 03.01.2022
6128 Clouds 8 998 87 7000 12.35 250 16:58 03.01.2022
6129 Clouds 8 999 87 7000 12.86 250 14:56 03.01.2022
6130 Clouds 8 1000 83 10000 9.44 246 14:30 03.01.2022
6131 Clouds 9 1000 81 10000 11.32 250 12:39 03.01.2022
6132 Clouds 8 1000 87 10000 11.83 250 11:35 03.01.2022
6133 Clouds 8 1001 82 10000 9.43 250 10:26 03.01.2022
6134 Clouds 8 1000 93 10000 12.35 260 08:47 03.01.2022
6135 Clouds 8 1000 87 9000 13.38 260 07:34 03.01.2022
6136 Clouds 8 1002 93 10000 6.17 250 23:55 02.01.2022
6137 Clouds 8 1003 90 10000 6.56 245 23:21 02.01.2022
6138 Clouds 8 1002 93 10000 9.77 270 22:53 02.01.2022
6139 Clouds 8 1003 93 10000 10.29 260 21:39 02.01.2022
6140 Clouds 8 1004 94 10000 6.82 249 20:33 02.01.2022
6141 Clouds 8 1003 93 10000 12.35 270 19:55 02.01.2022
6142 Clouds 8 1003 89 10000 8.61 271 19:30 02.01.2022
6143 Clouds 8 1002 93 10000 11.32 280 18:44 02.01.2022
6144 Clouds 8 1001 93 10000 11.83 280 17:54 02.01.2022
6145 Clouds 8 1001 93 10000 11.83 280 17:36 02.01.2022
6146 Clouds 9 999 93 6000 10.29 260 17:18 02.01.2022
6147 Rain 9 1001 94 10000 10.51 243 16:25 02.01.2022
6148 Rain 10 1002 96 5269 6.58 220 14:32 02.01.2022
6149 Clouds 10 1003 93 10000 6.17 230 12:50 02.01.2022
6150 Rain 10 1005 100 10000 6.69 240 11:58 02.01.2022
6151 Rain 10 1006 96 10000 6.35 230 11:26 02.01.2022
6152 Rain 10 1005 100 2300 7.72 240 10:46 02.01.2022
6153 Clouds 10 1006 100 3200 5.66 240 09:45 02.01.2022
6154 Clouds 10 1011 95 10000 6.76 236 05:21 02.01.2022
6155 Clouds 10 1012 93 10000 9.26 240 01:48 02.01.2022
6156 Rain 11 1014 87 10000 9.26 220 23:39 01.01.2022
6157 Rain 11 1014 87 10000 9.77 230 22:57 01.01.2022
6158 Clouds 11 1016 92 10000 6.33 220 22:23 01.01.2022
6159 Clouds 11 1015 93 10000 8.23 230 21:44 01.01.2022
6160 Clouds 11 1015 93 10000 6.17 190 20:55 01.01.2022
6161 Clouds 11 1016 93 9000 6.17 200 19:58 01.01.2022
6162 Clouds 10 1017 95 10000 6.36 202 19:26 01.01.2022
6163 Clouds 11 1017 100 6000 5.66 210 17:59 01.01.2022
6164 Clouds 10 1017 93 4900 5.14 210 16:43 01.01.2022
6165 Clouds 10 1019 97 5491 4.97 222 16:20 01.01.2022
6166 Clouds 10 1019 98 201 4.3 220 15:27 01.01.2022
6167 Rain 9 1019 93 6000 5.14 220 13:59 01.01.2022
6168 Clouds 9 1019 100 10000 4.12 240 12:50 01.01.2022
6169 Clouds 9 1020 93 7000 5.66 250 11:58 01.01.2022
6170 Clouds 9 1020 97 10000 4.53 246 11:23 01.01.2022
6171 Clouds 8 1019 93 10000 6.17 260 10:42 01.01.2022
6172 Clouds 9 1019 93 10000 6.17 260 09:47 01.01.2022
6173 Clouds 9 1018 97 10000 5.79 252 08:26 01.01.2022
6174 Clouds 9 1017 93 10000 7.72 260 07:55 01.01.2022
6175 Clouds 9 1017 93 10000 7.72 260 07:34 01.01.2022
6176 Clouds 8 1017 100 10000 8.75 270 06:42 01.01.2022
6177 Clouds 9 1016 93 10000 9.77 260 04:38 01.01.2022
6178 Clouds 8 1015 100 10000 9.77 270 03:38 01.01.2022
6179 Clouds 9 1013 100 900 10.29 270 23:52 31.12.2021
6180 Clouds 9 1012 93 2300 9.77 270 21:54 31.12.2021
6181 Clouds 9 1011 100 3400 9.26 260 20:48 31.12.2021
6182 Clouds 10 1012 97 4156 6.58 260 19:31 31.12.2021
6183 Clouds 9 1010 93 1900 12.35 280 18:46 31.12.2021
6184 Clouds 9 1009 93 9000 11.83 280 17:45 31.12.2021
6185 Clouds 9 1010 97 4211 6.93 267 17:22 31.12.2021
6186 Clouds 10 1008 93 1800 11.32 280 16:46 31.12.2021
6187 Clouds 10 1007 93 10000 14.4 270 15:59 31.12.2021
6188 Clouds 10 1007 93 10000 14.4 270 15:40 31.12.2021
6189 Clouds 10 1007 93 4500 14.92 260 15:19 31.12.2021
6190 Clouds 10 1007 93 4500 14.92 260 14:37 31.12.2021
6191 Clouds 10 1007 93 3200 14.92 260 13:44 31.12.2021
6192 Clouds 10 1007 93 2000 15.43 260 12:49 31.12.2021
6193 Clouds 10 1007 93 4500 13.38 250 12:19 31.12.2021
6194 Rain 10 1007 93 4500 13.38 250 11:41 31.12.2021
6195 Clouds 10 1007 93 3700 12.35 250 10:48 31.12.2021
6196 Clouds 10 1007 95 10000 10.87 244 10:25 31.12.2021
6197 Rain 10 1007 93 9000 14.4 260 09:34 31.12.2021
6198 Clouds 10 1007 93 2900 12.35 250 08:50 31.12.2021
6199 Rain 10 1007 100 3600 14.4 260 07:53 31.12.2021
6200 Rain 9 1008 100 3300 11.83 260 02:36 31.12.2021
6201 Clouds 9 1008 100 8000 9.26 260 23:18 30.12.2021
6202 Clouds 9 1009 97 5653 6.98 246 22:27 30.12.2021
6203 Clouds 9 1008 100 4000 8.23 250 21:39 30.12.2021
6204 Clouds 9 1007 93 2700 10.29 260 20:59 30.12.2021
6205 Clouds 9 1007 93 2700 10.29 260 20:38 30.12.2021
6206 Clouds 9 1007 100 5000 10.8 260 19:55 30.12.2021
6207 Clouds 9 1008 98 943 7.86 252 19:31 30.12.2021
6208 Clouds 9 1007 97 4724 8.05 261 18:26 30.12.2021
6209 Clouds 9 1006 93 5000 10.8 260 16:53 30.12.2021
6210 Clouds 9 1005 100 10000 10.8 250 15:53 30.12.2021
6211 Clouds 9 1005 100 9000 8.23 250 14:55 30.12.2021
6212 Clouds 9 1005 100 9000 8.23 250 14:36 30.12.2021
6213 Clouds 8 1005 98 250 5.96 231 13:25 30.12.2021
6214 Clouds 8 1005 98 250 5.96 231 13:25 30.12.2021
6215 Clouds 8 1005 100 4200 6.17 230 11:57 30.12.2021
6216 Clouds 7 1005 100 6000 6.69 220 10:40 30.12.2021
6217 Clouds 6 1005 93 5000 7.2 220 09:49 30.12.2021
6218 Clouds 6 1005 93 10000 8.23 250 06:59 30.12.2021
6219 Clouds 6 1005 96 10000 5.97 249 05:27 30.12.2021
6220 Clouds 6 1004 100 6000 6.17 240 03:41 30.12.2021
6221 Clouds 5 1003 99 457 5.01 209 02:28 30.12.2021
6222 Clouds 3 1003 100 2400 6.17 160 23:39 29.12.2021
6223 Clouds 3 1003 100 1400 4.63 160 22:55 29.12.2021
6224 Clouds 3 1003 100 2100 5.66 160 22:18 29.12.2021
6225 Clouds 2 1003 100 1000 6.69 160 20:59 29.12.2021
6226 Clouds 2 1004 99 10000 3.76 158 20:30 29.12.2021
6227 Clouds 2 1003 100 1700 4.12 160 19:43 29.12.2021
6228 Clouds 2 1003 100 400 3.6 150 18:45 29.12.2021
6229 Clouds 2 1004 93 350 3.6 160 17:53 29.12.2021
6230 Clouds 2 1005 98 10000 2.63 178 17:27 29.12.2021
6231 Clouds 2 1005 97 10000 2.29 189 16:23 29.12.2021
6232 Clouds 2 1004 93 3100 1.54 0 15:45 29.12.2021
6233 Clouds 2 1004 100 3400 1.03 200 13:55 29.12.2021
6234 Clouds 2 1003 100 2900 1.03 170 12:36 29.12.2021
6235 Clouds 2 1005 99 10000 0.37 248 11:27 29.12.2021
6236 Clouds 1 1003 100 2400 1.54 290 09:58 29.12.2021
6237 Clouds 1 1001 100 3000 1.03 60 07:51 29.12.2021
6238 Clouds 1 1001 100 2800 1.54 60 06:38 29.12.2021
6239 Clouds 1 1000 93 3000 2.06 50 05:59 29.12.2021
6240 Clouds 1 1000 93 3000 2.06 50 05:36 29.12.2021
6241 Clouds 1 997 100 3600 2.06 80 02:40 29.12.2021
6242 Clouds 1 996 100 649 3.01 81 00:23 29.12.2021
6243 Clouds 2 995 100 4700 3.6 110 23:34 28.12.2021
6244 Clouds 2 995 93 4900 3.09 110 22:42 28.12.2021
6245 Clouds 1 995 100 471 2.36 87 22:24 28.12.2021
6246 Clouds 1 994 93 5000 4.12 110 21:38 28.12.2021
6247 Clouds 2 993 93 5000 4.12 100 20:40 28.12.2021
6248 Clouds 1 993 99 126 4.28 100 19:25 28.12.2021
6249 Clouds 2 993 93 4500 5.14 110 18:41 28.12.2021
6250 Clouds 2 992 93 4000 4.12 130 17:59 28.12.2021
6251 Clouds 1 992 93 5000 4.12 130 16:34 28.12.2021
6252 Clouds 1 992 93 7000 4.12 120 15:50 28.12.2021
6253 Clouds 2 993 100 81 4.64 118 15:22 28.12.2021
6254 Clouds 2 993 87 7000 4.12 120 14:50 28.12.2021
6255 Clouds 1 993 100 74 4.32 123 14:21 28.12.2021
6256 Clouds 1 993 93 7000 4.12 130 13:42 28.12.2021
6257 Clouds 1 994 100 100 4.17 130 13:24 28.12.2021
6258 Clouds 1 994 93 6000 4.12 130 12:49 28.12.2021
6259 Clouds 1 994 93 7000 5.14 140 11:46 28.12.2021
6260 Clouds 1 995 93 10000 6.17 140 08:53 28.12.2021
6261 Rain 1 996 99 10000 4.92 144 07:28 28.12.2021
6262 Clouds 0 999 93 8000 4.12 130 00:59 28.12.2021
6263 Clouds 0 1002 98 10000 4.63 120 23:26 27.12.2021
6264 Clouds -1 1001 93 5000 4.12 130 21:46 27.12.2021
6265 Clouds -1 1002 97 10000 4.77 128 21:26 27.12.2021
6266 Clouds -2 1003 96 10000 5.07 124 20:24 27.12.2021
6267 Clouds -2 1001 86 5000 4.12 130 19:43 27.12.2021
6268 Clouds -2 1002 93 7000 4.12 140 18:54 27.12.2021
6269 Clouds -2 1002 93 1700 6.17 140 17:50 27.12.2021
6270 Clouds -2 1002 93 10000 5.66 130 17:18 27.12.2021
6271 Clouds -2 1002 93 4700 4.63 130 15:53 27.12.2021
6272 Clouds -2 1002 86 5000 5.66 120 14:35 27.12.2021
6273 Clouds -2 1003 86 7000 6.17 120 13:59 27.12.2021
6274 Clouds -2 1003 86 10000 5.66 130 12:49 27.12.2021
6275 Clouds -2 1004 80 10000 7.2 120 10:37 27.12.2021
6276 Clouds -2 1005 74 10000 7.72 120 10:18 27.12.2021
6277 Clouds -3 1005 69 10000 7.2 120 08:42 27.12.2021
6278 Clouds -3 1005 69 10000 7.2 120 08:42 27.12.2021
6279 Clouds -4 1005 68 10000 6.17 120 07:34 27.12.2021
6280 Clear -5 1010 79 10000 5.61 123 02:29 27.12.2021
6281 Clear -5 1009 46 10000 5.66 130 00:57 27.12.2021
6282 Clear -5 1010 54 10000 5.66 120 23:43 26.12.2021
6283 Clear -5 1010 58 10000 5.14 130 23:18 26.12.2021
6284 Clear -6 1012 80 10000 4.85 126 21:33 26.12.2021
6285 Clear -7 1011 73 10000 4.63 130 19:55 26.12.2021
6286 Clear -7 1012 73 10000 5.14 130 18:45 26.12.2021
6287 Clear -6 1013 81 10000 3.53 125 18:21 26.12.2021
6288 Clouds -4 1012 68 10000 3.09 130 15:38 26.12.2021
6289 Clouds -1 1012 32 10000 2.06 160 13:49 26.12.2021
6290 Clouds -2 1014 88 10000 2.36 139 13:31 26.12.2021
6291 Clouds -2 1013 55 10000 2.06 180 12:36 26.12.2021
6292 Clouds -5 1014 87 10000 2.44 174 11:24 26.12.2021
6293 Clouds -9 1013 93 10000 1.54 220 09:35 26.12.2021
6294 Clouds -8 1012 79 10000 1.54 220 08:50 26.12.2021
6295 Clouds -8 1013 94 10000 2.48 199 08:27 26.12.2021
6296 Clouds -6 1013 68 10000 4.63 240 05:59 26.12.2021
6297 Clouds -4 1013 86 10000 4.12 250 00:44 26.12.2021
6298 Clouds -4 1013 86 10000 4.63 230 23:48 25.12.2021
6299 Clear -6 1014 91 10000 2.5 218 23:25 25.12.2021
6300 Clear -5 1014 92 10000 2.32 215 22:21 25.12.2021
6301 Clear -5 1013 80 10000 4.12 240 20:36 25.12.2021
6302 Clear -5 1013 91 10000 1.37 250 19:20 25.12.2021
6303 Clear -4 1013 80 10000 3.6 230 18:51 25.12.2021
6304 Clouds -3 1013 74 10000 3.6 240 16:58 25.12.2021
6305 Clouds -2 1012 69 10000 4.12 260 15:54 25.12.2021
6306 Clouds -2 1013 88 10000 3.23 234 14:25 25.12.2021
6307 Clear -2 1012 64 10000 6.69 260 12:43 25.12.2021
6308 Clear -4 1014 81 10000 3.58 237 11:27 25.12.2021
6309 Clear -6 1012 63 10000 4.63 250 09:49 25.12.2021
6310 Clear -9 1012 73 10000 3.6 240 07:51 25.12.2021
6311 Clear -9 1010 73 10000 2.57 280 02:18 25.12.2021
6312 Clear -9 1012 86 10000 2.19 350 00:30 25.12.2021
6313 Clear -7 1009 74 10000 2.06 300 22:40 24.12.2021
6314 Clear -5 1008 63 10000 5.14 30 19:38 24.12.2021
6315 Clouds -4 1007 59 10000 6.17 40 19:19 24.12.2021
6316 Clouds -2 1005 64 10000 8.75 40 16:50 24.12.2021
6317 Clouds -2 1003 64 10000 9.77 30 16:19 24.12.2021
6318 Clouds -1 1003 64 10000 9.77 30 15:45 24.12.2021
6319 Clouds -1 1002 69 10000 10.8 40 14:46 24.12.2021
6320 Clouds 0 1003 77 10000 6.37 20 14:22 24.12.2021
6321 Clouds 1 1001 80 10000 10.8 30 13:37 24.12.2021
6322 Clouds 0 1000 93 10000 7.2 10 12:48 24.12.2021
6323 Clouds 0 999 93 10000 5.66 10 11:52 24.12.2021
6324 Clouds 0 999 93 10000 5.04 335 11:26 24.12.2021
6325 Clouds 0 998 100 5000 2.57 320 10:50 24.12.2021
6326 Clouds 0 998 100 4200 4.12 300 10:18 24.12.2021
6327 Clouds 0 998 98 10000 1.75 272 08:25 24.12.2021
6328 Clouds 0 997 100 2300 1.54 290 07:50 24.12.2021
6329 Clouds 0 997 100 1800 1.03 360 02:52 24.12.2021
6330 Clouds 0 997 100 1900 2.06 100 00:19 24.12.2021
6331 Clouds 0 997 99 289 3.45 66 23:23 23.12.2021
6332 Clouds 0 997 99 289 3.44 67 22:39 23.12.2021
6333 Snow 0 997 99 533 4.13 89 22:20 23.12.2021
6334 Snow 0 998 100 2800 3.6 140 21:33 23.12.2021
6335 Snow 0 999 99 349 4.14 137 20:20 23.12.2021
6336 Snow -1 1000 100 3700 2.06 180 18:53 23.12.2021
6337 Snow -1 1001 93 1100 4.12 180 17:57 23.12.2021
6338 Snow -1 1002 93 1400 3.6 190 16:58 23.12.2021
6339 Snow -1 1003 99 108 3.56 176 16:26 23.12.2021
6340 Snow -1 1003 99 108 3.56 176 15:32 23.12.2021
6341 Snow -1 1004 93 10000 3.6 170 14:55 23.12.2021
6342 Snow -1 1004 93 10000 3.6 170 14:37 23.12.2021
6343 Snow -1 1007 94 3963 3.84 194 13:23 23.12.2021
6344 Snow -1 1009 93 10000 1.54 170 10:54 23.12.2021
6345 Snow -1 1009 93 10000 1.54 170 10:54 23.12.2021
6346 Snow -2 1010 93 3700 3.09 130 09:52 23.12.2021
6347 Snow -2 1010 93 2961 3.28 173 09:31 23.12.2021
6348 Snow -2 1011 80 7958 2.85 193 08:25 23.12.2021
6349 Snow -2 1014 86 9000 4.12 170 04:39 23.12.2021
6350 Clouds -2 1018 86 10000 4.63 200 23:43 22.12.2021
6351 Clouds -2 1019 86 10000 3.6 200 22:49 22.12.2021
6352 Clouds -2 1019 86 10000 2.57 210 21:57 22.12.2021
6353 Clouds -2 1020 86 10000 3.64 197 21:30 22.12.2021
6354 Clouds -1 1020 86 10000 3.6 190 20:58 22.12.2021
6355 Clouds -1 1020 86 10000 3.6 190 20:40 22.12.2021
6356 Clouds -1 1021 93 10000 2.57 220 19:42 22.12.2021
6357 Clouds 0 1021 85 10000 3.61 203 18:25 22.12.2021
6358 Clouds 0 1021 86 10000 2.57 200 17:38 22.12.2021
6359 Clouds 1 1022 93 10000 4.63 220 15:50 22.12.2021
6360 Clouds 1 1023 89 10000 4.42 209 14:23 22.12.2021
6361 Clouds 1 1023 87 10000 4.63 220 12:53 22.12.2021
6362 Clouds 1 1023 93 10000 5.66 220 11:39 22.12.2021
6363 Snow 1 1023 93 6000 3.09 220 09:52 22.12.2021
6364 Clouds 1 1023 93 7000 4.63 220 07:57 22.12.2021
6365 Clouds 1 1024 87 10000 4.12 220 05:54 22.12.2021
6366 Rain 2 1024 87 10000 4.12 220 05:34 22.12.2021
6367 Clouds 2 1024 87 10000 5.14 230 04:57 22.12.2021
6368 Rain 1 1024 87 10000 5.14 230 04:37 22.12.2021
6369 Clouds 2 1024 81 10000 4.12 210 03:49 22.12.2021
6370 Clouds 1 1024 94 10000 4.37 199 03:31 22.12.2021
6371 Snow 1 1024 93 10000 2.57 230 23:48 21.12.2021
6372 Snow 1 1024 93 10000 2.57 230 22:41 21.12.2021
6373 Clouds 1 1024 93 10000 2.06 220 21:56 21.12.2021
6374 Clouds 1 1024 93 10000 2.06 220 21:33 21.12.2021
6375 Clouds 1 1024 87 10000 2.57 290 20:39 21.12.2021
6376 Clouds 1 1024 87 10000 5.14 200 20:18 21.12.2021
6377 Clouds 1 1024 87 10000 5.14 200 19:34 21.12.2021
6378 Clouds 1 1025 90 10000 3.43 196 18:23 21.12.2021
6379 Clouds 2 1024 80 10000 3.6 210 17:58 21.12.2021
6380 Clouds 2 1024 80 10000 3.6 210 17:39 21.12.2021
6381 Clouds 2 1024 80 10000 3.09 210 15:39 21.12.2021
6382 Clouds 2 1026 70 10000 2.5 197 14:24 21.12.2021
6383 Clouds 2 1025 75 10000 2.57 200 13:42 21.12.2021
6384 Clouds 1 1026 68 10000 2.3 199 12:29 21.12.2021
6385 Clouds -3 1026 93 10000 1.03 260 10:39 21.12.2021
6386 Clouds -4 1025 93 10000 1.03 210 09:56 21.12.2021
6387 Clouds -4 1025 100 10000 0.51 210 08:57 21.12.2021
6388 Clouds -4 1026 100 10000 1.03 310 07:45 21.12.2021
6389 Clouds -3 1026 82 10000 0.62 0 07:23 21.12.2021
6390 Clouds -2 1027 85 10000 1.4 348 04:26 21.12.2021
6391 Clouds -2 1027 85 10000 1.54 353 02:31 21.12.2021
6392 Clouds -1 1027 93 10000 1.54 300 23:55 20.12.2021
6393 Clouds -1 1027 86 10000 2.06 340 22:44 20.12.2021
6394 Clouds -1 1029 85 10000 2.4 8 22:25 20.12.2021
6395 Clouds -2 1028 85 10000 2.52 3 21:27 20.12.2021
6396 Clouds -1 1027 93 10000 2.57 310 20:55 20.12.2021
6397 Clouds -1 1027 93 10000 2.57 310 20:32 20.12.2021
6398 Clouds -2 1027 93 10000 1.03 330 19:38 20.12.2021
6399 Clear -2 1028 84 10000 2.61 356 19:20 20.12.2021
6400 Clear -1 1027 93 10000 2.06 310 18:34 20.12.2021
6401 Clear 0 1027 93 10000 3.6 330 17:51 20.12.2021
6402 Clear 0 1027 86 10000 3.09 320 16:53 20.12.2021
6403 Clear 1 1027 86 10000 3.09 320 16:35 20.12.2021
6404 Clear 2 1027 75 10000 3.6 320 15:43 20.12.2021
6405 Clear 4 1027 70 10000 1.54 310 14:40 20.12.2021
6406 Clear 3 1027 65 10000 1.54 0 12:44 20.12.2021
6407 Clear 1 1027 75 10000 2.06 290 10:55 20.12.2021
6408 Clear 0 1027 86 10000 3.09 250 09:47 20.12.2021
6409 Clear -1 1026 93 10000 3.09 320 08:56 20.12.2021
6410 Clear -1 1026 93 10000 3.09 320 08:38 20.12.2021
6411 Clear -1 1026 93 10000 1.54 350 07:46 20.12.2021
6412 Clear 0 1026 86 10000 2.57 330 06:40 20.12.2021
6413 Clear -1 1027 73 10000 4.19 332 02:32 20.12.2021
6414 Clear 0 1025 86 10000 4.63 340 23:50 19.12.2021
6415 Clear 0 1025 93 10000 4.63 350 22:44 19.12.2021
6416 Clear 0 1025 86 10000 5.14 340 21:49 19.12.2021
6417 Clear 1 1025 70 10000 3.13 347 21:25 19.12.2021
6418 Clear 1 1025 76 10000 3.23 348 20:29 19.12.2021
6419 Clear 2 1024 81 10000 2.06 330 19:45 19.12.2021
6420 Clouds 3 1024 65 10000 4.12 10 18:54 19.12.2021
6421 Clouds 4 1023 87 10000 5.14 360 18:24 19.12.2021
6422 Clouds 4 1023 87 10000 5.14 360 17:46 19.12.2021
6423 Clouds 5 1023 87 10000 5.14 350 16:55 19.12.2021
6424 Clouds 6 1023 77 10000 5.18 346 16:24 19.12.2021
6425 Clear 7 1022 74 10000 6.57 340 15:26 19.12.2021
6426 Clear 7 1022 76 10000 7.72 330 14:50 19.12.2021
6427 Clouds 8 1022 76 10000 10.29 330 13:46 19.12.2021
6428 Clear 8 1022 71 10000 9.19 327 13:21 19.12.2021
6429 Clear 8 1022 76 10000 12.86 340 12:33 19.12.2021
6430 Clear 8 1022 76 10000 12.86 340 12:33 19.12.2021
6431 Clear 8 1022 81 10000 11.83 320 11:42 19.12.2021
6432 Clouds 8 1023 87 10000 12.35 320 10:53 19.12.2021
6433 Clear 8 1023 79 10000 9.54 309 10:23 19.12.2021
6434 Clear 8 1023 79 10000 9.54 309 10:23 19.12.2021
6435 Clear 8 1023 79 10000 9.47 307 09:26 19.12.2021
6436 Clear 8 1023 81 10000 14.4 310 07:47 19.12.2021
6437 Clouds 7 1025 87 10000 14.4 320 04:44 19.12.2021
6438 Clouds 7 1027 87 10000 13.89 300 00:55 19.12.2021
6439 Clouds 7 1028 93 10000 11.32 300 23:52 18.12.2021
6440 Clouds 7 1029 93 10000 12.35 300 22:32 18.12.2021
6441 Clouds 7 1030 93 10000 13.38 300 21:54 18.12.2021
6442 Clouds 7 1030 93 10000 13.38 300 21:34 18.12.2021
6443 Clouds 7 1030 93 10000 11.83 300 20:44 18.12.2021
6444 Clouds 7 1030 93 10000 12.35 300 19:51 18.12.2021
6445 Clear 7 1031 93 10000 8.23 310 19:19 18.12.2021
6446 Clear 7 1030 90 10000 8.06 299 18:20 18.12.2021
6447 Clear 7 1031 93 10000 8.23 310 17:47 18.12.2021
6448 Clear 8 1031 88 10000 8.57 302 16:25 18.12.2021
6449 Clear 8 1032 85 10000 8.15 302 15:26 18.12.2021
6450 Clear 9 1032 85 10000 8.15 302 14:32 18.12.2021
6451 Clouds 9 1033 84 10000 7.37 301 13:19 18.12.2021
6452 Clouds 8 1034 80 10000 7.02 300 11:21 18.12.2021
6453 Clouds 7 1035 100 10000 5.66 310 09:37 18.12.2021
6454 Clouds 7 1035 100 8000 8.75 310 08:43 18.12.2021
6455 Clouds 7 1035 93 10000 7.72 290 08:19 18.12.2021
6456 Clouds 7 1036 91 10000 4.19 307 02:20 18.12.2021
6457 Clouds 7 1037 87 10000 5.29 307 00:27 18.12.2021
6458 Clouds 7 1037 100 10000 7.72 320 23:39 17.12.2021
6459 Clouds 7 1037 100 10000 6.69 300 21:56 17.12.2021
6460 Clouds 7 1037 100 10000 5.66 300 20:58 17.12.2021
6461 Clouds 7 1037 100 10000 5.66 300 20:38 17.12.2021
6462 Clouds 7 1038 100 10000 5.14 300 19:18 17.12.2021
6463 Clouds 7 1038 100 10000 5.14 300 18:38 17.12.2021
6464 Clouds 7 1037 96 10000 4.41 316 17:26 17.12.2021
6465 Clouds 7 1037 100 7000 4.12 290 16:44 17.12.2021
6466 Clouds 7 1037 96 10000 4.42 315 16:21 17.12.2021
6467 Clouds 7 1037 97 10000 4.42 303 15:21 17.12.2021
6468 Clouds 7 1037 97 10000 4.42 303 15:21 17.12.2021
6469 Clouds 7 1037 100 10000 6.69 290 14:39 17.12.2021
6470 Clouds 7 1037 100 10000 7.2 290 12:46 17.12.2021
6471 Clouds 7 1037 100 7000 5.14 290 11:34 17.12.2021
6472 Clouds 7 1037 100 2100 4.12 280 10:37 17.12.2021
6473 Clouds 6 1037 98 10000 3.6 287 09:31 17.12.2021
6474 Clear 6 1037 97 10000 3.48 287 08:30 17.12.2021
6475 Clear 5 1037 100 7000 6.69 280 05:58 17.12.2021
6476 Clear 6 1037 93 9000 5.66 290 02:53 17.12.2021
6477 Clear 5 1036 91 10000 3.18 281 23:25 16.12.2021
6478 Clear 5 1036 91 10000 3.29 276 22:24 16.12.2021
6479 Clear 5 1037 93 7000 6.69 270 21:50 16.12.2021
6480 Clear 5 1036 90 10000 3.77 284 21:25 16.12.2021
6481 Clear 5 1036 90 10000 4.47 288 20:30 16.12.2021
6482 Clear 5 1036 100 6000 5.14 270 19:42 16.12.2021
6483 Clouds 5 1036 100 10000 6.17 280 18:38 16.12.2021
6484 Clouds 6 1035 93 10000 6.17 290 17:56 16.12.2021
6485 Clouds 6 1036 88 10000 4.9 295 17:30 16.12.2021
6486 Clouds 7 1035 89 10000 4.23 291 16:21 16.12.2021
6487 Clouds 8 1034 87 10000 5.66 260 14:50 16.12.2021
6488 Clouds 8 1034 79 10000 3.77 297 13:25 16.12.2021
6489 Clouds 7 1034 85 10000 3.13 292 11:20 16.12.2021
6490 Clouds 7 1033 100 10000 4.12 270 10:59 16.12.2021
6491 Clouds 7 1033 89 10000 3.07 292 10:20 16.12.2021
6492 Clouds 8 1031 93 10000 5.14 310 07:48 16.12.2021
6493 Clouds 8 1030 95 10000 3.31 294 06:21 16.12.2021
6494 Clouds 9 1028 95 10000 4.34 269 01:25 16.12.2021
6495 Clouds 8 1028 95 10000 4.8 271 23:33 15.12.2021
6496 Clouds 9 1026 93 5000 7.72 260 22:43 15.12.2021
6497 Clouds 9 1026 93 10000 8.23 260 21:56 15.12.2021
6498 Clouds 9 1026 92 10000 6.45 263 21:27 15.12.2021
6499 Clouds 9 1025 87 10000 7.72 260 20:18 15.12.2021
6500 Clouds 9 1025 87 10000 7.72 260 19:50 15.12.2021
6501 Clouds 8 1025 87 10000 7.2 260 18:37 15.12.2021
6502 Clouds 9 1025 87 10000 10.29 260 17:54 15.12.2021
6503 Clouds 9 1025 87 10000 10.29 260 17:36 15.12.2021
6504 Clouds 9 1025 94 10000 6.72 251 16:28 15.12.2021
6505 Clouds 9 1024 87 10000 9.77 260 15:47 15.12.2021
6506 Clear 9 1024 90 10000 6.71 247 15:27 15.12.2021
6507 Clear 9 1024 87 10000 7.2 249 14:29 15.12.2021
6508 Clouds 9 1024 81 10000 9.77 260 12:46 15.12.2021
6509 Clouds 9 1024 81 10000 9.77 260 12:46 15.12.2021
6510 Clouds 9 1024 93 10000 10.29 250 10:44 15.12.2021
6511 Clouds 9 1023 93 10000 8.23 250 08:55 15.12.2021
6512 Clouds 9 1023 93 10000 8.75 250 07:43 15.12.2021
6513 Clouds 8 1023 93 10000 8.23 250 01:35 15.12.2021
6514 Clouds 8 1023 93 10000 6.69 240 23:42 14.12.2021
6515 Clouds 8 1022 93 10000 5.14 230 22:49 14.12.2021
6516 Clouds 7 1023 98 10000 4.99 223 22:25 14.12.2021
6517 Clouds 7 1023 93 10000 4.12 210 20:57 14.12.2021
6518 Clouds 6 1023 93 10000 4.12 210 19:44 14.12.2021
6519 Clouds 6 1023 93 10000 4.12 210 19:44 14.12.2021
6520 Clouds 6 1023 97 10000 3.56 213 19:20 14.12.2021
6521 Clouds 6 1024 94 10000 3.03 214 18:29 14.12.2021
6522 Clouds 6 1023 93 10000 4.63 230 17:34 14.12.2021
6523 Clouds 6 1023 93 10000 3.6 210 16:43 14.12.2021
6524 Clouds 6 1023 87 10000 2.57 230 15:41 14.12.2021
6525 Clouds 7 1024 88 10000 2.23 246 13:32 14.12.2021
6526 Clouds 7 1023 89 10000 1.9 271 12:27 14.12.2021
6527 Clouds 6 1023 92 10000 2.03 287 11:24 14.12.2021
6528 Clouds 6 1023 94 10000 2.14 284 10:25 14.12.2021
6529 Clouds 6 1022 100 10000 3.09 300 09:53 14.12.2021
6530 Clouds 7 1021 90 10000 2.17 348 08:29 14.12.2021
6531 Clouds 7 1020 93 4500 7.72 280 07:59 14.12.2021
6532 Clouds 8 1020 93 4300 8.23 240 05:52 14.12.2021
6533 Clouds 9 1022 93 2200 6.17 240 23:39 13.12.2021
6534 Clouds 8 1022 100 2600 6.69 240 21:54 13.12.2021
6535 Clouds 8 1022 100 2600 6.69 240 21:34 13.12.2021
6536 Clouds 8 1022 100 5000 6.17 240 20:50 13.12.2021
6537 Clouds 8 1022 100 4500 6.17 240 19:59 13.12.2021
6538 Clouds 9 1023 93 10000 5.49 231 19:20 13.12.2021
6539 Clouds 8 1023 95 10000 5.68 235 17:26 13.12.2021
6540 Clouds 9 1023 94 10000 5.82 233 16:23 13.12.2021
6541 Clouds 9 1022 93 10000 7.2 250 15:43 13.12.2021
6542 Clouds 9 1022 93 10000 6.69 250 13:52 13.12.2021
6543 Clouds 9 1022 87 10000 7.72 250 13:18 13.12.2021
6544 Clouds 9 1022 87 10000 7.72 250 12:36 13.12.2021
6545 Clouds 9 1022 93 10000 5.14 240 11:40 13.12.2021
6546 Clouds 9 1022 100 10000 4.63 230 11:19 13.12.2021
6547 Clouds 8 1022 93 10000 3.85 222 10:21 13.12.2021
6548 Clouds 8 1022 93 10000 3.85 239 08:31 13.12.2021
6549 Clouds 8 1021 100 500 3.09 210 05:38 13.12.2021
6550 Clouds 7 1020 100 3000 2.06 210 03:57 13.12.2021
6551 Clouds 8 1020 100 10000 4.12 260 23:43 12.12.2021
6552 Clouds 7 1019 100 10000 6.17 280 21:56 12.12.2021
6553 Clouds 7 1018 100 10000 5.66 280 20:46 12.12.2021
6554 Clouds 8 1018 93 10000 6.17 290 19:34 12.12.2021
6555 Clouds 8 1017 93 10000 8.23 280 17:54 12.12.2021
6556 Clouds 7 1017 98 5939 3.84 237 16:29 12.12.2021
6557 Clouds 7 1015 100 8000 6.69 250 15:53 12.12.2021
6558 Clouds 7 1016 98 337 4.7 226 15:28 12.12.2021
6559 Clouds 7 1015 93 2700 5.14 230 14:42 12.12.2021
6560 Clouds 6 1014 93 3200 6.69 200 13:47 12.12.2021
6561 Clouds 5 1014 93 5000 5.66 210 12:48 12.12.2021
6562 Clouds 5 1015 93 3700 5.14 200 11:45 12.12.2021
6563 Clouds 5 1015 93 3700 5.14 200 11:45 12.12.2021
6564 Clouds 4 1016 95 10000 6.72 198 11:25 12.12.2021
6565 Clouds 4 1015 100 7000 5.14 190 10:43 12.12.2021
6566 Clouds 4 1016 93 4700 6.17 180 09:48 12.12.2021
6567 Clouds 4 1016 93 6000 4.63 170 08:44 12.12.2021
6568 Rain 3 1017 100 5000 5.14 190 06:55 12.12.2021
6569 Rain 3 1017 96 10000 4.41 196 05:28 12.12.2021
6570 Rain 3 1017 100 4400 5.66 200 04:18 12.12.2021
6571 Snow 1 1017 100 3700 2.57 170 00:45 12.12.2021
6572 Clouds 1 1016 100 1500 2.06 210 22:56 11.12.2021
6573 Clouds 2 1017 92 10000 1.48 216 22:20 11.12.2021
6574 Clouds 1 1016 92 10000 0.89 238 21:26 11.12.2021
6575 Clouds 1 1015 100 2800 2.57 240 19:50 11.12.2021
6576 Clouds 1 1015 94 10000 0.46 289 19:21 11.12.2021
6577 Clouds 1 1014 100 6000 2.06 270 18:42 11.12.2021
6578 Clouds 2 1013 100 7000 2.57 280 17:48 11.12.2021
6579 Clouds 4 1012 87 10000 3.09 260 15:58 11.12.2021
6580 Clouds 4 1012 87 10000 3.09 260 15:40 11.12.2021
6581 Clouds 4 1011 87 10000 3.09 260 14:35 11.12.2021
6582 Clouds 3 1010 82 10000 3.8 250 12:29 11.12.2021
6583 Clouds 2 1010 83 10000 3.21 240 10:50 11.12.2021
6584 Clouds 1 1008 100 4100 2.06 210 09:43 11.12.2021
6585 Clouds 1 1005 93 7000 3.6 300 03:58 11.12.2021
6586 Clouds 1 1003 93 5000 1.54 330 00:48 11.12.2021
6587 Clouds 2 1002 93 5000 2.57 350 23:44 10.12.2021
6588 Clouds 2 1001 93 3400 1.03 360 22:47 10.12.2021
6589 Clouds 2 1000 100 5000 0.51 60 21:41 10.12.2021
6590 Clouds 2 1000 83 10000 0.6 80 20:28 10.12.2021
6591 Clouds 3 999 93 9000 2.57 50 19:19 10.12.2021
6592 Clouds 3 998 93 10000 2.57 80 17:50 10.12.2021
6593 Clouds 3 998 93 9000 2.06 70 16:39 10.12.2021
6594 Clouds 3 997 81 10000 1.54 100 15:45 10.12.2021
6595 Clouds 3 998 84 10000 2.42 103 15:27 10.12.2021
6596 Clouds 3 997 81 10000 1.54 120 14:49 10.12.2021
6597 Clouds 3 997 75 10000 3.09 110 13:50 10.12.2021
6598 Clouds 3 997 81 10000 3.6 110 12:56 10.12.2021
6599 Clouds 3 997 93 9000 3.6 120 11:43 10.12.2021
6600 Clouds 2 997 93 7000 3.09 130 11:19 10.12.2021
6601 Clouds 2 997 93 7000 4.12 130 09:53 10.12.2021
6602 Clouds 1 998 89 10000 4.04 125 08:23 10.12.2021
6603 Clouds 2 998 93 5000 4.12 150 04:58 10.12.2021
6604 Clouds 2 999 93 4900 4.12 150 02:47 10.12.2021
6605 Clouds 1 1001 100 3500 5.14 160 23:43 09.12.2021
6606 Rain 1 1002 100 3100 4.12 150 22:49 09.12.2021
6607 Clouds 1 1002 94 10000 3.94 144 22:23 09.12.2021
6608 Clouds 1 1002 94 10000 3.94 144 22:23 09.12.2021
6609 Clouds 1 1002 100 2200 2.06 170 21:40 09.12.2021
6610 Clouds 1 1002 93 3100 3.09 160 20:40 09.12.2021
6611 Clouds 1 1003 93 5000 3.6 150 19:46 09.12.2021
6612 Clouds 1 1003 94 10000 3.64 150 19:21 09.12.2021
6613 Clouds 1 1003 93 10000 3.66 137 18:25 09.12.2021
6614 Clouds 1 1003 93 5000 3.09 130 17:51 09.12.2021
6615 Clouds 1 1004 93 10000 3.85 138 17:25 09.12.2021
6616 Clouds 1 1003 93 5000 3.09 150 16:51 09.12.2021
6617 Clouds 2 1004 93 10000 3.61 138 15:31 09.12.2021
6618 Clouds 2 1003 87 7000 4.63 140 14:44 09.12.2021
6619 Clouds 1 1004 93 7000 3.6 140 13:18 09.12.2021
6620 Clouds 1 1004 93 7000 3.6 140 12:34 09.12.2021
6621 Clouds 1 1004 93 7000 3.6 140 10:58 09.12.2021
6622 Clouds 1 1004 93 6000 4.63 140 08:49 09.12.2021
6623 Clouds 1 1003 93 7000 3.09 130 06:19 09.12.2021
6624 Clouds 1 1003 87 10000 5.66 140 02:58 09.12.2021
6625 Clouds 2 1003 87 10000 4.63 150 23:43 08.12.2021
6626 Clouds 1 1004 96 10000 4.47 126 23:21 08.12.2021
6627 Clouds 1 1002 87 10000 3.6 140 22:46 08.12.2021
6628 Clouds 2 1002 87 10000 4.63 140 21:40 08.12.2021
6629 Clouds 2 1002 93 9000 5.66 140 20:59 08.12.2021
6630 Clouds 2 1001 93 8000 6.17 140 19:58 08.12.2021
6631 Clouds 2 1001 93 8000 6.17 140 19:58 08.12.2021
6632 Clouds 2 1001 93 8000 6.17 140 19:33 08.12.2021
6633 Clouds 2 1001 93 10000 5.14 140 18:40 08.12.2021
6634 Clouds 3 1000 87 10000 4.63 150 17:36 08.12.2021
6635 Clouds 2 1002 96 10000 5.16 133 17:36 08.12.2021
6636 Clouds 3 999 87 10000 5.66 160 15:49 08.12.2021
6637 Clouds 3 1000 95 10000 5.46 140 15:28 08.12.2021
6638 Clouds 3 1000 95 10000 5.46 140 14:31 08.12.2021
6639 Rain 1 998 93 8000 8.23 150 11:19 08.12.2021
6640 Rain 1 999 98 93 7.54 148 10:31 08.12.2021